<?xml version="1.0" encoding="UTF-8" standalone="no" ?>
<gpx xmlns="http://www.topografix.com/GPX/1/1" xmlns:xsi="http://www.w3.org/2001/XMLSchema-instance" xsi:schemaLocation="http://www.topografix.com/GPX/1/1 http://www.topografix.com/GPX/1/1/gpx.xsd" version="1.1" creator="VisuGPX - https://www.visugpx.com">
  <metadata>
    <name>Col du Va , Dzonfie Quermoz-2021-01-05</name>
    <desc><![CDATA[Errance vers le Quermoz.]]></desc>
  </metadata>
  <trk>
    <name><![CDATA[TRK-2021-01-05]]></name>
    <trkseg>
      <trkpt lat="45.55309" lon="6.53163">
        <ele>1614.3315</ele>
        <time>2021-01-05T09:16:22</time>
      </trkpt>
      <trkpt lat="45.5531" lon="6.53163">
        <ele>1614.8726</ele>
        <time>2021-01-05T09:16:52</time>
      </trkpt>
      <trkpt lat="45.5531" lon="6.53163">
        <ele>1615.0981</ele>
        <time>2021-01-05T09:17:22</time>
      </trkpt>
      <trkpt lat="45.5531" lon="6.53163">
        <ele>1615.0166</ele>
        <time>2021-01-05T09:17:53</time>
      </trkpt>
      <trkpt lat="45.5531" lon="6.53162">
        <ele>1613.9968</ele>
        <time>2021-01-05T09:18:03</time>
      </trkpt>
      <trkpt lat="45.5531" lon="6.53162">
        <ele>1615.1531</ele>
        <time>2021-01-05T09:18:04</time>
      </trkpt>
      <trkpt lat="45.5531" lon="6.53162">
        <ele>1615.2925</ele>
        <time>2021-01-05T09:18:05</time>
      </trkpt>
      <trkpt lat="45.55313" lon="6.53162">
        <ele>1619.5962</ele>
        <time>2021-01-05T09:19:18</time>
      </trkpt>
      <trkpt lat="45.55317" lon="6.53163">
        <ele>1620.3643</ele>
        <time>2021-01-05T09:19:19</time>
      </trkpt>
      <trkpt lat="45.55318" lon="6.53162">
        <ele>1619.6504</ele>
        <time>2021-01-05T09:20:54</time>
      </trkpt>
      <trkpt lat="45.55318" lon="6.53162">
        <ele>1618.3955</ele>
        <time>2021-01-05T09:20:55</time>
      </trkpt>
      <trkpt lat="45.55318" lon="6.53163">
        <ele>1619.4819</ele>
        <time>2021-01-05T09:20:59</time>
      </trkpt>
      <trkpt lat="45.55317" lon="6.53162">
        <ele>1620.2656</ele>
        <time>2021-01-05T09:21:00</time>
      </trkpt>
      <trkpt lat="45.55317" lon="6.53162">
        <ele>1620.5442</ele>
        <time>2021-01-05T09:21:01</time>
      </trkpt>
      <trkpt lat="45.55316" lon="6.53161">
        <ele>1619.4644</ele>
        <time>2021-01-05T09:21:34</time>
      </trkpt>
      <trkpt lat="45.55316" lon="6.53161">
        <ele>1619.6443</ele>
        <time>2021-01-05T09:22:19</time>
      </trkpt>
      <trkpt lat="45.55316" lon="6.53163">
        <ele>1619.0889</ele>
        <time>2021-01-05T09:22:30</time>
      </trkpt>
      <trkpt lat="45.55316" lon="6.53163">
        <ele>1620.02</ele>
        <time>2021-01-05T09:22:31</time>
      </trkpt>
      <trkpt lat="45.55315" lon="6.53164">
        <ele>1620.4248</ele>
        <time>2021-01-05T09:22:32</time>
      </trkpt>
      <trkpt lat="45.55315" lon="6.53165">
        <ele>1619.8594</ele>
        <time>2021-01-05T09:22:33</time>
      </trkpt>
      <trkpt lat="45.55315" lon="6.53169">
        <ele>1618.1431</ele>
        <time>2021-01-05T09:22:36</time>
      </trkpt>
      <trkpt lat="45.55315" lon="6.53169">
        <ele>1617.6719</ele>
        <time>2021-01-05T09:22:37</time>
      </trkpt>
      <trkpt lat="45.55315" lon="6.53171">
        <ele>1617.894</ele>
        <time>2021-01-05T09:22:39</time>
      </trkpt>
      <trkpt lat="45.55316" lon="6.53176">
        <ele>1618.5388</ele>
        <time>2021-01-05T09:22:43</time>
      </trkpt>
      <trkpt lat="45.55317" lon="6.53177">
        <ele>1617.5674</ele>
        <time>2021-01-05T09:22:44</time>
      </trkpt>
      <trkpt lat="45.55318" lon="6.53183">
        <ele>1617.1885</ele>
        <time>2021-01-05T09:22:50</time>
      </trkpt>
      <trkpt lat="45.55318" lon="6.53184">
        <ele>1617.6602</ele>
        <time>2021-01-05T09:22:54</time>
      </trkpt>
      <trkpt lat="45.55319" lon="6.5319">
        <ele>1619.603</ele>
        <time>2021-01-05T09:22:59</time>
      </trkpt>
      <trkpt lat="45.55319" lon="6.5319">
        <ele>1620.199</ele>
        <time>2021-01-05T09:23:04</time>
      </trkpt>
      <trkpt lat="45.5532" lon="6.53192">
        <ele>1622.5137</ele>
        <time>2021-01-05T09:23:05</time>
      </trkpt>
      <trkpt lat="45.55329" lon="6.53204">
        <ele>1619.8198</ele>
        <time>2021-01-05T09:23:14</time>
      </trkpt>
      <trkpt lat="45.55335" lon="6.5321">
        <ele>1621.8491</ele>
        <time>2021-01-05T09:23:21</time>
      </trkpt>
      <trkpt lat="45.55339" lon="6.53214">
        <ele>1623.1077</ele>
        <time>2021-01-05T09:23:25</time>
      </trkpt>
      <trkpt lat="45.55346" lon="6.53221">
        <ele>1624.846</ele>
        <time>2021-01-05T09:23:38</time>
      </trkpt>
      <trkpt lat="45.55347" lon="6.53224">
        <ele>1621.9519</ele>
        <time>2021-01-05T09:23:41</time>
      </trkpt>
      <trkpt lat="45.55352" lon="6.53232">
        <ele>1623.2144</ele>
        <time>2021-01-05T09:23:49</time>
      </trkpt>
      <trkpt lat="45.55358" lon="6.53241">
        <ele>1628.0205</ele>
        <time>2021-01-05T09:24:00</time>
      </trkpt>
      <trkpt lat="45.55358" lon="6.53243">
        <ele>1624.8218</ele>
        <time>2021-01-05T09:24:01</time>
      </trkpt>
      <trkpt lat="45.5536" lon="6.53244">
        <ele>1625.3948</ele>
        <time>2021-01-05T09:24:04</time>
      </trkpt>
      <trkpt lat="45.55366" lon="6.53249">
        <ele>1621.9146</ele>
        <time>2021-01-05T09:24:12</time>
      </trkpt>
      <trkpt lat="45.55369" lon="6.53251">
        <ele>1620.4131</ele>
        <time>2021-01-05T09:24:14</time>
      </trkpt>
      <trkpt lat="45.55376" lon="6.53255">
        <ele>1618.3472</ele>
        <time>2021-01-05T09:24:18</time>
      </trkpt>
      <trkpt lat="45.55382" lon="6.53255">
        <ele>1616.6089</ele>
        <time>2021-01-05T09:24:22</time>
      </trkpt>
      <trkpt lat="45.55387" lon="6.53256">
        <ele>1615.7837</ele>
        <time>2021-01-05T09:24:26</time>
      </trkpt>
      <trkpt lat="45.55389" lon="6.5326">
        <ele>1616.562</ele>
        <time>2021-01-05T09:24:30</time>
      </trkpt>
      <trkpt lat="45.55389" lon="6.53261">
        <ele>1616.7495</ele>
        <time>2021-01-05T09:24:32</time>
      </trkpt>
      <trkpt lat="45.55389" lon="6.53261">
        <ele>1615.8169</ele>
        <time>2021-01-05T09:24:33</time>
      </trkpt>
      <trkpt lat="45.55389" lon="6.53262">
        <ele>1616.3997</ele>
        <time>2021-01-05T09:24:34</time>
      </trkpt>
      <trkpt lat="45.55389" lon="6.53263">
        <ele>1616.9062</ele>
        <time>2021-01-05T09:24:35</time>
      </trkpt>
      <trkpt lat="45.55397" lon="6.53271">
        <ele>1620.4998</ele>
        <time>2021-01-05T09:24:45</time>
      </trkpt>
      <trkpt lat="45.55398" lon="6.53274">
        <ele>1618.689</ele>
        <time>2021-01-05T09:24:47</time>
      </trkpt>
      <trkpt lat="45.55409" lon="6.53286">
        <ele>1621.1724</ele>
        <time>2021-01-05T09:25:06</time>
      </trkpt>
      <trkpt lat="45.55413" lon="6.5329">
        <ele>1620.8093</ele>
        <time>2021-01-05T09:25:10</time>
      </trkpt>
      <trkpt lat="45.55413" lon="6.5329">
        <ele>1621.2817</ele>
        <time>2021-01-05T09:25:11</time>
      </trkpt>
      <trkpt lat="45.55414" lon="6.5329">
        <ele>1621.9556</ele>
        <time>2021-01-05T09:25:12</time>
      </trkpt>
      <trkpt lat="45.55418" lon="6.53293">
        <ele>1624.282</ele>
        <time>2021-01-05T09:25:19</time>
      </trkpt>
      <trkpt lat="45.55423" lon="6.53296">
        <ele>1624.1855</ele>
        <time>2021-01-05T09:25:24</time>
      </trkpt>
      <trkpt lat="45.55426" lon="6.53298">
        <ele>1625.69</ele>
        <time>2021-01-05T09:25:28</time>
      </trkpt>
      <trkpt lat="45.5543" lon="6.53305">
        <ele>1625.6731</ele>
        <time>2021-01-05T09:25:38</time>
      </trkpt>
      <trkpt lat="45.55431" lon="6.53306">
        <ele>1625.9233</ele>
        <time>2021-01-05T09:25:40</time>
      </trkpt>
      <trkpt lat="45.55432" lon="6.53307">
        <ele>1626.3638</ele>
        <time>2021-01-05T09:25:42</time>
      </trkpt>
      <trkpt lat="45.55432" lon="6.53307">
        <ele>1626.9375</ele>
        <time>2021-01-05T09:25:47</time>
      </trkpt>
      <trkpt lat="45.55432" lon="6.53308">
        <ele>1626.6975</ele>
        <time>2021-01-05T09:25:48</time>
      </trkpt>
      <trkpt lat="45.55433" lon="6.53309">
        <ele>1627.3716</ele>
        <time>2021-01-05T09:25:50</time>
      </trkpt>
      <trkpt lat="45.55435" lon="6.53312">
        <ele>1628.5532</ele>
        <time>2021-01-05T09:25:53</time>
      </trkpt>
      <trkpt lat="45.55435" lon="6.53312">
        <ele>1626.3652</ele>
        <time>2021-01-05T09:25:56</time>
      </trkpt>
      <trkpt lat="45.55435" lon="6.53313">
        <ele>1625.0288</ele>
        <time>2021-01-05T09:25:57</time>
      </trkpt>
      <trkpt lat="45.55437" lon="6.53316">
        <ele>1626.2661</ele>
        <time>2021-01-05T09:25:59</time>
      </trkpt>
      <trkpt lat="45.55437" lon="6.53318">
        <ele>1625.5532</ele>
        <time>2021-01-05T09:26:01</time>
      </trkpt>
      <trkpt lat="45.55438" lon="6.5332">
        <ele>1627.8892</ele>
        <time>2021-01-05T09:26:06</time>
      </trkpt>
      <trkpt lat="45.55442" lon="6.53325">
        <ele>1630.1143</ele>
        <time>2021-01-05T09:26:09</time>
      </trkpt>
      <trkpt lat="45.55442" lon="6.53334">
        <ele>1630.79</ele>
        <time>2021-01-05T09:26:19</time>
      </trkpt>
      <trkpt lat="45.55442" lon="6.53335">
        <ele>1630.4109</ele>
        <time>2021-01-05T09:26:20</time>
      </trkpt>
      <trkpt lat="45.55442" lon="6.53336">
        <ele>1630.1387</ele>
        <time>2021-01-05T09:26:21</time>
      </trkpt>
      <trkpt lat="45.55442" lon="6.53336">
        <ele>1631.0332</ele>
        <time>2021-01-05T09:26:23</time>
      </trkpt>
      <trkpt lat="45.55442" lon="6.53337">
        <ele>1631.4045</ele>
        <time>2021-01-05T09:26:24</time>
      </trkpt>
      <trkpt lat="45.55442" lon="6.53338">
        <ele>1632.135</ele>
        <time>2021-01-05T09:26:27</time>
      </trkpt>
      <trkpt lat="45.55442" lon="6.53339">
        <ele>1631.5176</ele>
        <time>2021-01-05T09:26:29</time>
      </trkpt>
      <trkpt lat="45.55442" lon="6.5334">
        <ele>1632.4907</ele>
        <time>2021-01-05T09:26:34</time>
      </trkpt>
      <trkpt lat="45.55442" lon="6.53343">
        <ele>1631.2837</ele>
        <time>2021-01-05T09:26:36</time>
      </trkpt>
      <trkpt lat="45.55442" lon="6.53345">
        <ele>1630.7668</ele>
        <time>2021-01-05T09:26:37</time>
      </trkpt>
      <trkpt lat="45.5544" lon="6.53349">
        <ele>1630.8965</ele>
        <time>2021-01-05T09:26:41</time>
      </trkpt>
      <trkpt lat="45.5544" lon="6.53349">
        <ele>1630.8589</ele>
        <time>2021-01-05T09:26:43</time>
      </trkpt>
      <trkpt lat="45.55439" lon="6.5335">
        <ele>1632.0654</ele>
        <time>2021-01-05T09:26:44</time>
      </trkpt>
      <trkpt lat="45.55437" lon="6.53351">
        <ele>1641.0869</ele>
        <time>2021-01-05T09:26:50</time>
      </trkpt>
      <trkpt lat="45.55437" lon="6.53351">
        <ele>1641.2793</ele>
        <time>2021-01-05T09:26:51</time>
      </trkpt>
      <trkpt lat="45.55436" lon="6.53352">
        <ele>1642.1353</ele>
        <time>2021-01-05T09:26:53</time>
      </trkpt>
      <trkpt lat="45.55431" lon="6.53355">
        <ele>1643.646</ele>
        <time>2021-01-05T09:27:01</time>
      </trkpt>
      <trkpt lat="45.5543" lon="6.53357">
        <ele>1647.5542</ele>
        <time>2021-01-05T09:27:05</time>
      </trkpt>
      <trkpt lat="45.55431" lon="6.53359">
        <ele>1647.8665</ele>
        <time>2021-01-05T09:27:09</time>
      </trkpt>
      <trkpt lat="45.55431" lon="6.53359">
        <ele>1647.9932</ele>
        <time>2021-01-05T09:27:10</time>
      </trkpt>
      <trkpt lat="45.55432" lon="6.5336">
        <ele>1648.459</ele>
        <time>2021-01-05T09:27:11</time>
      </trkpt>
      <trkpt lat="45.55433" lon="6.53361">
        <ele>1646.9512</ele>
        <time>2021-01-05T09:27:16</time>
      </trkpt>
      <trkpt lat="45.55434" lon="6.53363">
        <ele>1645.9307</ele>
        <time>2021-01-05T09:27:19</time>
      </trkpt>
      <trkpt lat="45.55434" lon="6.53364">
        <ele>1644.3223</ele>
        <time>2021-01-05T09:27:20</time>
      </trkpt>
      <trkpt lat="45.55439" lon="6.53367">
        <ele>1644.8223</ele>
        <time>2021-01-05T09:27:28</time>
      </trkpt>
      <trkpt lat="45.5544" lon="6.53367">
        <ele>1644.0786</ele>
        <time>2021-01-05T09:27:31</time>
      </trkpt>
      <trkpt lat="45.55442" lon="6.5337">
        <ele>1644.1848</ele>
        <time>2021-01-05T09:27:35</time>
      </trkpt>
      <trkpt lat="45.55442" lon="6.53376">
        <ele>1646.1533</ele>
        <time>2021-01-05T09:27:38</time>
      </trkpt>
      <trkpt lat="45.55443" lon="6.53383">
        <ele>1650.456</ele>
        <time>2021-01-05T09:27:44</time>
      </trkpt>
      <trkpt lat="45.55443" lon="6.53383">
        <ele>1649.0923</ele>
        <time>2021-01-05T09:27:47</time>
      </trkpt>
      <trkpt lat="45.5544" lon="6.53392">
        <ele>1650.8369</ele>
        <time>2021-01-05T09:27:54</time>
      </trkpt>
      <trkpt lat="45.5544" lon="6.53393">
        <ele>1650.436</ele>
        <time>2021-01-05T09:27:56</time>
      </trkpt>
      <trkpt lat="45.5544" lon="6.53394">
        <ele>1650.9873</ele>
        <time>2021-01-05T09:27:56</time>
      </trkpt>
      <trkpt lat="45.5544" lon="6.53395">
        <ele>1651.5718</ele>
        <time>2021-01-05T09:28:02</time>
      </trkpt>
      <trkpt lat="45.55441" lon="6.53396">
        <ele>1651.3682</ele>
        <time>2021-01-05T09:28:03</time>
      </trkpt>
      <trkpt lat="45.55441" lon="6.53397">
        <ele>1651.9863</ele>
        <time>2021-01-05T09:28:04</time>
      </trkpt>
      <trkpt lat="45.55442" lon="6.53396">
        <ele>1652.8438</ele>
        <time>2021-01-05T09:28:08</time>
      </trkpt>
      <trkpt lat="45.55443" lon="6.53396">
        <ele>1653.5122</ele>
        <time>2021-01-05T09:28:09</time>
      </trkpt>
      <trkpt lat="45.55445" lon="6.53404">
        <ele>1649.3218</ele>
        <time>2021-01-05T09:28:14</time>
      </trkpt>
      <trkpt lat="45.55449" lon="6.53409">
        <ele>1651.9441</ele>
        <time>2021-01-05T09:28:18</time>
      </trkpt>
      <trkpt lat="45.55452" lon="6.53411">
        <ele>1649.581</ele>
        <time>2021-01-05T09:28:22</time>
      </trkpt>
      <trkpt lat="45.55456" lon="6.53416">
        <ele>1649.2788</ele>
        <time>2021-01-05T09:28:27</time>
      </trkpt>
      <trkpt lat="45.55457" lon="6.53417">
        <ele>1648.249</ele>
        <time>2021-01-05T09:28:29</time>
      </trkpt>
      <trkpt lat="45.55464" lon="6.5342">
        <ele>1650.9956</ele>
        <time>2021-01-05T09:28:37</time>
      </trkpt>
      <trkpt lat="45.55468" lon="6.53422">
        <ele>1658.6414</ele>
        <time>2021-01-05T09:28:47</time>
      </trkpt>
      <trkpt lat="45.55468" lon="6.53421">
        <ele>1657.584</ele>
        <time>2021-01-05T09:28:49</time>
      </trkpt>
      <trkpt lat="45.5548" lon="6.53434">
        <ele>1656.4253</ele>
        <time>2021-01-05T09:29:06</time>
      </trkpt>
      <trkpt lat="45.55482" lon="6.53437">
        <ele>1656.3281</ele>
        <time>2021-01-05T09:29:09</time>
      </trkpt>
      <trkpt lat="45.55484" lon="6.5344">
        <ele>1656.1646</ele>
        <time>2021-01-05T09:29:12</time>
      </trkpt>
      <trkpt lat="45.55484" lon="6.53441">
        <ele>1655.5605</ele>
        <time>2021-01-05T09:29:13</time>
      </trkpt>
      <trkpt lat="45.55485" lon="6.53442">
        <ele>1657.5679</ele>
        <time>2021-01-05T09:29:16</time>
      </trkpt>
      <trkpt lat="45.55486" lon="6.53446">
        <ele>1659.2383</ele>
        <time>2021-01-05T09:29:19</time>
      </trkpt>
      <trkpt lat="45.55487" lon="6.53447">
        <ele>1659.4578</ele>
        <time>2021-01-05T09:29:22</time>
      </trkpt>
      <trkpt lat="45.55492" lon="6.53453">
        <ele>1659.4897</ele>
        <time>2021-01-05T09:29:28</time>
      </trkpt>
      <trkpt lat="45.55494" lon="6.53457">
        <ele>1661.1611</ele>
        <time>2021-01-05T09:29:31</time>
      </trkpt>
      <trkpt lat="45.55495" lon="6.53458">
        <ele>1663.1948</ele>
        <time>2021-01-05T09:29:32</time>
      </trkpt>
      <trkpt lat="45.55495" lon="6.53458">
        <ele>1664.168</ele>
        <time>2021-01-05T09:29:34</time>
      </trkpt>
      <trkpt lat="45.55497" lon="6.5346">
        <ele>1665.7339</ele>
        <time>2021-01-05T09:29:37</time>
      </trkpt>
      <trkpt lat="45.55497" lon="6.53461">
        <ele>1664.8445</ele>
        <time>2021-01-05T09:29:39</time>
      </trkpt>
      <trkpt lat="45.55498" lon="6.53462">
        <ele>1664.6396</ele>
        <time>2021-01-05T09:29:42</time>
      </trkpt>
      <trkpt lat="45.55498" lon="6.53465">
        <ele>1664.1406</ele>
        <time>2021-01-05T09:29:44</time>
      </trkpt>
      <trkpt lat="45.55499" lon="6.53466">
        <ele>1664.5806</ele>
        <time>2021-01-05T09:29:47</time>
      </trkpt>
      <trkpt lat="45.555" lon="6.53469">
        <ele>1663.6018</ele>
        <time>2021-01-05T09:29:49</time>
      </trkpt>
      <trkpt lat="45.55501" lon="6.53471">
        <ele>1664.4937</ele>
        <time>2021-01-05T09:29:55</time>
      </trkpt>
      <trkpt lat="45.55503" lon="6.53476">
        <ele>1665.0435</ele>
        <time>2021-01-05T09:29:58</time>
      </trkpt>
      <trkpt lat="45.55504" lon="6.53487">
        <ele>1667.5898</ele>
        <time>2021-01-05T09:30:07</time>
      </trkpt>
      <trkpt lat="45.55504" lon="6.53488">
        <ele>1668.0869</ele>
        <time>2021-01-05T09:30:09</time>
      </trkpt>
      <trkpt lat="45.55504" lon="6.53489">
        <ele>1667.4353</ele>
        <time>2021-01-05T09:30:10</time>
      </trkpt>
      <trkpt lat="45.55504" lon="6.53489">
        <ele>1666.707</ele>
        <time>2021-01-05T09:30:12</time>
      </trkpt>
      <trkpt lat="45.55504" lon="6.53489">
        <ele>1667.4629</ele>
        <time>2021-01-05T09:30:13</time>
      </trkpt>
      <trkpt lat="45.55504" lon="6.53489">
        <ele>1667.4116</ele>
        <time>2021-01-05T09:30:14</time>
      </trkpt>
      <trkpt lat="45.55505" lon="6.53489">
        <ele>1667.4326</ele>
        <time>2021-01-05T09:30:15</time>
      </trkpt>
      <trkpt lat="45.55505" lon="6.53489">
        <ele>1667.0369</ele>
        <time>2021-01-05T09:30:16</time>
      </trkpt>
      <trkpt lat="45.55505" lon="6.5349">
        <ele>1667.8584</ele>
        <time>2021-01-05T09:30:18</time>
      </trkpt>
      <trkpt lat="45.55505" lon="6.53492">
        <ele>1668.2183</ele>
        <time>2021-01-05T09:30:20</time>
      </trkpt>
      <trkpt lat="45.55506" lon="6.53493">
        <ele>1668.4661</ele>
        <time>2021-01-05T09:30:22</time>
      </trkpt>
      <trkpt lat="45.55508" lon="6.53497">
        <ele>1671.4282</ele>
        <time>2021-01-05T09:30:25</time>
      </trkpt>
      <trkpt lat="45.55509" lon="6.53498">
        <ele>1670.7686</ele>
        <time>2021-01-05T09:30:26</time>
      </trkpt>
      <trkpt lat="45.5551" lon="6.53501">
        <ele>1670.3992</ele>
        <time>2021-01-05T09:30:28</time>
      </trkpt>
      <trkpt lat="45.55515" lon="6.53513">
        <ele>1671.135</ele>
        <time>2021-01-05T09:30:39</time>
      </trkpt>
      <trkpt lat="45.55516" lon="6.53514">
        <ele>1673.0159</ele>
        <time>2021-01-05T09:30:47</time>
      </trkpt>
      <trkpt lat="45.55517" lon="6.53517">
        <ele>1674.0447</ele>
        <time>2021-01-05T09:30:49</time>
      </trkpt>
      <trkpt lat="45.5552" lon="6.53524">
        <ele>1671.888</ele>
        <time>2021-01-05T09:30:54</time>
      </trkpt>
      <trkpt lat="45.5552" lon="6.53524">
        <ele>1672.793</ele>
        <time>2021-01-05T09:30:55</time>
      </trkpt>
      <trkpt lat="45.55521" lon="6.53528">
        <ele>1675.3926</ele>
        <time>2021-01-05T09:30:58</time>
      </trkpt>
      <trkpt lat="45.55524" lon="6.53535">
        <ele>1673.9736</ele>
        <time>2021-01-05T09:31:03</time>
      </trkpt>
      <trkpt lat="45.55526" lon="6.53539">
        <ele>1672.542</ele>
        <time>2021-01-05T09:31:07</time>
      </trkpt>
      <trkpt lat="45.55527" lon="6.53541">
        <ele>1672.0977</ele>
        <time>2021-01-05T09:31:08</time>
      </trkpt>
      <trkpt lat="45.55528" lon="6.53543">
        <ele>1671.9199</ele>
        <time>2021-01-05T09:31:10</time>
      </trkpt>
      <trkpt lat="45.55528" lon="6.53544">
        <ele>1672.1235</ele>
        <time>2021-01-05T09:31:12</time>
      </trkpt>
      <trkpt lat="45.55529" lon="6.53545">
        <ele>1672.1572</ele>
        <time>2021-01-05T09:31:13</time>
      </trkpt>
      <trkpt lat="45.5553" lon="6.53547">
        <ele>1673.6597</ele>
        <time>2021-01-05T09:31:16</time>
      </trkpt>
      <trkpt lat="45.5553" lon="6.53549">
        <ele>1674.5493</ele>
        <time>2021-01-05T09:31:17</time>
      </trkpt>
      <trkpt lat="45.55535" lon="6.53559">
        <ele>1673.5669</ele>
        <time>2021-01-05T09:31:23</time>
      </trkpt>
      <trkpt lat="45.55538" lon="6.53565">
        <ele>1671.8706</ele>
        <time>2021-01-05T09:31:25</time>
      </trkpt>
      <trkpt lat="45.55541" lon="6.53571">
        <ele>1670.6711</ele>
        <time>2021-01-05T09:31:28</time>
      </trkpt>
      <trkpt lat="45.55542" lon="6.53572">
        <ele>1670.2354</ele>
        <time>2021-01-05T09:31:29</time>
      </trkpt>
      <trkpt lat="45.55543" lon="6.53574">
        <ele>1668.4612</ele>
        <time>2021-01-05T09:31:30</time>
      </trkpt>
      <trkpt lat="45.55544" lon="6.53576">
        <ele>1668.0181</ele>
        <time>2021-01-05T09:31:31</time>
      </trkpt>
      <trkpt lat="45.55545" lon="6.53578">
        <ele>1667.8105</ele>
        <time>2021-01-05T09:31:33</time>
      </trkpt>
      <trkpt lat="45.55545" lon="6.53579">
        <ele>1667.852</ele>
        <time>2021-01-05T09:31:35</time>
      </trkpt>
      <trkpt lat="45.55547" lon="6.53582">
        <ele>1667.1797</ele>
        <time>2021-01-05T09:31:37</time>
      </trkpt>
      <trkpt lat="45.55547" lon="6.53583">
        <ele>1668.9814</ele>
        <time>2021-01-05T09:31:38</time>
      </trkpt>
      <trkpt lat="45.5555" lon="6.53586">
        <ele>1668.8945</ele>
        <time>2021-01-05T09:31:42</time>
      </trkpt>
      <trkpt lat="45.5555" lon="6.53587">
        <ele>1668.6655</ele>
        <time>2021-01-05T09:31:48</time>
      </trkpt>
      <trkpt lat="45.55552" lon="6.53589">
        <ele>1670.3062</ele>
        <time>2021-01-05T09:31:50</time>
      </trkpt>
      <trkpt lat="45.55552" lon="6.5359">
        <ele>1671.3999</ele>
        <time>2021-01-05T09:31:51</time>
      </trkpt>
      <trkpt lat="45.55553" lon="6.53592">
        <ele>1671.3115</ele>
        <time>2021-01-05T09:31:52</time>
      </trkpt>
      <trkpt lat="45.55554" lon="6.53592">
        <ele>1671.8784</ele>
        <time>2021-01-05T09:31:53</time>
      </trkpt>
      <trkpt lat="45.55554" lon="6.53593">
        <ele>1671.603</ele>
        <time>2021-01-05T09:31:54</time>
      </trkpt>
      <trkpt lat="45.55561" lon="6.53604">
        <ele>1675.8572</ele>
        <time>2021-01-05T09:32:04</time>
      </trkpt>
      <trkpt lat="45.55561" lon="6.53605">
        <ele>1677.3359</ele>
        <time>2021-01-05T09:32:06</time>
      </trkpt>
      <trkpt lat="45.55562" lon="6.53605">
        <ele>1677.051</ele>
        <time>2021-01-05T09:32:07</time>
      </trkpt>
      <trkpt lat="45.55562" lon="6.53606">
        <ele>1676.5176</ele>
        <time>2021-01-05T09:32:08</time>
      </trkpt>
      <trkpt lat="45.55576" lon="6.53632">
        <ele>1679.3501</ele>
        <time>2021-01-05T09:32:24</time>
      </trkpt>
      <trkpt lat="45.55579" lon="6.53638">
        <ele>1678.8699</ele>
        <time>2021-01-05T09:32:27</time>
      </trkpt>
      <trkpt lat="45.5558" lon="6.5364">
        <ele>1679.1431</ele>
        <time>2021-01-05T09:32:28</time>
      </trkpt>
      <trkpt lat="45.55581" lon="6.53641">
        <ele>1679.4546</ele>
        <time>2021-01-05T09:32:29</time>
      </trkpt>
      <trkpt lat="45.55583" lon="6.53646">
        <ele>1664.5479</ele>
        <time>2021-01-05T09:32:32</time>
      </trkpt>
      <trkpt lat="45.55585" lon="6.53652">
        <ele>1676.2104</ele>
        <time>2021-01-05T09:32:37</time>
      </trkpt>
      <trkpt lat="45.55585" lon="6.53652">
        <ele>1675.8152</ele>
        <time>2021-01-05T09:32:38</time>
      </trkpt>
      <trkpt lat="45.5559" lon="6.53663">
        <ele>1676.9792</ele>
        <time>2021-01-05T09:32:46</time>
      </trkpt>
      <trkpt lat="45.5559" lon="6.53664">
        <ele>1676.1973</ele>
        <time>2021-01-05T09:32:47</time>
      </trkpt>
      <trkpt lat="45.55591" lon="6.53665">
        <ele>1676.3164</ele>
        <time>2021-01-05T09:32:48</time>
      </trkpt>
      <trkpt lat="45.55591" lon="6.53666">
        <ele>1676.2812</ele>
        <time>2021-01-05T09:32:50</time>
      </trkpt>
      <trkpt lat="45.55593" lon="6.53669">
        <ele>1676.9707</ele>
        <time>2021-01-05T09:32:53</time>
      </trkpt>
      <trkpt lat="45.55594" lon="6.5367">
        <ele>1677.7031</ele>
        <time>2021-01-05T09:32:55</time>
      </trkpt>
      <trkpt lat="45.55594" lon="6.5367">
        <ele>1678.5684</ele>
        <time>2021-01-05T09:32:56</time>
      </trkpt>
      <trkpt lat="45.55595" lon="6.53672">
        <ele>1678.5308</ele>
        <time>2021-01-05T09:33:02</time>
      </trkpt>
      <trkpt lat="45.55597" lon="6.53676">
        <ele>1680.0356</ele>
        <time>2021-01-05T09:33:06</time>
      </trkpt>
      <trkpt lat="45.55598" lon="6.53677">
        <ele>1679.8157</ele>
        <time>2021-01-05T09:33:10</time>
      </trkpt>
      <trkpt lat="45.55598" lon="6.53678">
        <ele>1679.7998</ele>
        <time>2021-01-05T09:33:11</time>
      </trkpt>
      <trkpt lat="45.55598" lon="6.5368">
        <ele>1679.5015</ele>
        <time>2021-01-05T09:33:14</time>
      </trkpt>
      <trkpt lat="45.556" lon="6.53683">
        <ele>1679.9282</ele>
        <time>2021-01-05T09:33:16</time>
      </trkpt>
      <trkpt lat="45.55601" lon="6.53686">
        <ele>1677.6128</ele>
        <time>2021-01-05T09:33:20</time>
      </trkpt>
      <trkpt lat="45.55608" lon="6.53704">
        <ele>1678.898</ele>
        <time>2021-01-05T09:33:32</time>
      </trkpt>
      <trkpt lat="45.5561" lon="6.53709">
        <ele>1678.292</ele>
        <time>2021-01-05T09:33:36</time>
      </trkpt>
      <trkpt lat="45.55611" lon="6.53711">
        <ele>1677.6143</ele>
        <time>2021-01-05T09:33:41</time>
      </trkpt>
      <trkpt lat="45.55611" lon="6.53713">
        <ele>1679.832</ele>
        <time>2021-01-05T09:33:42</time>
      </trkpt>
      <trkpt lat="45.55614" lon="6.53723">
        <ele>1681.645</ele>
        <time>2021-01-05T09:33:46</time>
      </trkpt>
      <trkpt lat="45.55615" lon="6.53725">
        <ele>1681.1399</ele>
        <time>2021-01-05T09:33:47</time>
      </trkpt>
      <trkpt lat="45.55616" lon="6.53728">
        <ele>1679.4082</ele>
        <time>2021-01-05T09:33:49</time>
      </trkpt>
      <trkpt lat="45.55616" lon="6.53733">
        <ele>1679.6638</ele>
        <time>2021-01-05T09:33:51</time>
      </trkpt>
      <trkpt lat="45.55617" lon="6.53736">
        <ele>1678.7822</ele>
        <time>2021-01-05T09:33:53</time>
      </trkpt>
      <trkpt lat="45.55619" lon="6.53747">
        <ele>1680.3823</ele>
        <time>2021-01-05T09:33:59</time>
      </trkpt>
      <trkpt lat="45.5562" lon="6.5375">
        <ele>1679.5034</ele>
        <time>2021-01-05T09:34:01</time>
      </trkpt>
      <trkpt lat="45.55621" lon="6.53776">
        <ele>1679.4624</ele>
        <time>2021-01-05T09:34:18</time>
      </trkpt>
      <trkpt lat="45.55621" lon="6.5378">
        <ele>1680.9141</ele>
        <time>2021-01-05T09:34:21</time>
      </trkpt>
      <trkpt lat="45.55623" lon="6.53794">
        <ele>1680.0127</ele>
        <time>2021-01-05T09:34:30</time>
      </trkpt>
      <trkpt lat="45.55624" lon="6.53798">
        <ele>1683.2896</ele>
        <time>2021-01-05T09:34:34</time>
      </trkpt>
      <trkpt lat="45.55624" lon="6.53799">
        <ele>1682.7188</ele>
        <time>2021-01-05T09:34:35</time>
      </trkpt>
      <trkpt lat="45.55625" lon="6.53804">
        <ele>1683.5972</ele>
        <time>2021-01-05T09:34:40</time>
      </trkpt>
      <trkpt lat="45.55625" lon="6.53807">
        <ele>1684.0151</ele>
        <time>2021-01-05T09:34:43</time>
      </trkpt>
      <trkpt lat="45.55625" lon="6.53808">
        <ele>1683.822</ele>
        <time>2021-01-05T09:34:44</time>
      </trkpt>
      <trkpt lat="45.55625" lon="6.53808">
        <ele>1683.9199</ele>
        <time>2021-01-05T09:34:45</time>
      </trkpt>
      <trkpt lat="45.55625" lon="6.53809">
        <ele>1684.5049</ele>
        <time>2021-01-05T09:34:46</time>
      </trkpt>
      <trkpt lat="45.55625" lon="6.5381">
        <ele>1684.7231</ele>
        <time>2021-01-05T09:34:48</time>
      </trkpt>
      <trkpt lat="45.55625" lon="6.53811">
        <ele>1684.7676</ele>
        <time>2021-01-05T09:34:49</time>
      </trkpt>
      <trkpt lat="45.55625" lon="6.53813">
        <ele>1684.3491</ele>
        <time>2021-01-05T09:34:50</time>
      </trkpt>
      <trkpt lat="45.55626" lon="6.53824">
        <ele>1686.477</ele>
        <time>2021-01-05T09:34:59</time>
      </trkpt>
      <trkpt lat="45.55625" lon="6.53825">
        <ele>1686.7197</ele>
        <time>2021-01-05T09:35:02</time>
      </trkpt>
      <trkpt lat="45.55626" lon="6.53828">
        <ele>1685.8232</ele>
        <time>2021-01-05T09:35:05</time>
      </trkpt>
      <trkpt lat="45.55626" lon="6.5383">
        <ele>1687.2554</ele>
        <time>2021-01-05T09:35:13</time>
      </trkpt>
      <trkpt lat="45.55629" lon="6.53839">
        <ele>1689.7583</ele>
        <time>2021-01-05T09:35:18</time>
      </trkpt>
      <trkpt lat="45.55629" lon="6.5384">
        <ele>1689.9229</ele>
        <time>2021-01-05T09:35:19</time>
      </trkpt>
      <trkpt lat="45.55631" lon="6.53844">
        <ele>1689.6814</ele>
        <time>2021-01-05T09:35:21</time>
      </trkpt>
      <trkpt lat="45.55635" lon="6.53852">
        <ele>1689.218</ele>
        <time>2021-01-05T09:35:26</time>
      </trkpt>
      <trkpt lat="45.55638" lon="6.53856">
        <ele>1689.2817</ele>
        <time>2021-01-05T09:35:29</time>
      </trkpt>
      <trkpt lat="45.5564" lon="6.5386">
        <ele>1686.9834</ele>
        <time>2021-01-05T09:35:31</time>
      </trkpt>
      <trkpt lat="45.55642" lon="6.53864">
        <ele>1685.9602</ele>
        <time>2021-01-05T09:35:33</time>
      </trkpt>
      <trkpt lat="45.5565" lon="6.53874">
        <ele>1684.4243</ele>
        <time>2021-01-05T09:35:43</time>
      </trkpt>
      <trkpt lat="45.55657" lon="6.53881">
        <ele>1683.5557</ele>
        <time>2021-01-05T09:35:53</time>
      </trkpt>
      <trkpt lat="45.55658" lon="6.53883">
        <ele>1680.6045</ele>
        <time>2021-01-05T09:35:56</time>
      </trkpt>
      <trkpt lat="45.5567" lon="6.53894">
        <ele>1688.4468</ele>
        <time>2021-01-05T09:36:19</time>
      </trkpt>
      <trkpt lat="45.55676" lon="6.539">
        <ele>1691.6934</ele>
        <time>2021-01-05T09:36:28</time>
      </trkpt>
      <trkpt lat="45.55677" lon="6.539">
        <ele>1692.1777</ele>
        <time>2021-01-05T09:36:32</time>
      </trkpt>
      <trkpt lat="45.55676" lon="6.53901">
        <ele>1692.4133</ele>
        <time>2021-01-05T09:36:33</time>
      </trkpt>
      <trkpt lat="45.55677" lon="6.53902">
        <ele>1694.2959</ele>
        <time>2021-01-05T09:36:36</time>
      </trkpt>
      <trkpt lat="45.55677" lon="6.53904">
        <ele>1695.1221</ele>
        <time>2021-01-05T09:36:37</time>
      </trkpt>
      <trkpt lat="45.55677" lon="6.53905">
        <ele>1694.5361</ele>
        <time>2021-01-05T09:36:38</time>
      </trkpt>
      <trkpt lat="45.55677" lon="6.53906">
        <ele>1695.1274</ele>
        <time>2021-01-05T09:36:39</time>
      </trkpt>
      <trkpt lat="45.55676" lon="6.53911">
        <ele>1694.1838</ele>
        <time>2021-01-05T09:36:43</time>
      </trkpt>
      <trkpt lat="45.55676" lon="6.53913">
        <ele>1695.1077</ele>
        <time>2021-01-05T09:36:45</time>
      </trkpt>
      <trkpt lat="45.55676" lon="6.53913">
        <ele>1695.6411</ele>
        <time>2021-01-05T09:36:47</time>
      </trkpt>
      <trkpt lat="45.55676" lon="6.53919">
        <ele>1696.0981</ele>
        <time>2021-01-05T09:36:51</time>
      </trkpt>
      <trkpt lat="45.55678" lon="6.53931">
        <ele>1703.2959</ele>
        <time>2021-01-05T09:37:03</time>
      </trkpt>
      <trkpt lat="45.55678" lon="6.53932">
        <ele>1703.3064</ele>
        <time>2021-01-05T09:37:06</time>
      </trkpt>
      <trkpt lat="45.55678" lon="6.53934">
        <ele>1703.7095</ele>
        <time>2021-01-05T09:37:07</time>
      </trkpt>
      <trkpt lat="45.55678" lon="6.53934">
        <ele>1705.5244</ele>
        <time>2021-01-05T09:37:08</time>
      </trkpt>
      <trkpt lat="45.55678" lon="6.53934">
        <ele>1704.8301</ele>
        <time>2021-01-05T09:37:09</time>
      </trkpt>
      <trkpt lat="45.55677" lon="6.53935">
        <ele>1705.1211</ele>
        <time>2021-01-05T09:37:13</time>
      </trkpt>
      <trkpt lat="45.55677" lon="6.53943">
        <ele>1708.8638</ele>
        <time>2021-01-05T09:37:19</time>
      </trkpt>
      <trkpt lat="45.55678" lon="6.53947">
        <ele>1707.5417</ele>
        <time>2021-01-05T09:37:22</time>
      </trkpt>
      <trkpt lat="45.55678" lon="6.53949">
        <ele>1707.5334</ele>
        <time>2021-01-05T09:37:25</time>
      </trkpt>
      <trkpt lat="45.55679" lon="6.53952">
        <ele>1708.3687</ele>
        <time>2021-01-05T09:37:32</time>
      </trkpt>
      <trkpt lat="45.5568" lon="6.53957">
        <ele>1709.9199</ele>
        <time>2021-01-05T09:37:36</time>
      </trkpt>
      <trkpt lat="45.55681" lon="6.53958">
        <ele>1711.2339</ele>
        <time>2021-01-05T09:37:40</time>
      </trkpt>
      <trkpt lat="45.55682" lon="6.5396">
        <ele>1711.8738</ele>
        <time>2021-01-05T09:37:41</time>
      </trkpt>
      <trkpt lat="45.55682" lon="6.53963">
        <ele>1711.4363</ele>
        <time>2021-01-05T09:37:42</time>
      </trkpt>
      <trkpt lat="45.55683" lon="6.53967">
        <ele>1709.7324</ele>
        <time>2021-01-05T09:37:47</time>
      </trkpt>
      <trkpt lat="45.55683" lon="6.53969">
        <ele>1711.5342</ele>
        <time>2021-01-05T09:37:49</time>
      </trkpt>
      <trkpt lat="45.55683" lon="6.5397">
        <ele>1711.9551</ele>
        <time>2021-01-05T09:37:50</time>
      </trkpt>
      <trkpt lat="45.55683" lon="6.5397">
        <ele>1711.4575</ele>
        <time>2021-01-05T09:37:51</time>
      </trkpt>
      <trkpt lat="45.55683" lon="6.53971">
        <ele>1712.353</ele>
        <time>2021-01-05T09:37:53</time>
      </trkpt>
      <trkpt lat="45.55683" lon="6.53973">
        <ele>1712.1045</ele>
        <time>2021-01-05T09:37:55</time>
      </trkpt>
      <trkpt lat="45.55683" lon="6.53975">
        <ele>1712.6846</ele>
        <time>2021-01-05T09:37:57</time>
      </trkpt>
      <trkpt lat="45.55686" lon="6.53988">
        <ele>1708.957</ele>
        <time>2021-01-05T09:38:01</time>
      </trkpt>
      <trkpt lat="45.55687" lon="6.53994">
        <ele>1709.9355</ele>
        <time>2021-01-05T09:38:07</time>
      </trkpt>
      <trkpt lat="45.55689" lon="6.53999">
        <ele>1708.146</ele>
        <time>2021-01-05T09:38:10</time>
      </trkpt>
      <trkpt lat="45.55691" lon="6.54007">
        <ele>1705.7397</ele>
        <time>2021-01-05T09:38:14</time>
      </trkpt>
      <trkpt lat="45.55692" lon="6.54008">
        <ele>1705.7607</ele>
        <time>2021-01-05T09:38:15</time>
      </trkpt>
      <trkpt lat="45.55695" lon="6.54014">
        <ele>1704.4604</ele>
        <time>2021-01-05T09:38:19</time>
      </trkpt>
      <trkpt lat="45.55698" lon="6.54019">
        <ele>1703.1472</ele>
        <time>2021-01-05T09:38:22</time>
      </trkpt>
      <trkpt lat="45.55705" lon="6.5403">
        <ele>1694.8833</ele>
        <time>2021-01-05T09:38:30</time>
      </trkpt>
      <trkpt lat="45.55722" lon="6.54037">
        <ele>1701.4324</ele>
        <time>2021-01-05T09:38:54</time>
      </trkpt>
      <trkpt lat="45.55723" lon="6.54038">
        <ele>1701.2153</ele>
        <time>2021-01-05T09:38:56</time>
      </trkpt>
      <trkpt lat="45.55732" lon="6.54039">
        <ele>1703.0208</ele>
        <time>2021-01-05T09:39:06</time>
      </trkpt>
      <trkpt lat="45.55736" lon="6.5404">
        <ele>1703.2261</ele>
        <time>2021-01-05T09:39:11</time>
      </trkpt>
      <trkpt lat="45.55742" lon="6.5404">
        <ele>1708.3364</ele>
        <time>2021-01-05T09:39:19</time>
      </trkpt>
      <trkpt lat="45.55745" lon="6.54043">
        <ele>1706.1099</ele>
        <time>2021-01-05T09:39:23</time>
      </trkpt>
      <trkpt lat="45.5575" lon="6.54046">
        <ele>1708.4277</ele>
        <time>2021-01-05T09:39:29</time>
      </trkpt>
      <trkpt lat="45.55764" lon="6.54051">
        <ele>1714.8086</ele>
        <time>2021-01-05T09:39:44</time>
      </trkpt>
      <trkpt lat="45.55767" lon="6.54053">
        <ele>1714.083</ele>
        <time>2021-01-05T09:39:47</time>
      </trkpt>
      <trkpt lat="45.55772" lon="6.54055">
        <ele>1715.0493</ele>
        <time>2021-01-05T09:39:53</time>
      </trkpt>
      <trkpt lat="45.55777" lon="6.54056">
        <ele>1714.116</ele>
        <time>2021-01-05T09:40:00</time>
      </trkpt>
      <trkpt lat="45.55778" lon="6.54056">
        <ele>1714.5146</ele>
        <time>2021-01-05T09:40:01</time>
      </trkpt>
      <trkpt lat="45.55779" lon="6.54055">
        <ele>1715.3433</ele>
        <time>2021-01-05T09:40:03</time>
      </trkpt>
      <trkpt lat="45.55782" lon="6.54054">
        <ele>1714.0029</ele>
        <time>2021-01-05T09:40:06</time>
      </trkpt>
      <trkpt lat="45.55795" lon="6.54047">
        <ele>1715.0732</ele>
        <time>2021-01-05T09:40:19</time>
      </trkpt>
      <trkpt lat="45.55796" lon="6.54047">
        <ele>1714.7515</ele>
        <time>2021-01-05T09:40:21</time>
      </trkpt>
      <trkpt lat="45.55804" lon="6.54044">
        <ele>1715.042</ele>
        <time>2021-01-05T09:40:30</time>
      </trkpt>
      <trkpt lat="45.55804" lon="6.54043">
        <ele>1715.0256</ele>
        <time>2021-01-05T09:40:31</time>
      </trkpt>
      <trkpt lat="45.55806" lon="6.54043">
        <ele>1713.2983</ele>
        <time>2021-01-05T09:40:32</time>
      </trkpt>
      <trkpt lat="45.55813" lon="6.54039">
        <ele>1713.815</ele>
        <time>2021-01-05T09:40:39</time>
      </trkpt>
      <trkpt lat="45.55818" lon="6.54038">
        <ele>1712.6328</ele>
        <time>2021-01-05T09:40:44</time>
      </trkpt>
      <trkpt lat="45.55825" lon="6.54039">
        <ele>1715.062</ele>
        <time>2021-01-05T09:40:51</time>
      </trkpt>
      <trkpt lat="45.55826" lon="6.54039">
        <ele>1716.0825</ele>
        <time>2021-01-05T09:40:52</time>
      </trkpt>
      <trkpt lat="45.55836" lon="6.54038">
        <ele>1717.2075</ele>
        <time>2021-01-05T09:41:02</time>
      </trkpt>
      <trkpt lat="45.55848" lon="6.54042">
        <ele>1717.7891</ele>
        <time>2021-01-05T09:41:12</time>
      </trkpt>
      <trkpt lat="45.55848" lon="6.54041">
        <ele>1717.8799</ele>
        <time>2021-01-05T09:41:13</time>
      </trkpt>
      <trkpt lat="45.55849" lon="6.54041">
        <ele>1717.6985</ele>
        <time>2021-01-05T09:41:16</time>
      </trkpt>
      <trkpt lat="45.55849" lon="6.54041">
        <ele>1717.5684</ele>
        <time>2021-01-05T09:41:17</time>
      </trkpt>
      <trkpt lat="45.55849" lon="6.54041">
        <ele>1717.2659</ele>
        <time>2021-01-05T09:41:21</time>
      </trkpt>
      <trkpt lat="45.55851" lon="6.54042">
        <ele>1720.9658</ele>
        <time>2021-01-05T09:41:24</time>
      </trkpt>
      <trkpt lat="45.55856" lon="6.54048">
        <ele>1720.1147</ele>
        <time>2021-01-05T09:41:31</time>
      </trkpt>
      <trkpt lat="45.55859" lon="6.54051">
        <ele>1719.4456</ele>
        <time>2021-01-05T09:41:34</time>
      </trkpt>
      <trkpt lat="45.55861" lon="6.54054">
        <ele>1720.1465</ele>
        <time>2021-01-05T09:41:37</time>
      </trkpt>
      <trkpt lat="45.55864" lon="6.54057">
        <ele>1720.9658</ele>
        <time>2021-01-05T09:41:41</time>
      </trkpt>
      <trkpt lat="45.55865" lon="6.54058">
        <ele>1721.6421</ele>
        <time>2021-01-05T09:41:42</time>
      </trkpt>
      <trkpt lat="45.55866" lon="6.54059">
        <ele>1719.1792</ele>
        <time>2021-01-05T09:41:44</time>
      </trkpt>
      <trkpt lat="45.55871" lon="6.54067">
        <ele>1724.6296</ele>
        <time>2021-01-05T09:41:54</time>
      </trkpt>
      <trkpt lat="45.5587" lon="6.54067">
        <ele>1724.75</ele>
        <time>2021-01-05T09:41:56</time>
      </trkpt>
      <trkpt lat="45.55871" lon="6.54068">
        <ele>1726.9438</ele>
        <time>2021-01-05T09:41:59</time>
      </trkpt>
      <trkpt lat="45.55872" lon="6.54071">
        <ele>1728.7664</ele>
        <time>2021-01-05T09:42:07</time>
      </trkpt>
      <trkpt lat="45.55872" lon="6.54071">
        <ele>1729.8657</ele>
        <time>2021-01-05T09:42:08</time>
      </trkpt>
      <trkpt lat="45.55872" lon="6.54072">
        <ele>1730.0962</ele>
        <time>2021-01-05T09:42:09</time>
      </trkpt>
      <trkpt lat="45.55874" lon="6.54075">
        <ele>1732.5688</ele>
        <time>2021-01-05T09:42:12</time>
      </trkpt>
      <trkpt lat="45.55874" lon="6.54076">
        <ele>1732.7847</ele>
        <time>2021-01-05T09:42:15</time>
      </trkpt>
      <trkpt lat="45.55878" lon="6.54082">
        <ele>1732.3662</ele>
        <time>2021-01-05T09:42:20</time>
      </trkpt>
      <trkpt lat="45.55879" lon="6.54083">
        <ele>1732.4236</ele>
        <time>2021-01-05T09:42:23</time>
      </trkpt>
      <trkpt lat="45.5588" lon="6.54086">
        <ele>1730.8928</ele>
        <time>2021-01-05T09:42:25</time>
      </trkpt>
      <trkpt lat="45.55885" lon="6.54096">
        <ele>1725.6682</ele>
        <time>2021-01-05T09:42:33</time>
      </trkpt>
      <trkpt lat="45.55888" lon="6.541">
        <ele>1727.1431</ele>
        <time>2021-01-05T09:42:36</time>
      </trkpt>
      <trkpt lat="45.55889" lon="6.54103">
        <ele>1724.3115</ele>
        <time>2021-01-05T09:42:38</time>
      </trkpt>
      <trkpt lat="45.55891" lon="6.54106">
        <ele>1725.0005</ele>
        <time>2021-01-05T09:42:40</time>
      </trkpt>
      <trkpt lat="45.55895" lon="6.54115">
        <ele>1725.8215</ele>
        <time>2021-01-05T09:42:46</time>
      </trkpt>
      <trkpt lat="45.55899" lon="6.54124">
        <ele>1724.6885</ele>
        <time>2021-01-05T09:42:53</time>
      </trkpt>
      <trkpt lat="45.55902" lon="6.54129">
        <ele>1727.5254</ele>
        <time>2021-01-05T09:42:58</time>
      </trkpt>
      <trkpt lat="45.55901" lon="6.54129">
        <ele>1727.3813</ele>
        <time>2021-01-05T09:43:03</time>
      </trkpt>
      <trkpt lat="45.55902" lon="6.54132">
        <ele>1729.3853</ele>
        <time>2021-01-05T09:43:05</time>
      </trkpt>
      <trkpt lat="45.55907" lon="6.54144">
        <ele>1727.615</ele>
        <time>2021-01-05T09:43:14</time>
      </trkpt>
      <trkpt lat="45.55907" lon="6.54145">
        <ele>1728.8735</ele>
        <time>2021-01-05T09:43:15</time>
      </trkpt>
      <trkpt lat="45.55929" lon="6.54183">
        <ele>1734.561</ele>
        <time>2021-01-05T09:43:45</time>
      </trkpt>
      <trkpt lat="45.55933" lon="6.54192">
        <ele>1733.1812</ele>
        <time>2021-01-05T09:43:53</time>
      </trkpt>
      <trkpt lat="45.55933" lon="6.54194">
        <ele>1732.3103</ele>
        <time>2021-01-05T09:43:55</time>
      </trkpt>
      <trkpt lat="45.55936" lon="6.54208">
        <ele>1730.227</ele>
        <time>2021-01-05T09:44:07</time>
      </trkpt>
      <trkpt lat="45.55938" lon="6.54217">
        <ele>1731.4937</ele>
        <time>2021-01-05T09:44:14</time>
      </trkpt>
      <trkpt lat="45.5594" lon="6.54223">
        <ele>1732.6013</ele>
        <time>2021-01-05T09:44:18</time>
      </trkpt>
      <trkpt lat="45.5594" lon="6.54222">
        <ele>1732.6982</ele>
        <time>2021-01-05T09:44:19</time>
      </trkpt>
      <trkpt lat="45.5594" lon="6.54224">
        <ele>1732.5361</ele>
        <time>2021-01-05T09:44:26</time>
      </trkpt>
      <trkpt lat="45.55942" lon="6.54231">
        <ele>1733.7649</ele>
        <time>2021-01-05T09:44:30</time>
      </trkpt>
      <trkpt lat="45.55943" lon="6.54232">
        <ele>1734.0261</ele>
        <time>2021-01-05T09:44:34</time>
      </trkpt>
      <trkpt lat="45.55944" lon="6.54233">
        <ele>1735.0432</ele>
        <time>2021-01-05T09:44:35</time>
      </trkpt>
      <trkpt lat="45.55944" lon="6.54235">
        <ele>1734.813</ele>
        <time>2021-01-05T09:44:39</time>
      </trkpt>
      <trkpt lat="45.55947" lon="6.54242">
        <ele>1734.3413</ele>
        <time>2021-01-05T09:44:43</time>
      </trkpt>
      <trkpt lat="45.55948" lon="6.54244">
        <ele>1735.102</ele>
        <time>2021-01-05T09:44:44</time>
      </trkpt>
      <trkpt lat="45.5595" lon="6.54248">
        <ele>1736.4385</ele>
        <time>2021-01-05T09:44:47</time>
      </trkpt>
      <trkpt lat="45.55954" lon="6.54259">
        <ele>1741.3032</ele>
        <time>2021-01-05T09:44:55</time>
      </trkpt>
      <trkpt lat="45.55955" lon="6.54261">
        <ele>1741.7847</ele>
        <time>2021-01-05T09:44:57</time>
      </trkpt>
      <trkpt lat="45.55955" lon="6.54262">
        <ele>1742.7188</ele>
        <time>2021-01-05T09:44:58</time>
      </trkpt>
      <trkpt lat="45.55955" lon="6.54263">
        <ele>1744.0664</ele>
        <time>2021-01-05T09:45:02</time>
      </trkpt>
      <trkpt lat="45.55956" lon="6.54264">
        <ele>1745.0615</ele>
        <time>2021-01-05T09:45:03</time>
      </trkpt>
      <trkpt lat="45.55959" lon="6.54269">
        <ele>1749.646</ele>
        <time>2021-01-05T09:45:07</time>
      </trkpt>
      <trkpt lat="45.55959" lon="6.54269">
        <ele>1750.584</ele>
        <time>2021-01-05T09:45:08</time>
      </trkpt>
      <trkpt lat="45.5596" lon="6.54271">
        <ele>1748.2756</ele>
        <time>2021-01-05T09:45:10</time>
      </trkpt>
      <trkpt lat="45.55961" lon="6.54273">
        <ele>1748.342</ele>
        <time>2021-01-05T09:45:11</time>
      </trkpt>
      <trkpt lat="45.55961" lon="6.54278">
        <ele>1744.9668</ele>
        <time>2021-01-05T09:45:15</time>
      </trkpt>
      <trkpt lat="45.55963" lon="6.54283">
        <ele>1743.8262</ele>
        <time>2021-01-05T09:45:20</time>
      </trkpt>
      <trkpt lat="45.55964" lon="6.54285">
        <ele>1745.3599</ele>
        <time>2021-01-05T09:45:22</time>
      </trkpt>
      <trkpt lat="45.55967" lon="6.54296">
        <ele>1744.4453</ele>
        <time>2021-01-05T09:45:29</time>
      </trkpt>
      <trkpt lat="45.55972" lon="6.54308">
        <ele>1742.9851</ele>
        <time>2021-01-05T09:45:36</time>
      </trkpt>
      <trkpt lat="45.55973" lon="6.54311">
        <ele>1744.7297</ele>
        <time>2021-01-05T09:45:38</time>
      </trkpt>
      <trkpt lat="45.55975" lon="6.54312">
        <ele>1743.3108</ele>
        <time>2021-01-05T09:45:40</time>
      </trkpt>
      <trkpt lat="45.55976" lon="6.54314">
        <ele>1744.71</ele>
        <time>2021-01-05T09:45:42</time>
      </trkpt>
      <trkpt lat="45.55978" lon="6.5432">
        <ele>1747.124</ele>
        <time>2021-01-05T09:45:46</time>
      </trkpt>
      <trkpt lat="45.55977" lon="6.54326">
        <ele>1745.0281</ele>
        <time>2021-01-05T09:45:49</time>
      </trkpt>
      <trkpt lat="45.55977" lon="6.54331">
        <ele>1749.8374</ele>
        <time>2021-01-05T09:45:52</time>
      </trkpt>
      <trkpt lat="45.55977" lon="6.54337">
        <ele>1749.9832</ele>
        <time>2021-01-05T09:45:55</time>
      </trkpt>
      <trkpt lat="45.55978" lon="6.54362">
        <ele>1749.4541</ele>
        <time>2021-01-05T09:46:09</time>
      </trkpt>
      <trkpt lat="45.55978" lon="6.54365">
        <ele>1749.0847</ele>
        <time>2021-01-05T09:46:11</time>
      </trkpt>
      <trkpt lat="45.5598" lon="6.54372">
        <ele>1752.7241</ele>
        <time>2021-01-05T09:46:17</time>
      </trkpt>
      <trkpt lat="45.55982" lon="6.54375">
        <ele>1748.4512</ele>
        <time>2021-01-05T09:46:21</time>
      </trkpt>
      <trkpt lat="45.55986" lon="6.54381">
        <ele>1748.8911</ele>
        <time>2021-01-05T09:46:25</time>
      </trkpt>
      <trkpt lat="45.55988" lon="6.54384">
        <ele>1748.5537</ele>
        <time>2021-01-05T09:46:27</time>
      </trkpt>
      <trkpt lat="45.55993" lon="6.54388">
        <ele>1679.1855</ele>
        <time>2021-01-05T09:46:32</time>
      </trkpt>
      <trkpt lat="45.56002" lon="6.54392">
        <ele>1729.5654</ele>
        <time>2021-01-05T09:46:41</time>
      </trkpt>
      <trkpt lat="45.56026" lon="6.54402">
        <ele>1740.7722</ele>
        <time>2021-01-05T09:47:03</time>
      </trkpt>
      <trkpt lat="45.56029" lon="6.54404">
        <ele>1744.0566</ele>
        <time>2021-01-05T09:47:06</time>
      </trkpt>
      <trkpt lat="45.56034" lon="6.5441">
        <ele>1742.0894</ele>
        <time>2021-01-05T09:47:12</time>
      </trkpt>
      <trkpt lat="45.56044" lon="6.54418">
        <ele>1739.864</ele>
        <time>2021-01-05T09:47:24</time>
      </trkpt>
      <trkpt lat="45.56045" lon="6.54419">
        <ele>1739.9956</ele>
        <time>2021-01-05T09:47:26</time>
      </trkpt>
      <trkpt lat="45.56055" lon="6.54424">
        <ele>1744.1499</ele>
        <time>2021-01-05T09:47:37</time>
      </trkpt>
      <trkpt lat="45.56056" lon="6.54425">
        <ele>1747.6277</ele>
        <time>2021-01-05T09:47:38</time>
      </trkpt>
      <trkpt lat="45.56058" lon="6.54426">
        <ele>1748.3125</ele>
        <time>2021-01-05T09:47:40</time>
      </trkpt>
      <trkpt lat="45.56059" lon="6.54427">
        <ele>1750.8071</ele>
        <time>2021-01-05T09:47:44</time>
      </trkpt>
      <trkpt lat="45.56059" lon="6.54426">
        <ele>1752.5391</ele>
        <time>2021-01-05T09:47:45</time>
      </trkpt>
      <trkpt lat="45.56067" lon="6.54432">
        <ele>1682.315</ele>
        <time>2021-01-05T09:47:56</time>
      </trkpt>
      <trkpt lat="45.56069" lon="6.54435">
        <ele>1703.3862</ele>
        <time>2021-01-05T09:47:58</time>
      </trkpt>
      <trkpt lat="45.56071" lon="6.54437">
        <ele>1720.6687</ele>
        <time>2021-01-05T09:48:01</time>
      </trkpt>
      <trkpt lat="45.56074" lon="6.54441">
        <ele>1733.7568</ele>
        <time>2021-01-05T09:48:05</time>
      </trkpt>
      <trkpt lat="45.56076" lon="6.54444">
        <ele>1732.8198</ele>
        <time>2021-01-05T09:48:07</time>
      </trkpt>
      <trkpt lat="45.5608" lon="6.54452">
        <ele>1740.729</ele>
        <time>2021-01-05T09:48:13</time>
      </trkpt>
      <trkpt lat="45.56088" lon="6.54459">
        <ele>1744.5613</ele>
        <time>2021-01-05T09:48:22</time>
      </trkpt>
      <trkpt lat="45.56102" lon="6.54468">
        <ele>1754.4663</ele>
        <time>2021-01-05T09:48:40</time>
      </trkpt>
      <trkpt lat="45.56104" lon="6.5447">
        <ele>1754.8223</ele>
        <time>2021-01-05T09:48:43</time>
      </trkpt>
      <trkpt lat="45.56106" lon="6.54472">
        <ele>1753.9197</ele>
        <time>2021-01-05T09:48:44</time>
      </trkpt>
      <trkpt lat="45.56112" lon="6.54478">
        <ele>1754.2966</ele>
        <time>2021-01-05T09:48:51</time>
      </trkpt>
      <trkpt lat="45.56117" lon="6.54484">
        <ele>1750.0493</ele>
        <time>2021-01-05T09:48:59</time>
      </trkpt>
      <trkpt lat="45.56122" lon="6.5449">
        <ele>1751.8872</ele>
        <time>2021-01-05T09:49:08</time>
      </trkpt>
      <trkpt lat="45.56133" lon="6.54505">
        <ele>1750.2178</ele>
        <time>2021-01-05T09:49:23</time>
      </trkpt>
      <trkpt lat="45.56143" lon="6.54508">
        <ele>1751.873</ele>
        <time>2021-01-05T09:49:34</time>
      </trkpt>
      <trkpt lat="45.56147" lon="6.54509">
        <ele>1755.5708</ele>
        <time>2021-01-05T09:49:38</time>
      </trkpt>
      <trkpt lat="45.5615" lon="6.54509">
        <ele>1756.5464</ele>
        <time>2021-01-05T09:49:41</time>
      </trkpt>
      <trkpt lat="45.56151" lon="6.54509">
        <ele>1758.5215</ele>
        <time>2021-01-05T09:49:44</time>
      </trkpt>
      <trkpt lat="45.56152" lon="6.54509">
        <ele>1759.2029</ele>
        <time>2021-01-05T09:49:45</time>
      </trkpt>
      <trkpt lat="45.5616" lon="6.54512">
        <ele>1764.4304</ele>
        <time>2021-01-05T09:49:52</time>
      </trkpt>
      <trkpt lat="45.56178" lon="6.54524">
        <ele>1758.4641</ele>
        <time>2021-01-05T09:50:04</time>
      </trkpt>
      <trkpt lat="45.56181" lon="6.54527">
        <ele>1757.3672</ele>
        <time>2021-01-05T09:50:06</time>
      </trkpt>
      <trkpt lat="45.56182" lon="6.54528">
        <ele>1758.1531</ele>
        <time>2021-01-05T09:50:07</time>
      </trkpt>
      <trkpt lat="45.56184" lon="6.54528">
        <ele>1757.7456</ele>
        <time>2021-01-05T09:50:08</time>
      </trkpt>
      <trkpt lat="45.56185" lon="6.54529">
        <ele>1758.5303</ele>
        <time>2021-01-05T09:50:09</time>
      </trkpt>
      <trkpt lat="45.56186" lon="6.5453">
        <ele>1757.2852</ele>
        <time>2021-01-05T09:50:10</time>
      </trkpt>
      <trkpt lat="45.56187" lon="6.54531">
        <ele>1759.2539</ele>
        <time>2021-01-05T09:50:11</time>
      </trkpt>
      <trkpt lat="45.56195" lon="6.54539">
        <ele>1755.6064</ele>
        <time>2021-01-05T09:50:18</time>
      </trkpt>
      <trkpt lat="45.56199" lon="6.54544">
        <ele>1752.7104</ele>
        <time>2021-01-05T09:50:23</time>
      </trkpt>
      <trkpt lat="45.56201" lon="6.5455">
        <ele>1752.771</ele>
        <time>2021-01-05T09:50:27</time>
      </trkpt>
      <trkpt lat="45.56201" lon="6.54552">
        <ele>1752.678</ele>
        <time>2021-01-05T09:50:28</time>
      </trkpt>
      <trkpt lat="45.56201" lon="6.54554">
        <ele>1665.23</ele>
        <time>2021-01-05T09:50:29</time>
      </trkpt>
      <trkpt lat="45.56206" lon="6.54566">
        <ele>1743.3083</ele>
        <time>2021-01-05T09:50:41</time>
      </trkpt>
      <trkpt lat="45.56207" lon="6.54568">
        <ele>1742.575</ele>
        <time>2021-01-05T09:50:43</time>
      </trkpt>
      <trkpt lat="45.56208" lon="6.54571">
        <ele>1744.7739</ele>
        <time>2021-01-05T09:50:45</time>
      </trkpt>
      <trkpt lat="45.56209" lon="6.54572">
        <ele>1751.2188</ele>
        <time>2021-01-05T09:50:47</time>
      </trkpt>
      <trkpt lat="45.56213" lon="6.54591">
        <ele>1761.206</ele>
        <time>2021-01-05T09:51:02</time>
      </trkpt>
      <trkpt lat="45.56213" lon="6.54595">
        <ele>1764.5781</ele>
        <time>2021-01-05T09:51:05</time>
      </trkpt>
      <trkpt lat="45.56211" lon="6.54608">
        <ele>1775.3296</ele>
        <time>2021-01-05T09:51:21</time>
      </trkpt>
      <trkpt lat="45.56215" lon="6.5462">
        <ele>1775.77</ele>
        <time>2021-01-05T09:51:33</time>
      </trkpt>
      <trkpt lat="45.56216" lon="6.54619">
        <ele>1775.5806</ele>
        <time>2021-01-05T09:51:38</time>
      </trkpt>
      <trkpt lat="45.56216" lon="6.54618">
        <ele>1774.3574</ele>
        <time>2021-01-05T09:51:40</time>
      </trkpt>
      <trkpt lat="45.56217" lon="6.54619">
        <ele>1775.8118</ele>
        <time>2021-01-05T09:51:41</time>
      </trkpt>
      <trkpt lat="45.5622" lon="6.5462">
        <ele>1776.3223</ele>
        <time>2021-01-05T09:51:45</time>
      </trkpt>
      <trkpt lat="45.56221" lon="6.5462">
        <ele>1773.7671</ele>
        <time>2021-01-05T09:51:47</time>
      </trkpt>
      <trkpt lat="45.5623" lon="6.54628">
        <ele>1768.981</ele>
        <time>2021-01-05T09:51:55</time>
      </trkpt>
      <trkpt lat="45.56236" lon="6.54633">
        <ele>1766.0249</ele>
        <time>2021-01-05T09:52:02</time>
      </trkpt>
      <trkpt lat="45.56237" lon="6.54634">
        <ele>1766.4536</ele>
        <time>2021-01-05T09:52:03</time>
      </trkpt>
      <trkpt lat="45.56246" lon="6.54637">
        <ele>1773.4092</ele>
        <time>2021-01-05T09:52:12</time>
      </trkpt>
      <trkpt lat="45.56247" lon="6.54637">
        <ele>1769.0837</ele>
        <time>2021-01-05T09:52:13</time>
      </trkpt>
      <trkpt lat="45.56249" lon="6.54638">
        <ele>1770.1978</ele>
        <time>2021-01-05T09:52:17</time>
      </trkpt>
      <trkpt lat="45.56256" lon="6.5464">
        <ele>1771.6812</ele>
        <time>2021-01-05T09:52:28</time>
      </trkpt>
      <trkpt lat="45.56258" lon="6.54643">
        <ele>1771.9326</ele>
        <time>2021-01-05T09:52:31</time>
      </trkpt>
      <trkpt lat="45.56262" lon="6.54646">
        <ele>1776.1411</ele>
        <time>2021-01-05T09:52:38</time>
      </trkpt>
      <trkpt lat="45.56262" lon="6.54646">
        <ele>1776.4133</ele>
        <time>2021-01-05T09:52:39</time>
      </trkpt>
      <trkpt lat="45.56264" lon="6.54647">
        <ele>1774.4194</ele>
        <time>2021-01-05T09:52:46</time>
      </trkpt>
      <trkpt lat="45.56266" lon="6.54647">
        <ele>1776.1907</ele>
        <time>2021-01-05T09:52:47</time>
      </trkpt>
      <trkpt lat="45.56268" lon="6.5465">
        <ele>1774.5259</ele>
        <time>2021-01-05T09:52:51</time>
      </trkpt>
      <trkpt lat="45.56273" lon="6.54654">
        <ele>1770.7285</ele>
        <time>2021-01-05T09:52:56</time>
      </trkpt>
      <trkpt lat="45.56274" lon="6.54653">
        <ele>1770.7139</ele>
        <time>2021-01-05T09:52:58</time>
      </trkpt>
      <trkpt lat="45.56277" lon="6.54654">
        <ele>1769.5762</ele>
        <time>2021-01-05T09:53:01</time>
      </trkpt>
      <trkpt lat="45.56282" lon="6.54657">
        <ele>1771.7935</ele>
        <time>2021-01-05T09:53:09</time>
      </trkpt>
      <trkpt lat="45.56289" lon="6.54667">
        <ele>1775.6108</ele>
        <time>2021-01-05T09:53:27</time>
      </trkpt>
      <trkpt lat="45.5629" lon="6.54668">
        <ele>1776.9309</ele>
        <time>2021-01-05T09:53:29</time>
      </trkpt>
      <trkpt lat="45.56293" lon="6.5467">
        <ele>1779.0107</ele>
        <time>2021-01-05T09:53:33</time>
      </trkpt>
      <trkpt lat="45.56303" lon="6.54678">
        <ele>1781.8853</ele>
        <time>2021-01-05T09:53:47</time>
      </trkpt>
      <trkpt lat="45.56307" lon="6.54681">
        <ele>1780.9321</ele>
        <time>2021-01-05T09:53:53</time>
      </trkpt>
      <trkpt lat="45.5631" lon="6.54682">
        <ele>1784.217</ele>
        <time>2021-01-05T09:53:57</time>
      </trkpt>
      <trkpt lat="45.56311" lon="6.54682">
        <ele>1786.2917</ele>
        <time>2021-01-05T09:53:59</time>
      </trkpt>
      <trkpt lat="45.56311" lon="6.54682">
        <ele>1787.0249</ele>
        <time>2021-01-05T09:54:00</time>
      </trkpt>
      <trkpt lat="45.56311" lon="6.54682">
        <ele>1787.3911</ele>
        <time>2021-01-05T09:54:01</time>
      </trkpt>
      <trkpt lat="45.56319" lon="6.54682">
        <ele>1789.5352</ele>
        <time>2021-01-05T09:54:11</time>
      </trkpt>
      <trkpt lat="45.5632" lon="6.54682">
        <ele>1791.5078</ele>
        <time>2021-01-05T09:54:14</time>
      </trkpt>
      <trkpt lat="45.56321" lon="6.54682">
        <ele>1792.5171</ele>
        <time>2021-01-05T09:54:15</time>
      </trkpt>
      <trkpt lat="45.56345" lon="6.54697">
        <ele>1798.356</ele>
        <time>2021-01-05T09:54:42</time>
      </trkpt>
      <trkpt lat="45.56347" lon="6.547">
        <ele>1798.7876</ele>
        <time>2021-01-05T09:54:45</time>
      </trkpt>
      <trkpt lat="45.56348" lon="6.54702">
        <ele>1800.2104</ele>
        <time>2021-01-05T09:54:48</time>
      </trkpt>
      <trkpt lat="45.56349" lon="6.54705">
        <ele>1798.3237</ele>
        <time>2021-01-05T09:54:50</time>
      </trkpt>
      <trkpt lat="45.56351" lon="6.54707">
        <ele>1799.0127</ele>
        <time>2021-01-05T09:54:52</time>
      </trkpt>
      <trkpt lat="45.56354" lon="6.54711">
        <ele>1800.3223</ele>
        <time>2021-01-05T09:54:56</time>
      </trkpt>
      <trkpt lat="45.56357" lon="6.54716">
        <ele>1802.1958</ele>
        <time>2021-01-05T09:55:02</time>
      </trkpt>
      <trkpt lat="45.56356" lon="6.54716">
        <ele>1802.3213</ele>
        <time>2021-01-05T09:55:05</time>
      </trkpt>
      <trkpt lat="45.56357" lon="6.54716">
        <ele>1802.4185</ele>
        <time>2021-01-05T09:55:06</time>
      </trkpt>
      <trkpt lat="45.56359" lon="6.54719">
        <ele>1801.9868</ele>
        <time>2021-01-05T09:55:10</time>
      </trkpt>
      <trkpt lat="45.56359" lon="6.54722">
        <ele>1802.6245</ele>
        <time>2021-01-05T09:55:12</time>
      </trkpt>
      <trkpt lat="45.56361" lon="6.54725">
        <ele>1803.1968</ele>
        <time>2021-01-05T09:55:15</time>
      </trkpt>
      <trkpt lat="45.56364" lon="6.5473">
        <ele>1804.3418</ele>
        <time>2021-01-05T09:55:21</time>
      </trkpt>
      <trkpt lat="45.56367" lon="6.54736">
        <ele>1802.9761</ele>
        <time>2021-01-05T09:55:25</time>
      </trkpt>
      <trkpt lat="45.56367" lon="6.54738">
        <ele>1804.3486</ele>
        <time>2021-01-05T09:55:27</time>
      </trkpt>
      <trkpt lat="45.56367" lon="6.54738">
        <ele>1803.6824</ele>
        <time>2021-01-05T09:55:28</time>
      </trkpt>
      <trkpt lat="45.5637" lon="6.54742">
        <ele>1805.3242</ele>
        <time>2021-01-05T09:55:33</time>
      </trkpt>
      <trkpt lat="45.56377" lon="6.54757">
        <ele>1808.7627</ele>
        <time>2021-01-05T09:55:47</time>
      </trkpt>
      <trkpt lat="45.5638" lon="6.54762">
        <ele>1809.3965</ele>
        <time>2021-01-05T09:55:54</time>
      </trkpt>
      <trkpt lat="45.56383" lon="6.5477">
        <ele>1808.5085</ele>
        <time>2021-01-05T09:56:03</time>
      </trkpt>
      <trkpt lat="45.56384" lon="6.54772">
        <ele>1807.738</ele>
        <time>2021-01-05T09:56:04</time>
      </trkpt>
      <trkpt lat="45.56385" lon="6.54774">
        <ele>1810.0657</ele>
        <time>2021-01-05T09:56:07</time>
      </trkpt>
      <trkpt lat="45.56386" lon="6.54775">
        <ele>1809.7451</ele>
        <time>2021-01-05T09:56:09</time>
      </trkpt>
      <trkpt lat="45.5639" lon="6.54782">
        <ele>1813.041</ele>
        <time>2021-01-05T09:56:17</time>
      </trkpt>
      <trkpt lat="45.56394" lon="6.54786">
        <ele>1810.6348</ele>
        <time>2021-01-05T09:56:23</time>
      </trkpt>
      <trkpt lat="45.56395" lon="6.54787">
        <ele>1810.96</ele>
        <time>2021-01-05T09:56:25</time>
      </trkpt>
      <trkpt lat="45.56398" lon="6.54789">
        <ele>1812.3286</ele>
        <time>2021-01-05T09:56:28</time>
      </trkpt>
      <trkpt lat="45.56398" lon="6.5479">
        <ele>1812.3091</ele>
        <time>2021-01-05T09:56:29</time>
      </trkpt>
      <trkpt lat="45.56398" lon="6.5479">
        <ele>1812.6929</ele>
        <time>2021-01-05T09:56:32</time>
      </trkpt>
      <trkpt lat="45.564" lon="6.54792">
        <ele>1813.3823</ele>
        <time>2021-01-05T09:56:34</time>
      </trkpt>
      <trkpt lat="45.56401" lon="6.54792">
        <ele>1813.3672</ele>
        <time>2021-01-05T09:56:35</time>
      </trkpt>
      <trkpt lat="45.56401" lon="6.54791">
        <ele>1814.825</ele>
        <time>2021-01-05T09:56:36</time>
      </trkpt>
      <trkpt lat="45.56402" lon="6.54792">
        <ele>1813.9609</ele>
        <time>2021-01-05T09:56:37</time>
      </trkpt>
      <trkpt lat="45.56407" lon="6.54794">
        <ele>1818.1235</ele>
        <time>2021-01-05T09:56:43</time>
      </trkpt>
      <trkpt lat="45.56411" lon="6.54798">
        <ele>1818.9165</ele>
        <time>2021-01-05T09:56:49</time>
      </trkpt>
      <trkpt lat="45.56412" lon="6.54799">
        <ele>1818.7002</ele>
        <time>2021-01-05T09:56:50</time>
      </trkpt>
      <trkpt lat="45.56415" lon="6.54803">
        <ele>1822.0015</ele>
        <time>2021-01-05T09:56:56</time>
      </trkpt>
      <trkpt lat="45.56416" lon="6.54805">
        <ele>1821.2988</ele>
        <time>2021-01-05T09:56:59</time>
      </trkpt>
      <trkpt lat="45.56418" lon="6.54807">
        <ele>1821.4819</ele>
        <time>2021-01-05T09:57:02</time>
      </trkpt>
      <trkpt lat="45.56423" lon="6.54813">
        <ele>1823.7949</ele>
        <time>2021-01-05T09:57:09</time>
      </trkpt>
      <trkpt lat="45.56426" lon="6.54816">
        <ele>1826.1973</ele>
        <time>2021-01-05T09:57:15</time>
      </trkpt>
      <trkpt lat="45.56429" lon="6.54827">
        <ele>1824.0825</ele>
        <time>2021-01-05T09:57:24</time>
      </trkpt>
      <trkpt lat="45.56429" lon="6.54828">
        <ele>1824.331</ele>
        <time>2021-01-05T09:57:25</time>
      </trkpt>
      <trkpt lat="45.56429" lon="6.54828">
        <ele>1824.1155</ele>
        <time>2021-01-05T09:57:26</time>
      </trkpt>
      <trkpt lat="45.56429" lon="6.54829">
        <ele>1824.0977</ele>
        <time>2021-01-05T09:57:27</time>
      </trkpt>
      <trkpt lat="45.56429" lon="6.54833">
        <ele>1824.9404</ele>
        <time>2021-01-05T09:57:30</time>
      </trkpt>
      <trkpt lat="45.56432" lon="6.54841">
        <ele>1825.6255</ele>
        <time>2021-01-05T09:57:35</time>
      </trkpt>
      <trkpt lat="45.56433" lon="6.54846">
        <ele>1826.1069</ele>
        <time>2021-01-05T09:57:39</time>
      </trkpt>
      <trkpt lat="45.56443" lon="6.54861">
        <ele>1835.772</ele>
        <time>2021-01-05T09:58:05</time>
      </trkpt>
      <trkpt lat="45.56443" lon="6.54862">
        <ele>1835.6863</ele>
        <time>2021-01-05T09:58:06</time>
      </trkpt>
      <trkpt lat="45.56444" lon="6.54864">
        <ele>1834.7717</ele>
        <time>2021-01-05T09:58:09</time>
      </trkpt>
      <trkpt lat="45.56444" lon="6.54864">
        <ele>1834.3091</ele>
        <time>2021-01-05T09:58:10</time>
      </trkpt>
      <trkpt lat="45.56445" lon="6.54865">
        <ele>1834.1138</ele>
        <time>2021-01-05T09:58:12</time>
      </trkpt>
      <trkpt lat="45.56445" lon="6.54866">
        <ele>1834.9438</ele>
        <time>2021-01-05T09:58:13</time>
      </trkpt>
      <trkpt lat="45.56446" lon="6.54866">
        <ele>1836.5918</ele>
        <time>2021-01-05T09:58:16</time>
      </trkpt>
      <trkpt lat="45.56446" lon="6.54866">
        <ele>1836.0862</ele>
        <time>2021-01-05T09:58:17</time>
      </trkpt>
      <trkpt lat="45.56447" lon="6.54866">
        <ele>1836.3606</ele>
        <time>2021-01-05T09:58:18</time>
      </trkpt>
      <trkpt lat="45.56447" lon="6.54866">
        <ele>1836.8628</ele>
        <time>2021-01-05T09:58:21</time>
      </trkpt>
      <trkpt lat="45.5645" lon="6.54867">
        <ele>1836.627</ele>
        <time>2021-01-05T09:58:27</time>
      </trkpt>
      <trkpt lat="45.56459" lon="6.54873">
        <ele>1832.7349</ele>
        <time>2021-01-05T09:58:38</time>
      </trkpt>
      <trkpt lat="45.5646" lon="6.54874">
        <ele>1832.8342</ele>
        <time>2021-01-05T09:58:39</time>
      </trkpt>
      <trkpt lat="45.56463" lon="6.54875">
        <ele>1833.3135</ele>
        <time>2021-01-05T09:58:42</time>
      </trkpt>
      <trkpt lat="45.56465" lon="6.54875">
        <ele>1834.6997</ele>
        <time>2021-01-05T09:58:44</time>
      </trkpt>
      <trkpt lat="45.56466" lon="6.54875">
        <ele>1833.7812</ele>
        <time>2021-01-05T09:58:47</time>
      </trkpt>
      <trkpt lat="45.56467" lon="6.54875">
        <ele>1832.7485</ele>
        <time>2021-01-05T09:58:49</time>
      </trkpt>
      <trkpt lat="45.56471" lon="6.54873">
        <ele>1777.2383</ele>
        <time>2021-01-05T09:58:59</time>
      </trkpt>
      <trkpt lat="45.56471" lon="6.54873">
        <ele>1806.1042</ele>
        <time>2021-01-05T09:59:01</time>
      </trkpt>
      <trkpt lat="45.56472" lon="6.54874">
        <ele>1811.023</ele>
        <time>2021-01-05T09:59:02</time>
      </trkpt>
      <trkpt lat="45.56471" lon="6.54874">
        <ele>1819.3577</ele>
        <time>2021-01-05T09:59:06</time>
      </trkpt>
      <trkpt lat="45.56472" lon="6.54874">
        <ele>1822.3745</ele>
        <time>2021-01-05T09:59:06</time>
      </trkpt>
      <trkpt lat="45.56472" lon="6.54875">
        <ele>1825.0059</ele>
        <time>2021-01-05T09:59:07</time>
      </trkpt>
      <trkpt lat="45.56473" lon="6.54875">
        <ele>1828.0522</ele>
        <time>2021-01-05T09:59:08</time>
      </trkpt>
      <trkpt lat="45.56475" lon="6.54876">
        <ele>1829.792</ele>
        <time>2021-01-05T09:59:11</time>
      </trkpt>
      <trkpt lat="45.56476" lon="6.54877">
        <ele>1832.2332</ele>
        <time>2021-01-05T09:59:13</time>
      </trkpt>
      <trkpt lat="45.56477" lon="6.54877">
        <ele>1832.5813</ele>
        <time>2021-01-05T09:59:14</time>
      </trkpt>
      <trkpt lat="45.56479" lon="6.54878">
        <ele>1832.7168</ele>
        <time>2021-01-05T09:59:16</time>
      </trkpt>
      <trkpt lat="45.56481" lon="6.54876">
        <ele>1836.0522</ele>
        <time>2021-01-05T09:59:19</time>
      </trkpt>
      <trkpt lat="45.56482" lon="6.54875">
        <ele>1838.2898</ele>
        <time>2021-01-05T09:59:24</time>
      </trkpt>
      <trkpt lat="45.56485" lon="6.54879">
        <ele>1841.7554</ele>
        <time>2021-01-05T09:59:30</time>
      </trkpt>
      <trkpt lat="45.56488" lon="6.54882">
        <ele>1844.5522</ele>
        <time>2021-01-05T09:59:36</time>
      </trkpt>
      <trkpt lat="45.56488" lon="6.54882">
        <ele>1844.1992</ele>
        <time>2021-01-05T09:59:37</time>
      </trkpt>
      <trkpt lat="45.56488" lon="6.54883">
        <ele>1844.1855</ele>
        <time>2021-01-05T09:59:38</time>
      </trkpt>
      <trkpt lat="45.56488" lon="6.54884">
        <ele>1844.3369</ele>
        <time>2021-01-05T09:59:39</time>
      </trkpt>
      <trkpt lat="45.56489" lon="6.54885">
        <ele>1844.0879</ele>
        <time>2021-01-05T09:59:41</time>
      </trkpt>
      <trkpt lat="45.5649" lon="6.54887">
        <ele>1844.2483</ele>
        <time>2021-01-05T09:59:43</time>
      </trkpt>
      <trkpt lat="45.56493" lon="6.54904">
        <ele>1850.0623</ele>
        <time>2021-01-05T09:59:55</time>
      </trkpt>
      <trkpt lat="45.56493" lon="6.54905">
        <ele>1850.1467</ele>
        <time>2021-01-05T09:59:56</time>
      </trkpt>
      <trkpt lat="45.56494" lon="6.5491">
        <ele>1851.2114</ele>
        <time>2021-01-05T10:00:00</time>
      </trkpt>
      <trkpt lat="45.56494" lon="6.54912">
        <ele>1849.4846</ele>
        <time>2021-01-05T10:00:03</time>
      </trkpt>
      <trkpt lat="45.56494" lon="6.54912">
        <ele>1850.7444</ele>
        <time>2021-01-05T10:00:09</time>
      </trkpt>
      <trkpt lat="45.56494" lon="6.54912">
        <ele>1850.1687</ele>
        <time>2021-01-05T10:00:10</time>
      </trkpt>
      <trkpt lat="45.56493" lon="6.54911">
        <ele>1851.4038</ele>
        <time>2021-01-05T10:00:13</time>
      </trkpt>
      <trkpt lat="45.56494" lon="6.54908">
        <ele>1852.8955</ele>
        <time>2021-01-05T10:00:17</time>
      </trkpt>
      <trkpt lat="45.56494" lon="6.54906">
        <ele>1853.2126</ele>
        <time>2021-01-05T10:00:18</time>
      </trkpt>
      <trkpt lat="45.56493" lon="6.54906">
        <ele>1852.3242</ele>
        <time>2021-01-05T10:00:19</time>
      </trkpt>
      <trkpt lat="45.56493" lon="6.54906">
        <ele>1851.6633</ele>
        <time>2021-01-05T10:00:20</time>
      </trkpt>
      <trkpt lat="45.5649" lon="6.54907">
        <ele>1855.8137</ele>
        <time>2021-01-05T10:00:55</time>
      </trkpt>
      <trkpt lat="45.56486" lon="6.54905">
        <ele>1858.9526</ele>
        <time>2021-01-05T10:01:08</time>
      </trkpt>
      <trkpt lat="45.56486" lon="6.54905">
        <ele>1857.7329</ele>
        <time>2021-01-05T10:01:36</time>
      </trkpt>
      <trkpt lat="45.56486" lon="6.54906">
        <ele>1857.5166</ele>
        <time>2021-01-05T10:01:37</time>
      </trkpt>
      <trkpt lat="45.56485" lon="6.54906">
        <ele>1858.5083</ele>
        <time>2021-01-05T10:05:59</time>
      </trkpt>
      <trkpt lat="45.56485" lon="6.54906">
        <ele>1857.604</ele>
        <time>2021-01-05T10:06:03</time>
      </trkpt>
      <trkpt lat="45.56485" lon="6.54906">
        <ele>1857.6521</ele>
        <time>2021-01-05T10:06:04</time>
      </trkpt>
      <trkpt lat="45.56484" lon="6.54906">
        <ele>1857.4031</ele>
        <time>2021-01-05T10:06:05</time>
      </trkpt>
      <trkpt lat="45.56483" lon="6.54909">
        <ele>1856.9678</ele>
        <time>2021-01-05T10:07:14</time>
      </trkpt>
      <trkpt lat="45.56484" lon="6.5491">
        <ele>1856.4473</ele>
        <time>2021-01-05T10:11:01</time>
      </trkpt>
      <trkpt lat="45.56484" lon="6.54913">
        <ele>1855.8335</ele>
        <time>2021-01-05T10:11:03</time>
      </trkpt>
      <trkpt lat="45.56484" lon="6.54915">
        <ele>1854.2466</ele>
        <time>2021-01-05T10:11:05</time>
      </trkpt>
      <trkpt lat="45.56484" lon="6.54916">
        <ele>1855.7832</ele>
        <time>2021-01-05T10:11:08</time>
      </trkpt>
      <trkpt lat="45.56486" lon="6.5492">
        <ele>1802.1431</ele>
        <time>2021-01-05T10:11:17</time>
      </trkpt>
      <trkpt lat="45.56486" lon="6.54921">
        <ele>1810.5935</ele>
        <time>2021-01-05T10:11:18</time>
      </trkpt>
      <trkpt lat="45.5649" lon="6.54938">
        <ele>1853.4668</ele>
        <time>2021-01-05T10:11:34</time>
      </trkpt>
      <trkpt lat="45.5649" lon="6.54938">
        <ele>1855.1018</ele>
        <time>2021-01-05T10:11:35</time>
      </trkpt>
      <trkpt lat="45.56492" lon="6.5494">
        <ele>1855.7734</ele>
        <time>2021-01-05T10:11:40</time>
      </trkpt>
      <trkpt lat="45.56492" lon="6.54941">
        <ele>1855.2661</ele>
        <time>2021-01-05T10:11:43</time>
      </trkpt>
      <trkpt lat="45.56493" lon="6.54943">
        <ele>1854.897</ele>
        <time>2021-01-05T10:11:45</time>
      </trkpt>
      <trkpt lat="45.56494" lon="6.54944">
        <ele>1855.419</ele>
        <time>2021-01-05T10:11:47</time>
      </trkpt>
      <trkpt lat="45.56496" lon="6.54947">
        <ele>1855.8945</ele>
        <time>2021-01-05T10:11:50</time>
      </trkpt>
      <trkpt lat="45.56497" lon="6.54948">
        <ele>1855.7205</ele>
        <time>2021-01-05T10:11:53</time>
      </trkpt>
      <trkpt lat="45.56497" lon="6.54949">
        <ele>1855.6138</ele>
        <time>2021-01-05T10:11:55</time>
      </trkpt>
      <trkpt lat="45.56498" lon="6.54949">
        <ele>1855.4033</ele>
        <time>2021-01-05T10:11:56</time>
      </trkpt>
      <trkpt lat="45.56498" lon="6.54952">
        <ele>1854.7412</ele>
        <time>2021-01-05T10:12:04</time>
      </trkpt>
      <trkpt lat="45.56499" lon="6.54953">
        <ele>1855.104</ele>
        <time>2021-01-05T10:12:05</time>
      </trkpt>
      <trkpt lat="45.56499" lon="6.54954">
        <ele>1855.7312</ele>
        <time>2021-01-05T10:12:07</time>
      </trkpt>
      <trkpt lat="45.56503" lon="6.54964">
        <ele>1856.2441</ele>
        <time>2021-01-05T10:12:13</time>
      </trkpt>
      <trkpt lat="45.56504" lon="6.54966">
        <ele>1856.0742</ele>
        <time>2021-01-05T10:12:17</time>
      </trkpt>
      <trkpt lat="45.56504" lon="6.54968">
        <ele>1856.6313</ele>
        <time>2021-01-05T10:12:19</time>
      </trkpt>
      <trkpt lat="45.56505" lon="6.54968">
        <ele>1857.4988</ele>
        <time>2021-01-05T10:12:21</time>
      </trkpt>
      <trkpt lat="45.56506" lon="6.5497">
        <ele>1849.3418</ele>
        <time>2021-01-05T10:12:32</time>
      </trkpt>
      <trkpt lat="45.56514" lon="6.54982">
        <ele>1859.4644</ele>
        <time>2021-01-05T10:12:43</time>
      </trkpt>
      <trkpt lat="45.56515" lon="6.54983">
        <ele>1860.1904</ele>
        <time>2021-01-05T10:12:45</time>
      </trkpt>
      <trkpt lat="45.56515" lon="6.54983">
        <ele>1862.605</ele>
        <time>2021-01-05T10:12:49</time>
      </trkpt>
      <trkpt lat="45.56518" lon="6.54988">
        <ele>1859.7554</ele>
        <time>2021-01-05T10:12:53</time>
      </trkpt>
      <trkpt lat="45.56519" lon="6.54993">
        <ele>1860.7275</ele>
        <time>2021-01-05T10:12:57</time>
      </trkpt>
      <trkpt lat="45.56517" lon="6.54996">
        <ele>1862.729</ele>
        <time>2021-01-05T10:13:00</time>
      </trkpt>
      <trkpt lat="45.56512" lon="6.55006">
        <ele>1867.7683</ele>
        <time>2021-01-05T10:13:11</time>
      </trkpt>
      <trkpt lat="45.56508" lon="6.55011">
        <ele>1868.0339</ele>
        <time>2021-01-05T10:13:18</time>
      </trkpt>
      <trkpt lat="45.56506" lon="6.55013">
        <ele>1867.186</ele>
        <time>2021-01-05T10:13:21</time>
      </trkpt>
      <trkpt lat="45.56503" lon="6.55017">
        <ele>1869.3008</ele>
        <time>2021-01-05T10:13:26</time>
      </trkpt>
      <trkpt lat="45.56502" lon="6.55016">
        <ele>1869.8145</ele>
        <time>2021-01-05T10:13:29</time>
      </trkpt>
      <trkpt lat="45.56503" lon="6.55017">
        <ele>1869.0771</ele>
        <time>2021-01-05T10:13:41</time>
      </trkpt>
      <trkpt lat="45.5651" lon="6.5502">
        <ele>1869.8547</ele>
        <time>2021-01-05T10:13:47</time>
      </trkpt>
      <trkpt lat="45.56514" lon="6.55021">
        <ele>1869.491</ele>
        <time>2021-01-05T10:13:53</time>
      </trkpt>
      <trkpt lat="45.56518" lon="6.55021">
        <ele>1874.3735</ele>
        <time>2021-01-05T10:13:58</time>
      </trkpt>
      <trkpt lat="45.56522" lon="6.55018">
        <ele>1873.999</ele>
        <time>2021-01-05T10:14:04</time>
      </trkpt>
      <trkpt lat="45.56523" lon="6.55016">
        <ele>1873.508</ele>
        <time>2021-01-05T10:14:06</time>
      </trkpt>
      <trkpt lat="45.56524" lon="6.55016">
        <ele>1834.0632</ele>
        <time>2021-01-05T10:14:12</time>
      </trkpt>
      <trkpt lat="45.56526" lon="6.55016">
        <ele>1838.6826</ele>
        <time>2021-01-05T10:14:14</time>
      </trkpt>
      <trkpt lat="45.56531" lon="6.55018">
        <ele>1853.373</ele>
        <time>2021-01-05T10:14:19</time>
      </trkpt>
      <trkpt lat="45.56532" lon="6.55018">
        <ele>1856.7004</ele>
        <time>2021-01-05T10:14:20</time>
      </trkpt>
      <trkpt lat="45.56534" lon="6.55018">
        <ele>1860.9502</ele>
        <time>2021-01-05T10:14:22</time>
      </trkpt>
      <trkpt lat="45.56539" lon="6.55016">
        <ele>1866.0747</ele>
        <time>2021-01-05T10:14:28</time>
      </trkpt>
      <trkpt lat="45.56541" lon="6.55012">
        <ele>1868.4993</ele>
        <time>2021-01-05T10:14:35</time>
      </trkpt>
      <trkpt lat="45.56541" lon="6.55011">
        <ele>1869.7732</ele>
        <time>2021-01-05T10:14:41</time>
      </trkpt>
      <trkpt lat="45.56541" lon="6.55009">
        <ele>1869.8682</ele>
        <time>2021-01-05T10:14:42</time>
      </trkpt>
      <trkpt lat="45.56542" lon="6.55007">
        <ele>1868.9404</ele>
        <time>2021-01-05T10:14:44</time>
      </trkpt>
      <trkpt lat="45.56546" lon="6.55002">
        <ele>1873.4521</ele>
        <time>2021-01-05T10:14:51</time>
      </trkpt>
      <trkpt lat="45.56547" lon="6.55001">
        <ele>1873.5603</ele>
        <time>2021-01-05T10:14:53</time>
      </trkpt>
      <trkpt lat="45.56548" lon="6.55001">
        <ele>1874.8105</ele>
        <time>2021-01-05T10:14:54</time>
      </trkpt>
      <trkpt lat="45.56548" lon="6.55001">
        <ele>1874.7173</ele>
        <time>2021-01-05T10:14:55</time>
      </trkpt>
      <trkpt lat="45.56548" lon="6.55">
        <ele>1875.2544</ele>
        <time>2021-01-05T10:14:58</time>
      </trkpt>
      <trkpt lat="45.56548" lon="6.54999">
        <ele>1875.0615</ele>
        <time>2021-01-05T10:14:59</time>
      </trkpt>
      <trkpt lat="45.56548" lon="6.54999">
        <ele>1876.2144</ele>
        <time>2021-01-05T10:15:00</time>
      </trkpt>
      <trkpt lat="45.56549" lon="6.54998">
        <ele>1877.4038</ele>
        <time>2021-01-05T10:15:01</time>
      </trkpt>
      <trkpt lat="45.56552" lon="6.54997">
        <ele>1878.8386</ele>
        <time>2021-01-05T10:15:04</time>
      </trkpt>
      <trkpt lat="45.56551" lon="6.54996">
        <ele>1878.9578</ele>
        <time>2021-01-05T10:15:05</time>
      </trkpt>
      <trkpt lat="45.56552" lon="6.54996">
        <ele>1879.4443</ele>
        <time>2021-01-05T10:15:07</time>
      </trkpt>
      <trkpt lat="45.56556" lon="6.54993">
        <ele>1879.5359</ele>
        <time>2021-01-05T10:15:11</time>
      </trkpt>
      <trkpt lat="45.56556" lon="6.54993">
        <ele>1878.9011</ele>
        <time>2021-01-05T10:15:12</time>
      </trkpt>
      <trkpt lat="45.56557" lon="6.54992">
        <ele>1878.8975</ele>
        <time>2021-01-05T10:15:13</time>
      </trkpt>
      <trkpt lat="45.56558" lon="6.54991">
        <ele>1878.7295</ele>
        <time>2021-01-05T10:15:15</time>
      </trkpt>
      <trkpt lat="45.56558" lon="6.54991">
        <ele>1879.1221</ele>
        <time>2021-01-05T10:15:16</time>
      </trkpt>
      <trkpt lat="45.56556" lon="6.54992">
        <ele>1878.179</ele>
        <time>2021-01-05T10:15:23</time>
      </trkpt>
      <trkpt lat="45.56556" lon="6.54993">
        <ele>1878.2471</ele>
        <time>2021-01-05T10:15:25</time>
      </trkpt>
      <trkpt lat="45.56556" lon="6.54995">
        <ele>1878.9072</ele>
        <time>2021-01-05T10:15:28</time>
      </trkpt>
      <trkpt lat="45.56556" lon="6.54995">
        <ele>1877.4185</ele>
        <time>2021-01-05T10:15:29</time>
      </trkpt>
      <trkpt lat="45.56556" lon="6.54997">
        <ele>1878.8921</ele>
        <time>2021-01-05T10:15:36</time>
      </trkpt>
      <trkpt lat="45.56556" lon="6.54997">
        <ele>1879.0176</ele>
        <time>2021-01-05T10:15:37</time>
      </trkpt>
      <trkpt lat="45.56556" lon="6.54998">
        <ele>1878.7351</ele>
        <time>2021-01-05T10:15:38</time>
      </trkpt>
      <trkpt lat="45.56555" lon="6.55006">
        <ele>1876.897</ele>
        <time>2021-01-05T10:15:47</time>
      </trkpt>
      <trkpt lat="45.56556" lon="6.55015">
        <ele>1881.1855</ele>
        <time>2021-01-05T10:15:54</time>
      </trkpt>
      <trkpt lat="45.56556" lon="6.55017">
        <ele>1880.4604</ele>
        <time>2021-01-05T10:15:56</time>
      </trkpt>
      <trkpt lat="45.56554" lon="6.5503">
        <ele>1751.1963</ele>
        <time>2021-01-05T10:16:05</time>
      </trkpt>
      <trkpt lat="45.56554" lon="6.55033">
        <ele>1800.9541</ele>
        <time>2021-01-05T10:16:09</time>
      </trkpt>
      <trkpt lat="45.56554" lon="6.55033">
        <ele>1840.9956</ele>
        <time>2021-01-05T10:16:11</time>
      </trkpt>
      <trkpt lat="45.56554" lon="6.55032">
        <ele>1852.492</ele>
        <time>2021-01-05T10:16:12</time>
      </trkpt>
      <trkpt lat="45.56554" lon="6.55029">
        <ele>1876.3833</ele>
        <time>2021-01-05T10:16:18</time>
      </trkpt>
      <trkpt lat="45.56554" lon="6.55029">
        <ele>1875.9575</ele>
        <time>2021-01-05T10:16:20</time>
      </trkpt>
      <trkpt lat="45.56555" lon="6.5503">
        <ele>1875.6663</ele>
        <time>2021-01-05T10:16:21</time>
      </trkpt>
      <trkpt lat="45.56558" lon="6.55031">
        <ele>1879.5547</ele>
        <time>2021-01-05T10:16:25</time>
      </trkpt>
      <trkpt lat="45.56568" lon="6.55033">
        <ele>1886.9695</ele>
        <time>2021-01-05T10:16:38</time>
      </trkpt>
      <trkpt lat="45.5657" lon="6.55032">
        <ele>1890.3032</ele>
        <time>2021-01-05T10:16:48</time>
      </trkpt>
      <trkpt lat="45.56572" lon="6.55032">
        <ele>1891.1924</ele>
        <time>2021-01-05T10:16:50</time>
      </trkpt>
      <trkpt lat="45.56572" lon="6.55033">
        <ele>1890.71</ele>
        <time>2021-01-05T10:16:51</time>
      </trkpt>
      <trkpt lat="45.56573" lon="6.55033">
        <ele>1891.4272</ele>
        <time>2021-01-05T10:16:52</time>
      </trkpt>
      <trkpt lat="45.56574" lon="6.55035">
        <ele>1890.1729</ele>
        <time>2021-01-05T10:16:53</time>
      </trkpt>
      <trkpt lat="45.56578" lon="6.55038">
        <ele>1888.5593</ele>
        <time>2021-01-05T10:17:09</time>
      </trkpt>
      <trkpt lat="45.56585" lon="6.55047">
        <ele>1886.7874</ele>
        <time>2021-01-05T10:17:19</time>
      </trkpt>
      <trkpt lat="45.56587" lon="6.55048">
        <ele>1887.3535</ele>
        <time>2021-01-05T10:17:25</time>
      </trkpt>
      <trkpt lat="45.56585" lon="6.55054">
        <ele>1888.2734</ele>
        <time>2021-01-05T10:17:32</time>
      </trkpt>
      <trkpt lat="45.56586" lon="6.55055">
        <ele>1888.1665</ele>
        <time>2021-01-05T10:17:33</time>
      </trkpt>
      <trkpt lat="45.56586" lon="6.55058">
        <ele>1890.1436</ele>
        <time>2021-01-05T10:17:41</time>
      </trkpt>
      <trkpt lat="45.56586" lon="6.55059">
        <ele>1890.685</ele>
        <time>2021-01-05T10:17:42</time>
      </trkpt>
      <trkpt lat="45.56586" lon="6.5506">
        <ele>1892.356</ele>
        <time>2021-01-05T10:17:44</time>
      </trkpt>
      <trkpt lat="45.56588" lon="6.55061">
        <ele>1893.4834</ele>
        <time>2021-01-05T10:17:47</time>
      </trkpt>
      <trkpt lat="45.56589" lon="6.55061">
        <ele>1894.8977</ele>
        <time>2021-01-05T10:17:51</time>
      </trkpt>
      <trkpt lat="45.5659" lon="6.55061">
        <ele>1898.0596</ele>
        <time>2021-01-05T10:17:54</time>
      </trkpt>
      <trkpt lat="45.56593" lon="6.55064">
        <ele>1898.0271</ele>
        <time>2021-01-05T10:18:00</time>
      </trkpt>
      <trkpt lat="45.56593" lon="6.55064">
        <ele>1898.0671</ele>
        <time>2021-01-05T10:18:01</time>
      </trkpt>
      <trkpt lat="45.56593" lon="6.55064">
        <ele>1898.6348</ele>
        <time>2021-01-05T10:18:02</time>
      </trkpt>
      <trkpt lat="45.56593" lon="6.55065">
        <ele>1898.728</ele>
        <time>2021-01-05T10:18:06</time>
      </trkpt>
      <trkpt lat="45.56594" lon="6.55067">
        <ele>1898.8442</ele>
        <time>2021-01-05T10:18:10</time>
      </trkpt>
      <trkpt lat="45.56594" lon="6.55067">
        <ele>1899.3533</ele>
        <time>2021-01-05T10:18:11</time>
      </trkpt>
      <trkpt lat="45.56594" lon="6.55069">
        <ele>1899.5903</ele>
        <time>2021-01-05T10:18:12</time>
      </trkpt>
      <trkpt lat="45.56594" lon="6.5507">
        <ele>1898.8762</ele>
        <time>2021-01-05T10:18:13</time>
      </trkpt>
      <trkpt lat="45.56595" lon="6.5508">
        <ele>1898.2861</ele>
        <time>2021-01-05T10:18:20</time>
      </trkpt>
      <trkpt lat="45.56596" lon="6.55081">
        <ele>1898.7566</ele>
        <time>2021-01-05T10:18:21</time>
      </trkpt>
      <trkpt lat="45.56596" lon="6.55083">
        <ele>1898.8804</ele>
        <time>2021-01-05T10:18:26</time>
      </trkpt>
      <trkpt lat="45.56596" lon="6.55086">
        <ele>1899.019</ele>
        <time>2021-01-05T10:18:28</time>
      </trkpt>
      <trkpt lat="45.56596" lon="6.5509">
        <ele>1900.2012</ele>
        <time>2021-01-05T10:18:31</time>
      </trkpt>
      <trkpt lat="45.56594" lon="6.55098">
        <ele>1896.6426</ele>
        <time>2021-01-05T10:18:41</time>
      </trkpt>
      <trkpt lat="45.56594" lon="6.55099">
        <ele>1896.3999</ele>
        <time>2021-01-05T10:18:43</time>
      </trkpt>
      <trkpt lat="45.56594" lon="6.55101">
        <ele>1896.1348</ele>
        <time>2021-01-05T10:18:44</time>
      </trkpt>
      <trkpt lat="45.56595" lon="6.55108">
        <ele>1896.2505</ele>
        <time>2021-01-05T10:18:49</time>
      </trkpt>
      <trkpt lat="45.56594" lon="6.55112">
        <ele>1895.7764</ele>
        <time>2021-01-05T10:18:54</time>
      </trkpt>
      <trkpt lat="45.56593" lon="6.55112">
        <ele>1895.9966</ele>
        <time>2021-01-05T10:18:55</time>
      </trkpt>
      <trkpt lat="45.56593" lon="6.55113">
        <ele>1895.7554</ele>
        <time>2021-01-05T10:18:56</time>
      </trkpt>
      <trkpt lat="45.56592" lon="6.55116">
        <ele>1895.9016</ele>
        <time>2021-01-05T10:18:58</time>
      </trkpt>
      <trkpt lat="45.56591" lon="6.55117">
        <ele>1897.1274</ele>
        <time>2021-01-05T10:19:00</time>
      </trkpt>
      <trkpt lat="45.56591" lon="6.55118">
        <ele>1898.1321</ele>
        <time>2021-01-05T10:19:01</time>
      </trkpt>
      <trkpt lat="45.5659" lon="6.55118">
        <ele>1899.396</ele>
        <time>2021-01-05T10:19:02</time>
      </trkpt>
      <trkpt lat="45.56588" lon="6.5512">
        <ele>1900.1877</ele>
        <time>2021-01-05T10:19:07</time>
      </trkpt>
      <trkpt lat="45.56588" lon="6.5512">
        <ele>1901.8965</ele>
        <time>2021-01-05T10:19:09</time>
      </trkpt>
      <trkpt lat="45.56585" lon="6.55124">
        <ele>1903.1001</ele>
        <time>2021-01-05T10:19:14</time>
      </trkpt>
      <trkpt lat="45.56584" lon="6.55127">
        <ele>1905.2385</ele>
        <time>2021-01-05T10:19:17</time>
      </trkpt>
      <trkpt lat="45.56584" lon="6.5513">
        <ele>1909.0205</ele>
        <time>2021-01-05T10:19:21</time>
      </trkpt>
      <trkpt lat="45.56582" lon="6.55132">
        <ele>1910.581</ele>
        <time>2021-01-05T10:19:25</time>
      </trkpt>
      <trkpt lat="45.56581" lon="6.55134">
        <ele>1911.521</ele>
        <time>2021-01-05T10:19:30</time>
      </trkpt>
      <trkpt lat="45.56581" lon="6.55136">
        <ele>1911.1511</ele>
        <time>2021-01-05T10:19:32</time>
      </trkpt>
      <trkpt lat="45.56582" lon="6.55138">
        <ele>1910.4128</ele>
        <time>2021-01-05T10:19:35</time>
      </trkpt>
      <trkpt lat="45.56582" lon="6.5514">
        <ele>1911.4236</ele>
        <time>2021-01-05T10:19:40</time>
      </trkpt>
      <trkpt lat="45.56587" lon="6.5515">
        <ele>1858.133</ele>
        <time>2021-01-05T10:19:46</time>
      </trkpt>
      <trkpt lat="45.56588" lon="6.55151">
        <ele>1869.7417</ele>
        <time>2021-01-05T10:19:47</time>
      </trkpt>
      <trkpt lat="45.56588" lon="6.55152">
        <ele>1880.7471</ele>
        <time>2021-01-05T10:19:48</time>
      </trkpt>
      <trkpt lat="45.56588" lon="6.55153">
        <ele>1903.1255</ele>
        <time>2021-01-05T10:19:54</time>
      </trkpt>
      <trkpt lat="45.56591" lon="6.55157">
        <ele>1905.7295</ele>
        <time>2021-01-05T10:19:57</time>
      </trkpt>
      <trkpt lat="45.56591" lon="6.55157">
        <ele>1906.8716</ele>
        <time>2021-01-05T10:19:58</time>
      </trkpt>
      <trkpt lat="45.56591" lon="6.55158">
        <ele>1908.4302</ele>
        <time>2021-01-05T10:19:59</time>
      </trkpt>
      <trkpt lat="45.56592" lon="6.55158">
        <ele>1909.1875</ele>
        <time>2021-01-05T10:20:00</time>
      </trkpt>
      <trkpt lat="45.56592" lon="6.55159">
        <ele>1910.2603</ele>
        <time>2021-01-05T10:20:02</time>
      </trkpt>
      <trkpt lat="45.56595" lon="6.55164">
        <ele>1913.9006</ele>
        <time>2021-01-05T10:20:08</time>
      </trkpt>
      <trkpt lat="45.56596" lon="6.55165">
        <ele>1913.7905</ele>
        <time>2021-01-05T10:20:09</time>
      </trkpt>
      <trkpt lat="45.56599" lon="6.55173">
        <ele>1913.8096</ele>
        <time>2021-01-05T10:20:18</time>
      </trkpt>
      <trkpt lat="45.566" lon="6.55174">
        <ele>1915.1733</ele>
        <time>2021-01-05T10:20:23</time>
      </trkpt>
      <trkpt lat="45.56604" lon="6.55179">
        <ele>1917.9116</ele>
        <time>2021-01-05T10:20:31</time>
      </trkpt>
      <trkpt lat="45.56604" lon="6.5518">
        <ele>1920.0713</ele>
        <time>2021-01-05T10:20:34</time>
      </trkpt>
      <trkpt lat="45.56607" lon="6.55184">
        <ele>1921.1179</ele>
        <time>2021-01-05T10:20:42</time>
      </trkpt>
      <trkpt lat="45.56608" lon="6.55184">
        <ele>1921.1509</ele>
        <time>2021-01-05T10:20:44</time>
      </trkpt>
      <trkpt lat="45.56618" lon="6.55194">
        <ele>1921.2363</ele>
        <time>2021-01-05T10:20:54</time>
      </trkpt>
      <trkpt lat="45.56619" lon="6.55195">
        <ele>1921.7231</ele>
        <time>2021-01-05T10:20:56</time>
      </trkpt>
      <trkpt lat="45.5662" lon="6.55198">
        <ele>1920.294</ele>
        <time>2021-01-05T10:20:58</time>
      </trkpt>
      <trkpt lat="45.56621" lon="6.55198">
        <ele>1920.886</ele>
        <time>2021-01-05T10:20:59</time>
      </trkpt>
      <trkpt lat="45.56621" lon="6.552">
        <ele>1922.1548</ele>
        <time>2021-01-05T10:21:01</time>
      </trkpt>
      <trkpt lat="45.56621" lon="6.55201">
        <ele>1922.4324</ele>
        <time>2021-01-05T10:21:02</time>
      </trkpt>
      <trkpt lat="45.56622" lon="6.55201">
        <ele>1922.0195</ele>
        <time>2021-01-05T10:21:03</time>
      </trkpt>
      <trkpt lat="45.56622" lon="6.55201">
        <ele>1923.0344</ele>
        <time>2021-01-05T10:21:04</time>
      </trkpt>
      <trkpt lat="45.56623" lon="6.55203">
        <ele>1923.4934</ele>
        <time>2021-01-05T10:21:07</time>
      </trkpt>
      <trkpt lat="45.56627" lon="6.55209">
        <ele>1921.6489</ele>
        <time>2021-01-05T10:21:12</time>
      </trkpt>
      <trkpt lat="45.56628" lon="6.5521">
        <ele>1921.2278</ele>
        <time>2021-01-05T10:21:13</time>
      </trkpt>
      <trkpt lat="45.56629" lon="6.55212">
        <ele>1920.6372</ele>
        <time>2021-01-05T10:21:14</time>
      </trkpt>
      <trkpt lat="45.56632" lon="6.55214">
        <ele>1921.2427</ele>
        <time>2021-01-05T10:21:17</time>
      </trkpt>
      <trkpt lat="45.56632" lon="6.55215">
        <ele>1921.6592</ele>
        <time>2021-01-05T10:21:19</time>
      </trkpt>
      <trkpt lat="45.56633" lon="6.55216">
        <ele>1922.0137</ele>
        <time>2021-01-05T10:21:20</time>
      </trkpt>
      <trkpt lat="45.56635" lon="6.55222">
        <ele>1924.9126</ele>
        <time>2021-01-05T10:21:27</time>
      </trkpt>
      <trkpt lat="45.56635" lon="6.55222">
        <ele>1925.2051</ele>
        <time>2021-01-05T10:21:31</time>
      </trkpt>
      <trkpt lat="45.56641" lon="6.55229">
        <ele>1925.7273</ele>
        <time>2021-01-05T10:21:41</time>
      </trkpt>
      <trkpt lat="45.56641" lon="6.55229">
        <ele>1926.0889</ele>
        <time>2021-01-05T10:21:42</time>
      </trkpt>
      <trkpt lat="45.56643" lon="6.55232">
        <ele>1927.667</ele>
        <time>2021-01-05T10:21:46</time>
      </trkpt>
      <trkpt lat="45.56644" lon="6.55233">
        <ele>1928.9619</ele>
        <time>2021-01-05T10:21:47</time>
      </trkpt>
      <trkpt lat="45.56644" lon="6.55233">
        <ele>1929.6323</ele>
        <time>2021-01-05T10:21:48</time>
      </trkpt>
      <trkpt lat="45.56646" lon="6.55235">
        <ele>1929.6812</ele>
        <time>2021-01-05T10:21:50</time>
      </trkpt>
      <trkpt lat="45.56647" lon="6.55235">
        <ele>1929.3049</ele>
        <time>2021-01-05T10:21:53</time>
      </trkpt>
      <trkpt lat="45.56648" lon="6.55236">
        <ele>1930.0254</ele>
        <time>2021-01-05T10:22:00</time>
      </trkpt>
      <trkpt lat="45.56649" lon="6.55237">
        <ele>1930.5938</ele>
        <time>2021-01-05T10:22:02</time>
      </trkpt>
      <trkpt lat="45.56649" lon="6.55239">
        <ele>1930.3657</ele>
        <time>2021-01-05T10:22:05</time>
      </trkpt>
      <trkpt lat="45.56651" lon="6.55241">
        <ele>1931.5874</ele>
        <time>2021-01-05T10:22:07</time>
      </trkpt>
      <trkpt lat="45.56653" lon="6.55242">
        <ele>1932.6187</ele>
        <time>2021-01-05T10:22:09</time>
      </trkpt>
      <trkpt lat="45.56656" lon="6.55244">
        <ele>1933.1074</ele>
        <time>2021-01-05T10:22:13</time>
      </trkpt>
      <trkpt lat="45.56656" lon="6.55244">
        <ele>1933.4282</ele>
        <time>2021-01-05T10:22:14</time>
      </trkpt>
      <trkpt lat="45.56658" lon="6.55246">
        <ele>1932.6807</ele>
        <time>2021-01-05T10:22:15</time>
      </trkpt>
      <trkpt lat="45.5666" lon="6.55248">
        <ele>1932.3906</ele>
        <time>2021-01-05T10:22:18</time>
      </trkpt>
      <trkpt lat="45.5666" lon="6.55249">
        <ele>1931.9458</ele>
        <time>2021-01-05T10:22:19</time>
      </trkpt>
      <trkpt lat="45.56671" lon="6.55256">
        <ele>1936.3809</ele>
        <time>2021-01-05T10:22:30</time>
      </trkpt>
      <trkpt lat="45.56674" lon="6.55258">
        <ele>1936.0566</ele>
        <time>2021-01-05T10:22:34</time>
      </trkpt>
      <trkpt lat="45.56676" lon="6.55257">
        <ele>1935.689</ele>
        <time>2021-01-05T10:22:36</time>
      </trkpt>
      <trkpt lat="45.56679" lon="6.55257">
        <ele>1934.7002</ele>
        <time>2021-01-05T10:22:39</time>
      </trkpt>
      <trkpt lat="45.5668" lon="6.55257">
        <ele>1934.9922</ele>
        <time>2021-01-05T10:22:40</time>
      </trkpt>
      <trkpt lat="45.56685" lon="6.55258">
        <ele>1934.4915</ele>
        <time>2021-01-05T10:22:45</time>
      </trkpt>
      <trkpt lat="45.56686" lon="6.55258">
        <ele>1934.1475</ele>
        <time>2021-01-05T10:22:46</time>
      </trkpt>
      <trkpt lat="45.56687" lon="6.55258">
        <ele>1934.081</ele>
        <time>2021-01-05T10:22:48</time>
      </trkpt>
      <trkpt lat="45.56687" lon="6.55259">
        <ele>1934.3701</ele>
        <time>2021-01-05T10:22:51</time>
      </trkpt>
      <trkpt lat="45.56688" lon="6.55261">
        <ele>1935.0171</ele>
        <time>2021-01-05T10:22:52</time>
      </trkpt>
      <trkpt lat="45.5669" lon="6.55265">
        <ele>1936.1431</ele>
        <time>2021-01-05T10:22:58</time>
      </trkpt>
      <trkpt lat="45.56691" lon="6.55266">
        <ele>1935.3506</ele>
        <time>2021-01-05T10:22:59</time>
      </trkpt>
      <trkpt lat="45.56691" lon="6.55266">
        <ele>1935.0815</ele>
        <time>2021-01-05T10:23:00</time>
      </trkpt>
      <trkpt lat="45.56691" lon="6.55266">
        <ele>1935.6768</ele>
        <time>2021-01-05T10:23:01</time>
      </trkpt>
      <trkpt lat="45.56693" lon="6.55268">
        <ele>1936.416</ele>
        <time>2021-01-05T10:23:04</time>
      </trkpt>
      <trkpt lat="45.56693" lon="6.55269">
        <ele>1936.4929</ele>
        <time>2021-01-05T10:23:05</time>
      </trkpt>
      <trkpt lat="45.56697" lon="6.55272">
        <ele>1938.9368</ele>
        <time>2021-01-05T10:23:09</time>
      </trkpt>
      <trkpt lat="45.567" lon="6.55274">
        <ele>1936.4028</ele>
        <time>2021-01-05T10:23:11</time>
      </trkpt>
      <trkpt lat="45.56702" lon="6.55276">
        <ele>1936.4233</ele>
        <time>2021-01-05T10:23:14</time>
      </trkpt>
      <trkpt lat="45.56705" lon="6.55279">
        <ele>1938.3228</ele>
        <time>2021-01-05T10:23:18</time>
      </trkpt>
      <trkpt lat="45.56705" lon="6.5528">
        <ele>1937.8447</ele>
        <time>2021-01-05T10:23:20</time>
      </trkpt>
      <trkpt lat="45.56706" lon="6.55281">
        <ele>1937.9836</ele>
        <time>2021-01-05T10:23:21</time>
      </trkpt>
      <trkpt lat="45.56706" lon="6.55281">
        <ele>1937.9238</ele>
        <time>2021-01-05T10:23:22</time>
      </trkpt>
      <trkpt lat="45.56707" lon="6.55284">
        <ele>1936.8096</ele>
        <time>2021-01-05T10:23:26</time>
      </trkpt>
      <trkpt lat="45.56707" lon="6.55284">
        <ele>1937.2351</ele>
        <time>2021-01-05T10:23:27</time>
      </trkpt>
      <trkpt lat="45.56707" lon="6.55284">
        <ele>1937.0356</ele>
        <time>2021-01-05T10:23:28</time>
      </trkpt>
      <trkpt lat="45.56707" lon="6.55285">
        <ele>1937.1523</ele>
        <time>2021-01-05T10:23:29</time>
      </trkpt>
      <trkpt lat="45.56709" lon="6.55286">
        <ele>1938.1309</ele>
        <time>2021-01-05T10:23:33</time>
      </trkpt>
      <trkpt lat="45.56709" lon="6.55287">
        <ele>1937.7224</ele>
        <time>2021-01-05T10:23:34</time>
      </trkpt>
      <trkpt lat="45.5671" lon="6.55288">
        <ele>1937.7881</ele>
        <time>2021-01-05T10:23:35</time>
      </trkpt>
      <trkpt lat="45.56714" lon="6.5529">
        <ele>1939.5532</ele>
        <time>2021-01-05T10:23:39</time>
      </trkpt>
      <trkpt lat="45.56715" lon="6.55291">
        <ele>1939.5723</ele>
        <time>2021-01-05T10:23:40</time>
      </trkpt>
      <trkpt lat="45.56719" lon="6.55291">
        <ele>1940.8506</ele>
        <time>2021-01-05T10:23:46</time>
      </trkpt>
      <trkpt lat="45.56721" lon="6.55294">
        <ele>1939.9136</ele>
        <time>2021-01-05T10:23:57</time>
      </trkpt>
      <trkpt lat="45.56721" lon="6.55293">
        <ele>1940.7112</ele>
        <time>2021-01-05T10:23:58</time>
      </trkpt>
      <trkpt lat="45.56722" lon="6.55292">
        <ele>1941.3706</ele>
        <time>2021-01-05T10:24:04</time>
      </trkpt>
      <trkpt lat="45.56722" lon="6.55292">
        <ele>1941.1436</ele>
        <time>2021-01-05T10:24:05</time>
      </trkpt>
      <trkpt lat="45.56722" lon="6.55292">
        <ele>1940.8667</ele>
        <time>2021-01-05T10:24:07</time>
      </trkpt>
      <trkpt lat="45.56722" lon="6.55293">
        <ele>1940.3667</ele>
        <time>2021-01-05T10:24:08</time>
      </trkpt>
      <trkpt lat="45.56723" lon="6.55293">
        <ele>1942.477</ele>
        <time>2021-01-05T10:24:11</time>
      </trkpt>
      <trkpt lat="45.56723" lon="6.55294">
        <ele>1942.4102</ele>
        <time>2021-01-05T10:24:12</time>
      </trkpt>
      <trkpt lat="45.56724" lon="6.55296">
        <ele>1942.0332</ele>
        <time>2021-01-05T10:24:19</time>
      </trkpt>
      <trkpt lat="45.56726" lon="6.55298">
        <ele>1942.8354</ele>
        <time>2021-01-05T10:24:20</time>
      </trkpt>
      <trkpt lat="45.5673" lon="6.553">
        <ele>1945.5522</ele>
        <time>2021-01-05T10:24:26</time>
      </trkpt>
      <trkpt lat="45.56731" lon="6.553">
        <ele>1946.0718</ele>
        <time>2021-01-05T10:24:27</time>
      </trkpt>
      <trkpt lat="45.56733" lon="6.55301">
        <ele>1945.9985</ele>
        <time>2021-01-05T10:24:29</time>
      </trkpt>
      <trkpt lat="45.56742" lon="6.55303">
        <ele>1946.8154</ele>
        <time>2021-01-05T10:24:44</time>
      </trkpt>
      <trkpt lat="45.56744" lon="6.55303">
        <ele>1947.9592</ele>
        <time>2021-01-05T10:24:48</time>
      </trkpt>
      <trkpt lat="45.56746" lon="6.55304">
        <ele>1948.9956</ele>
        <time>2021-01-05T10:24:51</time>
      </trkpt>
      <trkpt lat="45.56748" lon="6.55306">
        <ele>1948.8867</ele>
        <time>2021-01-05T10:24:54</time>
      </trkpt>
      <trkpt lat="45.56749" lon="6.55306">
        <ele>1950.1848</ele>
        <time>2021-01-05T10:24:57</time>
      </trkpt>
      <trkpt lat="45.56749" lon="6.55308">
        <ele>1950.8096</ele>
        <time>2021-01-05T10:25:00</time>
      </trkpt>
      <trkpt lat="45.56749" lon="6.55307">
        <ele>1951.5813</ele>
        <time>2021-01-05T10:25:02</time>
      </trkpt>
      <trkpt lat="45.56751" lon="6.5531">
        <ele>1951.0938</ele>
        <time>2021-01-05T10:25:05</time>
      </trkpt>
      <trkpt lat="45.56752" lon="6.55311">
        <ele>1951.637</ele>
        <time>2021-01-05T10:25:09</time>
      </trkpt>
      <trkpt lat="45.56753" lon="6.55313">
        <ele>1952.4753</ele>
        <time>2021-01-05T10:25:11</time>
      </trkpt>
      <trkpt lat="45.56753" lon="6.55315">
        <ele>1952.9397</ele>
        <time>2021-01-05T10:25:18</time>
      </trkpt>
      <trkpt lat="45.56754" lon="6.55317">
        <ele>1954.1042</ele>
        <time>2021-01-05T10:25:21</time>
      </trkpt>
      <trkpt lat="45.56754" lon="6.55317">
        <ele>1954.1187</ele>
        <time>2021-01-05T10:25:23</time>
      </trkpt>
      <trkpt lat="45.56756" lon="6.5532">
        <ele>1953.4028</ele>
        <time>2021-01-05T10:25:25</time>
      </trkpt>
      <trkpt lat="45.56756" lon="6.55322">
        <ele>1954.5552</ele>
        <time>2021-01-05T10:25:31</time>
      </trkpt>
      <trkpt lat="45.56759" lon="6.55325">
        <ele>1951.8962</ele>
        <time>2021-01-05T10:25:34</time>
      </trkpt>
      <trkpt lat="45.5676" lon="6.55326">
        <ele>1954.0845</ele>
        <time>2021-01-05T10:25:43</time>
      </trkpt>
      <trkpt lat="45.56759" lon="6.55326">
        <ele>1954.196</ele>
        <time>2021-01-05T10:25:44</time>
      </trkpt>
      <trkpt lat="45.5676" lon="6.55327">
        <ele>1955.3701</ele>
        <time>2021-01-05T10:25:46</time>
      </trkpt>
      <trkpt lat="45.56759" lon="6.55329">
        <ele>1956.325</ele>
        <time>2021-01-05T10:25:48</time>
      </trkpt>
      <trkpt lat="45.56759" lon="6.5533">
        <ele>1954.8269</ele>
        <time>2021-01-05T10:25:51</time>
      </trkpt>
      <trkpt lat="45.5676" lon="6.55335">
        <ele>1952.2422</ele>
        <time>2021-01-05T10:25:56</time>
      </trkpt>
      <trkpt lat="45.5676" lon="6.55337">
        <ele>1951.3906</ele>
        <time>2021-01-05T10:25:58</time>
      </trkpt>
      <trkpt lat="45.5676" lon="6.55337">
        <ele>1953.311</ele>
        <time>2021-01-05T10:26:04</time>
      </trkpt>
      <trkpt lat="45.5676" lon="6.55338">
        <ele>1953.7754</ele>
        <time>2021-01-05T10:26:05</time>
      </trkpt>
      <trkpt lat="45.56759" lon="6.5534">
        <ele>1953.9185</ele>
        <time>2021-01-05T10:26:07</time>
      </trkpt>
      <trkpt lat="45.56757" lon="6.55344">
        <ele>1953.2688</ele>
        <time>2021-01-05T10:26:12</time>
      </trkpt>
      <trkpt lat="45.56757" lon="6.55345">
        <ele>1953.7351</ele>
        <time>2021-01-05T10:26:14</time>
      </trkpt>
      <trkpt lat="45.56757" lon="6.55346">
        <ele>1954.5725</ele>
        <time>2021-01-05T10:26:15</time>
      </trkpt>
      <trkpt lat="45.56757" lon="6.55348">
        <ele>1954.1968</ele>
        <time>2021-01-05T10:26:16</time>
      </trkpt>
      <trkpt lat="45.56758" lon="6.55351">
        <ele>1955.4097</ele>
        <time>2021-01-05T10:26:18</time>
      </trkpt>
      <trkpt lat="45.56758" lon="6.55353">
        <ele>1955.2095</ele>
        <time>2021-01-05T10:26:19</time>
      </trkpt>
      <trkpt lat="45.56759" lon="6.55353">
        <ele>1955.1826</ele>
        <time>2021-01-05T10:26:20</time>
      </trkpt>
      <trkpt lat="45.56759" lon="6.55354">
        <ele>1955.6838</ele>
        <time>2021-01-05T10:26:21</time>
      </trkpt>
      <trkpt lat="45.56759" lon="6.55356">
        <ele>1955.5913</ele>
        <time>2021-01-05T10:26:22</time>
      </trkpt>
      <trkpt lat="45.5676" lon="6.55358">
        <ele>1955.7891</ele>
        <time>2021-01-05T10:26:24</time>
      </trkpt>
      <trkpt lat="45.5676" lon="6.55358">
        <ele>1955.2383</ele>
        <time>2021-01-05T10:26:25</time>
      </trkpt>
      <trkpt lat="45.56759" lon="6.55359">
        <ele>1956.0029</ele>
        <time>2021-01-05T10:26:26</time>
      </trkpt>
      <trkpt lat="45.56759" lon="6.55359">
        <ele>1955.8005</ele>
        <time>2021-01-05T10:26:33</time>
      </trkpt>
      <trkpt lat="45.56759" lon="6.55363">
        <ele>1956.4822</ele>
        <time>2021-01-05T10:26:38</time>
      </trkpt>
      <trkpt lat="45.56759" lon="6.55363">
        <ele>1958.8369</ele>
        <time>2021-01-05T10:26:47</time>
      </trkpt>
      <trkpt lat="45.56759" lon="6.55363">
        <ele>1960.334</ele>
        <time>2021-01-05T10:26:49</time>
      </trkpt>
      <trkpt lat="45.5676" lon="6.55363">
        <ele>1961.0898</ele>
        <time>2021-01-05T10:26:51</time>
      </trkpt>
      <trkpt lat="45.56761" lon="6.55364">
        <ele>1960.6191</ele>
        <time>2021-01-05T10:26:52</time>
      </trkpt>
      <trkpt lat="45.56762" lon="6.55365">
        <ele>1960.9131</ele>
        <time>2021-01-05T10:26:54</time>
      </trkpt>
      <trkpt lat="45.56762" lon="6.55366">
        <ele>1960.1035</ele>
        <time>2021-01-05T10:26:55</time>
      </trkpt>
      <trkpt lat="45.56762" lon="6.55367">
        <ele>1960.0869</ele>
        <time>2021-01-05T10:26:56</time>
      </trkpt>
      <trkpt lat="45.56762" lon="6.55367">
        <ele>1960.4463</ele>
        <time>2021-01-05T10:26:57</time>
      </trkpt>
      <trkpt lat="45.56761" lon="6.55368">
        <ele>1840.8247</ele>
        <time>2021-01-05T10:27:00</time>
      </trkpt>
      <trkpt lat="45.56761" lon="6.55368">
        <ele>1878.0645</ele>
        <time>2021-01-05T10:27:02</time>
      </trkpt>
      <trkpt lat="45.56761" lon="6.5537">
        <ele>1927.7385</ele>
        <time>2021-01-05T10:27:06</time>
      </trkpt>
      <trkpt lat="45.56761" lon="6.55371">
        <ele>1926.9893</ele>
        <time>2021-01-05T10:27:07</time>
      </trkpt>
      <trkpt lat="45.5676" lon="6.55371">
        <ele>1936.4502</ele>
        <time>2021-01-05T10:27:09</time>
      </trkpt>
      <trkpt lat="45.5676" lon="6.55371">
        <ele>1943.2021</ele>
        <time>2021-01-05T10:27:10</time>
      </trkpt>
      <trkpt lat="45.56759" lon="6.55374">
        <ele>1943.5366</ele>
        <time>2021-01-05T10:27:13</time>
      </trkpt>
      <trkpt lat="45.56759" lon="6.55375">
        <ele>1946.4297</ele>
        <time>2021-01-05T10:27:14</time>
      </trkpt>
      <trkpt lat="45.56757" lon="6.5538">
        <ele>1956.0776</ele>
        <time>2021-01-05T10:27:19</time>
      </trkpt>
      <trkpt lat="45.56756" lon="6.5538">
        <ele>1956.6572</ele>
        <time>2021-01-05T10:27:20</time>
      </trkpt>
      <trkpt lat="45.56756" lon="6.55381">
        <ele>1957.4912</ele>
        <time>2021-01-05T10:27:22</time>
      </trkpt>
      <trkpt lat="45.56756" lon="6.55387">
        <ele>1960.0532</ele>
        <time>2021-01-05T10:27:28</time>
      </trkpt>
      <trkpt lat="45.56756" lon="6.55385">
        <ele>1957.9263</ele>
        <time>2021-01-05T10:28:02</time>
      </trkpt>
      <trkpt lat="45.56756" lon="6.55385">
        <ele>1961.4932</ele>
        <time>2021-01-05T10:28:39</time>
      </trkpt>
      <trkpt lat="45.56756" lon="6.55385">
        <ele>1961.9915</ele>
        <time>2021-01-05T10:29:09</time>
      </trkpt>
      <trkpt lat="45.56756" lon="6.55385">
        <ele>1863.5171</ele>
        <time>2021-01-05T10:29:39</time>
      </trkpt>
      <trkpt lat="45.56756" lon="6.55385">
        <ele>1918.5576</ele>
        <time>2021-01-05T10:30:10</time>
      </trkpt>
      <trkpt lat="45.56756" lon="6.55385">
        <ele>1959.935</ele>
        <time>2021-01-05T10:30:40</time>
      </trkpt>
      <trkpt lat="45.56756" lon="6.55387">
        <ele>1960.5918</ele>
        <time>2021-01-05T10:31:32</time>
      </trkpt>
      <trkpt lat="45.56757" lon="6.55386">
        <ele>1960.3765</ele>
        <time>2021-01-05T10:31:34</time>
      </trkpt>
      <trkpt lat="45.56757" lon="6.55386">
        <ele>1960.583</ele>
        <time>2021-01-05T10:31:35</time>
      </trkpt>
      <trkpt lat="45.56757" lon="6.55386">
        <ele>1960.8838</ele>
        <time>2021-01-05T10:31:37</time>
      </trkpt>
      <trkpt lat="45.56757" lon="6.55388">
        <ele>1959.5054</ele>
        <time>2021-01-05T10:31:38</time>
      </trkpt>
      <trkpt lat="45.56758" lon="6.55389">
        <ele>1959.5054</ele>
        <time>2021-01-05T10:31:40</time>
      </trkpt>
      <trkpt lat="45.56758" lon="6.55388">
        <ele>1958.6865</ele>
        <time>2021-01-05T10:31:41</time>
      </trkpt>
      <trkpt lat="45.56758" lon="6.55386">
        <ele>1961.4033</ele>
        <time>2021-01-05T10:31:46</time>
      </trkpt>
      <trkpt lat="45.56758" lon="6.55385">
        <ele>1962.2949</ele>
        <time>2021-01-05T10:31:47</time>
      </trkpt>
      <trkpt lat="45.56759" lon="6.55384">
        <ele>1964.2134</ele>
        <time>2021-01-05T10:32:13</time>
      </trkpt>
      <trkpt lat="45.5676" lon="6.55384">
        <ele>1963.7783</ele>
        <time>2021-01-05T10:32:14</time>
      </trkpt>
      <trkpt lat="45.5676" lon="6.55385">
        <ele>1964.4033</ele>
        <time>2021-01-05T10:32:17</time>
      </trkpt>
      <trkpt lat="45.5676" lon="6.55386">
        <ele>1965.502</ele>
        <time>2021-01-05T10:32:18</time>
      </trkpt>
      <trkpt lat="45.56758" lon="6.55387">
        <ele>1967.1375</ele>
        <time>2021-01-05T10:32:20</time>
      </trkpt>
      <trkpt lat="45.5674" lon="6.55395">
        <ele>1970.3887</ele>
        <time>2021-01-05T10:32:37</time>
      </trkpt>
      <trkpt lat="45.56736" lon="6.55395">
        <ele>1971.4106</ele>
        <time>2021-01-05T10:32:40</time>
      </trkpt>
      <trkpt lat="45.56735" lon="6.55395">
        <ele>1971.7842</ele>
        <time>2021-01-05T10:32:42</time>
      </trkpt>
      <trkpt lat="45.56725" lon="6.55392">
        <ele>1931.5771</ele>
        <time>2021-01-05T10:32:50</time>
      </trkpt>
      <trkpt lat="45.56723" lon="6.5539">
        <ele>1936.9724</ele>
        <time>2021-01-05T10:32:52</time>
      </trkpt>
      <trkpt lat="45.56722" lon="6.55389">
        <ele>1939.8535</ele>
        <time>2021-01-05T10:32:53</time>
      </trkpt>
      <trkpt lat="45.56719" lon="6.55389">
        <ele>1945.9302</ele>
        <time>2021-01-05T10:32:55</time>
      </trkpt>
      <trkpt lat="45.56715" lon="6.55387">
        <ele>1956.5989</ele>
        <time>2021-01-05T10:32:58</time>
      </trkpt>
      <trkpt lat="45.56704" lon="6.5538">
        <ele>1959.7871</ele>
        <time>2021-01-05T10:33:07</time>
      </trkpt>
      <trkpt lat="45.56695" lon="6.55376">
        <ele>1966.0234</ele>
        <time>2021-01-05T10:33:14</time>
      </trkpt>
      <trkpt lat="45.56691" lon="6.55375">
        <ele>1968.1375</ele>
        <time>2021-01-05T10:33:17</time>
      </trkpt>
      <trkpt lat="45.56689" lon="6.55376">
        <ele>1969.5571</ele>
        <time>2021-01-05T10:33:19</time>
      </trkpt>
      <trkpt lat="45.56672" lon="6.55374">
        <ele>1970.2866</ele>
        <time>2021-01-05T10:33:34</time>
      </trkpt>
      <trkpt lat="45.56671" lon="6.55375">
        <ele>1969.7114</ele>
        <time>2021-01-05T10:33:36</time>
      </trkpt>
      <trkpt lat="45.5667" lon="6.55374">
        <ele>1968.5876</ele>
        <time>2021-01-05T10:33:44</time>
      </trkpt>
      <trkpt lat="45.56655" lon="6.55374">
        <ele>1970.7466</ele>
        <time>2021-01-05T10:33:57</time>
      </trkpt>
      <trkpt lat="45.56652" lon="6.55374">
        <ele>1970.825</ele>
        <time>2021-01-05T10:34:09</time>
      </trkpt>
      <trkpt lat="45.56639" lon="6.55374">
        <ele>1937.9453</ele>
        <time>2021-01-05T10:34:17</time>
      </trkpt>
      <trkpt lat="45.56626" lon="6.55372">
        <ele>1841.489</ele>
        <time>2021-01-05T10:34:25</time>
      </trkpt>
      <trkpt lat="45.56612" lon="6.55369">
        <ele>1964.1736</ele>
        <time>2021-01-05T10:34:34</time>
      </trkpt>
      <trkpt lat="45.5661" lon="6.55367">
        <ele>1967.5898</ele>
        <time>2021-01-05T10:34:36</time>
      </trkpt>
      <trkpt lat="45.56588" lon="6.55356">
        <ele>1975.9817</ele>
        <time>2021-01-05T10:34:57</time>
      </trkpt>
      <trkpt lat="45.56584" lon="6.55356">
        <ele>1975.2075</ele>
        <time>2021-01-05T10:35:00</time>
      </trkpt>
      <trkpt lat="45.56582" lon="6.55355">
        <ele>1977.0659</ele>
        <time>2021-01-05T10:35:12</time>
      </trkpt>
      <trkpt lat="45.56572" lon="6.55354">
        <ele>1976.334</ele>
        <time>2021-01-05T10:35:19</time>
      </trkpt>
      <trkpt lat="45.56558" lon="6.55352">
        <ele>1976.0688</ele>
        <time>2021-01-05T10:35:28</time>
      </trkpt>
      <trkpt lat="45.56537" lon="6.5535">
        <ele>1975.1948</ele>
        <time>2021-01-05T10:35:48</time>
      </trkpt>
      <trkpt lat="45.56535" lon="6.55349">
        <ele>1929.2329</ele>
        <time>2021-01-05T10:35:56</time>
      </trkpt>
      <trkpt lat="45.56525" lon="6.55348">
        <ele>1958.7671</ele>
        <time>2021-01-05T10:36:04</time>
      </trkpt>
      <trkpt lat="45.56522" lon="6.55348">
        <ele>1970.3999</ele>
        <time>2021-01-05T10:36:14</time>
      </trkpt>
      <trkpt lat="45.56518" lon="6.55348">
        <ele>1968.3838</ele>
        <time>2021-01-05T10:36:16</time>
      </trkpt>
      <trkpt lat="45.56513" lon="6.55348">
        <ele>1971.8477</ele>
        <time>2021-01-05T10:36:20</time>
      </trkpt>
      <trkpt lat="45.56504" lon="6.55348">
        <ele>1966.0405</ele>
        <time>2021-01-05T10:36:26</time>
      </trkpt>
      <trkpt lat="45.56502" lon="6.55348">
        <ele>1969.5527</ele>
        <time>2021-01-05T10:36:29</time>
      </trkpt>
      <trkpt lat="45.56472" lon="6.55345">
        <ele>1936.2676</ele>
        <time>2021-01-05T10:36:53</time>
      </trkpt>
      <trkpt lat="45.56471" lon="6.55344">
        <ele>1945.072</ele>
        <time>2021-01-05T10:36:54</time>
      </trkpt>
      <trkpt lat="45.5647" lon="6.55343">
        <ele>1953.6113</ele>
        <time>2021-01-05T10:36:55</time>
      </trkpt>
      <trkpt lat="45.56465" lon="6.5534">
        <ele>1969.6003</ele>
        <time>2021-01-05T10:36:59</time>
      </trkpt>
      <trkpt lat="45.56461" lon="6.55336">
        <ele>1972.1411</ele>
        <time>2021-01-05T10:37:03</time>
      </trkpt>
      <trkpt lat="45.5645" lon="6.5533">
        <ele>1975.6074</ele>
        <time>2021-01-05T10:37:12</time>
      </trkpt>
      <trkpt lat="45.56447" lon="6.55329">
        <ele>1975.1206</ele>
        <time>2021-01-05T10:37:15</time>
      </trkpt>
      <trkpt lat="45.56446" lon="6.55328">
        <ele>1975.9185</ele>
        <time>2021-01-05T10:37:17</time>
      </trkpt>
      <trkpt lat="45.56438" lon="6.55326">
        <ele>1975.9355</ele>
        <time>2021-01-05T10:37:26</time>
      </trkpt>
      <trkpt lat="45.56434" lon="6.55327">
        <ele>1976.2437</ele>
        <time>2021-01-05T10:37:29</time>
      </trkpt>
      <trkpt lat="45.56431" lon="6.55326">
        <ele>1976.6182</ele>
        <time>2021-01-05T10:37:32</time>
      </trkpt>
      <trkpt lat="45.5643" lon="6.55327">
        <ele>1954.415</ele>
        <time>2021-01-05T10:37:52</time>
      </trkpt>
      <trkpt lat="45.56417" lon="6.55326">
        <ele>1970.1841</ele>
        <time>2021-01-05T10:37:59</time>
      </trkpt>
      <trkpt lat="45.56413" lon="6.55325">
        <ele>1970.2617</ele>
        <time>2021-01-05T10:38:01</time>
      </trkpt>
      <trkpt lat="45.56406" lon="6.55325">
        <ele>1973.0166</ele>
        <time>2021-01-05T10:38:05</time>
      </trkpt>
      <trkpt lat="45.56389" lon="6.55324">
        <ele>1979.3376</ele>
        <time>2021-01-05T10:38:18</time>
      </trkpt>
      <trkpt lat="45.56386" lon="6.55324">
        <ele>1979.708</ele>
        <time>2021-01-05T10:38:20</time>
      </trkpt>
      <trkpt lat="45.5638" lon="6.55323">
        <ele>1979.5786</ele>
        <time>2021-01-05T10:38:26</time>
      </trkpt>
      <trkpt lat="45.56378" lon="6.55324">
        <ele>1978.9839</ele>
        <time>2021-01-05T10:38:29</time>
      </trkpt>
      <trkpt lat="45.56375" lon="6.55326">
        <ele>1979.8472</ele>
        <time>2021-01-05T10:38:34</time>
      </trkpt>
      <trkpt lat="45.56373" lon="6.55326">
        <ele>1978.7058</ele>
        <time>2021-01-05T10:38:37</time>
      </trkpt>
      <trkpt lat="45.56366" lon="6.55328">
        <ele>1979.415</ele>
        <time>2021-01-05T10:38:48</time>
      </trkpt>
      <trkpt lat="45.56366" lon="6.55328">
        <ele>1978.3828</ele>
        <time>2021-01-05T10:38:49</time>
      </trkpt>
      <trkpt lat="45.56366" lon="6.55328">
        <ele>1979.4182</ele>
        <time>2021-01-05T10:38:50</time>
      </trkpt>
      <trkpt lat="45.56365" lon="6.55329">
        <ele>1980.2969</ele>
        <time>2021-01-05T10:39:01</time>
      </trkpt>
      <trkpt lat="45.56364" lon="6.55329">
        <ele>1980.0569</ele>
        <time>2021-01-05T10:39:02</time>
      </trkpt>
      <trkpt lat="45.56356" lon="6.55336">
        <ele>1981.6509</ele>
        <time>2021-01-05T10:39:13</time>
      </trkpt>
      <trkpt lat="45.56356" lon="6.55338">
        <ele>1933.5884</ele>
        <time>2021-01-05T10:39:34</time>
      </trkpt>
      <trkpt lat="45.56357" lon="6.55341">
        <ele>1946.1133</ele>
        <time>2021-01-05T10:39:36</time>
      </trkpt>
      <trkpt lat="45.56358" lon="6.55344">
        <ele>1964.6548</ele>
        <time>2021-01-05T10:39:39</time>
      </trkpt>
      <trkpt lat="45.56359" lon="6.55348">
        <ele>1972.2002</ele>
        <time>2021-01-05T10:39:42</time>
      </trkpt>
      <trkpt lat="45.5636" lon="6.55351">
        <ele>1979.9585</ele>
        <time>2021-01-05T10:39:50</time>
      </trkpt>
      <trkpt lat="45.5636" lon="6.55352">
        <ele>1980.6616</ele>
        <time>2021-01-05T10:39:52</time>
      </trkpt>
      <trkpt lat="45.56361" lon="6.55353">
        <ele>1983.9299</ele>
        <time>2021-01-05T10:39:58</time>
      </trkpt>
      <trkpt lat="45.56364" lon="6.55359">
        <ele>1982.0703</ele>
        <time>2021-01-05T10:40:02</time>
      </trkpt>
      <trkpt lat="45.56365" lon="6.55363">
        <ele>1984.8308</ele>
        <time>2021-01-05T10:40:19</time>
      </trkpt>
      <trkpt lat="45.56367" lon="6.55368">
        <ele>1988.9446</ele>
        <time>2021-01-05T10:40:25</time>
      </trkpt>
      <trkpt lat="45.56367" lon="6.55374">
        <ele>1989.7976</ele>
        <time>2021-01-05T10:40:32</time>
      </trkpt>
      <trkpt lat="45.56366" lon="6.55379">
        <ele>1991.1118</ele>
        <time>2021-01-05T10:40:37</time>
      </trkpt>
      <trkpt lat="45.56367" lon="6.55379">
        <ele>1991.0913</ele>
        <time>2021-01-05T10:40:39</time>
      </trkpt>
      <trkpt lat="45.56367" lon="6.5538">
        <ele>1991.2842</ele>
        <time>2021-01-05T10:40:40</time>
      </trkpt>
      <trkpt lat="45.56367" lon="6.5538">
        <ele>1991.3982</ele>
        <time>2021-01-05T10:40:41</time>
      </trkpt>
      <trkpt lat="45.56368" lon="6.55382">
        <ele>1992.9023</ele>
        <time>2021-01-05T10:40:43</time>
      </trkpt>
      <trkpt lat="45.56377" lon="6.55407">
        <ele>1992.2141</ele>
        <time>2021-01-05T10:41:13</time>
      </trkpt>
      <trkpt lat="45.56377" lon="6.55407">
        <ele>1992.3652</ele>
        <time>2021-01-05T10:41:15</time>
      </trkpt>
      <trkpt lat="45.56377" lon="6.55408">
        <ele>1993.419</ele>
        <time>2021-01-05T10:41:17</time>
      </trkpt>
      <trkpt lat="45.56378" lon="6.5541">
        <ele>1994.7427</ele>
        <time>2021-01-05T10:41:20</time>
      </trkpt>
      <trkpt lat="45.56379" lon="6.55418">
        <ele>1995.012</ele>
        <time>2021-01-05T10:41:31</time>
      </trkpt>
      <trkpt lat="45.56381" lon="6.55423">
        <ele>1994.6636</ele>
        <time>2021-01-05T10:41:36</time>
      </trkpt>
      <trkpt lat="45.56382" lon="6.55423">
        <ele>1995.0374</ele>
        <time>2021-01-05T10:41:41</time>
      </trkpt>
      <trkpt lat="45.56383" lon="6.55427">
        <ele>1995.7705</ele>
        <time>2021-01-05T10:41:47</time>
      </trkpt>
      <trkpt lat="45.56384" lon="6.5543">
        <ele>1996.4805</ele>
        <time>2021-01-05T10:41:55</time>
      </trkpt>
      <trkpt lat="45.56385" lon="6.55431">
        <ele>1996.9214</ele>
        <time>2021-01-05T10:41:58</time>
      </trkpt>
      <trkpt lat="45.56387" lon="6.55435">
        <ele>1998.9194</ele>
        <time>2021-01-05T10:42:15</time>
      </trkpt>
      <trkpt lat="45.56388" lon="6.55436">
        <ele>1998.3804</ele>
        <time>2021-01-05T10:42:16</time>
      </trkpt>
      <trkpt lat="45.56389" lon="6.55439">
        <ele>1999.0371</ele>
        <time>2021-01-05T10:42:21</time>
      </trkpt>
      <trkpt lat="45.5639" lon="6.55441">
        <ele>1998.7505</ele>
        <time>2021-01-05T10:42:23</time>
      </trkpt>
      <trkpt lat="45.56391" lon="6.55443">
        <ele>1999.4946</ele>
        <time>2021-01-05T10:42:28</time>
      </trkpt>
      <trkpt lat="45.56393" lon="6.55447">
        <ele>1998.602</ele>
        <time>2021-01-05T10:42:32</time>
      </trkpt>
      <trkpt lat="45.56399" lon="6.55462">
        <ele>1971.6492</ele>
        <time>2021-01-05T10:42:44</time>
      </trkpt>
      <trkpt lat="45.56401" lon="6.55473">
        <ele>1991.1584</ele>
        <time>2021-01-05T10:42:52</time>
      </trkpt>
      <trkpt lat="45.56401" lon="6.55477">
        <ele>1994.4922</ele>
        <time>2021-01-05T10:42:55</time>
      </trkpt>
      <trkpt lat="45.56401" lon="6.5548">
        <ele>1997.0786</ele>
        <time>2021-01-05T10:42:58</time>
      </trkpt>
      <trkpt lat="45.56401" lon="6.55483">
        <ele>1997.0747</ele>
        <time>2021-01-05T10:43:02</time>
      </trkpt>
      <trkpt lat="45.56401" lon="6.55489">
        <ele>2003.5288</ele>
        <time>2021-01-05T10:43:12</time>
      </trkpt>
      <trkpt lat="45.564" lon="6.55496">
        <ele>2004.0923</ele>
        <time>2021-01-05T10:43:20</time>
      </trkpt>
      <trkpt lat="45.564" lon="6.55497">
        <ele>2004.249</ele>
        <time>2021-01-05T10:43:21</time>
      </trkpt>
      <trkpt lat="45.56399" lon="6.55499">
        <ele>2006.7856</ele>
        <time>2021-01-05T10:43:25</time>
      </trkpt>
      <trkpt lat="45.56399" lon="6.55502">
        <ele>2008.5293</ele>
        <time>2021-01-05T10:43:29</time>
      </trkpt>
      <trkpt lat="45.56399" lon="6.55505">
        <ele>2010.717</ele>
        <time>2021-01-05T10:43:32</time>
      </trkpt>
      <trkpt lat="45.56399" lon="6.55509">
        <ele>2011.395</ele>
        <time>2021-01-05T10:43:37</time>
      </trkpt>
      <trkpt lat="45.56402" lon="6.55514">
        <ele>2010.6931</ele>
        <time>2021-01-05T10:43:45</time>
      </trkpt>
      <trkpt lat="45.56402" lon="6.55514">
        <ele>2010.0513</ele>
        <time>2021-01-05T10:43:50</time>
      </trkpt>
      <trkpt lat="45.56402" lon="6.55515">
        <ele>2009.4153</ele>
        <time>2021-01-05T10:43:51</time>
      </trkpt>
      <trkpt lat="45.56403" lon="6.55516">
        <ele>2009.9678</ele>
        <time>2021-01-05T10:43:52</time>
      </trkpt>
      <trkpt lat="45.56406" lon="6.55523">
        <ele>2009.294</ele>
        <time>2021-01-05T10:44:00</time>
      </trkpt>
      <trkpt lat="45.56406" lon="6.55524">
        <ele>2010.5698</ele>
        <time>2021-01-05T10:44:03</time>
      </trkpt>
      <trkpt lat="45.56406" lon="6.55527">
        <ele>2012.7778</ele>
        <time>2021-01-05T10:44:07</time>
      </trkpt>
      <trkpt lat="45.56406" lon="6.55527">
        <ele>2014.5674</ele>
        <time>2021-01-05T10:44:11</time>
      </trkpt>
      <trkpt lat="45.56407" lon="6.5553">
        <ele>2016.6855</ele>
        <time>2021-01-05T10:44:16</time>
      </trkpt>
      <trkpt lat="45.56405" lon="6.55529">
        <ele>2021.2017</ele>
        <time>2021-01-05T10:44:35</time>
      </trkpt>
      <trkpt lat="45.56405" lon="6.5553">
        <ele>2022.5244</ele>
        <time>2021-01-05T10:44:37</time>
      </trkpt>
      <trkpt lat="45.56403" lon="6.55531">
        <ele>2026.4155</ele>
        <time>2021-01-05T10:44:58</time>
      </trkpt>
      <trkpt lat="45.56402" lon="6.55531">
        <ele>2025.6816</ele>
        <time>2021-01-05T10:44:59</time>
      </trkpt>
      <trkpt lat="45.56402" lon="6.55533">
        <ele>2026.419</ele>
        <time>2021-01-05T10:45:02</time>
      </trkpt>
      <trkpt lat="45.564" lon="6.55535">
        <ele>2027.6992</ele>
        <time>2021-01-05T10:45:04</time>
      </trkpt>
      <trkpt lat="45.56399" lon="6.55538">
        <ele>2026.581</ele>
        <time>2021-01-05T10:45:06</time>
      </trkpt>
      <trkpt lat="45.56399" lon="6.55539">
        <ele>2025.7632</ele>
        <time>2021-01-05T10:45:07</time>
      </trkpt>
      <trkpt lat="45.56398" lon="6.55541">
        <ele>2024.9783</ele>
        <time>2021-01-05T10:45:08</time>
      </trkpt>
      <trkpt lat="45.56398" lon="6.55545">
        <ele>2024.3662</ele>
        <time>2021-01-05T10:45:11</time>
      </trkpt>
      <trkpt lat="45.56397" lon="6.55546">
        <ele>2024.6606</ele>
        <time>2021-01-05T10:45:12</time>
      </trkpt>
      <trkpt lat="45.56397" lon="6.55547">
        <ele>2023.5068</ele>
        <time>2021-01-05T10:45:13</time>
      </trkpt>
      <trkpt lat="45.56395" lon="6.55549">
        <ele>2022.9233</ele>
        <time>2021-01-05T10:45:14</time>
      </trkpt>
      <trkpt lat="45.56394" lon="6.55551">
        <ele>2021.4521</ele>
        <time>2021-01-05T10:45:16</time>
      </trkpt>
      <trkpt lat="45.56395" lon="6.55556">
        <ele>1852.1382</ele>
        <time>2021-01-05T10:45:20</time>
      </trkpt>
      <trkpt lat="45.56395" lon="6.55558">
        <ele>2008.3716</ele>
        <time>2021-01-05T10:45:32</time>
      </trkpt>
      <trkpt lat="45.56399" lon="6.55563">
        <ele>2024.793</ele>
        <time>2021-01-05T10:45:38</time>
      </trkpt>
      <trkpt lat="45.56411" lon="6.55581">
        <ele>2032.1694</ele>
        <time>2021-01-05T10:45:59</time>
      </trkpt>
      <trkpt lat="45.56414" lon="6.55587">
        <ele>2034.5776</ele>
        <time>2021-01-05T10:46:07</time>
      </trkpt>
      <trkpt lat="45.56416" lon="6.55591">
        <ele>2032.3047</ele>
        <time>2021-01-05T10:46:14</time>
      </trkpt>
      <trkpt lat="45.56419" lon="6.55595">
        <ele>2031.1914</ele>
        <time>2021-01-05T10:46:19</time>
      </trkpt>
      <trkpt lat="45.56417" lon="6.55593">
        <ele>2030.8882</ele>
        <time>2021-01-05T10:46:49</time>
      </trkpt>
      <trkpt lat="45.56417" lon="6.55593">
        <ele>2033.061</ele>
        <time>2021-01-05T10:46:51</time>
      </trkpt>
      <trkpt lat="45.56416" lon="6.55593">
        <ele>2035.103</ele>
        <time>2021-01-05T10:46:52</time>
      </trkpt>
      <trkpt lat="45.56415" lon="6.55593">
        <ele>2035.7812</ele>
        <time>2021-01-05T10:46:53</time>
      </trkpt>
      <trkpt lat="45.56409" lon="6.55593">
        <ele>2035.2097</ele>
        <time>2021-01-05T10:47:00</time>
      </trkpt>
      <trkpt lat="45.56407" lon="6.55592">
        <ele>2037.6855</ele>
        <time>2021-01-05T10:47:04</time>
      </trkpt>
      <trkpt lat="45.56406" lon="6.55592">
        <ele>2036.4268</ele>
        <time>2021-01-05T10:47:05</time>
      </trkpt>
      <trkpt lat="45.56403" lon="6.55591">
        <ele>2036.3438</ele>
        <time>2021-01-05T10:47:08</time>
      </trkpt>
      <trkpt lat="45.56398" lon="6.5559">
        <ele>1973.9043</ele>
        <time>2021-01-05T10:47:19</time>
      </trkpt>
      <trkpt lat="45.56397" lon="6.5559">
        <ele>1986.2258</ele>
        <time>2021-01-05T10:47:20</time>
      </trkpt>
      <trkpt lat="45.56395" lon="6.5559">
        <ele>2001.5283</ele>
        <time>2021-01-05T10:47:23</time>
      </trkpt>
      <trkpt lat="45.56391" lon="6.5559">
        <ele>2041.25</ele>
        <time>2021-01-05T10:47:37</time>
      </trkpt>
      <trkpt lat="45.5639" lon="6.5559">
        <ele>2042.5254</ele>
        <time>2021-01-05T10:47:39</time>
      </trkpt>
      <trkpt lat="45.56385" lon="6.55589">
        <ele>2045.737</ele>
        <time>2021-01-05T10:47:43</time>
      </trkpt>
      <trkpt lat="45.56378" lon="6.55588">
        <ele>2050.3467</ele>
        <time>2021-01-05T10:47:50</time>
      </trkpt>
      <trkpt lat="45.56376" lon="6.55588">
        <ele>2051.9673</ele>
        <time>2021-01-05T10:47:58</time>
      </trkpt>
      <trkpt lat="45.56374" lon="6.55589">
        <ele>2052.422</ele>
        <time>2021-01-05T10:48:01</time>
      </trkpt>
      <trkpt lat="45.56372" lon="6.55588">
        <ele>2054.428</ele>
        <time>2021-01-05T10:48:04</time>
      </trkpt>
      <trkpt lat="45.56371" lon="6.55587">
        <ele>2056.1858</ele>
        <time>2021-01-05T10:48:08</time>
      </trkpt>
      <trkpt lat="45.56367" lon="6.55586">
        <ele>2057.397</ele>
        <time>2021-01-05T10:48:16</time>
      </trkpt>
      <trkpt lat="45.56365" lon="6.55585">
        <ele>2058.2659</ele>
        <time>2021-01-05T10:48:25</time>
      </trkpt>
      <trkpt lat="45.56356" lon="6.55582">
        <ele>2062.0427</ele>
        <time>2021-01-05T10:48:37</time>
      </trkpt>
      <trkpt lat="45.56354" lon="6.55582">
        <ele>2061.7725</ele>
        <time>2021-01-05T10:48:42</time>
      </trkpt>
      <trkpt lat="45.56353" lon="6.55581">
        <ele>2062.4026</ele>
        <time>2021-01-05T10:48:46</time>
      </trkpt>
      <trkpt lat="45.56353" lon="6.55581">
        <ele>2063.4746</ele>
        <time>2021-01-05T10:48:47</time>
      </trkpt>
      <trkpt lat="45.56352" lon="6.55581">
        <ele>2064.8743</ele>
        <time>2021-01-05T10:48:51</time>
      </trkpt>
      <trkpt lat="45.56351" lon="6.55581">
        <ele>2064.3354</ele>
        <time>2021-01-05T10:48:52</time>
      </trkpt>
      <trkpt lat="45.56351" lon="6.5558">
        <ele>2062.493</ele>
        <time>2021-01-05T10:48:53</time>
      </trkpt>
      <trkpt lat="45.56351" lon="6.55577">
        <ele>2062.433</ele>
        <time>2021-01-05T10:48:59</time>
      </trkpt>
      <trkpt lat="45.5635" lon="6.55577">
        <ele>2062.6064</ele>
        <time>2021-01-05T10:49:00</time>
      </trkpt>
      <trkpt lat="45.56349" lon="6.55577">
        <ele>2063.3616</ele>
        <time>2021-01-05T10:49:10</time>
      </trkpt>
      <trkpt lat="45.56347" lon="6.55577">
        <ele>1969.3503</ele>
        <time>2021-01-05T10:49:14</time>
      </trkpt>
      <trkpt lat="45.56344" lon="6.55576">
        <ele>2025.5659</ele>
        <time>2021-01-05T10:49:29</time>
      </trkpt>
      <trkpt lat="45.56338" lon="6.55577">
        <ele>2047.5073</ele>
        <time>2021-01-05T10:49:35</time>
      </trkpt>
      <trkpt lat="45.56335" lon="6.55579">
        <ele>2065.2239</ele>
        <time>2021-01-05T10:50:05</time>
      </trkpt>
      <trkpt lat="45.56335" lon="6.55579">
        <ele>2066.0544</ele>
        <time>2021-01-05T10:50:35</time>
      </trkpt>
      <trkpt lat="45.56335" lon="6.55579">
        <ele>2065.6257</ele>
        <time>2021-01-05T10:51:05</time>
      </trkpt>
      <trkpt lat="45.56335" lon="6.55579">
        <ele>2066.3943</ele>
        <time>2021-01-05T10:51:39</time>
      </trkpt>
      <trkpt lat="45.56334" lon="6.5558">
        <ele>2067.0679</ele>
        <time>2021-01-05T10:52:03</time>
      </trkpt>
      <trkpt lat="45.56333" lon="6.55581">
        <ele>2067.6877</ele>
        <time>2021-01-05T10:52:04</time>
      </trkpt>
      <trkpt lat="45.56333" lon="6.55582">
        <ele>2068.237</ele>
        <time>2021-01-05T10:52:05</time>
      </trkpt>
      <trkpt lat="45.56332" lon="6.55582">
        <ele>2068.0325</ele>
        <time>2021-01-05T10:52:07</time>
      </trkpt>
      <trkpt lat="45.56328" lon="6.55586">
        <ele>2070.4255</ele>
        <time>2021-01-05T10:52:17</time>
      </trkpt>
      <trkpt lat="45.56327" lon="6.55588">
        <ele>2071.6245</ele>
        <time>2021-01-05T10:52:18</time>
      </trkpt>
      <trkpt lat="45.56326" lon="6.5559">
        <ele>2072.6216</ele>
        <time>2021-01-05T10:52:20</time>
      </trkpt>
      <trkpt lat="45.56325" lon="6.55591">
        <ele>2073.8591</ele>
        <time>2021-01-05T10:52:22</time>
      </trkpt>
      <trkpt lat="45.56324" lon="6.55593">
        <ele>2074.0823</ele>
        <time>2021-01-05T10:52:25</time>
      </trkpt>
      <trkpt lat="45.56321" lon="6.55595">
        <ele>2075.7654</ele>
        <time>2021-01-05T10:52:42</time>
      </trkpt>
      <trkpt lat="45.5632" lon="6.55595">
        <ele>2075.9434</ele>
        <time>2021-01-05T10:52:43</time>
      </trkpt>
      <trkpt lat="45.5632" lon="6.55597">
        <ele>2078.7004</ele>
        <time>2021-01-05T10:52:46</time>
      </trkpt>
      <trkpt lat="45.56318" lon="6.55599">
        <ele>2079.2893</ele>
        <time>2021-01-05T10:52:48</time>
      </trkpt>
      <trkpt lat="45.56317" lon="6.556">
        <ele>2079.3652</ele>
        <time>2021-01-05T10:52:50</time>
      </trkpt>
      <trkpt lat="45.56317" lon="6.55601">
        <ele>2078.7544</ele>
        <time>2021-01-05T10:52:51</time>
      </trkpt>
      <trkpt lat="45.56316" lon="6.55602">
        <ele>2077.9827</ele>
        <time>2021-01-05T10:52:54</time>
      </trkpt>
      <trkpt lat="45.56314" lon="6.55604">
        <ele>2078.1636</ele>
        <time>2021-01-05T10:52:55</time>
      </trkpt>
      <trkpt lat="45.56314" lon="6.55605">
        <ele>2078.7585</ele>
        <time>2021-01-05T10:52:56</time>
      </trkpt>
      <trkpt lat="45.5631" lon="6.55609">
        <ele>2077.8362</ele>
        <time>2021-01-05T10:53:00</time>
      </trkpt>
      <trkpt lat="45.56308" lon="6.5561">
        <ele>2078.8452</ele>
        <time>2021-01-05T10:53:03</time>
      </trkpt>
      <trkpt lat="45.56305" lon="6.55616">
        <ele>2081.8218</ele>
        <time>2021-01-05T10:53:08</time>
      </trkpt>
      <trkpt lat="45.56304" lon="6.55618">
        <ele>2081.0793</ele>
        <time>2021-01-05T10:53:09</time>
      </trkpt>
      <trkpt lat="45.56304" lon="6.55619">
        <ele>2082.882</ele>
        <time>2021-01-05T10:53:10</time>
      </trkpt>
      <trkpt lat="45.56303" lon="6.55621">
        <ele>2082.3198</ele>
        <time>2021-01-05T10:53:12</time>
      </trkpt>
      <trkpt lat="45.56302" lon="6.55621">
        <ele>2082.9995</ele>
        <time>2021-01-05T10:53:13</time>
      </trkpt>
      <trkpt lat="45.563" lon="6.55622">
        <ele>2082.256</ele>
        <time>2021-01-05T10:53:29</time>
      </trkpt>
      <trkpt lat="45.56299" lon="6.55622">
        <ele>2083.4011</ele>
        <time>2021-01-05T10:53:30</time>
      </trkpt>
      <trkpt lat="45.56297" lon="6.55625">
        <ele>2083.4897</ele>
        <time>2021-01-05T10:53:36</time>
      </trkpt>
      <trkpt lat="45.56292" lon="6.55632">
        <ele>2083.643</ele>
        <time>2021-01-05T10:53:42</time>
      </trkpt>
      <trkpt lat="45.56289" lon="6.55636">
        <ele>2085.5461</ele>
        <time>2021-01-05T10:53:44</time>
      </trkpt>
      <trkpt lat="45.56288" lon="6.55638">
        <ele>2086.4556</ele>
        <time>2021-01-05T10:53:46</time>
      </trkpt>
      <trkpt lat="45.56287" lon="6.55639">
        <ele>2086.3235</ele>
        <time>2021-01-05T10:53:47</time>
      </trkpt>
      <trkpt lat="45.56286" lon="6.5564">
        <ele>2085.3508</ele>
        <time>2021-01-05T10:53:51</time>
      </trkpt>
      <trkpt lat="45.56283" lon="6.55644">
        <ele>2084.1917</ele>
        <time>2021-01-05T10:53:54</time>
      </trkpt>
      <trkpt lat="45.56281" lon="6.55646">
        <ele>2082.3428</ele>
        <time>2021-01-05T10:53:57</time>
      </trkpt>
      <trkpt lat="45.5628" lon="6.55647">
        <ele>2081.402</ele>
        <time>2021-01-05T10:53:58</time>
      </trkpt>
      <trkpt lat="45.56279" lon="6.55649">
        <ele>2082.3975</ele>
        <time>2021-01-05T10:54:00</time>
      </trkpt>
      <trkpt lat="45.56278" lon="6.5565">
        <ele>2081.565</ele>
        <time>2021-01-05T10:54:01</time>
      </trkpt>
      <trkpt lat="45.56277" lon="6.55651">
        <ele>2082.2854</ele>
        <time>2021-01-05T10:54:05</time>
      </trkpt>
      <trkpt lat="45.56276" lon="6.55652">
        <ele>2081.4753</ele>
        <time>2021-01-05T10:54:06</time>
      </trkpt>
      <trkpt lat="45.56275" lon="6.55654">
        <ele>2086.4292</ele>
        <time>2021-01-05T10:54:08</time>
      </trkpt>
      <trkpt lat="45.56275" lon="6.55657">
        <ele>2084.6235</ele>
        <time>2021-01-05T10:54:10</time>
      </trkpt>
      <trkpt lat="45.56275" lon="6.5566">
        <ele>2083.6772</ele>
        <time>2021-01-05T10:54:12</time>
      </trkpt>
      <trkpt lat="45.56276" lon="6.55663">
        <ele>2083.6824</ele>
        <time>2021-01-05T10:54:14</time>
      </trkpt>
      <trkpt lat="45.56277" lon="6.55665">
        <ele>2085.0366</ele>
        <time>2021-01-05T10:54:16</time>
      </trkpt>
      <trkpt lat="45.56277" lon="6.55668">
        <ele>2085.876</ele>
        <time>2021-01-05T10:54:22</time>
      </trkpt>
      <trkpt lat="45.56277" lon="6.5567">
        <ele>2085.7883</ele>
        <time>2021-01-05T10:54:23</time>
      </trkpt>
      <trkpt lat="45.56277" lon="6.5567">
        <ele>2086.5654</ele>
        <time>2021-01-05T10:54:24</time>
      </trkpt>
      <trkpt lat="45.5628" lon="6.55678">
        <ele>2087.6824</ele>
        <time>2021-01-05T10:54:31</time>
      </trkpt>
      <trkpt lat="45.56282" lon="6.55682">
        <ele>2088.2043</ele>
        <time>2021-01-05T10:54:36</time>
      </trkpt>
      <trkpt lat="45.56282" lon="6.55682">
        <ele>2091.3503</ele>
        <time>2021-01-05T10:54:47</time>
      </trkpt>
      <trkpt lat="45.56282" lon="6.55682">
        <ele>2091.8066</ele>
        <time>2021-01-05T10:54:48</time>
      </trkpt>
      <trkpt lat="45.56283" lon="6.55682">
        <ele>2098.9973</ele>
        <time>2021-01-05T10:55:05</time>
      </trkpt>
      <trkpt lat="45.56284" lon="6.55683">
        <ele>2098.7102</ele>
        <time>2021-01-05T10:55:07</time>
      </trkpt>
      <trkpt lat="45.56286" lon="6.55687">
        <ele>2094.3862</ele>
        <time>2021-01-05T10:55:08</time>
      </trkpt>
      <trkpt lat="45.56287" lon="6.55688">
        <ele>1932.6831</ele>
        <time>2021-01-05T10:55:10</time>
      </trkpt>
      <trkpt lat="45.56288" lon="6.55689">
        <ele>1972.2456</ele>
        <time>2021-01-05T10:55:11</time>
      </trkpt>
      <trkpt lat="45.56288" lon="6.55689">
        <ele>2042.395</ele>
        <time>2021-01-05T10:55:15</time>
      </trkpt>
      <trkpt lat="45.56289" lon="6.55689">
        <ele>2052.7974</ele>
        <time>2021-01-05T10:55:16</time>
      </trkpt>
      <trkpt lat="45.5629" lon="6.5569">
        <ele>2066.201</ele>
        <time>2021-01-05T10:55:19</time>
      </trkpt>
      <trkpt lat="45.56292" lon="6.55689">
        <ele>2100.4705</ele>
        <time>2021-01-05T10:55:34</time>
      </trkpt>
      <trkpt lat="45.56294" lon="6.55694">
        <ele>2099.329</ele>
        <time>2021-01-05T10:55:36</time>
      </trkpt>
      <trkpt lat="45.56296" lon="6.55699">
        <ele>2100.4565</ele>
        <time>2021-01-05T10:55:39</time>
      </trkpt>
      <trkpt lat="45.56296" lon="6.557">
        <ele>2101.187</ele>
        <time>2021-01-05T10:55:40</time>
      </trkpt>
      <trkpt lat="45.56296" lon="6.55701">
        <ele>2100.183</ele>
        <time>2021-01-05T10:55:41</time>
      </trkpt>
      <trkpt lat="45.56296" lon="6.55702">
        <ele>2098.9678</ele>
        <time>2021-01-05T10:55:42</time>
      </trkpt>
      <trkpt lat="45.56296" lon="6.55704">
        <ele>2097.494</ele>
        <time>2021-01-05T10:55:43</time>
      </trkpt>
      <trkpt lat="45.56296" lon="6.55705">
        <ele>2097.3547</ele>
        <time>2021-01-05T10:55:44</time>
      </trkpt>
      <trkpt lat="45.56297" lon="6.55707">
        <ele>2096.5508</ele>
        <time>2021-01-05T10:55:46</time>
      </trkpt>
      <trkpt lat="45.56297" lon="6.55711">
        <ele>2095.056</ele>
        <time>2021-01-05T10:55:49</time>
      </trkpt>
      <trkpt lat="45.56297" lon="6.55714">
        <ele>2095.7742</ele>
        <time>2021-01-05T10:55:53</time>
      </trkpt>
      <trkpt lat="45.56296" lon="6.55718">
        <ele>2097.3818</ele>
        <time>2021-01-05T10:55:58</time>
      </trkpt>
      <trkpt lat="45.56295" lon="6.5572">
        <ele>2098.071</ele>
        <time>2021-01-05T10:56:12</time>
      </trkpt>
      <trkpt lat="45.56295" lon="6.55722">
        <ele>2095.5317</ele>
        <time>2021-01-05T10:56:14</time>
      </trkpt>
      <trkpt lat="45.56294" lon="6.55723">
        <ele>2096.6572</ele>
        <time>2021-01-05T10:56:15</time>
      </trkpt>
      <trkpt lat="45.56294" lon="6.55725">
        <ele>2095.2234</ele>
        <time>2021-01-05T10:56:17</time>
      </trkpt>
      <trkpt lat="45.56294" lon="6.55727">
        <ele>2093.895</ele>
        <time>2021-01-05T10:56:22</time>
      </trkpt>
      <trkpt lat="45.56293" lon="6.55728">
        <ele>2093.9639</ele>
        <time>2021-01-05T10:56:23</time>
      </trkpt>
      <trkpt lat="45.56293" lon="6.55729">
        <ele>2093.6748</ele>
        <time>2021-01-05T10:56:24</time>
      </trkpt>
      <trkpt lat="45.56291" lon="6.55731">
        <ele>2094.3284</ele>
        <time>2021-01-05T10:56:28</time>
      </trkpt>
      <trkpt lat="45.56291" lon="6.55732">
        <ele>2094.219</ele>
        <time>2021-01-05T10:56:29</time>
      </trkpt>
      <trkpt lat="45.5629" lon="6.55734">
        <ele>2093.247</ele>
        <time>2021-01-05T10:56:31</time>
      </trkpt>
      <trkpt lat="45.5629" lon="6.55734">
        <ele>2095.1094</ele>
        <time>2021-01-05T10:56:32</time>
      </trkpt>
      <trkpt lat="45.56291" lon="6.55735">
        <ele>2097.2642</ele>
        <time>2021-01-05T10:56:33</time>
      </trkpt>
      <trkpt lat="45.56291" lon="6.55736">
        <ele>2098.2913</ele>
        <time>2021-01-05T10:56:34</time>
      </trkpt>
      <trkpt lat="45.56294" lon="6.55737">
        <ele>2102.3145</ele>
        <time>2021-01-05T10:56:40</time>
      </trkpt>
      <trkpt lat="45.56294" lon="6.55738">
        <ele>2101.9155</ele>
        <time>2021-01-05T10:56:41</time>
      </trkpt>
      <trkpt lat="45.56295" lon="6.55739">
        <ele>2102.7375</ele>
        <time>2021-01-05T10:56:42</time>
      </trkpt>
      <trkpt lat="45.56297" lon="6.55739">
        <ele>2105.7407</ele>
        <time>2021-01-05T10:56:44</time>
      </trkpt>
      <trkpt lat="45.56298" lon="6.55739">
        <ele>2109.0444</ele>
        <time>2021-01-05T10:56:49</time>
      </trkpt>
      <trkpt lat="45.563" lon="6.5574">
        <ele>2110.1013</ele>
        <time>2021-01-05T10:56:51</time>
      </trkpt>
      <trkpt lat="45.56301" lon="6.55741">
        <ele>2112.0916</ele>
        <time>2021-01-05T10:56:53</time>
      </trkpt>
      <trkpt lat="45.56301" lon="6.55741">
        <ele>2112.976</ele>
        <time>2021-01-05T10:56:54</time>
      </trkpt>
      <trkpt lat="45.56302" lon="6.55741">
        <ele>2113.7263</ele>
        <time>2021-01-05T10:56:55</time>
      </trkpt>
      <trkpt lat="45.56302" lon="6.5574">
        <ele>2114.6494</ele>
        <time>2021-01-05T10:56:57</time>
      </trkpt>
      <trkpt lat="45.56302" lon="6.5574">
        <ele>2115.2102</ele>
        <time>2021-01-05T10:56:58</time>
      </trkpt>
      <trkpt lat="45.56303" lon="6.5574">
        <ele>2116.5186</ele>
        <time>2021-01-05T10:57:03</time>
      </trkpt>
      <trkpt lat="45.56305" lon="6.55741">
        <ele>2119.1113</ele>
        <time>2021-01-05T10:57:06</time>
      </trkpt>
      <trkpt lat="45.56309" lon="6.55742">
        <ele>2122.2832</ele>
        <time>2021-01-05T10:57:10</time>
      </trkpt>
      <trkpt lat="45.56309" lon="6.55743">
        <ele>2123.4417</ele>
        <time>2021-01-05T10:57:11</time>
      </trkpt>
      <trkpt lat="45.5631" lon="6.55743">
        <ele>2126.902</ele>
        <time>2021-01-05T10:57:14</time>
      </trkpt>
      <trkpt lat="45.56311" lon="6.55743">
        <ele>2125.9585</ele>
        <time>2021-01-05T10:57:15</time>
      </trkpt>
      <trkpt lat="45.56312" lon="6.55743">
        <ele>2127.8684</ele>
        <time>2021-01-05T10:57:17</time>
      </trkpt>
      <trkpt lat="45.56312" lon="6.55743">
        <ele>2128.04</ele>
        <time>2021-01-05T10:57:24</time>
      </trkpt>
      <trkpt lat="45.56315" lon="6.55749">
        <ele>2126.1948</ele>
        <time>2021-01-05T10:57:29</time>
      </trkpt>
      <trkpt lat="45.56316" lon="6.55753">
        <ele>2126.6692</ele>
        <time>2021-01-05T10:57:35</time>
      </trkpt>
      <trkpt lat="45.56319" lon="6.55757">
        <ele>2126.1172</ele>
        <time>2021-01-05T10:57:41</time>
      </trkpt>
      <trkpt lat="45.5632" lon="6.55757">
        <ele>2126.4805</ele>
        <time>2021-01-05T10:57:47</time>
      </trkpt>
      <trkpt lat="45.56324" lon="6.55762">
        <ele>2126.9226</ele>
        <time>2021-01-05T10:57:54</time>
      </trkpt>
      <trkpt lat="45.56325" lon="6.55763">
        <ele>2126.8188</ele>
        <time>2021-01-05T10:57:58</time>
      </trkpt>
      <trkpt lat="45.56326" lon="6.55765">
        <ele>2126.951</ele>
        <time>2021-01-05T10:58:01</time>
      </trkpt>
      <trkpt lat="45.56328" lon="6.55765">
        <ele>2128.9382</ele>
        <time>2021-01-05T10:58:06</time>
      </trkpt>
      <trkpt lat="45.56331" lon="6.55769">
        <ele>2130.7944</ele>
        <time>2021-01-05T10:58:10</time>
      </trkpt>
      <trkpt lat="45.56337" lon="6.55775">
        <ele>2130.5178</ele>
        <time>2021-01-05T10:58:18</time>
      </trkpt>
      <trkpt lat="45.56338" lon="6.55776">
        <ele>2129.1914</ele>
        <time>2021-01-05T10:58:20</time>
      </trkpt>
      <trkpt lat="45.56338" lon="6.55776">
        <ele>2129.5498</ele>
        <time>2021-01-05T10:58:21</time>
      </trkpt>
      <trkpt lat="45.56339" lon="6.55776">
        <ele>2131.3218</ele>
        <time>2021-01-05T10:58:26</time>
      </trkpt>
      <trkpt lat="45.56339" lon="6.55776">
        <ele>2132.2922</ele>
        <time>2021-01-05T10:58:27</time>
      </trkpt>
      <trkpt lat="45.5634" lon="6.55775">
        <ele>2133.3945</ele>
        <time>2021-01-05T10:58:29</time>
      </trkpt>
      <trkpt lat="45.56341" lon="6.55776">
        <ele>2132.6274</ele>
        <time>2021-01-05T10:59:05</time>
      </trkpt>
      <trkpt lat="45.56342" lon="6.55777">
        <ele>2134.0466</ele>
        <time>2021-01-05T10:59:37</time>
      </trkpt>
      <trkpt lat="45.56342" lon="6.55777">
        <ele>2134.6897</ele>
        <time>2021-01-05T10:59:38</time>
      </trkpt>
      <trkpt lat="45.56342" lon="6.55777">
        <ele>2134.143</ele>
        <time>2021-01-05T10:59:40</time>
      </trkpt>
      <trkpt lat="45.56343" lon="6.55778">
        <ele>2134.1921</ele>
        <time>2021-01-05T10:59:41</time>
      </trkpt>
      <trkpt lat="45.56343" lon="6.55778">
        <ele>2135.1843</ele>
        <time>2021-01-05T10:59:42</time>
      </trkpt>
      <trkpt lat="45.56344" lon="6.55779">
        <ele>2135.1096</ele>
        <time>2021-01-05T10:59:43</time>
      </trkpt>
      <trkpt lat="45.56346" lon="6.55781">
        <ele>2135.8857</ele>
        <time>2021-01-05T10:59:45</time>
      </trkpt>
      <trkpt lat="45.56347" lon="6.55782">
        <ele>2137.019</ele>
        <time>2021-01-05T10:59:46</time>
      </trkpt>
      <trkpt lat="45.56351" lon="6.55785">
        <ele>2137.082</ele>
        <time>2021-01-05T10:59:50</time>
      </trkpt>
      <trkpt lat="45.56352" lon="6.55785">
        <ele>2137.018</ele>
        <time>2021-01-05T10:59:51</time>
      </trkpt>
      <trkpt lat="45.56352" lon="6.55785">
        <ele>2136.6064</ele>
        <time>2021-01-05T10:59:52</time>
      </trkpt>
      <trkpt lat="45.56352" lon="6.55785">
        <ele>2137.305</ele>
        <time>2021-01-05T10:59:53</time>
      </trkpt>
      <trkpt lat="45.56353" lon="6.55786">
        <ele>2139.4414</ele>
        <time>2021-01-05T10:59:58</time>
      </trkpt>
      <trkpt lat="45.56355" lon="6.55788">
        <ele>2133.342</ele>
        <time>2021-01-05T10:59:59</time>
      </trkpt>
      <trkpt lat="45.56356" lon="6.55789">
        <ele>2133.4053</ele>
        <time>2021-01-05T11:00:00</time>
      </trkpt>
      <trkpt lat="45.56366" lon="6.55798">
        <ele>2135.5544</ele>
        <time>2021-01-05T11:00:14</time>
      </trkpt>
      <trkpt lat="45.56367" lon="6.55798">
        <ele>2136.3518</ele>
        <time>2021-01-05T11:00:15</time>
      </trkpt>
      <trkpt lat="45.56368" lon="6.558">
        <ele>2135.1567</ele>
        <time>2021-01-05T11:00:19</time>
      </trkpt>
      <trkpt lat="45.56368" lon="6.558">
        <ele>2135.896</ele>
        <time>2021-01-05T11:00:23</time>
      </trkpt>
      <trkpt lat="45.56369" lon="6.558">
        <ele>2135.206</ele>
        <time>2021-01-05T11:00:24</time>
      </trkpt>
      <trkpt lat="45.56369" lon="6.55801">
        <ele>2135.4424</ele>
        <time>2021-01-05T11:00:25</time>
      </trkpt>
      <trkpt lat="45.56372" lon="6.55803">
        <ele>2135.9395</ele>
        <time>2021-01-05T11:00:29</time>
      </trkpt>
      <trkpt lat="45.56374" lon="6.55805">
        <ele>2135.0696</ele>
        <time>2021-01-05T11:00:35</time>
      </trkpt>
      <trkpt lat="45.56376" lon="6.55806">
        <ele>2136.6794</ele>
        <time>2021-01-05T11:00:39</time>
      </trkpt>
      <trkpt lat="45.56376" lon="6.55807">
        <ele>2136.183</ele>
        <time>2021-01-05T11:00:40</time>
      </trkpt>
      <trkpt lat="45.56376" lon="6.55807">
        <ele>2136.5303</ele>
        <time>2021-01-05T11:00:41</time>
      </trkpt>
      <trkpt lat="45.56376" lon="6.55808">
        <ele>2137.476</ele>
        <time>2021-01-05T11:00:46</time>
      </trkpt>
      <trkpt lat="45.56377" lon="6.55807">
        <ele>2138.4087</ele>
        <time>2021-01-05T11:00:47</time>
      </trkpt>
      <trkpt lat="45.56377" lon="6.55808">
        <ele>2138.7446</ele>
        <time>2021-01-05T11:00:49</time>
      </trkpt>
      <trkpt lat="45.56377" lon="6.55808">
        <ele>2138.873</ele>
        <time>2021-01-05T11:00:50</time>
      </trkpt>
      <trkpt lat="45.5638" lon="6.55812">
        <ele>2137.0842</ele>
        <time>2021-01-05T11:00:58</time>
      </trkpt>
      <trkpt lat="45.5638" lon="6.55812">
        <ele>2137.0935</ele>
        <time>2021-01-05T11:00:59</time>
      </trkpt>
      <trkpt lat="45.5638" lon="6.55812">
        <ele>2138.6199</ele>
        <time>2021-01-05T11:01:02</time>
      </trkpt>
      <trkpt lat="45.5638" lon="6.55812">
        <ele>2139.034</ele>
        <time>2021-01-05T11:01:03</time>
      </trkpt>
      <trkpt lat="45.56381" lon="6.55815">
        <ele>2140.6377</ele>
        <time>2021-01-05T11:01:17</time>
      </trkpt>
      <trkpt lat="45.56383" lon="6.55817">
        <ele>2141.4478</ele>
        <time>2021-01-05T11:01:20</time>
      </trkpt>
      <trkpt lat="45.56384" lon="6.55818">
        <ele>2141.4006</ele>
        <time>2021-01-05T11:01:22</time>
      </trkpt>
      <trkpt lat="45.56386" lon="6.55821">
        <ele>2142.7148</ele>
        <time>2021-01-05T11:01:26</time>
      </trkpt>
      <trkpt lat="45.56386" lon="6.55821">
        <ele>2143.3965</ele>
        <time>2021-01-05T11:01:28</time>
      </trkpt>
      <trkpt lat="45.56388" lon="6.55823">
        <ele>2143.5054</ele>
        <time>2021-01-05T11:01:31</time>
      </trkpt>
      <trkpt lat="45.56389" lon="6.55824">
        <ele>2144.9434</ele>
        <time>2021-01-05T11:01:35</time>
      </trkpt>
      <trkpt lat="45.5639" lon="6.55826">
        <ele>2144.4973</ele>
        <time>2021-01-05T11:01:38</time>
      </trkpt>
      <trkpt lat="45.56391" lon="6.55827">
        <ele>2146.2712</ele>
        <time>2021-01-05T11:01:40</time>
      </trkpt>
      <trkpt lat="45.56394" lon="6.5583">
        <ele>2149.2874</ele>
        <time>2021-01-05T11:01:46</time>
      </trkpt>
      <trkpt lat="45.56395" lon="6.55831">
        <ele>2151.0286</ele>
        <time>2021-01-05T11:01:53</time>
      </trkpt>
      <trkpt lat="45.56395" lon="6.55831">
        <ele>2151.785</ele>
        <time>2021-01-05T11:01:54</time>
      </trkpt>
      <trkpt lat="45.56396" lon="6.55832">
        <ele>2152.2195</ele>
        <time>2021-01-05T11:01:55</time>
      </trkpt>
      <trkpt lat="45.56401" lon="6.55838">
        <ele>2153.909</ele>
        <time>2021-01-05T11:02:04</time>
      </trkpt>
      <trkpt lat="45.56402" lon="6.55839">
        <ele>2154.4011</ele>
        <time>2021-01-05T11:02:08</time>
      </trkpt>
      <trkpt lat="45.56404" lon="6.55841">
        <ele>2157.358</ele>
        <time>2021-01-05T11:02:12</time>
      </trkpt>
      <trkpt lat="45.56404" lon="6.55841">
        <ele>2157.4783</ele>
        <time>2021-01-05T11:02:13</time>
      </trkpt>
      <trkpt lat="45.56405" lon="6.55842">
        <ele>2158.556</ele>
        <time>2021-01-05T11:02:15</time>
      </trkpt>
      <trkpt lat="45.56407" lon="6.55843">
        <ele>2158.2778</ele>
        <time>2021-01-05T11:02:17</time>
      </trkpt>
      <trkpt lat="45.56408" lon="6.55845">
        <ele>2157.8333</ele>
        <time>2021-01-05T11:02:19</time>
      </trkpt>
      <trkpt lat="45.56408" lon="6.55846">
        <ele>2158.2092</ele>
        <time>2021-01-05T11:02:20</time>
      </trkpt>
      <trkpt lat="45.56415" lon="6.55855">
        <ele>2158.2756</ele>
        <time>2021-01-05T11:02:32</time>
      </trkpt>
      <trkpt lat="45.56416" lon="6.55855">
        <ele>2158.1602</ele>
        <time>2021-01-05T11:02:35</time>
      </trkpt>
      <trkpt lat="45.56416" lon="6.55855">
        <ele>2158.6477</ele>
        <time>2021-01-05T11:02:36</time>
      </trkpt>
      <trkpt lat="45.56417" lon="6.5586">
        <ele>2156.859</ele>
        <time>2021-01-05T11:02:50</time>
      </trkpt>
      <trkpt lat="45.56417" lon="6.55861">
        <ele>2155.274</ele>
        <time>2021-01-05T11:02:51</time>
      </trkpt>
      <trkpt lat="45.56418" lon="6.55862">
        <ele>2155.536</ele>
        <time>2021-01-05T11:02:53</time>
      </trkpt>
      <trkpt lat="45.56419" lon="6.55864">
        <ele>2155.579</ele>
        <time>2021-01-05T11:02:55</time>
      </trkpt>
      <trkpt lat="45.56421" lon="6.55865">
        <ele>2156.6616</ele>
        <time>2021-01-05T11:02:58</time>
      </trkpt>
      <trkpt lat="45.56421" lon="6.55865">
        <ele>2156.6118</ele>
        <time>2021-01-05T11:03:00</time>
      </trkpt>
      <trkpt lat="45.56423" lon="6.55868">
        <ele>2158.4658</ele>
        <time>2021-01-05T11:03:04</time>
      </trkpt>
      <trkpt lat="45.56425" lon="6.55869">
        <ele>2159.7957</ele>
        <time>2021-01-05T11:03:14</time>
      </trkpt>
      <trkpt lat="45.56426" lon="6.5587">
        <ele>2158.8962</ele>
        <time>2021-01-05T11:03:15</time>
      </trkpt>
      <trkpt lat="45.56426" lon="6.55871">
        <ele>2159.3684</ele>
        <time>2021-01-05T11:03:16</time>
      </trkpt>
      <trkpt lat="45.56431" lon="6.55874">
        <ele>2161.763</ele>
        <time>2021-01-05T11:03:23</time>
      </trkpt>
      <trkpt lat="45.56432" lon="6.55874">
        <ele>2163.3916</ele>
        <time>2021-01-05T11:03:33</time>
      </trkpt>
      <trkpt lat="45.56432" lon="6.55874">
        <ele>2163.898</ele>
        <time>2021-01-05T11:03:34</time>
      </trkpt>
      <trkpt lat="45.56432" lon="6.55875">
        <ele>2164.7795</ele>
        <time>2021-01-05T11:03:35</time>
      </trkpt>
      <trkpt lat="45.56433" lon="6.55875">
        <ele>2164.336</ele>
        <time>2021-01-05T11:03:36</time>
      </trkpt>
      <trkpt lat="45.56437" lon="6.55881">
        <ele>2165.0984</ele>
        <time>2021-01-05T11:03:43</time>
      </trkpt>
      <trkpt lat="45.56438" lon="6.55883">
        <ele>2164.8875</ele>
        <time>2021-01-05T11:03:50</time>
      </trkpt>
      <trkpt lat="45.5644" lon="6.55887">
        <ele>2164.0447</ele>
        <time>2021-01-05T11:03:54</time>
      </trkpt>
      <trkpt lat="45.56441" lon="6.55888">
        <ele>2165.3594</ele>
        <time>2021-01-05T11:03:57</time>
      </trkpt>
      <trkpt lat="45.56442" lon="6.55889">
        <ele>2165.527</ele>
        <time>2021-01-05T11:03:58</time>
      </trkpt>
      <trkpt lat="45.56442" lon="6.5589">
        <ele>2165.764</ele>
        <time>2021-01-05T11:03:59</time>
      </trkpt>
      <trkpt lat="45.56447" lon="6.55895">
        <ele>2164.9834</ele>
        <time>2021-01-05T11:04:06</time>
      </trkpt>
      <trkpt lat="45.56447" lon="6.55895">
        <ele>2165.016</ele>
        <time>2021-01-05T11:04:07</time>
      </trkpt>
      <trkpt lat="45.56448" lon="6.55897">
        <ele>2167.108</ele>
        <time>2021-01-05T11:04:11</time>
      </trkpt>
      <trkpt lat="45.56449" lon="6.55899">
        <ele>2166.7734</ele>
        <time>2021-01-05T11:04:16</time>
      </trkpt>
      <trkpt lat="45.56452" lon="6.55901">
        <ele>2157.2842</ele>
        <time>2021-01-05T11:04:18</time>
      </trkpt>
      <trkpt lat="45.56453" lon="6.55902">
        <ele>2157.8574</ele>
        <time>2021-01-05T11:04:19</time>
      </trkpt>
      <trkpt lat="45.56455" lon="6.55904">
        <ele>2156.1763</ele>
        <time>2021-01-05T11:04:21</time>
      </trkpt>
      <trkpt lat="45.56457" lon="6.55905">
        <ele>2155.4863</ele>
        <time>2021-01-05T11:04:23</time>
      </trkpt>
      <trkpt lat="45.56458" lon="6.55907">
        <ele>2158.3613</ele>
        <time>2021-01-05T11:04:31</time>
      </trkpt>
      <trkpt lat="45.56458" lon="6.55907">
        <ele>2159.1187</ele>
        <time>2021-01-05T11:04:32</time>
      </trkpt>
      <trkpt lat="45.56458" lon="6.55907">
        <ele>2160.4177</ele>
        <time>2021-01-05T11:04:33</time>
      </trkpt>
      <trkpt lat="45.56459" lon="6.55908">
        <ele>2162.0403</ele>
        <time>2021-01-05T11:04:35</time>
      </trkpt>
      <trkpt lat="45.5646" lon="6.55908">
        <ele>2161.4705</ele>
        <time>2021-01-05T11:04:36</time>
      </trkpt>
      <trkpt lat="45.5646" lon="6.55908">
        <ele>2162.0103</ele>
        <time>2021-01-05T11:04:38</time>
      </trkpt>
      <trkpt lat="45.56462" lon="6.55909">
        <ele>2164.1545</ele>
        <time>2021-01-05T11:04:41</time>
      </trkpt>
      <trkpt lat="45.56464" lon="6.55909">
        <ele>2165.0044</ele>
        <time>2021-01-05T11:04:57</time>
      </trkpt>
      <trkpt lat="45.56464" lon="6.5591">
        <ele>2165.4587</ele>
        <time>2021-01-05T11:04:58</time>
      </trkpt>
      <trkpt lat="45.56465" lon="6.55909">
        <ele>2166.5894</ele>
        <time>2021-01-05T11:05:03</time>
      </trkpt>
      <trkpt lat="45.56466" lon="6.5591">
        <ele>2165.7273</ele>
        <time>2021-01-05T11:05:05</time>
      </trkpt>
      <trkpt lat="45.56467" lon="6.55911">
        <ele>2165.7607</ele>
        <time>2021-01-05T11:05:07</time>
      </trkpt>
      <trkpt lat="45.56468" lon="6.55911">
        <ele>2163.9485</ele>
        <time>2021-01-05T11:05:08</time>
      </trkpt>
      <trkpt lat="45.56472" lon="6.55915">
        <ele>2162.4746</ele>
        <time>2021-01-05T11:05:17</time>
      </trkpt>
      <trkpt lat="45.56474" lon="6.55917">
        <ele>2163.0242</ele>
        <time>2021-01-05T11:05:19</time>
      </trkpt>
      <trkpt lat="45.56476" lon="6.55918">
        <ele>2165.988</ele>
        <time>2021-01-05T11:05:26</time>
      </trkpt>
      <trkpt lat="45.56477" lon="6.5592">
        <ele>2167.6624</ele>
        <time>2021-01-05T11:05:30</time>
      </trkpt>
      <trkpt lat="45.56478" lon="6.5592">
        <ele>2169.3796</ele>
        <time>2021-01-05T11:05:34</time>
      </trkpt>
      <trkpt lat="45.56477" lon="6.55922">
        <ele>2170.1833</ele>
        <time>2021-01-05T11:05:38</time>
      </trkpt>
      <trkpt lat="45.56477" lon="6.55923">
        <ele>2170.4731</ele>
        <time>2021-01-05T11:05:40</time>
      </trkpt>
      <trkpt lat="45.56477" lon="6.55926">
        <ele>2170.2202</ele>
        <time>2021-01-05T11:05:44</time>
      </trkpt>
      <trkpt lat="45.56478" lon="6.55927">
        <ele>2170.8486</ele>
        <time>2021-01-05T11:05:46</time>
      </trkpt>
      <trkpt lat="45.56478" lon="6.55932">
        <ele>2170.5015</ele>
        <time>2021-01-05T11:05:51</time>
      </trkpt>
      <trkpt lat="45.56478" lon="6.55933">
        <ele>2171.2542</ele>
        <time>2021-01-05T11:05:52</time>
      </trkpt>
      <trkpt lat="45.56478" lon="6.55934">
        <ele>2171.2585</ele>
        <time>2021-01-05T11:05:53</time>
      </trkpt>
      <trkpt lat="45.56479" lon="6.55936">
        <ele>2172.7334</ele>
        <time>2021-01-05T11:05:56</time>
      </trkpt>
      <trkpt lat="45.5648" lon="6.55936">
        <ele>2173.896</ele>
        <time>2021-01-05T11:05:58</time>
      </trkpt>
      <trkpt lat="45.56481" lon="6.55939">
        <ele>2174.7266</ele>
        <time>2021-01-05T11:06:01</time>
      </trkpt>
      <trkpt lat="45.56481" lon="6.55938">
        <ele>2176.5735</ele>
        <time>2021-01-05T11:07:02</time>
      </trkpt>
      <trkpt lat="45.56481" lon="6.55939">
        <ele>2177.4526</ele>
        <time>2021-01-05T11:07:27</time>
      </trkpt>
      <trkpt lat="45.56481" lon="6.55939">
        <ele>2177.7146</ele>
        <time>2021-01-05T11:07:28</time>
      </trkpt>
      <trkpt lat="45.56481" lon="6.55939">
        <ele>2177.7424</ele>
        <time>2021-01-05T11:08:13</time>
      </trkpt>
      <trkpt lat="45.56481" lon="6.55939">
        <ele>2177.1772</ele>
        <time>2021-01-05T11:08:15</time>
      </trkpt>
      <trkpt lat="45.56481" lon="6.5594">
        <ele>2177.0698</ele>
        <time>2021-01-05T11:08:16</time>
      </trkpt>
      <trkpt lat="45.5648" lon="6.55943">
        <ele>2175.9744</ele>
        <time>2021-01-05T11:08:19</time>
      </trkpt>
      <trkpt lat="45.56481" lon="6.55958">
        <ele>2176.079</ele>
        <time>2021-01-05T11:08:29</time>
      </trkpt>
      <trkpt lat="45.56484" lon="6.55961">
        <ele>2181.5137</ele>
        <time>2021-01-05T11:08:34</time>
      </trkpt>
      <trkpt lat="45.56484" lon="6.55962">
        <ele>2182.0044</ele>
        <time>2021-01-05T11:08:40</time>
      </trkpt>
      <trkpt lat="45.56483" lon="6.55973">
        <ele>2182.8276</ele>
        <time>2021-01-05T11:08:55</time>
      </trkpt>
      <trkpt lat="45.56483" lon="6.55974">
        <ele>2183.569</ele>
        <time>2021-01-05T11:08:56</time>
      </trkpt>
      <trkpt lat="45.56483" lon="6.55974">
        <ele>2183.9778</ele>
        <time>2021-01-05T11:08:58</time>
      </trkpt>
      <trkpt lat="45.56483" lon="6.55974">
        <ele>2181.2983</ele>
        <time>2021-01-05T11:09:03</time>
      </trkpt>
      <trkpt lat="45.56483" lon="6.55975">
        <ele>2181.5762</ele>
        <time>2021-01-05T11:09:04</time>
      </trkpt>
      <trkpt lat="45.56483" lon="6.55976">
        <ele>2183.216</ele>
        <time>2021-01-05T11:09:05</time>
      </trkpt>
      <trkpt lat="45.56484" lon="6.55979">
        <ele>2183.8872</ele>
        <time>2021-01-05T11:09:08</time>
      </trkpt>
      <trkpt lat="45.56485" lon="6.55979">
        <ele>2187.543</ele>
        <time>2021-01-05T11:09:12</time>
      </trkpt>
      <trkpt lat="45.56486" lon="6.5598">
        <ele>2188.6165</ele>
        <time>2021-01-05T11:09:14</time>
      </trkpt>
      <trkpt lat="45.56487" lon="6.55981">
        <ele>2188.6665</ele>
        <time>2021-01-05T11:09:18</time>
      </trkpt>
      <trkpt lat="45.56489" lon="6.55982">
        <ele>2188.9365</ele>
        <time>2021-01-05T11:09:20</time>
      </trkpt>
      <trkpt lat="45.56489" lon="6.55982">
        <ele>2187.7053</ele>
        <time>2021-01-05T11:09:21</time>
      </trkpt>
      <trkpt lat="45.56491" lon="6.55983">
        <ele>2185.93</ele>
        <time>2021-01-05T11:09:23</time>
      </trkpt>
      <trkpt lat="45.56491" lon="6.55984">
        <ele>2186.7837</ele>
        <time>2021-01-05T11:09:24</time>
      </trkpt>
      <trkpt lat="45.56492" lon="6.55985">
        <ele>2188.3425</ele>
        <time>2021-01-05T11:09:27</time>
      </trkpt>
      <trkpt lat="45.56495" lon="6.55986">
        <ele>2189.8389</ele>
        <time>2021-01-05T11:09:30</time>
      </trkpt>
      <trkpt lat="45.56502" lon="6.5599">
        <ele>2185.4312</ele>
        <time>2021-01-05T11:09:37</time>
      </trkpt>
      <trkpt lat="45.56504" lon="6.5599">
        <ele>2189.391</ele>
        <time>2021-01-05T11:09:46</time>
      </trkpt>
      <trkpt lat="45.56506" lon="6.55991">
        <ele>2189.7122</ele>
        <time>2021-01-05T11:09:48</time>
      </trkpt>
      <trkpt lat="45.56507" lon="6.55992">
        <ele>2191.107</ele>
        <time>2021-01-05T11:09:49</time>
      </trkpt>
      <trkpt lat="45.5651" lon="6.55994">
        <ele>2192.2214</ele>
        <time>2021-01-05T11:09:52</time>
      </trkpt>
      <trkpt lat="45.56511" lon="6.55996">
        <ele>2191.2698</ele>
        <time>2021-01-05T11:09:56</time>
      </trkpt>
      <trkpt lat="45.5651" lon="6.55998">
        <ele>2191.0137</ele>
        <time>2021-01-05T11:09:59</time>
      </trkpt>
      <trkpt lat="45.56509" lon="6.56001">
        <ele>2191.5884</ele>
        <time>2021-01-05T11:10:02</time>
      </trkpt>
      <trkpt lat="45.56508" lon="6.56001">
        <ele>2193.6267</ele>
        <time>2021-01-05T11:10:05</time>
      </trkpt>
      <trkpt lat="45.56507" lon="6.56004">
        <ele>2195.022</ele>
        <time>2021-01-05T11:10:10</time>
      </trkpt>
      <trkpt lat="45.56506" lon="6.56005">
        <ele>2194.8872</ele>
        <time>2021-01-05T11:10:14</time>
      </trkpt>
      <trkpt lat="45.56505" lon="6.56007">
        <ele>2195.1802</ele>
        <time>2021-01-05T11:10:17</time>
      </trkpt>
      <trkpt lat="45.56504" lon="6.56007">
        <ele>2196.9346</ele>
        <time>2021-01-05T11:10:19</time>
      </trkpt>
      <trkpt lat="45.56504" lon="6.56009">
        <ele>2195.517</ele>
        <time>2021-01-05T11:10:21</time>
      </trkpt>
      <trkpt lat="45.56504" lon="6.56012">
        <ele>2196.5732</ele>
        <time>2021-01-05T11:10:24</time>
      </trkpt>
      <trkpt lat="45.56503" lon="6.56014">
        <ele>2198.683</ele>
        <time>2021-01-05T11:10:27</time>
      </trkpt>
      <trkpt lat="45.56503" lon="6.56015">
        <ele>2198.5085</ele>
        <time>2021-01-05T11:10:28</time>
      </trkpt>
      <trkpt lat="45.56503" lon="6.56015">
        <ele>2197.514</ele>
        <time>2021-01-05T11:10:30</time>
      </trkpt>
      <trkpt lat="45.56502" lon="6.56018">
        <ele>2199.6416</ele>
        <time>2021-01-05T11:10:33</time>
      </trkpt>
      <trkpt lat="45.56503" lon="6.56019">
        <ele>2198.8154</ele>
        <time>2021-01-05T11:10:38</time>
      </trkpt>
      <trkpt lat="45.56504" lon="6.56019">
        <ele>2198.2517</ele>
        <time>2021-01-05T11:10:39</time>
      </trkpt>
      <trkpt lat="45.56505" lon="6.56019">
        <ele>2198.8657</ele>
        <time>2021-01-05T11:10:41</time>
      </trkpt>
      <trkpt lat="45.56505" lon="6.5602">
        <ele>2198.3284</ele>
        <time>2021-01-05T11:10:42</time>
      </trkpt>
      <trkpt lat="45.56505" lon="6.5602">
        <ele>2196.6604</ele>
        <time>2021-01-05T11:10:47</time>
      </trkpt>
      <trkpt lat="45.56506" lon="6.5602">
        <ele>2198.2524</ele>
        <time>2021-01-05T11:10:49</time>
      </trkpt>
      <trkpt lat="45.56509" lon="6.56021">
        <ele>2197.4536</ele>
        <time>2021-01-05T11:10:53</time>
      </trkpt>
      <trkpt lat="45.56514" lon="6.56023">
        <ele>2197.5967</ele>
        <time>2021-01-05T11:10:57</time>
      </trkpt>
      <trkpt lat="45.56515" lon="6.56024">
        <ele>2197.3765</ele>
        <time>2021-01-05T11:11:07</time>
      </trkpt>
      <trkpt lat="45.56515" lon="6.56025">
        <ele>2197.9194</ele>
        <time>2021-01-05T11:11:08</time>
      </trkpt>
      <trkpt lat="45.56515" lon="6.56025">
        <ele>2197.9058</ele>
        <time>2021-01-05T11:11:09</time>
      </trkpt>
      <trkpt lat="45.56515" lon="6.56026">
        <ele>2197.9807</ele>
        <time>2021-01-05T11:11:17</time>
      </trkpt>
      <trkpt lat="45.56514" lon="6.56028">
        <ele>2196.87</ele>
        <time>2021-01-05T11:11:18</time>
      </trkpt>
      <trkpt lat="45.56513" lon="6.5603">
        <ele>2196.7988</ele>
        <time>2021-01-05T11:11:21</time>
      </trkpt>
      <trkpt lat="45.56512" lon="6.5603">
        <ele>2198.9907</ele>
        <time>2021-01-05T11:11:26</time>
      </trkpt>
      <trkpt lat="45.56512" lon="6.56033">
        <ele>2196.425</ele>
        <time>2021-01-05T11:11:28</time>
      </trkpt>
      <trkpt lat="45.56512" lon="6.56034">
        <ele>2197.4185</ele>
        <time>2021-01-05T11:11:29</time>
      </trkpt>
      <trkpt lat="45.56512" lon="6.56035">
        <ele>2197.5903</ele>
        <time>2021-01-05T11:11:33</time>
      </trkpt>
      <trkpt lat="45.56511" lon="6.56037">
        <ele>2197.4822</ele>
        <time>2021-01-05T11:11:35</time>
      </trkpt>
      <trkpt lat="45.56511" lon="6.56037">
        <ele>2194.2722</ele>
        <time>2021-01-05T11:11:36</time>
      </trkpt>
      <trkpt lat="45.5651" lon="6.56038">
        <ele>2195.1785</ele>
        <time>2021-01-05T11:11:37</time>
      </trkpt>
      <trkpt lat="45.56509" lon="6.56042">
        <ele>2198.2078</ele>
        <time>2021-01-05T11:11:41</time>
      </trkpt>
      <trkpt lat="45.56513" lon="6.56043">
        <ele>2200.3035</ele>
        <time>2021-01-05T11:12:07</time>
      </trkpt>
      <trkpt lat="45.56514" lon="6.56044">
        <ele>2199.149</ele>
        <time>2021-01-05T11:12:08</time>
      </trkpt>
      <trkpt lat="45.56516" lon="6.56046">
        <ele>2198.8557</ele>
        <time>2021-01-05T11:12:12</time>
      </trkpt>
      <trkpt lat="45.56516" lon="6.56046">
        <ele>2198.2812</ele>
        <time>2021-01-05T11:12:13</time>
      </trkpt>
      <trkpt lat="45.56517" lon="6.56046">
        <ele>2200.707</ele>
        <time>2021-01-05T11:12:21</time>
      </trkpt>
      <trkpt lat="45.56517" lon="6.56047">
        <ele>2201.1968</ele>
        <time>2021-01-05T11:12:22</time>
      </trkpt>
      <trkpt lat="45.56516" lon="6.56047">
        <ele>2201.8032</ele>
        <time>2021-01-05T11:12:23</time>
      </trkpt>
      <trkpt lat="45.56515" lon="6.56047">
        <ele>2202.9595</ele>
        <time>2021-01-05T11:12:25</time>
      </trkpt>
      <trkpt lat="45.56514" lon="6.56049">
        <ele>2203.6814</ele>
        <time>2021-01-05T11:12:28</time>
      </trkpt>
      <trkpt lat="45.56514" lon="6.56049">
        <ele>2203.5625</ele>
        <time>2021-01-05T11:12:31</time>
      </trkpt>
      <trkpt lat="45.56514" lon="6.56051">
        <ele>2206.1423</ele>
        <time>2021-01-05T11:12:33</time>
      </trkpt>
      <trkpt lat="45.56514" lon="6.56054">
        <ele>2205.4207</ele>
        <time>2021-01-05T11:12:36</time>
      </trkpt>
      <trkpt lat="45.56514" lon="6.56055">
        <ele>2205.0325</ele>
        <time>2021-01-05T11:12:39</time>
      </trkpt>
      <trkpt lat="45.56514" lon="6.56056">
        <ele>2206.6506</ele>
        <time>2021-01-05T11:12:41</time>
      </trkpt>
      <trkpt lat="45.56518" lon="6.56057">
        <ele>2211.899</ele>
        <time>2021-01-05T11:12:52</time>
      </trkpt>
      <trkpt lat="45.5652" lon="6.56058">
        <ele>2212.831</ele>
        <time>2021-01-05T11:12:54</time>
      </trkpt>
      <trkpt lat="45.56522" lon="6.56057">
        <ele>2210.928</ele>
        <time>2021-01-05T11:12:58</time>
      </trkpt>
      <trkpt lat="45.56523" lon="6.56058">
        <ele>2210.3623</ele>
        <time>2021-01-05T11:12:59</time>
      </trkpt>
      <trkpt lat="45.56524" lon="6.56059">
        <ele>2209.1995</ele>
        <time>2021-01-05T11:13:02</time>
      </trkpt>
      <trkpt lat="45.56526" lon="6.56059">
        <ele>2210.3284</ele>
        <time>2021-01-05T11:13:05</time>
      </trkpt>
      <trkpt lat="45.56528" lon="6.5606">
        <ele>2212.1824</ele>
        <time>2021-01-05T11:13:16</time>
      </trkpt>
      <trkpt lat="45.56528" lon="6.5606">
        <ele>2213.088</ele>
        <time>2021-01-05T11:13:17</time>
      </trkpt>
      <trkpt lat="45.56527" lon="6.5606">
        <ele>2214.4934</ele>
        <time>2021-01-05T11:13:20</time>
      </trkpt>
      <trkpt lat="45.56527" lon="6.5606">
        <ele>2214.835</ele>
        <time>2021-01-05T11:13:21</time>
      </trkpt>
      <trkpt lat="45.56527" lon="6.5606">
        <ele>2216.8088</ele>
        <time>2021-01-05T11:13:23</time>
      </trkpt>
      <trkpt lat="45.56527" lon="6.5606">
        <ele>2216.5242</ele>
        <time>2021-01-05T11:13:24</time>
      </trkpt>
      <trkpt lat="45.56527" lon="6.5606">
        <ele>2216.0632</ele>
        <time>2021-01-05T11:13:26</time>
      </trkpt>
      <trkpt lat="45.56527" lon="6.5606">
        <ele>2216.4502</ele>
        <time>2021-01-05T11:13:27</time>
      </trkpt>
      <trkpt lat="45.56527" lon="6.56061">
        <ele>2216.7988</ele>
        <time>2021-01-05T11:13:30</time>
      </trkpt>
      <trkpt lat="45.56525" lon="6.56064">
        <ele>2211.3936</ele>
        <time>2021-01-05T11:13:33</time>
      </trkpt>
      <trkpt lat="45.56524" lon="6.56064">
        <ele>2208.5183</ele>
        <time>2021-01-05T11:13:35</time>
      </trkpt>
      <trkpt lat="45.56523" lon="6.56065">
        <ele>2208.9382</ele>
        <time>2021-01-05T11:13:37</time>
      </trkpt>
      <trkpt lat="45.56522" lon="6.56066">
        <ele>2205.0916</ele>
        <time>2021-01-05T11:13:39</time>
      </trkpt>
      <trkpt lat="45.56522" lon="6.56066">
        <ele>2205.8296</ele>
        <time>2021-01-05T11:13:40</time>
      </trkpt>
      <trkpt lat="45.56523" lon="6.56067">
        <ele>2209.5137</ele>
        <time>2021-01-05T11:13:50</time>
      </trkpt>
      <trkpt lat="45.56522" lon="6.56069">
        <ele>2210.1707</ele>
        <time>2021-01-05T11:13:52</time>
      </trkpt>
      <trkpt lat="45.56526" lon="6.56071">
        <ele>2220.392</ele>
        <time>2021-01-05T11:14:08</time>
      </trkpt>
      <trkpt lat="45.56528" lon="6.56071">
        <ele>2218.981</ele>
        <time>2021-01-05T11:14:10</time>
      </trkpt>
      <trkpt lat="45.56536" lon="6.5607">
        <ele>2225.299</ele>
        <time>2021-01-05T11:14:21</time>
      </trkpt>
      <trkpt lat="45.56537" lon="6.5607">
        <ele>2226.0222</ele>
        <time>2021-01-05T11:14:22</time>
      </trkpt>
      <trkpt lat="45.56539" lon="6.5607">
        <ele>2225.5322</ele>
        <time>2021-01-05T11:14:24</time>
      </trkpt>
      <trkpt lat="45.56539" lon="6.5607">
        <ele>2225.537</ele>
        <time>2021-01-05T11:14:27</time>
      </trkpt>
      <trkpt lat="45.5654" lon="6.5607">
        <ele>2225.8916</ele>
        <time>2021-01-05T11:14:28</time>
      </trkpt>
      <trkpt lat="45.56541" lon="6.5607">
        <ele>2227.0898</ele>
        <time>2021-01-05T11:14:30</time>
      </trkpt>
      <trkpt lat="45.56542" lon="6.5607">
        <ele>2227.5032</ele>
        <time>2021-01-05T11:14:31</time>
      </trkpt>
      <trkpt lat="45.56543" lon="6.5607">
        <ele>2228.0525</ele>
        <time>2021-01-05T11:14:34</time>
      </trkpt>
      <trkpt lat="45.56542" lon="6.5607">
        <ele>2228.757</ele>
        <time>2021-01-05T11:14:39</time>
      </trkpt>
      <trkpt lat="45.56542" lon="6.56071">
        <ele>2228.839</ele>
        <time>2021-01-05T11:14:40</time>
      </trkpt>
      <trkpt lat="45.56542" lon="6.56072">
        <ele>2228.688</ele>
        <time>2021-01-05T11:14:42</time>
      </trkpt>
      <trkpt lat="45.56542" lon="6.56073">
        <ele>2228.201</ele>
        <time>2021-01-05T11:14:43</time>
      </trkpt>
      <trkpt lat="45.56542" lon="6.56073">
        <ele>2229.613</ele>
        <time>2021-01-05T11:14:48</time>
      </trkpt>
      <trkpt lat="45.56541" lon="6.56074">
        <ele>2230.1526</ele>
        <time>2021-01-05T11:14:50</time>
      </trkpt>
      <trkpt lat="45.5654" lon="6.56074">
        <ele>2230.5015</ele>
        <time>2021-01-05T11:14:52</time>
      </trkpt>
      <trkpt lat="45.56539" lon="6.56076">
        <ele>2230.2693</ele>
        <time>2021-01-05T11:14:54</time>
      </trkpt>
      <trkpt lat="45.56539" lon="6.56077">
        <ele>2231.906</ele>
        <time>2021-01-05T11:14:59</time>
      </trkpt>
      <trkpt lat="45.56538" lon="6.56077">
        <ele>2231.7395</ele>
        <time>2021-01-05T11:15:01</time>
      </trkpt>
      <trkpt lat="45.56536" lon="6.56079">
        <ele>2230.1333</ele>
        <time>2021-01-05T11:15:09</time>
      </trkpt>
      <trkpt lat="45.56535" lon="6.56081">
        <ele>2228.887</ele>
        <time>2021-01-05T11:15:10</time>
      </trkpt>
      <trkpt lat="45.56535" lon="6.56082">
        <ele>2228.9287</ele>
        <time>2021-01-05T11:15:12</time>
      </trkpt>
      <trkpt lat="45.56534" lon="6.56083">
        <ele>2228.2556</ele>
        <time>2021-01-05T11:15:13</time>
      </trkpt>
      <trkpt lat="45.56534" lon="6.56083">
        <ele>2229.1887</ele>
        <time>2021-01-05T11:15:14</time>
      </trkpt>
      <trkpt lat="45.56534" lon="6.56083">
        <ele>2228.0715</ele>
        <time>2021-01-05T11:15:15</time>
      </trkpt>
      <trkpt lat="45.56534" lon="6.56085">
        <ele>2228.1924</ele>
        <time>2021-01-05T11:15:17</time>
      </trkpt>
      <trkpt lat="45.56535" lon="6.56087">
        <ele>2044.3003</ele>
        <time>2021-01-05T11:15:37</time>
      </trkpt>
      <trkpt lat="45.56536" lon="6.56087">
        <ele>2133.2747</ele>
        <time>2021-01-05T11:15:39</time>
      </trkpt>
      <trkpt lat="45.56538" lon="6.56087">
        <ele>2205.6033</ele>
        <time>2021-01-05T11:15:43</time>
      </trkpt>
      <trkpt lat="45.56545" lon="6.56087">
        <ele>2225.3635</ele>
        <time>2021-01-05T11:15:51</time>
      </trkpt>
      <trkpt lat="45.56546" lon="6.56087">
        <ele>2232.9321</ele>
        <time>2021-01-05T11:15:56</time>
      </trkpt>
      <trkpt lat="45.56553" lon="6.56084">
        <ele>2235.688</ele>
        <time>2021-01-05T11:16:05</time>
      </trkpt>
      <trkpt lat="45.56554" lon="6.56084">
        <ele>2235.833</ele>
        <time>2021-01-05T11:16:07</time>
      </trkpt>
      <trkpt lat="45.56557" lon="6.56083">
        <ele>2238.707</ele>
        <time>2021-01-05T11:16:11</time>
      </trkpt>
      <trkpt lat="45.56558" lon="6.56083">
        <ele>2238.9614</ele>
        <time>2021-01-05T11:16:13</time>
      </trkpt>
      <trkpt lat="45.5656" lon="6.56084">
        <ele>2238.5808</ele>
        <time>2021-01-05T11:16:16</time>
      </trkpt>
      <trkpt lat="45.56561" lon="6.56084">
        <ele>2239.0977</ele>
        <time>2021-01-05T11:16:19</time>
      </trkpt>
      <trkpt lat="45.56562" lon="6.56083">
        <ele>2239.0498</ele>
        <time>2021-01-05T11:16:21</time>
      </trkpt>
      <trkpt lat="45.56562" lon="6.56085">
        <ele>2239.1628</ele>
        <time>2021-01-05T11:16:43</time>
      </trkpt>
      <trkpt lat="45.56562" lon="6.56085">
        <ele>2239.0542</ele>
        <time>2021-01-05T11:16:44</time>
      </trkpt>
      <trkpt lat="45.56562" lon="6.56086">
        <ele>2239.9465</ele>
        <time>2021-01-05T11:16:45</time>
      </trkpt>
      <trkpt lat="45.56562" lon="6.56087">
        <ele>2240.5215</ele>
        <time>2021-01-05T11:16:46</time>
      </trkpt>
      <trkpt lat="45.56562" lon="6.56088">
        <ele>2240.6162</ele>
        <time>2021-01-05T11:16:48</time>
      </trkpt>
      <trkpt lat="45.56559" lon="6.56088">
        <ele>2239.6787</ele>
        <time>2021-01-05T11:16:56</time>
      </trkpt>
      <trkpt lat="45.56557" lon="6.56091">
        <ele>2241.7136</ele>
        <time>2021-01-05T11:16:59</time>
      </trkpt>
      <trkpt lat="45.56555" lon="6.56093">
        <ele>2240.59</ele>
        <time>2021-01-05T11:17:02</time>
      </trkpt>
      <trkpt lat="45.56555" lon="6.56094">
        <ele>2240.4307</ele>
        <time>2021-01-05T11:17:04</time>
      </trkpt>
      <trkpt lat="45.56554" lon="6.56094">
        <ele>2240.2085</ele>
        <time>2021-01-05T11:17:05</time>
      </trkpt>
      <trkpt lat="45.56554" lon="6.56095">
        <ele>2240.514</ele>
        <time>2021-01-05T11:17:06</time>
      </trkpt>
      <trkpt lat="45.56553" lon="6.56097">
        <ele>2241.7437</ele>
        <time>2021-01-05T11:17:08</time>
      </trkpt>
      <trkpt lat="45.56551" lon="6.56098">
        <ele>2239.0962</ele>
        <time>2021-01-05T11:17:10</time>
      </trkpt>
      <trkpt lat="45.56552" lon="6.56099">
        <ele>2239.3096</ele>
        <time>2021-01-05T11:17:14</time>
      </trkpt>
      <trkpt lat="45.56551" lon="6.56099">
        <ele>2239.457</ele>
        <time>2021-01-05T11:17:15</time>
      </trkpt>
      <trkpt lat="45.56552" lon="6.561">
        <ele>2240.886</ele>
        <time>2021-01-05T11:17:18</time>
      </trkpt>
      <trkpt lat="45.56552" lon="6.561">
        <ele>2241.509</ele>
        <time>2021-01-05T11:17:19</time>
      </trkpt>
      <trkpt lat="45.56553" lon="6.561">
        <ele>2241.2598</ele>
        <time>2021-01-05T11:17:20</time>
      </trkpt>
      <trkpt lat="45.56553" lon="6.56101">
        <ele>2243.1514</ele>
        <time>2021-01-05T11:17:21</time>
      </trkpt>
      <trkpt lat="45.56553" lon="6.56102">
        <ele>2244.3062</ele>
        <time>2021-01-05T11:17:22</time>
      </trkpt>
      <trkpt lat="45.56553" lon="6.56103">
        <ele>2245.6692</ele>
        <time>2021-01-05T11:17:23</time>
      </trkpt>
      <trkpt lat="45.56556" lon="6.56103">
        <ele>2249.6511</ele>
        <time>2021-01-05T11:17:33</time>
      </trkpt>
      <trkpt lat="45.56556" lon="6.56102">
        <ele>2249.3584</ele>
        <time>2021-01-05T11:17:34</time>
      </trkpt>
      <trkpt lat="45.56559" lon="6.56101">
        <ele>2253.2798</ele>
        <time>2021-01-05T11:17:47</time>
      </trkpt>
      <trkpt lat="45.56561" lon="6.56099">
        <ele>2254.606</ele>
        <time>2021-01-05T11:17:51</time>
      </trkpt>
      <trkpt lat="45.56561" lon="6.56099">
        <ele>2255.5771</ele>
        <time>2021-01-05T11:17:53</time>
      </trkpt>
      <trkpt lat="45.56561" lon="6.56098">
        <ele>2256.7075</ele>
        <time>2021-01-05T11:17:54</time>
      </trkpt>
      <trkpt lat="45.56562" lon="6.56096">
        <ele>2256.9634</ele>
        <time>2021-01-05T11:17:56</time>
      </trkpt>
      <trkpt lat="45.56563" lon="6.56095">
        <ele>2258.1895</ele>
        <time>2021-01-05T11:17:58</time>
      </trkpt>
      <trkpt lat="45.56563" lon="6.56095">
        <ele>2258.3174</ele>
        <time>2021-01-05T11:17:59</time>
      </trkpt>
      <trkpt lat="45.56565" lon="6.56094">
        <ele>2256.2422</ele>
        <time>2021-01-05T11:18:01</time>
      </trkpt>
      <trkpt lat="45.56565" lon="6.56094">
        <ele>2256.8276</ele>
        <time>2021-01-05T11:18:02</time>
      </trkpt>
      <trkpt lat="45.56568" lon="6.56095">
        <ele>2255.797</ele>
        <time>2021-01-05T11:18:18</time>
      </trkpt>
      <trkpt lat="45.56568" lon="6.56095">
        <ele>2255.657</ele>
        <time>2021-01-05T11:18:19</time>
      </trkpt>
      <trkpt lat="45.56568" lon="6.56096">
        <ele>2256.0085</ele>
        <time>2021-01-05T11:18:24</time>
      </trkpt>
      <trkpt lat="45.56568" lon="6.56097">
        <ele>2255.786</ele>
        <time>2021-01-05T11:18:25</time>
      </trkpt>
      <trkpt lat="45.56567" lon="6.56098">
        <ele>2256.4077</ele>
        <time>2021-01-05T11:18:36</time>
      </trkpt>
      <trkpt lat="45.56567" lon="6.56099">
        <ele>2257.0535</ele>
        <time>2021-01-05T11:18:38</time>
      </trkpt>
      <trkpt lat="45.56567" lon="6.56099">
        <ele>2257.6858</ele>
        <time>2021-01-05T11:18:45</time>
      </trkpt>
      <trkpt lat="45.56567" lon="6.56099">
        <ele>2258.934</ele>
        <time>2021-01-05T11:18:46</time>
      </trkpt>
      <trkpt lat="45.56567" lon="6.56099">
        <ele>2259.056</ele>
        <time>2021-01-05T11:18:47</time>
      </trkpt>
      <trkpt lat="45.56568" lon="6.561">
        <ele>2259.118</ele>
        <time>2021-01-05T11:18:49</time>
      </trkpt>
      <trkpt lat="45.56568" lon="6.561">
        <ele>2259.2893</ele>
        <time>2021-01-05T11:18:50</time>
      </trkpt>
      <trkpt lat="45.56569" lon="6.561">
        <ele>2256.9492</ele>
        <time>2021-01-05T11:18:52</time>
      </trkpt>
      <trkpt lat="45.5657" lon="6.56101">
        <ele>2257.0886</ele>
        <time>2021-01-05T11:18:53</time>
      </trkpt>
      <trkpt lat="45.56571" lon="6.56103">
        <ele>2260.406</ele>
        <time>2021-01-05T11:19:11</time>
      </trkpt>
      <trkpt lat="45.56572" lon="6.56103">
        <ele>2258.5215</ele>
        <time>2021-01-05T11:19:12</time>
      </trkpt>
      <trkpt lat="45.56575" lon="6.56102">
        <ele>2260.4128</ele>
        <time>2021-01-05T11:19:18</time>
      </trkpt>
      <trkpt lat="45.56576" lon="6.56103">
        <ele>2260.21</ele>
        <time>2021-01-05T11:19:19</time>
      </trkpt>
      <trkpt lat="45.56577" lon="6.56103">
        <ele>2261.2231</ele>
        <time>2021-01-05T11:19:21</time>
      </trkpt>
      <trkpt lat="45.56577" lon="6.56103">
        <ele>2262.548</ele>
        <time>2021-01-05T11:19:22</time>
      </trkpt>
      <trkpt lat="45.56578" lon="6.56103">
        <ele>2263.7173</ele>
        <time>2021-01-05T11:19:28</time>
      </trkpt>
      <trkpt lat="45.56579" lon="6.56103">
        <ele>2263.1387</ele>
        <time>2021-01-05T11:19:29</time>
      </trkpt>
      <trkpt lat="45.56582" lon="6.56103">
        <ele>2261.4412</ele>
        <time>2021-01-05T11:19:34</time>
      </trkpt>
      <trkpt lat="45.56583" lon="6.56103">
        <ele>2260.4915</ele>
        <time>2021-01-05T11:19:35</time>
      </trkpt>
      <trkpt lat="45.56585" lon="6.56103">
        <ele>2259.4958</ele>
        <time>2021-01-05T11:19:37</time>
      </trkpt>
      <trkpt lat="45.56586" lon="6.56104">
        <ele>2259.5103</ele>
        <time>2021-01-05T11:19:42</time>
      </trkpt>
      <trkpt lat="45.56587" lon="6.56103">
        <ele>2260.111</ele>
        <time>2021-01-05T11:19:43</time>
      </trkpt>
      <trkpt lat="45.56587" lon="6.56103">
        <ele>2260.3176</ele>
        <time>2021-01-05T11:20:13</time>
      </trkpt>
      <trkpt lat="45.56586" lon="6.56104">
        <ele>2258.944</ele>
        <time>2021-01-05T11:20:14</time>
      </trkpt>
      <trkpt lat="45.56585" lon="6.56105">
        <ele>2260.1335</ele>
        <time>2021-01-05T11:20:15</time>
      </trkpt>
      <trkpt lat="45.56584" lon="6.56105">
        <ele>2261.8687</ele>
        <time>2021-01-05T11:20:17</time>
      </trkpt>
      <trkpt lat="45.56584" lon="6.56106">
        <ele>2262.4075</ele>
        <time>2021-01-05T11:20:18</time>
      </trkpt>
      <trkpt lat="45.56583" lon="6.56107">
        <ele>2261.6938</ele>
        <time>2021-01-05T11:20:19</time>
      </trkpt>
      <trkpt lat="45.56583" lon="6.56107">
        <ele>2260.4949</ele>
        <time>2021-01-05T11:20:20</time>
      </trkpt>
      <trkpt lat="45.56581" lon="6.5611">
        <ele>2260.9949</ele>
        <time>2021-01-05T11:20:23</time>
      </trkpt>
      <trkpt lat="45.5658" lon="6.5611">
        <ele>2260.293</ele>
        <time>2021-01-05T11:20:26</time>
      </trkpt>
      <trkpt lat="45.56579" lon="6.56111">
        <ele>2260.2493</ele>
        <time>2021-01-05T11:20:27</time>
      </trkpt>
      <trkpt lat="45.56579" lon="6.56111">
        <ele>2263.335</ele>
        <time>2021-01-05T11:20:28</time>
      </trkpt>
      <trkpt lat="45.56579" lon="6.56111">
        <ele>2261.9932</ele>
        <time>2021-01-05T11:20:29</time>
      </trkpt>
      <trkpt lat="45.56578" lon="6.56111">
        <ele>2260.7512</ele>
        <time>2021-01-05T11:20:33</time>
      </trkpt>
      <trkpt lat="45.56578" lon="6.56112">
        <ele>2261.1924</ele>
        <time>2021-01-05T11:20:34</time>
      </trkpt>
      <trkpt lat="45.56578" lon="6.56113">
        <ele>2262.429</ele>
        <time>2021-01-05T11:20:39</time>
      </trkpt>
      <trkpt lat="45.56578" lon="6.56114">
        <ele>2261.683</ele>
        <time>2021-01-05T11:20:40</time>
      </trkpt>
      <trkpt lat="45.56578" lon="6.56114">
        <ele>2261.5344</ele>
        <time>2021-01-05T11:20:41</time>
      </trkpt>
      <trkpt lat="45.56579" lon="6.56115">
        <ele>2263.4294</ele>
        <time>2021-01-05T11:20:45</time>
      </trkpt>
      <trkpt lat="45.56579" lon="6.56117">
        <ele>2264.885</ele>
        <time>2021-01-05T11:20:47</time>
      </trkpt>
      <trkpt lat="45.56579" lon="6.56117">
        <ele>2265.0608</ele>
        <time>2021-01-05T11:20:48</time>
      </trkpt>
      <trkpt lat="45.56579" lon="6.56117">
        <ele>2266.254</ele>
        <time>2021-01-05T11:20:50</time>
      </trkpt>
      <trkpt lat="45.56579" lon="6.56119">
        <ele>2263.3503</ele>
        <time>2021-01-05T11:20:53</time>
      </trkpt>
      <trkpt lat="45.56579" lon="6.5612">
        <ele>2262.7212</ele>
        <time>2021-01-05T11:20:55</time>
      </trkpt>
      <trkpt lat="45.56578" lon="6.56124">
        <ele>2261.0037</ele>
        <time>2021-01-05T11:20:59</time>
      </trkpt>
      <trkpt lat="45.56578" lon="6.56124">
        <ele>2262.643</ele>
        <time>2021-01-05T11:21:01</time>
      </trkpt>
      <trkpt lat="45.56578" lon="6.56125">
        <ele>2263.7131</ele>
        <time>2021-01-05T11:21:03</time>
      </trkpt>
      <trkpt lat="45.56579" lon="6.56128">
        <ele>2262.6287</ele>
        <time>2021-01-05T11:21:14</time>
      </trkpt>
      <trkpt lat="45.56579" lon="6.56129">
        <ele>2262.771</ele>
        <time>2021-01-05T11:21:15</time>
      </trkpt>
      <trkpt lat="45.56579" lon="6.5613">
        <ele>2263.2773</ele>
        <time>2021-01-05T11:21:17</time>
      </trkpt>
      <trkpt lat="45.56579" lon="6.56131">
        <ele>2263.7334</ele>
        <time>2021-01-05T11:21:19</time>
      </trkpt>
      <trkpt lat="45.56579" lon="6.56132">
        <ele>2264.3574</ele>
        <time>2021-01-05T11:21:21</time>
      </trkpt>
      <trkpt lat="45.56579" lon="6.56132">
        <ele>2264.7124</ele>
        <time>2021-01-05T11:21:22</time>
      </trkpt>
      <trkpt lat="45.56579" lon="6.56135">
        <ele>2264.5154</ele>
        <time>2021-01-05T11:21:34</time>
      </trkpt>
      <trkpt lat="45.56578" lon="6.56136">
        <ele>2265.4265</ele>
        <time>2021-01-05T11:21:35</time>
      </trkpt>
      <trkpt lat="45.56578" lon="6.56137">
        <ele>2266.4622</ele>
        <time>2021-01-05T11:21:37</time>
      </trkpt>
      <trkpt lat="45.56579" lon="6.56138">
        <ele>2266.2458</ele>
        <time>2021-01-05T11:21:38</time>
      </trkpt>
      <trkpt lat="45.56578" lon="6.56139">
        <ele>2266.0505</ele>
        <time>2021-01-05T11:21:39</time>
      </trkpt>
      <trkpt lat="45.56578" lon="6.5614">
        <ele>2266.3232</ele>
        <time>2021-01-05T11:21:42</time>
      </trkpt>
      <trkpt lat="45.56579" lon="6.56141">
        <ele>2265.5674</ele>
        <time>2021-01-05T11:21:44</time>
      </trkpt>
      <trkpt lat="45.5658" lon="6.56141">
        <ele>2267.071</ele>
        <time>2021-01-05T11:21:45</time>
      </trkpt>
      <trkpt lat="45.5658" lon="6.56144">
        <ele>2268.3599</ele>
        <time>2021-01-05T11:21:48</time>
      </trkpt>
      <trkpt lat="45.5658" lon="6.56145">
        <ele>2268.052</ele>
        <time>2021-01-05T11:21:50</time>
      </trkpt>
      <trkpt lat="45.5658" lon="6.56146">
        <ele>2267.303</ele>
        <time>2021-01-05T11:21:51</time>
      </trkpt>
      <trkpt lat="45.56578" lon="6.56147">
        <ele>2267.6013</ele>
        <time>2021-01-05T11:21:55</time>
      </trkpt>
      <trkpt lat="45.56578" lon="6.56149">
        <ele>2269.536</ele>
        <time>2021-01-05T11:21:57</time>
      </trkpt>
      <trkpt lat="45.56577" lon="6.5615">
        <ele>2268.6855</ele>
        <time>2021-01-05T11:22:02</time>
      </trkpt>
      <trkpt lat="45.56577" lon="6.5615">
        <ele>2268.6082</ele>
        <time>2021-01-05T11:22:03</time>
      </trkpt>
      <trkpt lat="45.56575" lon="6.56152">
        <ele>2247.8235</ele>
        <time>2021-01-05T11:22:24</time>
      </trkpt>
      <trkpt lat="45.56575" lon="6.56152">
        <ele>2256.056</ele>
        <time>2021-01-05T11:22:25</time>
      </trkpt>
      <trkpt lat="45.56576" lon="6.56152">
        <ele>2255.7087</ele>
        <time>2021-01-05T11:22:26</time>
      </trkpt>
      <trkpt lat="45.56577" lon="6.56151">
        <ele>2258.698</ele>
        <time>2021-01-05T11:22:27</time>
      </trkpt>
      <trkpt lat="45.56577" lon="6.56151">
        <ele>2266.343</ele>
        <time>2021-01-05T11:22:32</time>
      </trkpt>
      <trkpt lat="45.56578" lon="6.56151">
        <ele>2267.9854</ele>
        <time>2021-01-05T11:22:33</time>
      </trkpt>
      <trkpt lat="45.56578" lon="6.5615">
        <ele>2269.25</ele>
        <time>2021-01-05T11:22:34</time>
      </trkpt>
      <trkpt lat="45.56579" lon="6.5615">
        <ele>2271.908</ele>
        <time>2021-01-05T11:22:38</time>
      </trkpt>
      <trkpt lat="45.56579" lon="6.56149">
        <ele>2272.841</ele>
        <time>2021-01-05T11:22:39</time>
      </trkpt>
      <trkpt lat="45.56579" lon="6.56149">
        <ele>2265.5303</ele>
        <time>2021-01-05T11:22:57</time>
      </trkpt>
      <trkpt lat="45.56579" lon="6.56149">
        <ele>2265.2937</ele>
        <time>2021-01-05T11:22:58</time>
      </trkpt>
      <trkpt lat="45.56579" lon="6.56151">
        <ele>2271.9968</ele>
        <time>2021-01-05T11:23:07</time>
      </trkpt>
      <trkpt lat="45.56579" lon="6.56152">
        <ele>2273.209</ele>
        <time>2021-01-05T11:23:08</time>
      </trkpt>
      <trkpt lat="45.56579" lon="6.56153">
        <ele>2273.88</ele>
        <time>2021-01-05T11:23:09</time>
      </trkpt>
      <trkpt lat="45.56579" lon="6.56154">
        <ele>2274.488</ele>
        <time>2021-01-05T11:23:10</time>
      </trkpt>
      <trkpt lat="45.56578" lon="6.56155">
        <ele>2273.1213</ele>
        <time>2021-01-05T11:23:11</time>
      </trkpt>
      <trkpt lat="45.56578" lon="6.56156">
        <ele>2273.6062</ele>
        <time>2021-01-05T11:23:12</time>
      </trkpt>
      <trkpt lat="45.56578" lon="6.56157">
        <ele>2274.0923</ele>
        <time>2021-01-05T11:23:13</time>
      </trkpt>
      <trkpt lat="45.56579" lon="6.56158">
        <ele>2274.5813</ele>
        <time>2021-01-05T11:23:14</time>
      </trkpt>
      <trkpt lat="45.56579" lon="6.56158">
        <ele>2275.312</ele>
        <time>2021-01-05T11:23:15</time>
      </trkpt>
      <trkpt lat="45.56579" lon="6.56159">
        <ele>2276.054</ele>
        <time>2021-01-05T11:23:17</time>
      </trkpt>
      <trkpt lat="45.5658" lon="6.5616">
        <ele>2277.6702</ele>
        <time>2021-01-05T11:23:26</time>
      </trkpt>
      <trkpt lat="45.5658" lon="6.56161">
        <ele>2277.1475</ele>
        <time>2021-01-05T11:23:28</time>
      </trkpt>
      <trkpt lat="45.56579" lon="6.56162">
        <ele>2276.7905</ele>
        <time>2021-01-05T11:23:29</time>
      </trkpt>
      <trkpt lat="45.56579" lon="6.56163">
        <ele>2278.017</ele>
        <time>2021-01-05T11:23:30</time>
      </trkpt>
      <trkpt lat="45.56579" lon="6.56164">
        <ele>2278.8115</ele>
        <time>2021-01-05T11:23:36</time>
      </trkpt>
      <trkpt lat="45.56578" lon="6.56166">
        <ele>2278.8403</ele>
        <time>2021-01-05T11:23:38</time>
      </trkpt>
      <trkpt lat="45.56578" lon="6.56166">
        <ele>2279.2966</ele>
        <time>2021-01-05T11:23:49</time>
      </trkpt>
      <trkpt lat="45.56579" lon="6.56166">
        <ele>2280.044</ele>
        <time>2021-01-05T11:23:50</time>
      </trkpt>
      <trkpt lat="45.5658" lon="6.56165">
        <ele>2281.9092</ele>
        <time>2021-01-05T11:23:53</time>
      </trkpt>
      <trkpt lat="45.56581" lon="6.56165">
        <ele>2282.5703</ele>
        <time>2021-01-05T11:23:54</time>
      </trkpt>
      <trkpt lat="45.56581" lon="6.56165">
        <ele>2283.2715</ele>
        <time>2021-01-05T11:23:55</time>
      </trkpt>
      <trkpt lat="45.56582" lon="6.56164">
        <ele>2284.0334</ele>
        <time>2021-01-05T11:23:57</time>
      </trkpt>
      <trkpt lat="45.56583" lon="6.56162">
        <ele>2285.2383</ele>
        <time>2021-01-05T11:24:00</time>
      </trkpt>
      <trkpt lat="45.56583" lon="6.56162">
        <ele>2285.3716</ele>
        <time>2021-01-05T11:24:02</time>
      </trkpt>
      <trkpt lat="45.56585" lon="6.56161">
        <ele>2285.56</ele>
        <time>2021-01-05T11:24:04</time>
      </trkpt>
      <trkpt lat="45.56585" lon="6.5616">
        <ele>2285.8833</ele>
        <time>2021-01-05T11:24:08</time>
      </trkpt>
      <trkpt lat="45.56587" lon="6.5616">
        <ele>2286.1924</ele>
        <time>2021-01-05T11:24:10</time>
      </trkpt>
      <trkpt lat="45.56588" lon="6.56159">
        <ele>2286.454</ele>
        <time>2021-01-05T11:24:12</time>
      </trkpt>
      <trkpt lat="45.56591" lon="6.56157">
        <ele>2288.2344</ele>
        <time>2021-01-05T11:24:18</time>
      </trkpt>
      <trkpt lat="45.56592" lon="6.56157">
        <ele>2287.831</ele>
        <time>2021-01-05T11:24:20</time>
      </trkpt>
      <trkpt lat="45.56595" lon="6.56156">
        <ele>2286.8943</ele>
        <time>2021-01-05T11:24:23</time>
      </trkpt>
      <trkpt lat="45.56596" lon="6.56156">
        <ele>2286.9302</ele>
        <time>2021-01-05T11:24:25</time>
      </trkpt>
      <trkpt lat="45.56599" lon="6.56154">
        <ele>2286.622</ele>
        <time>2021-01-05T11:24:30</time>
      </trkpt>
      <trkpt lat="45.56599" lon="6.56154">
        <ele>2286.919</ele>
        <time>2021-01-05T11:24:35</time>
      </trkpt>
      <trkpt lat="45.566" lon="6.56154">
        <ele>2285.9358</ele>
        <time>2021-01-05T11:24:36</time>
      </trkpt>
      <trkpt lat="45.56601" lon="6.56153">
        <ele>2285.605</ele>
        <time>2021-01-05T11:24:38</time>
      </trkpt>
      <trkpt lat="45.56603" lon="6.56154">
        <ele>2284.1978</ele>
        <time>2021-01-05T11:24:47</time>
      </trkpt>
      <trkpt lat="45.56604" lon="6.56154">
        <ele>2283.7341</ele>
        <time>2021-01-05T11:24:48</time>
      </trkpt>
      <trkpt lat="45.56603" lon="6.56153">
        <ele>2285.3372</ele>
        <time>2021-01-05T11:25:01</time>
      </trkpt>
      <trkpt lat="45.56603" lon="6.56153">
        <ele>2285.6226</ele>
        <time>2021-01-05T11:25:02</time>
      </trkpt>
      <trkpt lat="45.56601" lon="6.56155">
        <ele>2287.1875</ele>
        <time>2021-01-05T11:25:13</time>
      </trkpt>
      <trkpt lat="45.56601" lon="6.56156">
        <ele>2286.8022</ele>
        <time>2021-01-05T11:25:14</time>
      </trkpt>
      <trkpt lat="45.56601" lon="6.56158">
        <ele>2286.8906</ele>
        <time>2021-01-05T11:25:15</time>
      </trkpt>
      <trkpt lat="45.566" lon="6.56158">
        <ele>2287.786</ele>
        <time>2021-01-05T11:25:17</time>
      </trkpt>
      <trkpt lat="45.566" lon="6.56158">
        <ele>2288.9153</ele>
        <time>2021-01-05T11:25:26</time>
      </trkpt>
      <trkpt lat="45.56601" lon="6.56159">
        <ele>2288.8696</ele>
        <time>2021-01-05T11:25:27</time>
      </trkpt>
      <trkpt lat="45.56601" lon="6.5616">
        <ele>2289.4753</ele>
        <time>2021-01-05T11:25:32</time>
      </trkpt>
      <trkpt lat="45.56601" lon="6.5616">
        <ele>2289.1914</ele>
        <time>2021-01-05T11:25:33</time>
      </trkpt>
      <trkpt lat="45.566" lon="6.56161">
        <ele>2286.7583</ele>
        <time>2021-01-05T11:25:37</time>
      </trkpt>
      <trkpt lat="45.56601" lon="6.56161">
        <ele>2286.571</ele>
        <time>2021-01-05T11:25:39</time>
      </trkpt>
      <trkpt lat="45.56602" lon="6.56162">
        <ele>2289.05</ele>
        <time>2021-01-05T11:25:42</time>
      </trkpt>
      <trkpt lat="45.56601" lon="6.56165">
        <ele>2288.837</ele>
        <time>2021-01-05T11:25:44</time>
      </trkpt>
      <trkpt lat="45.566" lon="6.56166">
        <ele>2289.3015</ele>
        <time>2021-01-05T11:25:46</time>
      </trkpt>
      <trkpt lat="45.566" lon="6.56166">
        <ele>2290.9314</ele>
        <time>2021-01-05T11:25:47</time>
      </trkpt>
      <trkpt lat="45.56601" lon="6.56169">
        <ele>2154.0886</ele>
        <time>2021-01-05T11:25:56</time>
      </trkpt>
      <trkpt lat="45.566" lon="6.5617">
        <ele>2218.5217</ele>
        <time>2021-01-05T11:25:58</time>
      </trkpt>
      <trkpt lat="45.56599" lon="6.56171">
        <ele>2247.6077</ele>
        <time>2021-01-05T11:26:00</time>
      </trkpt>
      <trkpt lat="45.56599" lon="6.56171">
        <ele>2256.2397</ele>
        <time>2021-01-05T11:26:01</time>
      </trkpt>
      <trkpt lat="45.566" lon="6.56173">
        <ele>2278.1638</ele>
        <time>2021-01-05T11:26:05</time>
      </trkpt>
      <trkpt lat="45.566" lon="6.56175">
        <ele>2281.9216</ele>
        <time>2021-01-05T11:26:07</time>
      </trkpt>
      <trkpt lat="45.566" lon="6.56175">
        <ele>2283.5564</ele>
        <time>2021-01-05T11:26:09</time>
      </trkpt>
      <trkpt lat="45.566" lon="6.56175">
        <ele>2283.2822</ele>
        <time>2021-01-05T11:26:10</time>
      </trkpt>
      <trkpt lat="45.56601" lon="6.56177">
        <ele>2289.3774</ele>
        <time>2021-01-05T11:26:18</time>
      </trkpt>
      <trkpt lat="45.566" lon="6.56178">
        <ele>2287.831</ele>
        <time>2021-01-05T11:26:19</time>
      </trkpt>
      <trkpt lat="45.566" lon="6.56178">
        <ele>2289.0537</ele>
        <time>2021-01-05T11:26:38</time>
      </trkpt>
      <trkpt lat="45.566" lon="6.56178">
        <ele>2289.575</ele>
        <time>2021-01-05T11:26:39</time>
      </trkpt>
      <trkpt lat="45.566" lon="6.56178">
        <ele>2291.149</ele>
        <time>2021-01-05T11:26:41</time>
      </trkpt>
      <trkpt lat="45.56602" lon="6.56178">
        <ele>2291.658</ele>
        <time>2021-01-05T11:26:44</time>
      </trkpt>
      <trkpt lat="45.56604" lon="6.5618">
        <ele>2291.8604</ele>
        <time>2021-01-05T11:27:02</time>
      </trkpt>
      <trkpt lat="45.56605" lon="6.56179">
        <ele>2291.3481</ele>
        <time>2021-01-05T11:27:04</time>
      </trkpt>
      <trkpt lat="45.56606" lon="6.56179">
        <ele>2291.0183</ele>
        <time>2021-01-05T11:27:07</time>
      </trkpt>
      <trkpt lat="45.56606" lon="6.56179">
        <ele>2291.5254</ele>
        <time>2021-01-05T11:27:08</time>
      </trkpt>
      <trkpt lat="45.56607" lon="6.56178">
        <ele>2291.7944</ele>
        <time>2021-01-05T11:27:11</time>
      </trkpt>
      <trkpt lat="45.56608" lon="6.56178">
        <ele>2292.1184</ele>
        <time>2021-01-05T11:27:12</time>
      </trkpt>
      <trkpt lat="45.56608" lon="6.56178">
        <ele>2292.3413</ele>
        <time>2021-01-05T11:27:13</time>
      </trkpt>
      <trkpt lat="45.56608" lon="6.56179">
        <ele>2293.4229</ele>
        <time>2021-01-05T11:27:20</time>
      </trkpt>
      <trkpt lat="45.56609" lon="6.56179">
        <ele>2293.545</ele>
        <time>2021-01-05T11:27:21</time>
      </trkpt>
      <trkpt lat="45.56609" lon="6.5618">
        <ele>2293.2578</ele>
        <time>2021-01-05T11:27:22</time>
      </trkpt>
      <trkpt lat="45.56609" lon="6.56181">
        <ele>2292.5283</ele>
        <time>2021-01-05T11:27:23</time>
      </trkpt>
      <trkpt lat="45.56609" lon="6.56184">
        <ele>2293.4492</ele>
        <time>2021-01-05T11:27:33</time>
      </trkpt>
      <trkpt lat="45.56609" lon="6.56185">
        <ele>2294.255</ele>
        <time>2021-01-05T11:27:34</time>
      </trkpt>
      <trkpt lat="45.56609" lon="6.56185">
        <ele>2294.5767</ele>
        <time>2021-01-05T11:27:35</time>
      </trkpt>
      <trkpt lat="45.56609" lon="6.56185">
        <ele>2293.5554</ele>
        <time>2021-01-05T11:27:36</time>
      </trkpt>
      <trkpt lat="45.56609" lon="6.56186">
        <ele>2294.2422</ele>
        <time>2021-01-05T11:27:37</time>
      </trkpt>
      <trkpt lat="45.5661" lon="6.56186">
        <ele>2294.4668</ele>
        <time>2021-01-05T11:27:38</time>
      </trkpt>
      <trkpt lat="45.5661" lon="6.56186">
        <ele>2295.7253</ele>
        <time>2021-01-05T11:27:41</time>
      </trkpt>
      <trkpt lat="45.5661" lon="6.56186">
        <ele>2295.6292</ele>
        <time>2021-01-05T11:27:42</time>
      </trkpt>
      <trkpt lat="45.56611" lon="6.56186">
        <ele>2296.9995</ele>
        <time>2021-01-05T11:27:43</time>
      </trkpt>
      <trkpt lat="45.5661" lon="6.56185">
        <ele>2294.3857</ele>
        <time>2021-01-05T11:28:13</time>
      </trkpt>
      <trkpt lat="45.5661" lon="6.56186">
        <ele>2294.7056</ele>
        <time>2021-01-05T11:28:42</time>
      </trkpt>
      <trkpt lat="45.56609" lon="6.56187">
        <ele>2294.3174</ele>
        <time>2021-01-05T11:28:43</time>
      </trkpt>
      <trkpt lat="45.56606" lon="6.5619">
        <ele>2295.9146</ele>
        <time>2021-01-05T11:29:13</time>
      </trkpt>
      <trkpt lat="45.56606" lon="6.5619">
        <ele>2296.3342</ele>
        <time>2021-01-05T11:29:43</time>
      </trkpt>
      <trkpt lat="45.56607" lon="6.5619">
        <ele>2297.296</ele>
        <time>2021-01-05T11:30:14</time>
      </trkpt>
      <trkpt lat="45.56607" lon="6.5619">
        <ele>2298.251</ele>
        <time>2021-01-05T11:31:14</time>
      </trkpt>
      <trkpt lat="45.56607" lon="6.5619">
        <ele>2300.964</ele>
        <time>2021-01-05T11:32:03</time>
      </trkpt>
      <trkpt lat="45.56608" lon="6.5619">
        <ele>2301.1377</ele>
        <time>2021-01-05T11:32:04</time>
      </trkpt>
      <trkpt lat="45.56608" lon="6.56192">
        <ele>2303.365</ele>
        <time>2021-01-05T11:32:31</time>
      </trkpt>
      <trkpt lat="45.56608" lon="6.56193">
        <ele>2304.3306</ele>
        <time>2021-01-05T11:32:33</time>
      </trkpt>
      <trkpt lat="45.56609" lon="6.56193">
        <ele>2304.375</ele>
        <time>2021-01-05T11:32:37</time>
      </trkpt>
      <trkpt lat="45.56609" lon="6.56194">
        <ele>2302.966</ele>
        <time>2021-01-05T11:32:38</time>
      </trkpt>
      <trkpt lat="45.5661" lon="6.56194">
        <ele>2305.5933</ele>
        <time>2021-01-05T11:32:50</time>
      </trkpt>
      <trkpt lat="45.56609" lon="6.56197">
        <ele>2304.776</ele>
        <time>2021-01-05T11:32:54</time>
      </trkpt>
      <trkpt lat="45.56607" lon="6.56203">
        <ele>2302.876</ele>
        <time>2021-01-05T11:33:01</time>
      </trkpt>
      <trkpt lat="45.56606" lon="6.56205">
        <ele>2305.1406</ele>
        <time>2021-01-05T11:33:16</time>
      </trkpt>
      <trkpt lat="45.56606" lon="6.56204">
        <ele>2306.9165</ele>
        <time>2021-01-05T11:33:18</time>
      </trkpt>
      <trkpt lat="45.56608" lon="6.56206">
        <ele>2306.4263</ele>
        <time>2021-01-05T11:33:26</time>
      </trkpt>
      <trkpt lat="45.5661" lon="6.56206">
        <ele>2306.4343</ele>
        <time>2021-01-05T11:33:28</time>
      </trkpt>
      <trkpt lat="45.56611" lon="6.56207">
        <ele>2305.6284</ele>
        <time>2021-01-05T11:33:30</time>
      </trkpt>
      <trkpt lat="45.56612" lon="6.56207">
        <ele>2307.137</ele>
        <time>2021-01-05T11:33:32</time>
      </trkpt>
      <trkpt lat="45.56614" lon="6.56206">
        <ele>2307.995</ele>
        <time>2021-01-05T11:33:34</time>
      </trkpt>
      <trkpt lat="45.56614" lon="6.56205">
        <ele>2309.209</ele>
        <time>2021-01-05T11:33:36</time>
      </trkpt>
      <trkpt lat="45.56615" lon="6.56205">
        <ele>2308.8179</ele>
        <time>2021-01-05T11:33:37</time>
      </trkpt>
      <trkpt lat="45.56615" lon="6.56205">
        <ele>2309.3374</ele>
        <time>2021-01-05T11:33:38</time>
      </trkpt>
      <trkpt lat="45.56615" lon="6.56204">
        <ele>2309.24</ele>
        <time>2021-01-05T11:33:39</time>
      </trkpt>
      <trkpt lat="45.56615" lon="6.56204">
        <ele>2309.9238</ele>
        <time>2021-01-05T11:33:41</time>
      </trkpt>
      <trkpt lat="45.56615" lon="6.56204">
        <ele>2309.6724</ele>
        <time>2021-01-05T11:33:43</time>
      </trkpt>
      <trkpt lat="45.56615" lon="6.56204">
        <ele>2310.218</ele>
        <time>2021-01-05T11:33:44</time>
      </trkpt>
      <trkpt lat="45.56616" lon="6.56202">
        <ele>2311.7837</ele>
        <time>2021-01-05T11:33:48</time>
      </trkpt>
      <trkpt lat="45.56617" lon="6.56202">
        <ele>2311.8652</ele>
        <time>2021-01-05T11:33:49</time>
      </trkpt>
      <trkpt lat="45.56617" lon="6.56201">
        <ele>2312.4507</ele>
        <time>2021-01-05T11:33:52</time>
      </trkpt>
      <trkpt lat="45.56617" lon="6.56202">
        <ele>2313.6855</ele>
        <time>2021-01-05T11:34:12</time>
      </trkpt>
      <trkpt lat="45.56617" lon="6.56204">
        <ele>2313.2456</ele>
        <time>2021-01-05T11:34:16</time>
      </trkpt>
      <trkpt lat="45.56617" lon="6.56205">
        <ele>2313.8845</ele>
        <time>2021-01-05T11:34:17</time>
      </trkpt>
      <trkpt lat="45.56616" lon="6.56209">
        <ele>2313.0183</ele>
        <time>2021-01-05T11:34:23</time>
      </trkpt>
      <trkpt lat="45.56616" lon="6.5621">
        <ele>2314.8008</ele>
        <time>2021-01-05T11:34:25</time>
      </trkpt>
      <trkpt lat="45.56615" lon="6.56211">
        <ele>2314.97</ele>
        <time>2021-01-05T11:34:27</time>
      </trkpt>
      <trkpt lat="45.56615" lon="6.56212">
        <ele>2317.3457</ele>
        <time>2021-01-05T11:34:37</time>
      </trkpt>
      <trkpt lat="45.56615" lon="6.56214">
        <ele>2317.6912</ele>
        <time>2021-01-05T11:34:39</time>
      </trkpt>
      <trkpt lat="45.56614" lon="6.56214">
        <ele>2318.3728</ele>
        <time>2021-01-05T11:34:40</time>
      </trkpt>
      <trkpt lat="45.56611" lon="6.56217">
        <ele>2319.7346</ele>
        <time>2021-01-05T11:34:45</time>
      </trkpt>
      <trkpt lat="45.56611" lon="6.56218">
        <ele>2320.4136</ele>
        <time>2021-01-05T11:34:53</time>
      </trkpt>
      <trkpt lat="45.56608" lon="6.56222">
        <ele>2320.0977</ele>
        <time>2021-01-05T11:34:58</time>
      </trkpt>
      <trkpt lat="45.56608" lon="6.56225">
        <ele>2320.1426</ele>
        <time>2021-01-05T11:35:07</time>
      </trkpt>
      <trkpt lat="45.56607" lon="6.56227">
        <ele>2320.1458</ele>
        <time>2021-01-05T11:35:09</time>
      </trkpt>
      <trkpt lat="45.56607" lon="6.56228">
        <ele>2319.6843</ele>
        <time>2021-01-05T11:35:10</time>
      </trkpt>
      <trkpt lat="45.56607" lon="6.56228">
        <ele>2317.739</ele>
        <time>2021-01-05T11:35:11</time>
      </trkpt>
      <trkpt lat="45.56607" lon="6.56228">
        <ele>2319.034</ele>
        <time>2021-01-05T11:35:17</time>
      </trkpt>
      <trkpt lat="45.56607" lon="6.56229">
        <ele>2318.8616</ele>
        <time>2021-01-05T11:35:18</time>
      </trkpt>
      <trkpt lat="45.56607" lon="6.56229">
        <ele>2320.2349</ele>
        <time>2021-01-05T11:35:19</time>
      </trkpt>
      <trkpt lat="45.56608" lon="6.5623">
        <ele>2321.254</ele>
        <time>2021-01-05T11:35:21</time>
      </trkpt>
      <trkpt lat="45.56608" lon="6.56231">
        <ele>2320.8064</ele>
        <time>2021-01-05T11:35:22</time>
      </trkpt>
      <trkpt lat="45.56609" lon="6.56231">
        <ele>2322.0496</ele>
        <time>2021-01-05T11:35:25</time>
      </trkpt>
      <trkpt lat="45.56609" lon="6.56232">
        <ele>2322.543</ele>
        <time>2021-01-05T11:35:27</time>
      </trkpt>
      <trkpt lat="45.56608" lon="6.56232">
        <ele>2325.0906</ele>
        <time>2021-01-05T11:35:33</time>
      </trkpt>
      <trkpt lat="45.56612" lon="6.56234">
        <ele>2325.3</ele>
        <time>2021-01-05T11:35:40</time>
      </trkpt>
      <trkpt lat="45.56612" lon="6.56234">
        <ele>2325.4878</ele>
        <time>2021-01-05T11:35:41</time>
      </trkpt>
      <trkpt lat="45.56615" lon="6.56234">
        <ele>2327.464</ele>
        <time>2021-01-05T11:35:44</time>
      </trkpt>
      <trkpt lat="45.56616" lon="6.56235">
        <ele>2328.061</ele>
        <time>2021-01-05T11:35:47</time>
      </trkpt>
      <trkpt lat="45.56616" lon="6.56235">
        <ele>2308.0596</ele>
        <time>2021-01-05T11:35:48</time>
      </trkpt>
      <trkpt lat="45.56618" lon="6.56233">
        <ele>2324.836</ele>
        <time>2021-01-05T11:35:52</time>
      </trkpt>
      <trkpt lat="45.56619" lon="6.56232">
        <ele>2329.4082</ele>
        <time>2021-01-05T11:35:55</time>
      </trkpt>
      <trkpt lat="45.5662" lon="6.56231">
        <ele>2329.3606</ele>
        <time>2021-01-05T11:35:57</time>
      </trkpt>
      <trkpt lat="45.56619" lon="6.56231">
        <ele>2330.6768</ele>
        <time>2021-01-05T11:36:25</time>
      </trkpt>
      <trkpt lat="45.56622" lon="6.56228">
        <ele>2332.83</ele>
        <time>2021-01-05T11:36:29</time>
      </trkpt>
      <trkpt lat="45.56625" lon="6.56229">
        <ele>2336.9387</ele>
        <time>2021-01-05T11:36:36</time>
      </trkpt>
      <trkpt lat="45.56625" lon="6.56229">
        <ele>2337.6638</ele>
        <time>2021-01-05T11:36:37</time>
      </trkpt>
      <trkpt lat="45.56625" lon="6.5623">
        <ele>2339.0513</ele>
        <time>2021-01-05T11:36:43</time>
      </trkpt>
      <trkpt lat="45.56625" lon="6.5623">
        <ele>2339.349</ele>
        <time>2021-01-05T11:36:44</time>
      </trkpt>
      <trkpt lat="45.56624" lon="6.5623">
        <ele>2339.753</ele>
        <time>2021-01-05T11:36:45</time>
      </trkpt>
      <trkpt lat="45.56625" lon="6.5623">
        <ele>2340.6409</ele>
        <time>2021-01-05T11:36:46</time>
      </trkpt>
      <trkpt lat="45.56627" lon="6.5623">
        <ele>2339.0217</ele>
        <time>2021-01-05T11:36:50</time>
      </trkpt>
      <trkpt lat="45.56627" lon="6.56231">
        <ele>2338.9805</ele>
        <time>2021-01-05T11:36:53</time>
      </trkpt>
      <trkpt lat="45.56628" lon="6.56232">
        <ele>2337.5996</ele>
        <time>2021-01-05T11:36:55</time>
      </trkpt>
      <trkpt lat="45.56629" lon="6.56234">
        <ele>2336.9133</ele>
        <time>2021-01-05T11:36:57</time>
      </trkpt>
      <trkpt lat="45.5663" lon="6.56235">
        <ele>2337.591</ele>
        <time>2021-01-05T11:36:59</time>
      </trkpt>
      <trkpt lat="45.56633" lon="6.56234">
        <ele>2337.77</ele>
        <time>2021-01-05T11:37:04</time>
      </trkpt>
      <trkpt lat="45.56634" lon="6.56233">
        <ele>2339.2808</ele>
        <time>2021-01-05T11:37:42</time>
      </trkpt>
      <trkpt lat="45.56634" lon="6.56233">
        <ele>2339.3828</ele>
        <time>2021-01-05T11:37:58</time>
      </trkpt>
      <trkpt lat="45.56634" lon="6.56233">
        <ele>2339.1528</ele>
        <time>2021-01-05T11:37:59</time>
      </trkpt>
      <trkpt lat="45.56635" lon="6.56233">
        <ele>2338.8171</ele>
        <time>2021-01-05T11:38:31</time>
      </trkpt>
      <trkpt lat="45.56635" lon="6.56233">
        <ele>2338.87</ele>
        <time>2021-01-05T11:39:10</time>
      </trkpt>
      <trkpt lat="45.56636" lon="6.56234">
        <ele>2339.6833</ele>
        <time>2021-01-05T11:39:48</time>
      </trkpt>
      <trkpt lat="45.56636" lon="6.56234">
        <ele>2340.2483</ele>
        <time>2021-01-05T11:39:49</time>
      </trkpt>
      <trkpt lat="45.56638" lon="6.56234">
        <ele>2341.675</ele>
        <time>2021-01-05T11:40:10</time>
      </trkpt>
      <trkpt lat="45.56638" lon="6.56235">
        <ele>2341.617</ele>
        <time>2021-01-05T11:40:12</time>
      </trkpt>
      <trkpt lat="45.56638" lon="6.56235">
        <ele>2341.8186</ele>
        <time>2021-01-05T11:40:14</time>
      </trkpt>
      <trkpt lat="45.56639" lon="6.56236">
        <ele>2341.8867</ele>
        <time>2021-01-05T11:40:15</time>
      </trkpt>
      <trkpt lat="45.56644" lon="6.56237">
        <ele>2340.5955</ele>
        <time>2021-01-05T11:40:19</time>
      </trkpt>
      <trkpt lat="45.56646" lon="6.56239">
        <ele>2339.9788</ele>
        <time>2021-01-05T11:40:22</time>
      </trkpt>
      <trkpt lat="45.56649" lon="6.56242">
        <ele>2339.4333</ele>
        <time>2021-01-05T11:40:27</time>
      </trkpt>
      <trkpt lat="45.56652" lon="6.56244">
        <ele>2338.8762</ele>
        <time>2021-01-05T11:40:33</time>
      </trkpt>
      <trkpt lat="45.56652" lon="6.56245">
        <ele>2340.275</ele>
        <time>2021-01-05T11:40:36</time>
      </trkpt>
      <trkpt lat="45.56653" lon="6.56245">
        <ele>2340.8152</ele>
        <time>2021-01-05T11:40:42</time>
      </trkpt>
      <trkpt lat="45.56653" lon="6.56245">
        <ele>2340.5974</ele>
        <time>2021-01-05T11:40:43</time>
      </trkpt>
      <trkpt lat="45.56657" lon="6.56246">
        <ele>2340.292</ele>
        <time>2021-01-05T11:40:47</time>
      </trkpt>
      <trkpt lat="45.5666" lon="6.56249">
        <ele>2341.2256</ele>
        <time>2021-01-05T11:40:51</time>
      </trkpt>
      <trkpt lat="45.56677" lon="6.56264">
        <ele>2345.0254</ele>
        <time>2021-01-05T11:41:17</time>
      </trkpt>
      <trkpt lat="45.56677" lon="6.56264">
        <ele>2345.2964</ele>
        <time>2021-01-05T11:41:18</time>
      </trkpt>
      <trkpt lat="45.56677" lon="6.56263">
        <ele>2344.6873</ele>
        <time>2021-01-05T11:41:34</time>
      </trkpt>
      <trkpt lat="45.5668" lon="6.56265">
        <ele>2346.358</ele>
        <time>2021-01-05T11:41:37</time>
      </trkpt>
      <trkpt lat="45.56687" lon="6.56269">
        <ele>2346.7004</ele>
        <time>2021-01-05T11:41:46</time>
      </trkpt>
      <trkpt lat="45.56692" lon="6.56271">
        <ele>2346.8577</ele>
        <time>2021-01-05T11:41:52</time>
      </trkpt>
      <trkpt lat="45.56696" lon="6.56274">
        <ele>2347.069</ele>
        <time>2021-01-05T11:41:58</time>
      </trkpt>
      <trkpt lat="45.56701" lon="6.56276">
        <ele>2347.4072</ele>
        <time>2021-01-05T11:42:03</time>
      </trkpt>
      <trkpt lat="45.56704" lon="6.56278">
        <ele>2348.3193</ele>
        <time>2021-01-05T11:42:07</time>
      </trkpt>
      <trkpt lat="45.56708" lon="6.5628">
        <ele>2347.5906</ele>
        <time>2021-01-05T11:42:11</time>
      </trkpt>
      <trkpt lat="45.56712" lon="6.56282">
        <ele>2346.7822</ele>
        <time>2021-01-05T11:42:18</time>
      </trkpt>
      <trkpt lat="45.56721" lon="6.56284">
        <ele>2345.9736</ele>
        <time>2021-01-05T11:42:30</time>
      </trkpt>
      <trkpt lat="45.56725" lon="6.56285">
        <ele>2343.2937</ele>
        <time>2021-01-05T11:42:33</time>
      </trkpt>
      <trkpt lat="45.56727" lon="6.56286">
        <ele>2344.5667</ele>
        <time>2021-01-05T11:42:35</time>
      </trkpt>
      <trkpt lat="45.56731" lon="6.56287">
        <ele>2344.2397</ele>
        <time>2021-01-05T11:42:40</time>
      </trkpt>
      <trkpt lat="45.56742" lon="6.5629">
        <ele>2344.9175</ele>
        <time>2021-01-05T11:42:57</time>
      </trkpt>
      <trkpt lat="45.56745" lon="6.5629">
        <ele>2346.2424</ele>
        <time>2021-01-05T11:43:01</time>
      </trkpt>
      <trkpt lat="45.5676" lon="6.56291">
        <ele>2352.0862</ele>
        <time>2021-01-05T11:43:31</time>
      </trkpt>
      <trkpt lat="45.56762" lon="6.5629">
        <ele>2352.3955</ele>
        <time>2021-01-05T11:43:34</time>
      </trkpt>
      <trkpt lat="45.5677" lon="6.56292">
        <ele>2354.5176</ele>
        <time>2021-01-05T11:43:43</time>
      </trkpt>
      <trkpt lat="45.56774" lon="6.56293">
        <ele>2353.1145</ele>
        <time>2021-01-05T11:43:48</time>
      </trkpt>
      <trkpt lat="45.56779" lon="6.56294">
        <ele>2352.2664</ele>
        <time>2021-01-05T11:43:59</time>
      </trkpt>
      <trkpt lat="45.56779" lon="6.56293">
        <ele>2352.4705</ele>
        <time>2021-01-05T11:44:00</time>
      </trkpt>
      <trkpt lat="45.5678" lon="6.56293">
        <ele>2353.3118</ele>
        <time>2021-01-05T11:44:01</time>
      </trkpt>
      <trkpt lat="45.56793" lon="6.56294">
        <ele>2357.2332</ele>
        <time>2021-01-05T11:44:21</time>
      </trkpt>
      <trkpt lat="45.56797" lon="6.56295">
        <ele>2356.4482</ele>
        <time>2021-01-05T11:44:26</time>
      </trkpt>
      <trkpt lat="45.56799" lon="6.56295">
        <ele>2356.1462</ele>
        <time>2021-01-05T11:44:32</time>
      </trkpt>
      <trkpt lat="45.56799" lon="6.56295">
        <ele>2356.3252</ele>
        <time>2021-01-05T11:44:35</time>
      </trkpt>
      <trkpt lat="45.568" lon="6.56296">
        <ele>2356.8418</ele>
        <time>2021-01-05T11:44:36</time>
      </trkpt>
      <trkpt lat="45.568" lon="6.56296">
        <ele>2357.2751</ele>
        <time>2021-01-05T11:44:37</time>
      </trkpt>
      <trkpt lat="45.56802" lon="6.56301">
        <ele>2359.6934</ele>
        <time>2021-01-05T11:44:43</time>
      </trkpt>
      <trkpt lat="45.56802" lon="6.56302">
        <ele>2360.015</ele>
        <time>2021-01-05T11:44:45</time>
      </trkpt>
      <trkpt lat="45.56804" lon="6.56305">
        <ele>2360.3237</ele>
        <time>2021-01-05T11:44:48</time>
      </trkpt>
      <trkpt lat="45.56805" lon="6.56308">
        <ele>2360.4844</ele>
        <time>2021-01-05T11:44:52</time>
      </trkpt>
      <trkpt lat="45.56805" lon="6.56309">
        <ele>2361.0237</ele>
        <time>2021-01-05T11:44:55</time>
      </trkpt>
      <trkpt lat="45.56806" lon="6.5631">
        <ele>2361.2078</ele>
        <time>2021-01-05T11:44:58</time>
      </trkpt>
      <trkpt lat="45.56805" lon="6.5631">
        <ele>2361.5894</ele>
        <time>2021-01-05T11:45:00</time>
      </trkpt>
      <trkpt lat="45.56807" lon="6.56312">
        <ele>2362.1917</ele>
        <time>2021-01-05T11:45:03</time>
      </trkpt>
      <trkpt lat="45.56812" lon="6.56315">
        <ele>2362.1335</ele>
        <time>2021-01-05T11:45:09</time>
      </trkpt>
      <trkpt lat="45.56813" lon="6.56314">
        <ele>2362.3977</ele>
        <time>2021-01-05T11:45:11</time>
      </trkpt>
      <trkpt lat="45.56813" lon="6.56315">
        <ele>2362.5034</ele>
        <time>2021-01-05T11:45:12</time>
      </trkpt>
      <trkpt lat="45.56814" lon="6.56315">
        <ele>2362.211</ele>
        <time>2021-01-05T11:45:17</time>
      </trkpt>
      <trkpt lat="45.56815" lon="6.56315">
        <ele>2362.4438</ele>
        <time>2021-01-05T11:45:19</time>
      </trkpt>
      <trkpt lat="45.56816" lon="6.56316">
        <ele>2362.3157</ele>
        <time>2021-01-05T11:45:20</time>
      </trkpt>
      <trkpt lat="45.56817" lon="6.56316">
        <ele>2362.5354</ele>
        <time>2021-01-05T11:45:21</time>
      </trkpt>
      <trkpt lat="45.56818" lon="6.56316">
        <ele>2363.3232</ele>
        <time>2021-01-05T11:45:22</time>
      </trkpt>
      <trkpt lat="45.56818" lon="6.56316">
        <ele>2363.5212</ele>
        <time>2021-01-05T11:45:23</time>
      </trkpt>
      <trkpt lat="45.5682" lon="6.56316">
        <ele>2365.0562</ele>
        <time>2021-01-05T11:45:26</time>
      </trkpt>
      <trkpt lat="45.56826" lon="6.56317">
        <ele>2363.0942</ele>
        <time>2021-01-05T11:45:41</time>
      </trkpt>
      <trkpt lat="45.56831" lon="6.56317">
        <ele>2365.037</ele>
        <time>2021-01-05T11:45:46</time>
      </trkpt>
      <trkpt lat="45.56835" lon="6.56319">
        <ele>2366.431</ele>
        <time>2021-01-05T11:45:52</time>
      </trkpt>
      <trkpt lat="45.56836" lon="6.5632">
        <ele>2365.622</ele>
        <time>2021-01-05T11:45:55</time>
      </trkpt>
      <trkpt lat="45.56837" lon="6.5632">
        <ele>2365.0273</ele>
        <time>2021-01-05T11:45:56</time>
      </trkpt>
      <trkpt lat="45.56837" lon="6.5632">
        <ele>2365.273</ele>
        <time>2021-01-05T11:45:57</time>
      </trkpt>
      <trkpt lat="45.56838" lon="6.5632">
        <ele>2364.9927</ele>
        <time>2021-01-05T11:45:58</time>
      </trkpt>
      <trkpt lat="45.56843" lon="6.56317">
        <ele>2363.4968</ele>
        <time>2021-01-05T11:46:03</time>
      </trkpt>
      <trkpt lat="45.56843" lon="6.56316">
        <ele>2351.554</ele>
        <time>2021-01-05T11:46:15</time>
      </trkpt>
      <trkpt lat="45.56845" lon="6.56315">
        <ele>2358.0903</ele>
        <time>2021-01-05T11:46:17</time>
      </trkpt>
      <trkpt lat="45.56848" lon="6.56314">
        <ele>2363.5435</ele>
        <time>2021-01-05T11:46:24</time>
      </trkpt>
      <trkpt lat="45.56848" lon="6.56314">
        <ele>2364.0447</ele>
        <time>2021-01-05T11:46:25</time>
      </trkpt>
      <trkpt lat="45.56855" lon="6.56311">
        <ele>2362.5544</ele>
        <time>2021-01-05T11:46:35</time>
      </trkpt>
      <trkpt lat="45.56858" lon="6.56307">
        <ele>2363.5222</ele>
        <time>2021-01-05T11:46:40</time>
      </trkpt>
      <trkpt lat="45.5686" lon="6.56305">
        <ele>2364.5217</ele>
        <time>2021-01-05T11:46:44</time>
      </trkpt>
      <trkpt lat="45.56864" lon="6.56302">
        <ele>2364.106</ele>
        <time>2021-01-05T11:46:49</time>
      </trkpt>
      <trkpt lat="45.56864" lon="6.56301">
        <ele>2364.1028</ele>
        <time>2021-01-05T11:46:50</time>
      </trkpt>
      <trkpt lat="45.56863" lon="6.56301">
        <ele>2364.2883</ele>
        <time>2021-01-05T11:46:51</time>
      </trkpt>
      <trkpt lat="45.56864" lon="6.56301">
        <ele>2364.8298</ele>
        <time>2021-01-05T11:46:52</time>
      </trkpt>
      <trkpt lat="45.56866" lon="6.563">
        <ele>2364.0928</ele>
        <time>2021-01-05T11:46:55</time>
      </trkpt>
      <trkpt lat="45.56869" lon="6.563">
        <ele>2366.475</ele>
        <time>2021-01-05T11:46:58</time>
      </trkpt>
      <trkpt lat="45.56874" lon="6.56299">
        <ele>2368.861</ele>
        <time>2021-01-05T11:47:07</time>
      </trkpt>
      <trkpt lat="45.56879" lon="6.56295">
        <ele>2371.2124</ele>
        <time>2021-01-05T11:47:17</time>
      </trkpt>
      <trkpt lat="45.56881" lon="6.56293">
        <ele>2371.2922</ele>
        <time>2021-01-05T11:47:21</time>
      </trkpt>
      <trkpt lat="45.56884" lon="6.5629">
        <ele>2373.2605</ele>
        <time>2021-01-05T11:47:25</time>
      </trkpt>
      <trkpt lat="45.56888" lon="6.56287">
        <ele>2374.073</ele>
        <time>2021-01-05T11:47:34</time>
      </trkpt>
      <trkpt lat="45.56888" lon="6.56286">
        <ele>2374.5974</ele>
        <time>2021-01-05T11:47:35</time>
      </trkpt>
      <trkpt lat="45.5689" lon="6.56284">
        <ele>2374.5134</ele>
        <time>2021-01-05T11:47:40</time>
      </trkpt>
      <trkpt lat="45.5689" lon="6.56284">
        <ele>2374.5461</ele>
        <time>2021-01-05T11:47:41</time>
      </trkpt>
      <trkpt lat="45.56898" lon="6.56278">
        <ele>2378.6243</ele>
        <time>2021-01-05T11:47:53</time>
      </trkpt>
      <trkpt lat="45.56903" lon="6.56279">
        <ele>2377.045</ele>
        <time>2021-01-05T11:47:59</time>
      </trkpt>
      <trkpt lat="45.56904" lon="6.56279">
        <ele>2377.0586</ele>
        <time>2021-01-05T11:48:02</time>
      </trkpt>
      <trkpt lat="45.56904" lon="6.56278">
        <ele>2377.3992</ele>
        <time>2021-01-05T11:48:19</time>
      </trkpt>
      <trkpt lat="45.56905" lon="6.56278">
        <ele>2376.996</ele>
        <time>2021-01-05T11:48:20</time>
      </trkpt>
      <trkpt lat="45.56907" lon="6.56279">
        <ele>2377.2395</ele>
        <time>2021-01-05T11:48:22</time>
      </trkpt>
      <trkpt lat="45.56906" lon="6.56279">
        <ele>2377.311</ele>
        <time>2021-01-05T11:48:51</time>
      </trkpt>
      <trkpt lat="45.56906" lon="6.56279">
        <ele>2376.9329</ele>
        <time>2021-01-05T11:48:52</time>
      </trkpt>
      <trkpt lat="45.56906" lon="6.5628">
        <ele>2377.4902</ele>
        <time>2021-01-05T11:49:00</time>
      </trkpt>
      <trkpt lat="45.56906" lon="6.5628">
        <ele>2377.9895</ele>
        <time>2021-01-05T11:49:01</time>
      </trkpt>
      <trkpt lat="45.56905" lon="6.5628">
        <ele>2376.4365</ele>
        <time>2021-01-05T11:49:38</time>
      </trkpt>
      <trkpt lat="45.56905" lon="6.5628">
        <ele>2376.3545</ele>
        <time>2021-01-05T11:49:42</time>
      </trkpt>
      <trkpt lat="45.56905" lon="6.5628">
        <ele>2376.9153</ele>
        <time>2021-01-05T11:49:43</time>
      </trkpt>
      <trkpt lat="45.56904" lon="6.56279">
        <ele>2377.498</ele>
        <time>2021-01-05T11:50:01</time>
      </trkpt>
      <trkpt lat="45.56905" lon="6.56279">
        <ele>2377.2695</ele>
        <time>2021-01-05T11:50:02</time>
      </trkpt>
      <trkpt lat="45.56906" lon="6.56278">
        <ele>2374.9844</ele>
        <time>2021-01-05T11:50:22</time>
      </trkpt>
      <trkpt lat="45.56906" lon="6.56278">
        <ele>2375.5044</ele>
        <time>2021-01-05T11:50:23</time>
      </trkpt>
      <trkpt lat="45.56905" lon="6.56277">
        <ele>2376.2083</ele>
        <time>2021-01-05T11:50:54</time>
      </trkpt>
      <trkpt lat="45.56905" lon="6.56277">
        <ele>2376.1113</ele>
        <time>2021-01-05T11:52:39</time>
      </trkpt>
      <trkpt lat="45.56906" lon="6.56275">
        <ele>2375.189</ele>
        <time>2021-01-05T11:54:51</time>
      </trkpt>
      <trkpt lat="45.56906" lon="6.56275">
        <ele>2375.8801</ele>
        <time>2021-01-05T11:55:09</time>
      </trkpt>
      <trkpt lat="45.56906" lon="6.56275">
        <ele>2375.9001</ele>
        <time>2021-01-05T11:55:10</time>
      </trkpt>
      <trkpt lat="45.56906" lon="6.56277">
        <ele>2375.1401</ele>
        <time>2021-01-05T11:58:43</time>
      </trkpt>
      <trkpt lat="45.56906" lon="6.56278">
        <ele>2375.5593</ele>
        <time>2021-01-05T11:58:44</time>
      </trkpt>
      <trkpt lat="45.56907" lon="6.56278">
        <ele>2376.1843</ele>
        <time>2021-01-05T11:58:50</time>
      </trkpt>
      <trkpt lat="45.56907" lon="6.56278">
        <ele>2376.189</ele>
        <time>2021-01-05T11:58:51</time>
      </trkpt>
      <trkpt lat="45.56907" lon="6.56277">
        <ele>2376.8784</ele>
        <time>2021-01-05T11:59:21</time>
      </trkpt>
      <trkpt lat="45.56907" lon="6.56277">
        <ele>2376.9182</ele>
        <time>2021-01-05T11:59:51</time>
      </trkpt>
      <trkpt lat="45.56908" lon="6.56277">
        <ele>2377.2998</ele>
        <time>2021-01-05T12:00:17</time>
      </trkpt>
      <trkpt lat="45.5691" lon="6.56277">
        <ele>2376.5442</ele>
        <time>2021-01-05T12:00:18</time>
      </trkpt>
      <trkpt lat="45.56931" lon="6.56289">
        <ele>2374.4084</ele>
        <time>2021-01-05T12:00:26</time>
      </trkpt>
      <trkpt lat="45.56938" lon="6.56293">
        <ele>2374.3938</ele>
        <time>2021-01-05T12:00:31</time>
      </trkpt>
      <trkpt lat="45.56939" lon="6.56294">
        <ele>2374.3545</ele>
        <time>2021-01-05T12:00:37</time>
      </trkpt>
      <trkpt lat="45.56941" lon="6.56296">
        <ele>2373.6477</ele>
        <time>2021-01-05T12:00:38</time>
      </trkpt>
      <trkpt lat="45.56942" lon="6.56299">
        <ele>2373.1367</ele>
        <time>2021-01-05T12:00:40</time>
      </trkpt>
      <trkpt lat="45.56941" lon="6.56302">
        <ele>2370.306</ele>
        <time>2021-01-05T12:00:47</time>
      </trkpt>
      <trkpt lat="45.56944" lon="6.56306">
        <ele>2368.1462</ele>
        <time>2021-01-05T12:00:50</time>
      </trkpt>
      <trkpt lat="45.56952" lon="6.56316">
        <ele>2366.2107</ele>
        <time>2021-01-05T12:00:58</time>
      </trkpt>
      <trkpt lat="45.56956" lon="6.56323">
        <ele>2365.5007</ele>
        <time>2021-01-05T12:01:02</time>
      </trkpt>
      <trkpt lat="45.56962" lon="6.56337">
        <ele>2359.425</ele>
        <time>2021-01-05T12:01:09</time>
      </trkpt>
      <trkpt lat="45.56959" lon="6.56339">
        <ele>2359.8691</ele>
        <time>2021-01-05T12:01:10</time>
      </trkpt>
      <trkpt lat="45.56955" lon="6.56344">
        <ele>2359.6602</ele>
        <time>2021-01-05T12:01:12</time>
      </trkpt>
      <trkpt lat="45.56954" lon="6.56348">
        <ele>2359.3506</ele>
        <time>2021-01-05T12:01:13</time>
      </trkpt>
      <trkpt lat="45.56954" lon="6.56352">
        <ele>2354.653</ele>
        <time>2021-01-05T12:01:14</time>
      </trkpt>
      <trkpt lat="45.56954" lon="6.56358">
        <ele>2353.625</ele>
        <time>2021-01-05T12:01:15</time>
      </trkpt>
      <trkpt lat="45.56951" lon="6.56362">
        <ele>2351.704</ele>
        <time>2021-01-05T12:01:16</time>
      </trkpt>
      <trkpt lat="45.56943" lon="6.5636">
        <ele>2350.6433</ele>
        <time>2021-01-05T12:01:17</time>
      </trkpt>
      <trkpt lat="45.56947" lon="6.56365">
        <ele>2349.2937</ele>
        <time>2021-01-05T12:01:18</time>
      </trkpt>
      <trkpt lat="45.56947" lon="6.5637">
        <ele>2345.308</ele>
        <time>2021-01-05T12:01:19</time>
      </trkpt>
      <trkpt lat="45.56945" lon="6.56375">
        <ele>2344.0725</ele>
        <time>2021-01-05T12:01:20</time>
      </trkpt>
      <trkpt lat="45.56941" lon="6.56379">
        <ele>2343.4087</ele>
        <time>2021-01-05T12:01:21</time>
      </trkpt>
      <trkpt lat="45.56937" lon="6.56384">
        <ele>2342.8647</ele>
        <time>2021-01-05T12:01:22</time>
      </trkpt>
      <trkpt lat="45.5694" lon="6.56387">
        <ele>2341.7688</ele>
        <time>2021-01-05T12:01:23</time>
      </trkpt>
      <trkpt lat="45.56941" lon="6.5639">
        <ele>2341.1013</ele>
        <time>2021-01-05T12:01:24</time>
      </trkpt>
      <trkpt lat="45.56941" lon="6.56391">
        <ele>2342.5732</ele>
        <time>2021-01-05T12:01:25</time>
      </trkpt>
      <trkpt lat="45.56936" lon="6.5639">
        <ele>2337.289</ele>
        <time>2021-01-05T12:01:40</time>
      </trkpt>
      <trkpt lat="45.56937" lon="6.56391">
        <ele>2336.8096</ele>
        <time>2021-01-05T12:01:41</time>
      </trkpt>
      <trkpt lat="45.56934" lon="6.56394">
        <ele>2333.932</ele>
        <time>2021-01-05T12:01:42</time>
      </trkpt>
      <trkpt lat="45.56931" lon="6.56397">
        <ele>2334.254</ele>
        <time>2021-01-05T12:01:43</time>
      </trkpt>
      <trkpt lat="45.56931" lon="6.56401">
        <ele>2332.6714</ele>
        <time>2021-01-05T12:01:44</time>
      </trkpt>
      <trkpt lat="45.56929" lon="6.56407">
        <ele>2329.8413</ele>
        <time>2021-01-05T12:01:46</time>
      </trkpt>
      <trkpt lat="45.5693" lon="6.56409">
        <ele>2329.7983</ele>
        <time>2021-01-05T12:01:47</time>
      </trkpt>
      <trkpt lat="45.56928" lon="6.56414">
        <ele>2328.6116</ele>
        <time>2021-01-05T12:01:49</time>
      </trkpt>
      <trkpt lat="45.56921" lon="6.56417">
        <ele>2330.036</ele>
        <time>2021-01-05T12:01:51</time>
      </trkpt>
      <trkpt lat="45.56913" lon="6.5642">
        <ele>2325.8088</ele>
        <time>2021-01-05T12:01:53</time>
      </trkpt>
      <trkpt lat="45.56911" lon="6.56424">
        <ele>2323.1965</ele>
        <time>2021-01-05T12:01:54</time>
      </trkpt>
      <trkpt lat="45.56907" lon="6.56427">
        <ele>2322.6714</ele>
        <time>2021-01-05T12:01:55</time>
      </trkpt>
      <trkpt lat="45.56898" lon="6.56432">
        <ele>2304.1333</ele>
        <time>2021-01-05T12:01:58</time>
      </trkpt>
      <trkpt lat="45.56898" lon="6.56432">
        <ele>2308.3103</ele>
        <time>2021-01-05T12:01:59</time>
      </trkpt>
      <trkpt lat="45.56899" lon="6.56431">
        <ele>2309.7832</ele>
        <time>2021-01-05T12:02:00</time>
      </trkpt>
      <trkpt lat="45.56899" lon="6.56432">
        <ele>2312.056</ele>
        <time>2021-01-05T12:02:01</time>
      </trkpt>
      <trkpt lat="45.56898" lon="6.56432">
        <ele>2316.5984</ele>
        <time>2021-01-05T12:02:05</time>
      </trkpt>
      <trkpt lat="45.56899" lon="6.56432">
        <ele>2316.6245</ele>
        <time>2021-01-05T12:02:06</time>
      </trkpt>
      <trkpt lat="45.56896" lon="6.56434">
        <ele>2316.631</ele>
        <time>2021-01-05T12:02:07</time>
      </trkpt>
      <trkpt lat="45.56888" lon="6.56442">
        <ele>2318.9497</ele>
        <time>2021-01-05T12:02:10</time>
      </trkpt>
      <trkpt lat="45.56875" lon="6.56453">
        <ele>2313.8562</ele>
        <time>2021-01-05T12:02:17</time>
      </trkpt>
      <trkpt lat="45.56866" lon="6.56462">
        <ele>2314.0847</ele>
        <time>2021-01-05T12:02:20</time>
      </trkpt>
      <trkpt lat="45.56861" lon="6.56469">
        <ele>2312.498</ele>
        <time>2021-01-05T12:02:22</time>
      </trkpt>
      <trkpt lat="45.5686" lon="6.56473">
        <ele>2310.981</ele>
        <time>2021-01-05T12:02:23</time>
      </trkpt>
      <trkpt lat="45.56861" lon="6.56478">
        <ele>2311.2112</ele>
        <time>2021-01-05T12:02:24</time>
      </trkpt>
      <trkpt lat="45.56863" lon="6.56482">
        <ele>2309.728</ele>
        <time>2021-01-05T12:02:25</time>
      </trkpt>
      <trkpt lat="45.56864" lon="6.56487">
        <ele>2309.3374</ele>
        <time>2021-01-05T12:02:26</time>
      </trkpt>
      <trkpt lat="45.56863" lon="6.56491">
        <ele>2308.0015</ele>
        <time>2021-01-05T12:02:27</time>
      </trkpt>
      <trkpt lat="45.56864" lon="6.56498">
        <ele>2303.9353</ele>
        <time>2021-01-05T12:02:29</time>
      </trkpt>
      <trkpt lat="45.56866" lon="6.56502">
        <ele>2300.8625</ele>
        <time>2021-01-05T12:02:30</time>
      </trkpt>
      <trkpt lat="45.56866" lon="6.56506">
        <ele>2300.3018</ele>
        <time>2021-01-05T12:02:31</time>
      </trkpt>
      <trkpt lat="45.56866" lon="6.56514">
        <ele>2298.1167</ele>
        <time>2021-01-05T12:02:33</time>
      </trkpt>
      <trkpt lat="45.56867" lon="6.56518">
        <ele>2294.6125</ele>
        <time>2021-01-05T12:02:34</time>
      </trkpt>
      <trkpt lat="45.56867" lon="6.56523">
        <ele>2292.99</ele>
        <time>2021-01-05T12:02:35</time>
      </trkpt>
      <trkpt lat="45.56867" lon="6.56528">
        <ele>2290.7058</ele>
        <time>2021-01-05T12:02:36</time>
      </trkpt>
      <trkpt lat="45.56869" lon="6.56536">
        <ele>2287.5454</ele>
        <time>2021-01-05T12:02:38</time>
      </trkpt>
      <trkpt lat="45.56871" lon="6.5654">
        <ele>2286.48</ele>
        <time>2021-01-05T12:02:39</time>
      </trkpt>
      <trkpt lat="45.56872" lon="6.56544">
        <ele>2286.417</ele>
        <time>2021-01-05T12:02:40</time>
      </trkpt>
      <trkpt lat="45.56871" lon="6.56547">
        <ele>2284.87</ele>
        <time>2021-01-05T12:02:41</time>
      </trkpt>
      <trkpt lat="45.5687" lon="6.56549">
        <ele>2283.694</ele>
        <time>2021-01-05T12:02:42</time>
      </trkpt>
      <trkpt lat="45.56867" lon="6.56551">
        <ele>2283.0725</ele>
        <time>2021-01-05T12:02:43</time>
      </trkpt>
      <trkpt lat="45.56859" lon="6.56559">
        <ele>2280.4197</ele>
        <time>2021-01-05T12:02:47</time>
      </trkpt>
      <trkpt lat="45.5686" lon="6.56559">
        <ele>2279.203</ele>
        <time>2021-01-05T12:02:48</time>
      </trkpt>
      <trkpt lat="45.56861" lon="6.56559">
        <ele>2278.2427</ele>
        <time>2021-01-05T12:02:49</time>
      </trkpt>
      <trkpt lat="45.56862" lon="6.56558">
        <ele>2277.493</ele>
        <time>2021-01-05T12:02:50</time>
      </trkpt>
      <trkpt lat="45.56864" lon="6.56557">
        <ele>2274.1328</ele>
        <time>2021-01-05T12:02:51</time>
      </trkpt>
      <trkpt lat="45.56869" lon="6.56558">
        <ele>2272.7756</ele>
        <time>2021-01-05T12:02:54</time>
      </trkpt>
      <trkpt lat="45.5687" lon="6.56559">
        <ele>2272.258</ele>
        <time>2021-01-05T12:02:55</time>
      </trkpt>
      <trkpt lat="45.5687" lon="6.56562">
        <ele>2270.2656</ele>
        <time>2021-01-05T12:02:56</time>
      </trkpt>
      <trkpt lat="45.5687" lon="6.56565">
        <ele>2269.498</ele>
        <time>2021-01-05T12:02:57</time>
      </trkpt>
      <trkpt lat="45.56867" lon="6.5657">
        <ele>2267.3125</ele>
        <time>2021-01-05T12:02:59</time>
      </trkpt>
      <trkpt lat="45.56856" lon="6.56588">
        <ele>2264.8123</ele>
        <time>2021-01-05T12:03:08</time>
      </trkpt>
      <trkpt lat="45.56848" lon="6.5661">
        <ele>2261.9077</ele>
        <time>2021-01-05T12:03:13</time>
      </trkpt>
      <trkpt lat="45.56848" lon="6.56624">
        <ele>2259.8113</ele>
        <time>2021-01-05T12:03:16</time>
      </trkpt>
      <trkpt lat="45.5685" lon="6.56627">
        <ele>2259.2664</ele>
        <time>2021-01-05T12:03:17</time>
      </trkpt>
      <trkpt lat="45.56853" lon="6.56629">
        <ele>2259.1606</ele>
        <time>2021-01-05T12:03:18</time>
      </trkpt>
      <trkpt lat="45.56856" lon="6.56631">
        <ele>2259.1743</ele>
        <time>2021-01-05T12:03:19</time>
      </trkpt>
      <trkpt lat="45.56859" lon="6.56634">
        <ele>2258.0935</ele>
        <time>2021-01-05T12:03:20</time>
      </trkpt>
      <trkpt lat="45.56862" lon="6.56637">
        <ele>2254.63</ele>
        <time>2021-01-05T12:03:21</time>
      </trkpt>
      <trkpt lat="45.56864" lon="6.56648">
        <ele>2254.13</ele>
        <time>2021-01-05T12:03:23</time>
      </trkpt>
      <trkpt lat="45.56866" lon="6.56651">
        <ele>2253.8098</ele>
        <time>2021-01-05T12:03:24</time>
      </trkpt>
      <trkpt lat="45.56867" lon="6.56656">
        <ele>2252.0447</ele>
        <time>2021-01-05T12:03:25</time>
      </trkpt>
      <trkpt lat="45.56869" lon="6.56659">
        <ele>2251.9324</ele>
        <time>2021-01-05T12:03:26</time>
      </trkpt>
      <trkpt lat="45.56871" lon="6.56662">
        <ele>2250.2957</ele>
        <time>2021-01-05T12:03:27</time>
      </trkpt>
      <trkpt lat="45.56875" lon="6.5667">
        <ele>2249.9255</ele>
        <time>2021-01-05T12:03:29</time>
      </trkpt>
      <trkpt lat="45.56876" lon="6.56672">
        <ele>2252.7896</ele>
        <time>2021-01-05T12:03:32</time>
      </trkpt>
      <trkpt lat="45.56878" lon="6.5667">
        <ele>2254.352</ele>
        <time>2021-01-05T12:03:57</time>
      </trkpt>
      <trkpt lat="45.56878" lon="6.56672">
        <ele>2253.909</ele>
        <time>2021-01-05T12:03:58</time>
      </trkpt>
      <trkpt lat="45.5688" lon="6.56679">
        <ele>2252.015</ele>
        <time>2021-01-05T12:04:00</time>
      </trkpt>
      <trkpt lat="45.56882" lon="6.56684">
        <ele>2249.73</ele>
        <time>2021-01-05T12:04:01</time>
      </trkpt>
      <trkpt lat="45.56882" lon="6.56689">
        <ele>2247.0894</ele>
        <time>2021-01-05T12:04:02</time>
      </trkpt>
      <trkpt lat="45.56884" lon="6.56693">
        <ele>2247.2024</ele>
        <time>2021-01-05T12:04:03</time>
      </trkpt>
      <trkpt lat="45.56886" lon="6.56696">
        <ele>2245.385</ele>
        <time>2021-01-05T12:04:04</time>
      </trkpt>
      <trkpt lat="45.56888" lon="6.56697">
        <ele>2244.3484</ele>
        <time>2021-01-05T12:04:05</time>
      </trkpt>
      <trkpt lat="45.56895" lon="6.56701">
        <ele>2242.7258</ele>
        <time>2021-01-05T12:04:08</time>
      </trkpt>
      <trkpt lat="45.56895" lon="6.56704">
        <ele>2240.267</ele>
        <time>2021-01-05T12:04:09</time>
      </trkpt>
      <trkpt lat="45.56894" lon="6.56709">
        <ele>2239.8628</ele>
        <time>2021-01-05T12:04:10</time>
      </trkpt>
      <trkpt lat="45.56892" lon="6.56722">
        <ele>2239.1045</ele>
        <time>2021-01-05T12:04:12</time>
      </trkpt>
      <trkpt lat="45.56894" lon="6.56729">
        <ele>2238.3916</ele>
        <time>2021-01-05T12:04:13</time>
      </trkpt>
      <trkpt lat="45.56898" lon="6.56731">
        <ele>2238.7485</ele>
        <time>2021-01-05T12:04:14</time>
      </trkpt>
      <trkpt lat="45.569" lon="6.56735">
        <ele>2238.212</ele>
        <time>2021-01-05T12:04:15</time>
      </trkpt>
      <trkpt lat="45.569" lon="6.56741">
        <ele>2236.349</ele>
        <time>2021-01-05T12:04:16</time>
      </trkpt>
      <trkpt lat="45.569" lon="6.56751">
        <ele>2231.0125</ele>
        <time>2021-01-05T12:04:18</time>
      </trkpt>
      <trkpt lat="45.56899" lon="6.56752">
        <ele>2229.2686</ele>
        <time>2021-01-05T12:04:19</time>
      </trkpt>
      <trkpt lat="45.56897" lon="6.56752">
        <ele>2227.8618</ele>
        <time>2021-01-05T12:04:21</time>
      </trkpt>
      <trkpt lat="45.56897" lon="6.56753">
        <ele>2228.3752</ele>
        <time>2021-01-05T12:04:22</time>
      </trkpt>
      <trkpt lat="45.56898" lon="6.56755">
        <ele>2229.653</ele>
        <time>2021-01-05T12:04:36</time>
      </trkpt>
      <trkpt lat="45.56896" lon="6.56757">
        <ele>2229.9739</ele>
        <time>2021-01-05T12:04:37</time>
      </trkpt>
      <trkpt lat="45.56893" lon="6.56759">
        <ele>2230.619</ele>
        <time>2021-01-05T12:04:38</time>
      </trkpt>
      <trkpt lat="45.56891" lon="6.56763">
        <ele>2230.914</ele>
        <time>2021-01-05T12:04:39</time>
      </trkpt>
      <trkpt lat="45.56891" lon="6.56764">
        <ele>2230.435</ele>
        <time>2021-01-05T12:04:40</time>
      </trkpt>
      <trkpt lat="45.56891" lon="6.56766">
        <ele>2229.6506</ele>
        <time>2021-01-05T12:04:41</time>
      </trkpt>
      <trkpt lat="45.56892" lon="6.56769">
        <ele>2228.4033</ele>
        <time>2021-01-05T12:04:42</time>
      </trkpt>
      <trkpt lat="45.56893" lon="6.56774">
        <ele>2229.8506</ele>
        <time>2021-01-05T12:04:47</time>
      </trkpt>
      <trkpt lat="45.56896" lon="6.56775">
        <ele>2227.6133</ele>
        <time>2021-01-05T12:04:54</time>
      </trkpt>
      <trkpt lat="45.56898" lon="6.56774">
        <ele>2228.0867</ele>
        <time>2021-01-05T12:04:55</time>
      </trkpt>
      <trkpt lat="45.569" lon="6.56773">
        <ele>2226.557</ele>
        <time>2021-01-05T12:04:56</time>
      </trkpt>
      <trkpt lat="45.56899" lon="6.56771">
        <ele>2226.4634</ele>
        <time>2021-01-05T12:04:57</time>
      </trkpt>
      <trkpt lat="45.56899" lon="6.56771">
        <ele>2226.17</ele>
        <time>2021-01-05T12:04:58</time>
      </trkpt>
      <trkpt lat="45.56897" lon="6.56772">
        <ele>2224.5244</ele>
        <time>2021-01-05T12:05:00</time>
      </trkpt>
      <trkpt lat="45.56896" lon="6.56773">
        <ele>2226.4524</ele>
        <time>2021-01-05T12:05:30</time>
      </trkpt>
      <trkpt lat="45.56896" lon="6.56773">
        <ele>2224.5217</ele>
        <time>2021-01-05T12:06:00</time>
      </trkpt>
      <trkpt lat="45.56896" lon="6.56773">
        <ele>2224.1077</ele>
        <time>2021-01-05T12:06:30</time>
      </trkpt>
      <trkpt lat="45.56896" lon="6.56773">
        <ele>2222.4524</ele>
        <time>2021-01-05T12:06:51</time>
      </trkpt>
      <trkpt lat="45.56896" lon="6.56772">
        <ele>2223.9282</ele>
        <time>2021-01-05T12:06:52</time>
      </trkpt>
      <trkpt lat="45.56896" lon="6.56772">
        <ele>2224.12</ele>
        <time>2021-01-05T12:06:53</time>
      </trkpt>
      <trkpt lat="45.56897" lon="6.56773">
        <ele>2224.8904</ele>
        <time>2021-01-05T12:11:04</time>
      </trkpt>
      <trkpt lat="45.56897" lon="6.56773">
        <ele>2225.1943</ele>
        <time>2021-01-05T12:11:34</time>
      </trkpt>
      <trkpt lat="45.56897" lon="6.56773">
        <ele>2225.0112</ele>
        <time>2021-01-05T12:12:04</time>
      </trkpt>
      <trkpt lat="45.56896" lon="6.56772">
        <ele>2227.4985</ele>
        <time>2021-01-05T12:12:25</time>
      </trkpt>
      <trkpt lat="45.56896" lon="6.56772">
        <ele>2228.565</ele>
        <time>2021-01-05T12:12:26</time>
      </trkpt>
      <trkpt lat="45.56896" lon="6.56771">
        <ele>2229.827</ele>
        <time>2021-01-05T12:12:27</time>
      </trkpt>
      <trkpt lat="45.56896" lon="6.56771">
        <ele>2228.1123</ele>
        <time>2021-01-05T12:12:29</time>
      </trkpt>
      <trkpt lat="45.56896" lon="6.56771">
        <ele>2227.815</ele>
        <time>2021-01-05T12:12:30</time>
      </trkpt>
      <trkpt lat="45.56896" lon="6.5677">
        <ele>2226.9302</ele>
        <time>2021-01-05T12:12:33</time>
      </trkpt>
      <trkpt lat="45.56896" lon="6.56769">
        <ele>2227.4697</ele>
        <time>2021-01-05T12:12:34</time>
      </trkpt>
      <trkpt lat="45.56896" lon="6.56768">
        <ele>2226.693</ele>
        <time>2021-01-05T12:12:35</time>
      </trkpt>
      <trkpt lat="45.56896" lon="6.56767">
        <ele>2233.697</ele>
        <time>2021-01-05T12:12:38</time>
      </trkpt>
      <trkpt lat="45.56896" lon="6.56768">
        <ele>2231.7864</ele>
        <time>2021-01-05T12:12:40</time>
      </trkpt>
      <trkpt lat="45.56897" lon="6.56768">
        <ele>2230.5325</ele>
        <time>2021-01-05T12:12:41</time>
      </trkpt>
      <trkpt lat="45.56898" lon="6.56768">
        <ele>2230.8406</ele>
        <time>2021-01-05T12:12:43</time>
      </trkpt>
      <trkpt lat="45.56898" lon="6.56765">
        <ele>2226.402</ele>
        <time>2021-01-05T12:12:47</time>
      </trkpt>
      <trkpt lat="45.56901" lon="6.56764">
        <ele>2225.2146</ele>
        <time>2021-01-05T12:13:02</time>
      </trkpt>
      <trkpt lat="45.56901" lon="6.56765">
        <ele>2225.2505</ele>
        <time>2021-01-05T12:13:03</time>
      </trkpt>
      <trkpt lat="45.56901" lon="6.56763">
        <ele>2226.326</ele>
        <time>2021-01-05T12:13:14</time>
      </trkpt>
      <trkpt lat="45.569" lon="6.56762">
        <ele>2227.191</ele>
        <time>2021-01-05T12:13:16</time>
      </trkpt>
      <trkpt lat="45.56899" lon="6.56761">
        <ele>2228.4912</ele>
        <time>2021-01-05T12:13:19</time>
      </trkpt>
      <trkpt lat="45.56899" lon="6.5676">
        <ele>2228.5693</ele>
        <time>2021-01-05T12:13:20</time>
      </trkpt>
      <trkpt lat="45.56899" lon="6.56759">
        <ele>2228.5862</ele>
        <time>2021-01-05T12:13:23</time>
      </trkpt>
      <trkpt lat="45.56899" lon="6.56758">
        <ele>2228.157</ele>
        <time>2021-01-05T12:13:24</time>
      </trkpt>
      <trkpt lat="45.56899" lon="6.56757">
        <ele>2227.7698</ele>
        <time>2021-01-05T12:13:26</time>
      </trkpt>
      <trkpt lat="45.56895" lon="6.56752">
        <ele>2227.3616</ele>
        <time>2021-01-05T12:13:33</time>
      </trkpt>
      <trkpt lat="45.56896" lon="6.56752">
        <ele>2232.8318</ele>
        <time>2021-01-05T12:13:37</time>
      </trkpt>
      <trkpt lat="45.56896" lon="6.56751">
        <ele>2231.9106</ele>
        <time>2021-01-05T12:13:38</time>
      </trkpt>
      <trkpt lat="45.56894" lon="6.56748">
        <ele>2228.8425</ele>
        <time>2021-01-05T12:13:41</time>
      </trkpt>
      <trkpt lat="45.56894" lon="6.56748">
        <ele>2228.4417</ele>
        <time>2021-01-05T12:13:42</time>
      </trkpt>
      <trkpt lat="45.56893" lon="6.56746">
        <ele>2226.5127</ele>
        <time>2021-01-05T12:14:00</time>
      </trkpt>
      <trkpt lat="45.56893" lon="6.56745">
        <ele>2226.7693</ele>
        <time>2021-01-05T12:14:01</time>
      </trkpt>
      <trkpt lat="45.56893" lon="6.56744">
        <ele>2226.2783</ele>
        <time>2021-01-05T12:14:05</time>
      </trkpt>
      <trkpt lat="45.56892" lon="6.56742">
        <ele>2224.802</ele>
        <time>2021-01-05T12:14:06</time>
      </trkpt>
      <trkpt lat="45.56892" lon="6.56732">
        <ele>2227.6497</ele>
        <time>2021-01-05T12:14:14</time>
      </trkpt>
      <trkpt lat="45.56891" lon="6.56724">
        <ele>2228.1072</ele>
        <time>2021-01-05T12:14:23</time>
      </trkpt>
      <trkpt lat="45.56891" lon="6.56724">
        <ele>2228.982</ele>
        <time>2021-01-05T12:14:26</time>
      </trkpt>
      <trkpt lat="45.56891" lon="6.56723">
        <ele>2229.444</ele>
        <time>2021-01-05T12:14:27</time>
      </trkpt>
      <trkpt lat="45.56891" lon="6.56722">
        <ele>2228.9937</ele>
        <time>2021-01-05T12:14:28</time>
      </trkpt>
      <trkpt lat="45.56893" lon="6.56709">
        <ele>2229.1423</ele>
        <time>2021-01-05T12:14:48</time>
      </trkpt>
      <trkpt lat="45.56892" lon="6.56708">
        <ele>2231.289</ele>
        <time>2021-01-05T12:14:57</time>
      </trkpt>
      <trkpt lat="45.56891" lon="6.56706">
        <ele>2233.0159</ele>
        <time>2021-01-05T12:15:00</time>
      </trkpt>
      <trkpt lat="45.5689" lon="6.56701">
        <ele>2234.8625</ele>
        <time>2021-01-05T12:15:05</time>
      </trkpt>
      <trkpt lat="45.56889" lon="6.56701">
        <ele>2235.9883</ele>
        <time>2021-01-05T12:15:11</time>
      </trkpt>
      <trkpt lat="45.56888" lon="6.56699">
        <ele>2237.201</ele>
        <time>2021-01-05T12:15:13</time>
      </trkpt>
      <trkpt lat="45.56887" lon="6.56698">
        <ele>2237.2832</ele>
        <time>2021-01-05T12:15:14</time>
      </trkpt>
      <trkpt lat="45.56887" lon="6.56697">
        <ele>2237.8098</ele>
        <time>2021-01-05T12:15:16</time>
      </trkpt>
      <trkpt lat="45.56884" lon="6.56695">
        <ele>2239.1572</ele>
        <time>2021-01-05T12:15:20</time>
      </trkpt>
      <trkpt lat="45.56883" lon="6.56693">
        <ele>2241.6477</ele>
        <time>2021-01-05T12:15:24</time>
      </trkpt>
      <trkpt lat="45.56882" lon="6.56692">
        <ele>2241.1372</ele>
        <time>2021-01-05T12:15:26</time>
      </trkpt>
      <trkpt lat="45.56881" lon="6.56692">
        <ele>2240.5894</ele>
        <time>2021-01-05T12:15:27</time>
      </trkpt>
      <trkpt lat="45.56876" lon="6.56686">
        <ele>2238.7678</ele>
        <time>2021-01-05T12:15:36</time>
      </trkpt>
      <trkpt lat="45.56876" lon="6.56686">
        <ele>2239.2407</ele>
        <time>2021-01-05T12:15:39</time>
      </trkpt>
      <trkpt lat="45.56874" lon="6.56676">
        <ele>2242.6577</ele>
        <time>2021-01-05T12:15:50</time>
      </trkpt>
      <trkpt lat="45.56874" lon="6.56675">
        <ele>2242.451</ele>
        <time>2021-01-05T12:15:51</time>
      </trkpt>
      <trkpt lat="45.56875" lon="6.5667">
        <ele>2245.7075</ele>
        <time>2021-01-05T12:15:57</time>
      </trkpt>
      <trkpt lat="45.56875" lon="6.56667">
        <ele>2245.2458</ele>
        <time>2021-01-05T12:16:00</time>
      </trkpt>
      <trkpt lat="45.56876" lon="6.56662">
        <ele>2246.0974</ele>
        <time>2021-01-05T12:16:08</time>
      </trkpt>
      <trkpt lat="45.56876" lon="6.56663">
        <ele>2247.6323</ele>
        <time>2021-01-05T12:16:14</time>
      </trkpt>
      <trkpt lat="45.56875" lon="6.56661">
        <ele>2249.4937</ele>
        <time>2021-01-05T12:16:16</time>
      </trkpt>
      <trkpt lat="45.56874" lon="6.5666">
        <ele>2251.0884</ele>
        <time>2021-01-05T12:16:19</time>
      </trkpt>
      <trkpt lat="45.56874" lon="6.56658">
        <ele>2250.1794</ele>
        <time>2021-01-05T12:16:42</time>
      </trkpt>
      <trkpt lat="45.56874" lon="6.56658">
        <ele>2250.3599</ele>
        <time>2021-01-05T12:16:43</time>
      </trkpt>
      <trkpt lat="45.56873" lon="6.56657">
        <ele>2248.982</ele>
        <time>2021-01-05T12:16:44</time>
      </trkpt>
      <trkpt lat="45.56873" lon="6.56655">
        <ele>2247.713</ele>
        <time>2021-01-05T12:16:45</time>
      </trkpt>
      <trkpt lat="45.56872" lon="6.56654">
        <ele>2247.145</ele>
        <time>2021-01-05T12:16:46</time>
      </trkpt>
      <trkpt lat="45.56869" lon="6.56649">
        <ele>2248.6755</ele>
        <time>2021-01-05T12:16:51</time>
      </trkpt>
      <trkpt lat="45.56868" lon="6.56645">
        <ele>2249.9963</ele>
        <time>2021-01-05T12:17:12</time>
      </trkpt>
      <trkpt lat="45.56867" lon="6.56642">
        <ele>2249.5955</ele>
        <time>2021-01-05T12:17:14</time>
      </trkpt>
      <trkpt lat="45.56865" lon="6.56637">
        <ele>2250.9595</ele>
        <time>2021-01-05T12:17:44</time>
      </trkpt>
      <trkpt lat="45.56864" lon="6.56637">
        <ele>2250.8948</ele>
        <time>2021-01-05T12:17:54</time>
      </trkpt>
      <trkpt lat="45.56864" lon="6.56635">
        <ele>2304.7625</ele>
        <time>2021-01-05T12:17:55</time>
      </trkpt>
      <trkpt lat="45.56861" lon="6.56631">
        <ele>2271.1716</ele>
        <time>2021-01-05T12:17:59</time>
      </trkpt>
      <trkpt lat="45.5686" lon="6.5663">
        <ele>2265.2468</ele>
        <time>2021-01-05T12:18:00</time>
      </trkpt>
      <trkpt lat="45.56859" lon="6.56627">
        <ele>2260.0225</ele>
        <time>2021-01-05T12:18:02</time>
      </trkpt>
      <trkpt lat="45.56857" lon="6.56626">
        <ele>2257.323</ele>
        <time>2021-01-05T12:18:04</time>
      </trkpt>
      <trkpt lat="45.56857" lon="6.56624">
        <ele>2255.8792</ele>
        <time>2021-01-05T12:18:05</time>
      </trkpt>
      <trkpt lat="45.56855" lon="6.56623">
        <ele>2254.5105</ele>
        <time>2021-01-05T12:18:07</time>
      </trkpt>
      <trkpt lat="45.56854" lon="6.56622">
        <ele>2255.5657</ele>
        <time>2021-01-05T12:18:09</time>
      </trkpt>
      <trkpt lat="45.56853" lon="6.56621">
        <ele>2255.6414</ele>
        <time>2021-01-05T12:18:10</time>
      </trkpt>
      <trkpt lat="45.56852" lon="6.56621">
        <ele>2255.059</ele>
        <time>2021-01-05T12:18:11</time>
      </trkpt>
      <trkpt lat="45.56849" lon="6.56621">
        <ele>2255.7583</ele>
        <time>2021-01-05T12:18:15</time>
      </trkpt>
      <trkpt lat="45.56848" lon="6.5662">
        <ele>2256.625</ele>
        <time>2021-01-05T12:18:17</time>
      </trkpt>
      <trkpt lat="45.56848" lon="6.5662">
        <ele>2257.3237</ele>
        <time>2021-01-05T12:18:18</time>
      </trkpt>
      <trkpt lat="45.56846" lon="6.56615">
        <ele>2253.986</ele>
        <time>2021-01-05T12:18:29</time>
      </trkpt>
      <trkpt lat="45.56845" lon="6.56614">
        <ele>2254.3445</ele>
        <time>2021-01-05T12:18:30</time>
      </trkpt>
      <trkpt lat="45.56842" lon="6.56609">
        <ele>2254.5632</ele>
        <time>2021-01-05T12:18:49</time>
      </trkpt>
      <trkpt lat="45.56842" lon="6.56609">
        <ele>2253.8682</ele>
        <time>2021-01-05T12:18:50</time>
      </trkpt>
      <trkpt lat="45.56841" lon="6.56609">
        <ele>2254.432</ele>
        <time>2021-01-05T12:18:51</time>
      </trkpt>
      <trkpt lat="45.56838" lon="6.56604">
        <ele>2253.518</ele>
        <time>2021-01-05T12:18:55</time>
      </trkpt>
      <trkpt lat="45.56836" lon="6.56603">
        <ele>2255.4685</ele>
        <time>2021-01-05T12:19:02</time>
      </trkpt>
      <trkpt lat="45.56835" lon="6.56603">
        <ele>2255.9722</ele>
        <time>2021-01-05T12:19:03</time>
      </trkpt>
      <trkpt lat="45.56834" lon="6.56603">
        <ele>2257.4924</ele>
        <time>2021-01-05T12:19:04</time>
      </trkpt>
      <trkpt lat="45.56833" lon="6.56603">
        <ele>2258.2427</ele>
        <time>2021-01-05T12:19:05</time>
      </trkpt>
      <trkpt lat="45.5683" lon="6.56605">
        <ele>2263.3792</ele>
        <time>2021-01-05T12:19:08</time>
      </trkpt>
      <trkpt lat="45.56828" lon="6.56607">
        <ele>2265.675</ele>
        <time>2021-01-05T12:19:11</time>
      </trkpt>
      <trkpt lat="45.5682" lon="6.56608">
        <ele>2271.7026</ele>
        <time>2021-01-05T12:19:21</time>
      </trkpt>
      <trkpt lat="45.5682" lon="6.56608">
        <ele>2273.4534</ele>
        <time>2021-01-05T12:19:22</time>
      </trkpt>
      <trkpt lat="45.56818" lon="6.56606">
        <ele>2274.4907</ele>
        <time>2021-01-05T12:19:24</time>
      </trkpt>
      <trkpt lat="45.56818" lon="6.56606">
        <ele>2274.6287</ele>
        <time>2021-01-05T12:19:25</time>
      </trkpt>
      <trkpt lat="45.56817" lon="6.56605">
        <ele>2274.704</ele>
        <time>2021-01-05T12:19:28</time>
      </trkpt>
      <trkpt lat="45.56816" lon="6.56606">
        <ele>2274.8708</ele>
        <time>2021-01-05T12:19:35</time>
      </trkpt>
      <trkpt lat="45.56815" lon="6.56606">
        <ele>2275.408</ele>
        <time>2021-01-05T12:19:36</time>
      </trkpt>
      <trkpt lat="45.56814" lon="6.56607">
        <ele>2274.1404</ele>
        <time>2021-01-05T12:19:38</time>
      </trkpt>
      <trkpt lat="45.56811" lon="6.56607">
        <ele>2273.8325</ele>
        <time>2021-01-05T12:19:42</time>
      </trkpt>
      <trkpt lat="45.56808" lon="6.56611">
        <ele>2275.577</ele>
        <time>2021-01-05T12:19:47</time>
      </trkpt>
      <trkpt lat="45.56807" lon="6.56613">
        <ele>2276.277</ele>
        <time>2021-01-05T12:20:07</time>
      </trkpt>
      <trkpt lat="45.56806" lon="6.56612">
        <ele>2277.0923</ele>
        <time>2021-01-05T12:20:08</time>
      </trkpt>
      <trkpt lat="45.56804" lon="6.56609">
        <ele>2276.7288</ele>
        <time>2021-01-05T12:20:11</time>
      </trkpt>
      <trkpt lat="45.56803" lon="6.56606">
        <ele>2276.72</ele>
        <time>2021-01-05T12:20:14</time>
      </trkpt>
      <trkpt lat="45.56802" lon="6.56606">
        <ele>2277.87</ele>
        <time>2021-01-05T12:20:16</time>
      </trkpt>
      <trkpt lat="45.56802" lon="6.56605">
        <ele>2277.3743</ele>
        <time>2021-01-05T12:20:17</time>
      </trkpt>
      <trkpt lat="45.56799" lon="6.56602">
        <ele>2276.8408</ele>
        <time>2021-01-05T12:20:22</time>
      </trkpt>
      <trkpt lat="45.56798" lon="6.56604">
        <ele>2277.167</ele>
        <time>2021-01-05T12:20:27</time>
      </trkpt>
      <trkpt lat="45.56798" lon="6.56604">
        <ele>2277.4795</ele>
        <time>2021-01-05T12:20:28</time>
      </trkpt>
      <trkpt lat="45.56798" lon="6.56603">
        <ele>2277.8796</ele>
        <time>2021-01-05T12:20:29</time>
      </trkpt>
      <trkpt lat="45.56798" lon="6.56602">
        <ele>2278.2595</ele>
        <time>2021-01-05T12:20:31</time>
      </trkpt>
      <trkpt lat="45.56797" lon="6.56601">
        <ele>2277.591</ele>
        <time>2021-01-05T12:20:32</time>
      </trkpt>
      <trkpt lat="45.56795" lon="6.56597">
        <ele>2281.5474</ele>
        <time>2021-01-05T12:20:38</time>
      </trkpt>
      <trkpt lat="45.56794" lon="6.56596">
        <ele>2280.0278</ele>
        <time>2021-01-05T12:20:49</time>
      </trkpt>
      <trkpt lat="45.56791" lon="6.56589">
        <ele>2284.3865</ele>
        <time>2021-01-05T12:20:58</time>
      </trkpt>
      <trkpt lat="45.56791" lon="6.56589">
        <ele>2284.917</ele>
        <time>2021-01-05T12:20:59</time>
      </trkpt>
      <trkpt lat="45.56791" lon="6.56589">
        <ele>2284.9417</ele>
        <time>2021-01-05T12:21:00</time>
      </trkpt>
      <trkpt lat="45.5679" lon="6.56588">
        <ele>2286.9585</ele>
        <time>2021-01-05T12:21:06</time>
      </trkpt>
      <trkpt lat="45.56789" lon="6.56586">
        <ele>2286.7258</ele>
        <time>2021-01-05T12:21:08</time>
      </trkpt>
      <trkpt lat="45.56786" lon="6.56581">
        <ele>2287.2908</ele>
        <time>2021-01-05T12:21:13</time>
      </trkpt>
      <trkpt lat="45.56785" lon="6.56579">
        <ele>2287.6436</ele>
        <time>2021-01-05T12:21:21</time>
      </trkpt>
      <trkpt lat="45.56785" lon="6.56578">
        <ele>2287.578</ele>
        <time>2021-01-05T12:21:22</time>
      </trkpt>
      <trkpt lat="45.56782" lon="6.56576">
        <ele>2290.5493</ele>
        <time>2021-01-05T12:21:34</time>
      </trkpt>
      <trkpt lat="45.56781" lon="6.56575">
        <ele>2290.8918</ele>
        <time>2021-01-05T12:21:35</time>
      </trkpt>
      <trkpt lat="45.56781" lon="6.56574">
        <ele>2290.863</ele>
        <time>2021-01-05T12:21:36</time>
      </trkpt>
      <trkpt lat="45.5678" lon="6.56571">
        <ele>2306.504</ele>
        <time>2021-01-05T12:21:44</time>
      </trkpt>
      <trkpt lat="45.56778" lon="6.56567">
        <ele>2296.515</ele>
        <time>2021-01-05T12:21:47</time>
      </trkpt>
      <trkpt lat="45.56775" lon="6.56561">
        <ele>2290.6248</ele>
        <time>2021-01-05T12:21:52</time>
      </trkpt>
      <trkpt lat="45.56775" lon="6.5656">
        <ele>2289.9739</ele>
        <time>2021-01-05T12:21:54</time>
      </trkpt>
      <trkpt lat="45.56774" lon="6.56559">
        <ele>2289.5544</ele>
        <time>2021-01-05T12:21:55</time>
      </trkpt>
      <trkpt lat="45.56773" lon="6.56554">
        <ele>2287.3591</ele>
        <time>2021-01-05T12:21:58</time>
      </trkpt>
      <trkpt lat="45.56772" lon="6.5655">
        <ele>2287.9253</ele>
        <time>2021-01-05T12:22:02</time>
      </trkpt>
      <trkpt lat="45.56771" lon="6.56549">
        <ele>2287.743</ele>
        <time>2021-01-05T12:22:04</time>
      </trkpt>
      <trkpt lat="45.56771" lon="6.56547">
        <ele>2288.8433</ele>
        <time>2021-01-05T12:22:06</time>
      </trkpt>
      <trkpt lat="45.56771" lon="6.56547">
        <ele>2288.5632</ele>
        <time>2021-01-05T12:22:10</time>
      </trkpt>
      <trkpt lat="45.5677" lon="6.56546">
        <ele>2288.9111</ele>
        <time>2021-01-05T12:22:11</time>
      </trkpt>
      <trkpt lat="45.56764" lon="6.5654">
        <ele>2290.6277</ele>
        <time>2021-01-05T12:22:20</time>
      </trkpt>
      <trkpt lat="45.56763" lon="6.56539">
        <ele>2291.4482</ele>
        <time>2021-01-05T12:22:22</time>
      </trkpt>
      <trkpt lat="45.5676" lon="6.56537">
        <ele>2292.1038</ele>
        <time>2021-01-05T12:22:26</time>
      </trkpt>
      <trkpt lat="45.5676" lon="6.56537">
        <ele>2292.8438</ele>
        <time>2021-01-05T12:22:27</time>
      </trkpt>
      <trkpt lat="45.56759" lon="6.56536">
        <ele>2292.5156</ele>
        <time>2021-01-05T12:22:28</time>
      </trkpt>
      <trkpt lat="45.56758" lon="6.56535">
        <ele>2291.3748</ele>
        <time>2021-01-05T12:22:31</time>
      </trkpt>
      <trkpt lat="45.56758" lon="6.56535">
        <ele>2292.2573</ele>
        <time>2021-01-05T12:22:34</time>
      </trkpt>
      <trkpt lat="45.56757" lon="6.56534">
        <ele>2292.519</ele>
        <time>2021-01-05T12:22:36</time>
      </trkpt>
      <trkpt lat="45.56756" lon="6.56533">
        <ele>2292.4197</ele>
        <time>2021-01-05T12:22:38</time>
      </trkpt>
      <trkpt lat="45.56755" lon="6.5653">
        <ele>2290.319</ele>
        <time>2021-01-05T12:22:41</time>
      </trkpt>
      <trkpt lat="45.56755" lon="6.5653">
        <ele>2290.902</ele>
        <time>2021-01-05T12:22:42</time>
      </trkpt>
      <trkpt lat="45.56755" lon="6.56529">
        <ele>2291.6062</ele>
        <time>2021-01-05T12:22:45</time>
      </trkpt>
      <trkpt lat="45.56752" lon="6.56526">
        <ele>2290.8228</ele>
        <time>2021-01-05T12:22:48</time>
      </trkpt>
      <trkpt lat="45.56752" lon="6.56526">
        <ele>2291.4392</ele>
        <time>2021-01-05T12:22:49</time>
      </trkpt>
      <trkpt lat="45.56752" lon="6.56526">
        <ele>2290.5264</ele>
        <time>2021-01-05T12:22:50</time>
      </trkpt>
      <trkpt lat="45.5675" lon="6.56525">
        <ele>2290.4043</ele>
        <time>2021-01-05T12:23:04</time>
      </trkpt>
      <trkpt lat="45.56749" lon="6.56524">
        <ele>2290.3584</ele>
        <time>2021-01-05T12:23:05</time>
      </trkpt>
      <trkpt lat="45.56744" lon="6.56519">
        <ele>2288.7454</ele>
        <time>2021-01-05T12:23:11</time>
      </trkpt>
      <trkpt lat="45.56744" lon="6.56518">
        <ele>2288.9353</ele>
        <time>2021-01-05T12:23:12</time>
      </trkpt>
      <trkpt lat="45.56742" lon="6.56516">
        <ele>2290.4243</ele>
        <time>2021-01-05T12:23:14</time>
      </trkpt>
      <trkpt lat="45.5674" lon="6.56514">
        <ele>2289.6494</ele>
        <time>2021-01-05T12:23:17</time>
      </trkpt>
      <trkpt lat="45.56738" lon="6.56512">
        <ele>2290.401</ele>
        <time>2021-01-05T12:23:20</time>
      </trkpt>
      <trkpt lat="45.56738" lon="6.56512">
        <ele>2290.7183</ele>
        <time>2021-01-05T12:23:22</time>
      </trkpt>
      <trkpt lat="45.56733" lon="6.56506">
        <ele>2291.4963</ele>
        <time>2021-01-05T12:23:28</time>
      </trkpt>
      <trkpt lat="45.56732" lon="6.56505">
        <ele>2291.6238</ele>
        <time>2021-01-05T12:23:30</time>
      </trkpt>
      <trkpt lat="45.5673" lon="6.56502">
        <ele>2291.8948</ele>
        <time>2021-01-05T12:23:33</time>
      </trkpt>
      <trkpt lat="45.56729" lon="6.56501">
        <ele>2292.3435</ele>
        <time>2021-01-05T12:23:34</time>
      </trkpt>
      <trkpt lat="45.56725" lon="6.56498">
        <ele>2294.8398</ele>
        <time>2021-01-05T12:23:39</time>
      </trkpt>
      <trkpt lat="45.56724" lon="6.56498">
        <ele>2295.535</ele>
        <time>2021-01-05T12:23:42</time>
      </trkpt>
      <trkpt lat="45.5672" lon="6.56494">
        <ele>2294.47</ele>
        <time>2021-01-05T12:23:47</time>
      </trkpt>
      <trkpt lat="45.56715" lon="6.56488">
        <ele>2294.7473</ele>
        <time>2021-01-05T12:23:54</time>
      </trkpt>
      <trkpt lat="45.56713" lon="6.56486">
        <ele>2293.2346</ele>
        <time>2021-01-05T12:23:57</time>
      </trkpt>
      <trkpt lat="45.56713" lon="6.56485">
        <ele>2293.4407</ele>
        <time>2021-01-05T12:23:59</time>
      </trkpt>
      <trkpt lat="45.5671" lon="6.56481">
        <ele>2292.9067</ele>
        <time>2021-01-05T12:24:03</time>
      </trkpt>
      <trkpt lat="45.56709" lon="6.56479">
        <ele>2293.875</ele>
        <time>2021-01-05T12:24:05</time>
      </trkpt>
      <trkpt lat="45.56709" lon="6.56478">
        <ele>2294.3748</ele>
        <time>2021-01-05T12:24:07</time>
      </trkpt>
      <trkpt lat="45.56707" lon="6.56472">
        <ele>2293.615</ele>
        <time>2021-01-05T12:24:12</time>
      </trkpt>
      <trkpt lat="45.56706" lon="6.5647">
        <ele>2293.8174</ele>
        <time>2021-01-05T12:24:16</time>
      </trkpt>
      <trkpt lat="45.56704" lon="6.56468">
        <ele>2293.6084</ele>
        <time>2021-01-05T12:24:36</time>
      </trkpt>
      <trkpt lat="45.56703" lon="6.56464">
        <ele>2294.0945</ele>
        <time>2021-01-05T12:24:40</time>
      </trkpt>
      <trkpt lat="45.56702" lon="6.56462">
        <ele>2294.2673</ele>
        <time>2021-01-05T12:24:42</time>
      </trkpt>
      <trkpt lat="45.56702" lon="6.5646">
        <ele>2293.869</ele>
        <time>2021-01-05T12:24:44</time>
      </trkpt>
      <trkpt lat="45.56702" lon="6.5646">
        <ele>2294.248</ele>
        <time>2021-01-05T12:24:45</time>
      </trkpt>
      <trkpt lat="45.56701" lon="6.56459">
        <ele>2294.171</ele>
        <time>2021-01-05T12:24:48</time>
      </trkpt>
      <trkpt lat="45.56695" lon="6.56454">
        <ele>2294.3838</ele>
        <time>2021-01-05T12:24:56</time>
      </trkpt>
      <trkpt lat="45.56689" lon="6.56448">
        <ele>2292.2898</ele>
        <time>2021-01-05T12:25:03</time>
      </trkpt>
      <trkpt lat="45.56686" lon="6.56445">
        <ele>2291.5916</ele>
        <time>2021-01-05T12:25:06</time>
      </trkpt>
      <trkpt lat="45.56684" lon="6.56442">
        <ele>2291.552</ele>
        <time>2021-01-05T12:25:10</time>
      </trkpt>
      <trkpt lat="45.56676" lon="6.56433">
        <ele>2292.2217</ele>
        <time>2021-01-05T12:25:19</time>
      </trkpt>
      <trkpt lat="45.56666" lon="6.56426">
        <ele>2286.0376</ele>
        <time>2021-01-05T12:25:30</time>
      </trkpt>
      <trkpt lat="45.5665" lon="6.56413">
        <ele>2285.8325</ele>
        <time>2021-01-05T12:25:52</time>
      </trkpt>
      <trkpt lat="45.56647" lon="6.56412">
        <ele>2287.2922</ele>
        <time>2021-01-05T12:25:56</time>
      </trkpt>
      <trkpt lat="45.56643" lon="6.56411">
        <ele>2286.4119</ele>
        <time>2021-01-05T12:26:00</time>
      </trkpt>
      <trkpt lat="45.56639" lon="6.56407">
        <ele>2284.2432</ele>
        <time>2021-01-05T12:26:05</time>
      </trkpt>
      <trkpt lat="45.56634" lon="6.56402">
        <ele>2283.573</ele>
        <time>2021-01-05T12:26:11</time>
      </trkpt>
      <trkpt lat="45.56631" lon="6.564">
        <ele>2284.834</ele>
        <time>2021-01-05T12:26:15</time>
      </trkpt>
      <trkpt lat="45.56622" lon="6.56394">
        <ele>2285.308</ele>
        <time>2021-01-05T12:26:25</time>
      </trkpt>
      <trkpt lat="45.5662" lon="6.56393">
        <ele>2284.856</ele>
        <time>2021-01-05T12:26:28</time>
      </trkpt>
      <trkpt lat="45.56619" lon="6.56392">
        <ele>2284.7856</ele>
        <time>2021-01-05T12:26:29</time>
      </trkpt>
      <trkpt lat="45.56616" lon="6.5639">
        <ele>2283.518</ele>
        <time>2021-01-05T12:26:33</time>
      </trkpt>
      <trkpt lat="45.56616" lon="6.5639">
        <ele>2283.7065</ele>
        <time>2021-01-05T12:26:35</time>
      </trkpt>
      <trkpt lat="45.56608" lon="6.56384">
        <ele>2285.5623</ele>
        <time>2021-01-05T12:26:44</time>
      </trkpt>
      <trkpt lat="45.56606" lon="6.56383">
        <ele>2285.8528</ele>
        <time>2021-01-05T12:26:46</time>
      </trkpt>
      <trkpt lat="45.56606" lon="6.56383">
        <ele>2284.3335</ele>
        <time>2021-01-05T12:26:48</time>
      </trkpt>
      <trkpt lat="45.56602" lon="6.56381">
        <ele>2285.4465</ele>
        <time>2021-01-05T12:26:52</time>
      </trkpt>
      <trkpt lat="45.56596" lon="6.56375">
        <ele>2282.42</ele>
        <time>2021-01-05T12:27:00</time>
      </trkpt>
      <trkpt lat="45.56591" lon="6.56371">
        <ele>2282.545</ele>
        <time>2021-01-05T12:27:05</time>
      </trkpt>
      <trkpt lat="45.56588" lon="6.5637">
        <ele>2281.0808</ele>
        <time>2021-01-05T12:27:09</time>
      </trkpt>
      <trkpt lat="45.56587" lon="6.56369">
        <ele>2280.0657</ele>
        <time>2021-01-05T12:27:11</time>
      </trkpt>
      <trkpt lat="45.56583" lon="6.56367">
        <ele>2281.719</ele>
        <time>2021-01-05T12:27:15</time>
      </trkpt>
      <trkpt lat="45.56579" lon="6.56362">
        <ele>2281.6804</ele>
        <time>2021-01-05T12:27:22</time>
      </trkpt>
      <trkpt lat="45.56578" lon="6.56362">
        <ele>2281.553</ele>
        <time>2021-01-05T12:27:23</time>
      </trkpt>
      <trkpt lat="45.56578" lon="6.56361">
        <ele>2281.2026</ele>
        <time>2021-01-05T12:27:24</time>
      </trkpt>
      <trkpt lat="45.56577" lon="6.5636">
        <ele>2281.7595</ele>
        <time>2021-01-05T12:27:28</time>
      </trkpt>
      <trkpt lat="45.56576" lon="6.5636">
        <ele>2281.9773</ele>
        <time>2021-01-05T12:27:30</time>
      </trkpt>
      <trkpt lat="45.56575" lon="6.56358">
        <ele>2280.9277</ele>
        <time>2021-01-05T12:27:34</time>
      </trkpt>
      <trkpt lat="45.5657" lon="6.56353">
        <ele>2280.0938</ele>
        <time>2021-01-05T12:27:41</time>
      </trkpt>
      <trkpt lat="45.56569" lon="6.56351">
        <ele>2279.3394</ele>
        <time>2021-01-05T12:27:43</time>
      </trkpt>
      <trkpt lat="45.56562" lon="6.56344">
        <ele>2277.7273</ele>
        <time>2021-01-05T12:27:52</time>
      </trkpt>
      <trkpt lat="45.56561" lon="6.56342">
        <ele>2278.14</ele>
        <time>2021-01-05T12:27:54</time>
      </trkpt>
      <trkpt lat="45.5656" lon="6.56341">
        <ele>2276.9724</ele>
        <time>2021-01-05T12:27:59</time>
      </trkpt>
      <trkpt lat="45.56557" lon="6.56337">
        <ele>2275.8457</ele>
        <time>2021-01-05T12:28:03</time>
      </trkpt>
      <trkpt lat="45.56556" lon="6.56336">
        <ele>2275.2422</ele>
        <time>2021-01-05T12:28:04</time>
      </trkpt>
      <trkpt lat="45.56551" lon="6.56331">
        <ele>2274.5542</ele>
        <time>2021-01-05T12:28:10</time>
      </trkpt>
      <trkpt lat="45.5655" lon="6.56331">
        <ele>2275.8374</ele>
        <time>2021-01-05T12:28:11</time>
      </trkpt>
      <trkpt lat="45.5655" lon="6.5633">
        <ele>2276.136</ele>
        <time>2021-01-05T12:28:12</time>
      </trkpt>
      <trkpt lat="45.56549" lon="6.56329">
        <ele>2276.1313</ele>
        <time>2021-01-05T12:28:15</time>
      </trkpt>
      <trkpt lat="45.56548" lon="6.56328">
        <ele>2276.502</ele>
        <time>2021-01-05T12:28:16</time>
      </trkpt>
      <trkpt lat="45.56548" lon="6.56328">
        <ele>2276.34</ele>
        <time>2021-01-05T12:28:17</time>
      </trkpt>
      <trkpt lat="45.56547" lon="6.56326">
        <ele>2277.4172</ele>
        <time>2021-01-05T12:28:31</time>
      </trkpt>
      <trkpt lat="45.56546" lon="6.56324">
        <ele>2278.7126</ele>
        <time>2021-01-05T12:28:33</time>
      </trkpt>
      <trkpt lat="45.56544" lon="6.56322">
        <ele>2279.235</ele>
        <time>2021-01-05T12:28:36</time>
      </trkpt>
      <trkpt lat="45.56543" lon="6.56322">
        <ele>2278.819</ele>
        <time>2021-01-05T12:28:37</time>
      </trkpt>
      <trkpt lat="45.56542" lon="6.5632">
        <ele>2278.7144</ele>
        <time>2021-01-05T12:28:39</time>
      </trkpt>
      <trkpt lat="45.56541" lon="6.56319">
        <ele>2279.1545</ele>
        <time>2021-01-05T12:28:40</time>
      </trkpt>
      <trkpt lat="45.56541" lon="6.56318">
        <ele>2279.638</ele>
        <time>2021-01-05T12:28:41</time>
      </trkpt>
      <trkpt lat="45.56539" lon="6.56316">
        <ele>2278.3762</ele>
        <time>2021-01-05T12:28:43</time>
      </trkpt>
      <trkpt lat="45.56539" lon="6.56315">
        <ele>2279.5183</ele>
        <time>2021-01-05T12:28:44</time>
      </trkpt>
      <trkpt lat="45.56539" lon="6.56314">
        <ele>2279.7375</ele>
        <time>2021-01-05T12:28:45</time>
      </trkpt>
      <trkpt lat="45.56537" lon="6.56312">
        <ele>2281.6853</ele>
        <time>2021-01-05T12:28:49</time>
      </trkpt>
      <trkpt lat="45.56536" lon="6.56311">
        <ele>2281.9202</ele>
        <time>2021-01-05T12:28:50</time>
      </trkpt>
      <trkpt lat="45.56535" lon="6.5631">
        <ele>2281.3508</ele>
        <time>2021-01-05T12:28:53</time>
      </trkpt>
      <trkpt lat="45.5653" lon="6.56303">
        <ele>2280.7808</ele>
        <time>2021-01-05T12:29:01</time>
      </trkpt>
      <trkpt lat="45.56529" lon="6.56303">
        <ele>2280.0708</ele>
        <time>2021-01-05T12:29:06</time>
      </trkpt>
      <trkpt lat="45.56527" lon="6.56301">
        <ele>2279.1492</ele>
        <time>2021-01-05T12:29:08</time>
      </trkpt>
      <trkpt lat="45.56524" lon="6.56296">
        <ele>2280.8064</ele>
        <time>2021-01-05T12:29:14</time>
      </trkpt>
      <trkpt lat="45.56524" lon="6.56295">
        <ele>2280.7336</ele>
        <time>2021-01-05T12:29:15</time>
      </trkpt>
      <trkpt lat="45.56522" lon="6.56292">
        <ele>2280.7078</ele>
        <time>2021-01-05T12:29:20</time>
      </trkpt>
      <trkpt lat="45.56522" lon="6.56291">
        <ele>2280.3457</ele>
        <time>2021-01-05T12:29:21</time>
      </trkpt>
      <trkpt lat="45.56521" lon="6.5629">
        <ele>2279.4746</ele>
        <time>2021-01-05T12:29:22</time>
      </trkpt>
      <trkpt lat="45.5652" lon="6.56289">
        <ele>2279.054</ele>
        <time>2021-01-05T12:29:25</time>
      </trkpt>
      <trkpt lat="45.5652" lon="6.56289">
        <ele>2279.5276</ele>
        <time>2021-01-05T12:29:26</time>
      </trkpt>
      <trkpt lat="45.56519" lon="6.56289">
        <ele>2278.332</ele>
        <time>2021-01-05T12:29:28</time>
      </trkpt>
      <trkpt lat="45.56518" lon="6.56289">
        <ele>2277.6836</ele>
        <time>2021-01-05T12:29:30</time>
      </trkpt>
      <trkpt lat="45.56517" lon="6.56289">
        <ele>2277.347</ele>
        <time>2021-01-05T12:29:31</time>
      </trkpt>
      <trkpt lat="45.56515" lon="6.56289">
        <ele>2278.681</ele>
        <time>2021-01-05T12:29:41</time>
      </trkpt>
      <trkpt lat="45.56514" lon="6.56289">
        <ele>2278.278</ele>
        <time>2021-01-05T12:29:42</time>
      </trkpt>
      <trkpt lat="45.56514" lon="6.56289">
        <ele>2278.4229</ele>
        <time>2021-01-05T12:29:43</time>
      </trkpt>
      <trkpt lat="45.56513" lon="6.56288">
        <ele>2279.3372</ele>
        <time>2021-01-05T12:29:44</time>
      </trkpt>
      <trkpt lat="45.56513" lon="6.56288">
        <ele>2279.39</ele>
        <time>2021-01-05T12:29:45</time>
      </trkpt>
      <trkpt lat="45.56512" lon="6.56287">
        <ele>2278.9656</ele>
        <time>2021-01-05T12:29:48</time>
      </trkpt>
      <trkpt lat="45.56511" lon="6.56285">
        <ele>2278.092</ele>
        <time>2021-01-05T12:29:52</time>
      </trkpt>
      <trkpt lat="45.56509" lon="6.56283">
        <ele>2277.3245</ele>
        <time>2021-01-05T12:29:55</time>
      </trkpt>
      <trkpt lat="45.56509" lon="6.56283">
        <ele>2277.1262</ele>
        <time>2021-01-05T12:29:56</time>
      </trkpt>
      <trkpt lat="45.56508" lon="6.56282">
        <ele>2276.7273</ele>
        <time>2021-01-05T12:29:57</time>
      </trkpt>
      <trkpt lat="45.56507" lon="6.56281">
        <ele>2276.6504</ele>
        <time>2021-01-05T12:29:58</time>
      </trkpt>
      <trkpt lat="45.56504" lon="6.56277">
        <ele>2277.9255</ele>
        <time>2021-01-05T12:30:02</time>
      </trkpt>
      <trkpt lat="45.565" lon="6.56274">
        <ele>2273.9084</ele>
        <time>2021-01-05T12:30:06</time>
      </trkpt>
      <trkpt lat="45.56499" lon="6.56273">
        <ele>2272.6206</ele>
        <time>2021-01-05T12:30:07</time>
      </trkpt>
      <trkpt lat="45.56497" lon="6.56272">
        <ele>2272.8845</ele>
        <time>2021-01-05T12:30:09</time>
      </trkpt>
      <trkpt lat="45.56487" lon="6.56266">
        <ele>2274.3657</ele>
        <time>2021-01-05T12:30:21</time>
      </trkpt>
      <trkpt lat="45.56485" lon="6.56264">
        <ele>2270.734</ele>
        <time>2021-01-05T12:30:26</time>
      </trkpt>
      <trkpt lat="45.56479" lon="6.5626">
        <ele>2270.463</ele>
        <time>2021-01-05T12:30:35</time>
      </trkpt>
      <trkpt lat="45.56475" lon="6.56258">
        <ele>2270.9355</ele>
        <time>2021-01-05T12:30:41</time>
      </trkpt>
      <trkpt lat="45.56474" lon="6.56257">
        <ele>2271.8525</ele>
        <time>2021-01-05T12:30:44</time>
      </trkpt>
      <trkpt lat="45.56471" lon="6.56254">
        <ele>2273.361</ele>
        <time>2021-01-05T12:30:48</time>
      </trkpt>
      <trkpt lat="45.5647" lon="6.56254">
        <ele>2273.8655</ele>
        <time>2021-01-05T12:30:52</time>
      </trkpt>
      <trkpt lat="45.56464" lon="6.56251">
        <ele>2274.159</ele>
        <time>2021-01-05T12:30:59</time>
      </trkpt>
      <trkpt lat="45.56462" lon="6.56249">
        <ele>2275.1724</ele>
        <time>2021-01-05T12:31:02</time>
      </trkpt>
      <trkpt lat="45.56458" lon="6.56246">
        <ele>2277.008</ele>
        <time>2021-01-05T12:31:09</time>
      </trkpt>
      <trkpt lat="45.56458" lon="6.56245">
        <ele>2277.1367</ele>
        <time>2021-01-05T12:31:12</time>
      </trkpt>
      <trkpt lat="45.56458" lon="6.56245">
        <ele>2277.3645</ele>
        <time>2021-01-05T12:31:13</time>
      </trkpt>
      <trkpt lat="45.56457" lon="6.56244">
        <ele>2276.5083</ele>
        <time>2021-01-05T12:31:15</time>
      </trkpt>
      <trkpt lat="45.56455" lon="6.56243">
        <ele>2316.7356</ele>
        <time>2021-01-05T12:31:18</time>
      </trkpt>
      <trkpt lat="45.56453" lon="6.56242">
        <ele>2288.5146</ele>
        <time>2021-01-05T12:31:21</time>
      </trkpt>
      <trkpt lat="45.56452" lon="6.56242">
        <ele>2282.9697</ele>
        <time>2021-01-05T12:31:23</time>
      </trkpt>
      <trkpt lat="45.56452" lon="6.56242">
        <ele>2276.7544</ele>
        <time>2021-01-05T12:31:53</time>
      </trkpt>
      <trkpt lat="45.56451" lon="6.56242">
        <ele>2275.9421</ele>
        <time>2021-01-05T12:32:08</time>
      </trkpt>
      <trkpt lat="45.56451" lon="6.56241">
        <ele>2276.5059</ele>
        <time>2021-01-05T12:32:10</time>
      </trkpt>
      <trkpt lat="45.56451" lon="6.56241">
        <ele>2276.0164</ele>
        <time>2021-01-05T12:34:59</time>
      </trkpt>
      <trkpt lat="45.56451" lon="6.56242">
        <ele>2274.6477</ele>
        <time>2021-01-05T12:37:38</time>
      </trkpt>
      <trkpt lat="45.5645" lon="6.56241">
        <ele>2268.4453</ele>
        <time>2021-01-05T12:41:00</time>
      </trkpt>
      <trkpt lat="45.56451" lon="6.5624">
        <ele>2273.8232</ele>
        <time>2021-01-05T12:41:25</time>
      </trkpt>
      <trkpt lat="45.56451" lon="6.5624">
        <ele>2274.4429</ele>
        <time>2021-01-05T12:41:26</time>
      </trkpt>
      <trkpt lat="45.56451" lon="6.5624">
        <ele>2275.9202</ele>
        <time>2021-01-05T12:41:56</time>
      </trkpt>
      <trkpt lat="45.56451" lon="6.5624">
        <ele>2276.444</ele>
        <time>2021-01-05T12:42:26</time>
      </trkpt>
      <trkpt lat="45.56451" lon="6.56239">
        <ele>2274.7876</ele>
        <time>2021-01-05T12:42:29</time>
      </trkpt>
      <trkpt lat="45.5645" lon="6.56239">
        <ele>2274.7058</ele>
        <time>2021-01-05T12:42:30</time>
      </trkpt>
      <trkpt lat="45.56448" lon="6.5624">
        <ele>2274.33</ele>
        <time>2021-01-05T12:43:00</time>
      </trkpt>
      <trkpt lat="45.56448" lon="6.5624">
        <ele>2278.337</ele>
        <time>2021-01-05T12:43:30</time>
      </trkpt>
      <trkpt lat="45.56448" lon="6.5624">
        <ele>2274.5667</ele>
        <time>2021-01-05T12:44:00</time>
      </trkpt>
      <trkpt lat="45.56448" lon="6.5624">
        <ele>2272.49</ele>
        <time>2021-01-05T12:44:10</time>
      </trkpt>
      <trkpt lat="45.56448" lon="6.5624">
        <ele>2272.323</ele>
        <time>2021-01-05T12:44:11</time>
      </trkpt>
      <trkpt lat="45.56449" lon="6.56239">
        <ele>2284.167</ele>
        <time>2021-01-05T12:44:41</time>
      </trkpt>
      <trkpt lat="45.56449" lon="6.56239">
        <ele>2270.7427</ele>
        <time>2021-01-05T12:45:26</time>
      </trkpt>
      <trkpt lat="45.56449" lon="6.56239">
        <ele>2270.218</ele>
        <time>2021-01-05T12:46:11</time>
      </trkpt>
      <trkpt lat="45.56449" lon="6.56237">
        <ele>2270.5757</ele>
        <time>2021-01-05T12:46:13</time>
      </trkpt>
      <trkpt lat="45.56448" lon="6.56233">
        <ele>2271.797</ele>
        <time>2021-01-05T12:46:16</time>
      </trkpt>
      <trkpt lat="45.56447" lon="6.56224">
        <ele>2273.0544</ele>
        <time>2021-01-05T12:46:20</time>
      </trkpt>
      <trkpt lat="45.56447" lon="6.56219">
        <ele>2273.2244</ele>
        <time>2021-01-05T12:46:23</time>
      </trkpt>
      <trkpt lat="45.56445" lon="6.56213">
        <ele>2260.6692</ele>
        <time>2021-01-05T12:46:26</time>
      </trkpt>
      <trkpt lat="45.56444" lon="6.56203">
        <ele>2270.5327</ele>
        <time>2021-01-05T12:46:31</time>
      </trkpt>
      <trkpt lat="45.56441" lon="6.56191">
        <ele>2269.8838</ele>
        <time>2021-01-05T12:46:34</time>
      </trkpt>
      <trkpt lat="45.56441" lon="6.56187">
        <ele>2268.9841</ele>
        <time>2021-01-05T12:46:35</time>
      </trkpt>
      <trkpt lat="45.56442" lon="6.56184">
        <ele>2269.813</ele>
        <time>2021-01-05T12:46:38</time>
      </trkpt>
      <trkpt lat="45.56443" lon="6.56182">
        <ele>2271.404</ele>
        <time>2021-01-05T12:46:39</time>
      </trkpt>
      <trkpt lat="45.56449" lon="6.56176">
        <ele>2272.6106</ele>
        <time>2021-01-05T12:46:41</time>
      </trkpt>
      <trkpt lat="45.56453" lon="6.56172">
        <ele>2272.435</ele>
        <time>2021-01-05T12:46:43</time>
      </trkpt>
      <trkpt lat="45.56458" lon="6.56166">
        <ele>2273.1375</ele>
        <time>2021-01-05T12:46:53</time>
      </trkpt>
      <trkpt lat="45.56458" lon="6.56169">
        <ele>2273.4585</ele>
        <time>2021-01-05T12:47:02</time>
      </trkpt>
      <trkpt lat="45.56459" lon="6.56166">
        <ele>2273.9692</ele>
        <time>2021-01-05T12:47:03</time>
      </trkpt>
      <trkpt lat="45.56458" lon="6.56163">
        <ele>2272.9019</ele>
        <time>2021-01-05T12:47:04</time>
      </trkpt>
      <trkpt lat="45.56456" lon="6.5616">
        <ele>2274.0896</ele>
        <time>2021-01-05T12:47:06</time>
      </trkpt>
      <trkpt lat="45.56454" lon="6.5616">
        <ele>2275.7822</ele>
        <time>2021-01-05T12:47:08</time>
      </trkpt>
      <trkpt lat="45.56454" lon="6.5616">
        <ele>2276.4856</ele>
        <time>2021-01-05T12:47:14</time>
      </trkpt>
      <trkpt lat="45.56454" lon="6.56157">
        <ele>2275.3823</ele>
        <time>2021-01-05T12:47:15</time>
      </trkpt>
      <trkpt lat="45.56458" lon="6.56153">
        <ele>2270.963</ele>
        <time>2021-01-05T12:47:20</time>
      </trkpt>
      <trkpt lat="45.56459" lon="6.56152">
        <ele>2213.8232</ele>
        <time>2021-01-05T12:47:30</time>
      </trkpt>
      <trkpt lat="45.5646" lon="6.56149">
        <ele>2225.7625</ele>
        <time>2021-01-05T12:47:31</time>
      </trkpt>
      <trkpt lat="45.56459" lon="6.56146">
        <ele>2235.8938</ele>
        <time>2021-01-05T12:47:32</time>
      </trkpt>
      <trkpt lat="45.56448" lon="6.56133">
        <ele>2242.1096</ele>
        <time>2021-01-05T12:47:40</time>
      </trkpt>
      <trkpt lat="45.56447" lon="6.56132">
        <ele>2240.942</ele>
        <time>2021-01-05T12:47:41</time>
      </trkpt>
      <trkpt lat="45.56446" lon="6.56129">
        <ele>2244.7397</ele>
        <time>2021-01-05T12:47:43</time>
      </trkpt>
      <trkpt lat="45.56445" lon="6.56128">
        <ele>2244.7493</ele>
        <time>2021-01-05T12:47:44</time>
      </trkpt>
      <trkpt lat="45.56444" lon="6.56125">
        <ele>2249.1929</ele>
        <time>2021-01-05T12:47:46</time>
      </trkpt>
      <trkpt lat="45.56439" lon="6.56117">
        <ele>2251.1665</ele>
        <time>2021-01-05T12:47:51</time>
      </trkpt>
      <trkpt lat="45.56438" lon="6.56113">
        <ele>2256.3083</ele>
        <time>2021-01-05T12:47:55</time>
      </trkpt>
      <trkpt lat="45.56438" lon="6.56113">
        <ele>2255.0962</ele>
        <time>2021-01-05T12:47:56</time>
      </trkpt>
      <trkpt lat="45.56438" lon="6.5611">
        <ele>2254.9397</ele>
        <time>2021-01-05T12:47:58</time>
      </trkpt>
      <trkpt lat="45.56438" lon="6.56106">
        <ele>2257.143</ele>
        <time>2021-01-05T12:48:00</time>
      </trkpt>
      <trkpt lat="45.56437" lon="6.56095">
        <ele>2256.8657</ele>
        <time>2021-01-05T12:48:07</time>
      </trkpt>
      <trkpt lat="45.56437" lon="6.56093">
        <ele>2142.404</ele>
        <time>2021-01-05T12:48:08</time>
      </trkpt>
      <trkpt lat="45.56435" lon="6.56086">
        <ele>2204.1277</ele>
        <time>2021-01-05T12:48:13</time>
      </trkpt>
      <trkpt lat="45.56435" lon="6.56078">
        <ele>2228.3628</ele>
        <time>2021-01-05T12:48:17</time>
      </trkpt>
      <trkpt lat="45.56435" lon="6.56069">
        <ele>2237.961</ele>
        <time>2021-01-05T12:48:24</time>
      </trkpt>
      <trkpt lat="45.56435" lon="6.56065">
        <ele>2239.5596</ele>
        <time>2021-01-05T12:48:26</time>
      </trkpt>
      <trkpt lat="45.56435" lon="6.56062">
        <ele>2242.949</ele>
        <time>2021-01-05T12:48:29</time>
      </trkpt>
      <trkpt lat="45.56435" lon="6.56063">
        <ele>2242.7175</ele>
        <time>2021-01-05T12:48:32</time>
      </trkpt>
      <trkpt lat="45.56433" lon="6.56058">
        <ele>2248.2417</ele>
        <time>2021-01-05T12:48:39</time>
      </trkpt>
      <trkpt lat="45.56433" lon="6.56055">
        <ele>2251.4102</ele>
        <time>2021-01-05T12:48:45</time>
      </trkpt>
      <trkpt lat="45.56429" lon="6.56039">
        <ele>2249.1904</ele>
        <time>2021-01-05T12:48:53</time>
      </trkpt>
      <trkpt lat="45.56428" lon="6.56037">
        <ele>2248.3945</ele>
        <time>2021-01-05T12:48:59</time>
      </trkpt>
      <trkpt lat="45.56428" lon="6.56034">
        <ele>2248.2234</ele>
        <time>2021-01-05T12:49:01</time>
      </trkpt>
      <trkpt lat="45.56428" lon="6.5603">
        <ele>2245.2917</ele>
        <time>2021-01-05T12:49:02</time>
      </trkpt>
      <trkpt lat="45.56428" lon="6.56026">
        <ele>2243.7573</ele>
        <time>2021-01-05T12:49:04</time>
      </trkpt>
      <trkpt lat="45.56429" lon="6.56024">
        <ele>2241.7566</ele>
        <time>2021-01-05T12:49:07</time>
      </trkpt>
      <trkpt lat="45.56428" lon="6.56023">
        <ele>2240.5813</ele>
        <time>2021-01-05T12:49:16</time>
      </trkpt>
      <trkpt lat="45.56428" lon="6.5602">
        <ele>2238.4026</ele>
        <time>2021-01-05T12:49:18</time>
      </trkpt>
      <trkpt lat="45.56429" lon="6.56018">
        <ele>2235.558</ele>
        <time>2021-01-05T12:49:19</time>
      </trkpt>
      <trkpt lat="45.5643" lon="6.56016">
        <ele>2231.6357</ele>
        <time>2021-01-05T12:49:20</time>
      </trkpt>
      <trkpt lat="45.56433" lon="6.56016">
        <ele>2226.7866</ele>
        <time>2021-01-05T12:49:22</time>
      </trkpt>
      <trkpt lat="45.56435" lon="6.56017">
        <ele>2225.5835</ele>
        <time>2021-01-05T12:49:24</time>
      </trkpt>
      <trkpt lat="45.5645" lon="6.56022">
        <ele>2220.158</ele>
        <time>2021-01-05T12:49:30</time>
      </trkpt>
      <trkpt lat="45.56459" lon="6.56028">
        <ele>2219.221</ele>
        <time>2021-01-05T12:49:33</time>
      </trkpt>
      <trkpt lat="45.56464" lon="6.56031">
        <ele>2219.2205</ele>
        <time>2021-01-05T12:49:35</time>
      </trkpt>
      <trkpt lat="45.56466" lon="6.5603">
        <ele>2219.8203</ele>
        <time>2021-01-05T12:49:36</time>
      </trkpt>
      <trkpt lat="45.56467" lon="6.56026">
        <ele>2219.6633</ele>
        <time>2021-01-05T12:49:37</time>
      </trkpt>
      <trkpt lat="45.56467" lon="6.56022">
        <ele>2218.5784</ele>
        <time>2021-01-05T12:49:38</time>
      </trkpt>
      <trkpt lat="45.56468" lon="6.56017">
        <ele>2216.7595</ele>
        <time>2021-01-05T12:49:39</time>
      </trkpt>
      <trkpt lat="45.5647" lon="6.56014">
        <ele>2215.9102</ele>
        <time>2021-01-05T12:49:40</time>
      </trkpt>
      <trkpt lat="45.56473" lon="6.56011">
        <ele>2215.945</ele>
        <time>2021-01-05T12:49:41</time>
      </trkpt>
      <trkpt lat="45.56476" lon="6.56008">
        <ele>2224.7156</ele>
        <time>2021-01-05T12:49:42</time>
      </trkpt>
      <trkpt lat="45.56477" lon="6.56004">
        <ele>2224.1135</ele>
        <time>2021-01-05T12:49:43</time>
      </trkpt>
      <trkpt lat="45.56478" lon="6.56">
        <ele>2222.652</ele>
        <time>2021-01-05T12:49:44</time>
      </trkpt>
      <trkpt lat="45.56479" lon="6.55995">
        <ele>2219.7747</ele>
        <time>2021-01-05T12:49:46</time>
      </trkpt>
      <trkpt lat="45.56492" lon="6.55983">
        <ele>2215.7493</ele>
        <time>2021-01-05T12:49:51</time>
      </trkpt>
      <trkpt lat="45.56492" lon="6.55982">
        <ele>2215.7444</ele>
        <time>2021-01-05T12:49:52</time>
      </trkpt>
      <trkpt lat="45.56491" lon="6.5598">
        <ele>2215.0369</ele>
        <time>2021-01-05T12:49:57</time>
      </trkpt>
      <trkpt lat="45.56489" lon="6.55978">
        <ele>2214.036</ele>
        <time>2021-01-05T12:49:57</time>
      </trkpt>
      <trkpt lat="45.56485" lon="6.55979">
        <ele>2212.8806</ele>
        <time>2021-01-05T12:49:59</time>
      </trkpt>
      <trkpt lat="45.56482" lon="6.55977">
        <ele>2212.2341</ele>
        <time>2021-01-05T12:49:59</time>
      </trkpt>
      <trkpt lat="45.56478" lon="6.55972">
        <ele>2211.8203</ele>
        <time>2021-01-05T12:50:00</time>
      </trkpt>
      <trkpt lat="45.56476" lon="6.55968">
        <ele>2211.2551</ele>
        <time>2021-01-05T12:50:01</time>
      </trkpt>
      <trkpt lat="45.56474" lon="6.55963">
        <ele>2212.3318</ele>
        <time>2021-01-05T12:50:02</time>
      </trkpt>
      <trkpt lat="45.56473" lon="6.55955">
        <ele>2211.7024</ele>
        <time>2021-01-05T12:50:05</time>
      </trkpt>
      <trkpt lat="45.56476" lon="6.55953">
        <ele>2210.6506</ele>
        <time>2021-01-05T12:50:12</time>
      </trkpt>
      <trkpt lat="45.56482" lon="6.55931">
        <ele>2205.0784</ele>
        <time>2021-01-05T12:50:21</time>
      </trkpt>
      <trkpt lat="45.56482" lon="6.55928">
        <ele>2205.5051</ele>
        <time>2021-01-05T12:50:22</time>
      </trkpt>
      <trkpt lat="45.56482" lon="6.55925">
        <ele>2207.5508</ele>
        <time>2021-01-05T12:50:23</time>
      </trkpt>
      <trkpt lat="45.56481" lon="6.55924">
        <ele>2207.368</ele>
        <time>2021-01-05T12:50:24</time>
      </trkpt>
      <trkpt lat="45.5648" lon="6.55923">
        <ele>2206</ele>
        <time>2021-01-05T12:50:26</time>
      </trkpt>
      <trkpt lat="45.56481" lon="6.55923">
        <ele>2200.0571</ele>
        <time>2021-01-05T12:51:06</time>
      </trkpt>
      <trkpt lat="45.5648" lon="6.55922">
        <ele>2200.0464</ele>
        <time>2021-01-05T12:51:08</time>
      </trkpt>
      <trkpt lat="45.5648" lon="6.5592">
        <ele>2198.8835</ele>
        <time>2021-01-05T12:51:09</time>
      </trkpt>
      <trkpt lat="45.5648" lon="6.55917">
        <ele>2199.0564</ele>
        <time>2021-01-05T12:51:10</time>
      </trkpt>
      <trkpt lat="45.56481" lon="6.55915">
        <ele>2196.5273</ele>
        <time>2021-01-05T12:51:12</time>
      </trkpt>
      <trkpt lat="45.5648" lon="6.55915">
        <ele>2184.1772</ele>
        <time>2021-01-05T12:51:42</time>
      </trkpt>
      <trkpt lat="45.5648" lon="6.55915">
        <ele>2184.0625</ele>
        <time>2021-01-05T12:51:52</time>
      </trkpt>
      <trkpt lat="45.56481" lon="6.55911">
        <ele>2186.75</ele>
        <time>2021-01-05T12:51:54</time>
      </trkpt>
      <trkpt lat="45.5648" lon="6.55908">
        <ele>2188.4307</ele>
        <time>2021-01-05T12:51:55</time>
      </trkpt>
      <trkpt lat="45.56478" lon="6.55905">
        <ele>2188.4514</ele>
        <time>2021-01-05T12:51:56</time>
      </trkpt>
      <trkpt lat="45.56476" lon="6.55904">
        <ele>2188.5046</ele>
        <time>2021-01-05T12:51:57</time>
      </trkpt>
      <trkpt lat="45.56475" lon="6.55904">
        <ele>2186.9893</ele>
        <time>2021-01-05T12:51:58</time>
      </trkpt>
      <trkpt lat="45.56475" lon="6.55905">
        <ele>2190.188</ele>
        <time>2021-01-05T12:52:13</time>
      </trkpt>
      <trkpt lat="45.56473" lon="6.55904">
        <ele>2189.6016</ele>
        <time>2021-01-05T12:52:14</time>
      </trkpt>
      <trkpt lat="45.56472" lon="6.55904">
        <ele>2190.3643</ele>
        <time>2021-01-05T12:52:15</time>
      </trkpt>
      <trkpt lat="45.56464" lon="6.55904">
        <ele>2190.3372</ele>
        <time>2021-01-05T12:52:18</time>
      </trkpt>
      <trkpt lat="45.56459" lon="6.55904">
        <ele>2189.251</ele>
        <time>2021-01-05T12:52:19</time>
      </trkpt>
      <trkpt lat="45.56453" lon="6.55903">
        <ele>2187.1191</ele>
        <time>2021-01-05T12:52:20</time>
      </trkpt>
      <trkpt lat="45.56432" lon="6.55895">
        <ele>2183.681</ele>
        <time>2021-01-05T12:52:24</time>
      </trkpt>
      <trkpt lat="45.56429" lon="6.55891">
        <ele>2183.581</ele>
        <time>2021-01-05T12:52:25</time>
      </trkpt>
      <trkpt lat="45.56426" lon="6.55888">
        <ele>2183.4385</ele>
        <time>2021-01-05T12:52:26</time>
      </trkpt>
      <trkpt lat="45.56422" lon="6.55887">
        <ele>2183.7498</ele>
        <time>2021-01-05T12:52:27</time>
      </trkpt>
      <trkpt lat="45.56419" lon="6.55884">
        <ele>2185.1187</ele>
        <time>2021-01-05T12:52:29</time>
      </trkpt>
      <trkpt lat="45.56414" lon="6.55878">
        <ele>2185.498</ele>
        <time>2021-01-05T12:52:31</time>
      </trkpt>
      <trkpt lat="45.56411" lon="6.55876">
        <ele>2185.5356</ele>
        <time>2021-01-05T12:52:32</time>
      </trkpt>
      <trkpt lat="45.56404" lon="6.5587">
        <ele>2184.5325</ele>
        <time>2021-01-05T12:52:35</time>
      </trkpt>
      <trkpt lat="45.56402" lon="6.55869">
        <ele>2186.3643</ele>
        <time>2021-01-05T12:52:37</time>
      </trkpt>
      <trkpt lat="45.56402" lon="6.55868">
        <ele>2185.581</ele>
        <time>2021-01-05T12:52:38</time>
      </trkpt>
      <trkpt lat="45.56401" lon="6.55866">
        <ele>2186.0073</ele>
        <time>2021-01-05T12:52:40</time>
      </trkpt>
      <trkpt lat="45.56399" lon="6.55864">
        <ele>2184.804</ele>
        <time>2021-01-05T12:52:40</time>
      </trkpt>
      <trkpt lat="45.56375" lon="6.55836">
        <ele>2181.401</ele>
        <time>2021-01-05T12:52:50</time>
      </trkpt>
      <trkpt lat="45.56372" lon="6.55834">
        <ele>2180.6545</ele>
        <time>2021-01-05T12:52:51</time>
      </trkpt>
      <trkpt lat="45.56369" lon="6.55833">
        <ele>2179.1611</ele>
        <time>2021-01-05T12:52:53</time>
      </trkpt>
      <trkpt lat="45.56356" lon="6.5583">
        <ele>2176.492</ele>
        <time>2021-01-05T12:53:00</time>
      </trkpt>
      <trkpt lat="45.56354" lon="6.55827">
        <ele>2167.4377</ele>
        <time>2021-01-05T12:53:01</time>
      </trkpt>
      <trkpt lat="45.56353" lon="6.55822">
        <ele>2165.893</ele>
        <time>2021-01-05T12:53:02</time>
      </trkpt>
      <trkpt lat="45.56354" lon="6.55817">
        <ele>2163.7942</ele>
        <time>2021-01-05T12:53:03</time>
      </trkpt>
      <trkpt lat="45.56356" lon="6.55811">
        <ele>2160.04</ele>
        <time>2021-01-05T12:53:04</time>
      </trkpt>
      <trkpt lat="45.56357" lon="6.55807">
        <ele>2159.4807</ele>
        <time>2021-01-05T12:53:05</time>
      </trkpt>
      <trkpt lat="45.56357" lon="6.55804">
        <ele>2158.9495</ele>
        <time>2021-01-05T12:53:06</time>
      </trkpt>
      <trkpt lat="45.56355" lon="6.55801">
        <ele>2158.0908</ele>
        <time>2021-01-05T12:53:07</time>
      </trkpt>
      <trkpt lat="45.56354" lon="6.55793">
        <ele>2158.8599</ele>
        <time>2021-01-05T12:53:10</time>
      </trkpt>
      <trkpt lat="45.56353" lon="6.5579">
        <ele>2158.3887</ele>
        <time>2021-01-05T12:53:10</time>
      </trkpt>
      <trkpt lat="45.56351" lon="6.55788">
        <ele>2157.3535</ele>
        <time>2021-01-05T12:53:11</time>
      </trkpt>
      <trkpt lat="45.5635" lon="6.55784">
        <ele>2150.673</ele>
        <time>2021-01-05T12:53:12</time>
      </trkpt>
      <trkpt lat="45.56351" lon="6.55777">
        <ele>2149.4734</ele>
        <time>2021-01-05T12:53:14</time>
      </trkpt>
      <trkpt lat="45.56353" lon="6.55775">
        <ele>2149.013</ele>
        <time>2021-01-05T12:53:15</time>
      </trkpt>
      <trkpt lat="45.56355" lon="6.55771">
        <ele>2148.0903</ele>
        <time>2021-01-05T12:53:17</time>
      </trkpt>
      <trkpt lat="45.56353" lon="6.55769">
        <ele>2147.0757</ele>
        <time>2021-01-05T12:53:18</time>
      </trkpt>
      <trkpt lat="45.5635" lon="6.55769">
        <ele>2147.5737</ele>
        <time>2021-01-05T12:53:19</time>
      </trkpt>
      <trkpt lat="45.56349" lon="6.55773">
        <ele>2146.8171</ele>
        <time>2021-01-05T12:53:20</time>
      </trkpt>
      <trkpt lat="45.56348" lon="6.55779">
        <ele>2145.2422</ele>
        <time>2021-01-05T12:53:31</time>
      </trkpt>
      <trkpt lat="45.56346" lon="6.55778">
        <ele>2145.5796</ele>
        <time>2021-01-05T12:53:32</time>
      </trkpt>
      <trkpt lat="45.56341" lon="6.55772">
        <ele>2145.1719</ele>
        <time>2021-01-05T12:53:34</time>
      </trkpt>
      <trkpt lat="45.56338" lon="6.5577">
        <ele>2145.2354</ele>
        <time>2021-01-05T12:53:35</time>
      </trkpt>
      <trkpt lat="45.56335" lon="6.55769">
        <ele>2145.076</ele>
        <time>2021-01-05T12:53:36</time>
      </trkpt>
      <trkpt lat="45.56335" lon="6.55769">
        <ele>2145.4155</ele>
        <time>2021-01-05T12:53:37</time>
      </trkpt>
      <trkpt lat="45.56335" lon="6.55768">
        <ele>2143.7334</ele>
        <time>2021-01-05T12:53:59</time>
      </trkpt>
      <trkpt lat="45.56333" lon="6.55767">
        <ele>2142.067</ele>
        <time>2021-01-05T12:54:00</time>
      </trkpt>
      <trkpt lat="45.56324" lon="6.55762">
        <ele>2144.3945</ele>
        <time>2021-01-05T12:54:04</time>
      </trkpt>
      <trkpt lat="45.56321" lon="6.55762">
        <ele>2143.5457</ele>
        <time>2021-01-05T12:54:05</time>
      </trkpt>
      <trkpt lat="45.56304" lon="6.55764">
        <ele>2139.849</ele>
        <time>2021-01-05T12:54:10</time>
      </trkpt>
      <trkpt lat="45.56293" lon="6.55766">
        <ele>2140.3296</ele>
        <time>2021-01-05T12:54:13</time>
      </trkpt>
      <trkpt lat="45.56289" lon="6.55766">
        <ele>2139.7698</ele>
        <time>2021-01-05T12:54:14</time>
      </trkpt>
      <trkpt lat="45.56282" lon="6.55766">
        <ele>1905.2544</ele>
        <time>2021-01-05T12:54:16</time>
      </trkpt>
      <trkpt lat="45.5628" lon="6.55765">
        <ele>1959.7012</ele>
        <time>2021-01-05T12:54:17</time>
      </trkpt>
      <trkpt lat="45.56277" lon="6.5576">
        <ele>2022.2676</ele>
        <time>2021-01-05T12:54:19</time>
      </trkpt>
      <trkpt lat="45.56277" lon="6.55753">
        <ele>2011.696</ele>
        <time>2021-01-05T12:54:20</time>
      </trkpt>
      <trkpt lat="45.56277" lon="6.55746">
        <ele>2037.6462</ele>
        <time>2021-01-05T12:54:22</time>
      </trkpt>
      <trkpt lat="45.56276" lon="6.55743">
        <ele>2043.4956</ele>
        <time>2021-01-05T12:54:23</time>
      </trkpt>
      <trkpt lat="45.56271" lon="6.55734">
        <ele>2067.3308</ele>
        <time>2021-01-05T12:54:25</time>
      </trkpt>
      <trkpt lat="45.56271" lon="6.55731">
        <ele>2072.1582</ele>
        <time>2021-01-05T12:54:26</time>
      </trkpt>
      <trkpt lat="45.56273" lon="6.55728">
        <ele>2121.1475</ele>
        <time>2021-01-05T12:54:38</time>
      </trkpt>
      <trkpt lat="45.56271" lon="6.55726">
        <ele>2122.0054</ele>
        <time>2021-01-05T12:54:40</time>
      </trkpt>
      <trkpt lat="45.56269" lon="6.55726">
        <ele>2122.0059</ele>
        <time>2021-01-05T12:54:42</time>
      </trkpt>
      <trkpt lat="45.56266" lon="6.55723">
        <ele>2120.293</ele>
        <time>2021-01-05T12:54:44</time>
      </trkpt>
      <trkpt lat="45.56265" lon="6.5572">
        <ele>2118.955</ele>
        <time>2021-01-05T12:54:46</time>
      </trkpt>
      <trkpt lat="45.56265" lon="6.55717">
        <ele>2118.5623</ele>
        <time>2021-01-05T12:54:46</time>
      </trkpt>
      <trkpt lat="45.56264" lon="6.55712">
        <ele>2118.118</ele>
        <time>2021-01-05T12:54:47</time>
      </trkpt>
      <trkpt lat="45.56264" lon="6.55703">
        <ele>2117.6975</ele>
        <time>2021-01-05T12:54:49</time>
      </trkpt>
      <trkpt lat="45.56262" lon="6.55698">
        <ele>2116.4717</ele>
        <time>2021-01-05T12:54:50</time>
      </trkpt>
      <trkpt lat="45.56258" lon="6.55687">
        <ele>2115.568</ele>
        <time>2021-01-05T12:54:52</time>
      </trkpt>
      <trkpt lat="45.56256" lon="6.55682">
        <ele>2114.9988</ele>
        <time>2021-01-05T12:54:53</time>
      </trkpt>
      <trkpt lat="45.56253" lon="6.55669">
        <ele>2116.6624</ele>
        <time>2021-01-05T12:54:56</time>
      </trkpt>
      <trkpt lat="45.56253" lon="6.55657">
        <ele>2115.0513</ele>
        <time>2021-01-05T12:54:58</time>
      </trkpt>
      <trkpt lat="45.56256" lon="6.55631">
        <ele>2112.0623</ele>
        <time>2021-01-05T12:55:03</time>
      </trkpt>
      <trkpt lat="45.56257" lon="6.55627">
        <ele>2110.6072</ele>
        <time>2021-01-05T12:55:04</time>
      </trkpt>
      <trkpt lat="45.5626" lon="6.55622">
        <ele>2110.2415</ele>
        <time>2021-01-05T12:55:05</time>
      </trkpt>
      <trkpt lat="45.56261" lon="6.55618">
        <ele>2108.1372</ele>
        <time>2021-01-05T12:55:06</time>
      </trkpt>
      <trkpt lat="45.56261" lon="6.55609">
        <ele>2106.7512</ele>
        <time>2021-01-05T12:55:09</time>
      </trkpt>
      <trkpt lat="45.56261" lon="6.55606">
        <ele>2106.238</ele>
        <time>2021-01-05T12:55:09</time>
      </trkpt>
      <trkpt lat="45.56257" lon="6.55598">
        <ele>2105.7437</ele>
        <time>2021-01-05T12:55:11</time>
      </trkpt>
      <trkpt lat="45.56257" lon="6.55593">
        <ele>2105.1284</ele>
        <time>2021-01-05T12:55:12</time>
      </trkpt>
      <trkpt lat="45.56257" lon="6.55586">
        <ele>2105.4485</ele>
        <time>2021-01-05T12:55:13</time>
      </trkpt>
      <trkpt lat="45.56254" lon="6.55586">
        <ele>2104.9434</ele>
        <time>2021-01-05T12:55:14</time>
      </trkpt>
      <trkpt lat="45.56253" lon="6.55587">
        <ele>2105.501</ele>
        <time>2021-01-05T12:55:15</time>
      </trkpt>
      <trkpt lat="45.56256" lon="6.5559">
        <ele>2100.092</ele>
        <time>2021-01-05T12:55:45</time>
      </trkpt>
      <trkpt lat="45.56256" lon="6.5559">
        <ele>2098.784</ele>
        <time>2021-01-05T12:55:47</time>
      </trkpt>
      <trkpt lat="45.56256" lon="6.5559">
        <ele>2098.4417</ele>
        <time>2021-01-05T12:55:48</time>
      </trkpt>
      <trkpt lat="45.56257" lon="6.55589">
        <ele>2096.272</ele>
        <time>2021-01-05T12:56:34</time>
      </trkpt>
      <trkpt lat="45.56256" lon="6.55586">
        <ele>2095.8516</ele>
        <time>2021-01-05T12:56:44</time>
      </trkpt>
      <trkpt lat="45.56255" lon="6.55586">
        <ele>2095.384</ele>
        <time>2021-01-05T12:56:45</time>
      </trkpt>
      <trkpt lat="45.56255" lon="6.55586">
        <ele>2094.6287</ele>
        <time>2021-01-05T12:56:46</time>
      </trkpt>
      <trkpt lat="45.56255" lon="6.55585">
        <ele>2092.2966</ele>
        <time>2021-01-05T12:56:51</time>
      </trkpt>
      <trkpt lat="45.56254" lon="6.5558">
        <ele>2091.6982</ele>
        <time>2021-01-05T12:56:53</time>
      </trkpt>
      <trkpt lat="45.56253" lon="6.55576">
        <ele>2091.0059</ele>
        <time>2021-01-05T12:56:54</time>
      </trkpt>
      <trkpt lat="45.56252" lon="6.55566">
        <ele>2088.547</ele>
        <time>2021-01-05T12:56:56</time>
      </trkpt>
      <trkpt lat="45.56241" lon="6.55549">
        <ele>2083.7346</ele>
        <time>2021-01-05T12:57:00</time>
      </trkpt>
      <trkpt lat="45.56235" lon="6.55544">
        <ele>2081.9377</ele>
        <time>2021-01-05T12:57:02</time>
      </trkpt>
      <trkpt lat="45.56234" lon="6.55543">
        <ele>2080.8225</ele>
        <time>2021-01-05T12:57:05</time>
      </trkpt>
      <trkpt lat="45.56234" lon="6.55542">
        <ele>2089.69</ele>
        <time>2021-01-05T12:57:10</time>
      </trkpt>
      <trkpt lat="45.56233" lon="6.55539">
        <ele>2086.4526</ele>
        <time>2021-01-05T12:57:12</time>
      </trkpt>
      <trkpt lat="45.56233" lon="6.55532">
        <ele>2086.4526</ele>
        <time>2021-01-05T12:57:14</time>
      </trkpt>
      <trkpt lat="45.56234" lon="6.55528">
        <ele>2085.1265</ele>
        <time>2021-01-05T12:57:15</time>
      </trkpt>
      <trkpt lat="45.56236" lon="6.55525">
        <ele>2084.3477</ele>
        <time>2021-01-05T12:57:16</time>
      </trkpt>
      <trkpt lat="45.56237" lon="6.55522">
        <ele>2084.1614</ele>
        <time>2021-01-05T12:57:17</time>
      </trkpt>
      <trkpt lat="45.56238" lon="6.55518">
        <ele>2084.2214</ele>
        <time>2021-01-05T12:57:18</time>
      </trkpt>
      <trkpt lat="45.56238" lon="6.55515">
        <ele>2082.4854</ele>
        <time>2021-01-05T12:57:19</time>
      </trkpt>
      <trkpt lat="45.56237" lon="6.55513">
        <ele>2080.757</ele>
        <time>2021-01-05T12:57:20</time>
      </trkpt>
      <trkpt lat="45.56233" lon="6.55515">
        <ele>2079.612</ele>
        <time>2021-01-05T12:57:22</time>
      </trkpt>
      <trkpt lat="45.56232" lon="6.55516">
        <ele>2078.8</ele>
        <time>2021-01-05T12:57:24</time>
      </trkpt>
      <trkpt lat="45.56231" lon="6.55512">
        <ele>2075.0806</ele>
        <time>2021-01-05T12:57:26</time>
      </trkpt>
      <trkpt lat="45.56232" lon="6.55508">
        <ele>2074.7156</ele>
        <time>2021-01-05T12:57:27</time>
      </trkpt>
      <trkpt lat="45.56233" lon="6.55505">
        <ele>2073.3896</ele>
        <time>2021-01-05T12:57:28</time>
      </trkpt>
      <trkpt lat="45.56234" lon="6.55504">
        <ele>2076.7144</ele>
        <time>2021-01-05T12:57:30</time>
      </trkpt>
      <trkpt lat="45.56234" lon="6.55504">
        <ele>2075.315</ele>
        <time>2021-01-05T12:57:31</time>
      </trkpt>
      <trkpt lat="45.56234" lon="6.55504">
        <ele>2075.7737</ele>
        <time>2021-01-05T12:57:32</time>
      </trkpt>
      <trkpt lat="45.56237" lon="6.555">
        <ele>2070.9858</ele>
        <time>2021-01-05T12:57:34</time>
      </trkpt>
      <trkpt lat="45.5624" lon="6.55495">
        <ele>2071.6123</ele>
        <time>2021-01-05T12:57:36</time>
      </trkpt>
      <trkpt lat="45.56242" lon="6.55493">
        <ele>2070.6226</ele>
        <time>2021-01-05T12:57:37</time>
      </trkpt>
      <trkpt lat="45.56245" lon="6.55487">
        <ele>2072.2102</ele>
        <time>2021-01-05T12:57:39</time>
      </trkpt>
      <trkpt lat="45.56246" lon="6.55484">
        <ele>2072.0923</ele>
        <time>2021-01-05T12:57:40</time>
      </trkpt>
      <trkpt lat="45.56245" lon="6.55482">
        <ele>2072.308</ele>
        <time>2021-01-05T12:57:41</time>
      </trkpt>
      <trkpt lat="45.56244" lon="6.55481">
        <ele>2073.138</ele>
        <time>2021-01-05T12:57:42</time>
      </trkpt>
      <trkpt lat="45.56243" lon="6.55478">
        <ele>2072.5708</ele>
        <time>2021-01-05T12:57:43</time>
      </trkpt>
      <trkpt lat="45.56244" lon="6.55475">
        <ele>2072.2046</ele>
        <time>2021-01-05T12:57:44</time>
      </trkpt>
      <trkpt lat="45.56244" lon="6.55471">
        <ele>2068.971</ele>
        <time>2021-01-05T12:57:45</time>
      </trkpt>
      <trkpt lat="45.56243" lon="6.55469">
        <ele>2068.4993</ele>
        <time>2021-01-05T12:57:46</time>
      </trkpt>
      <trkpt lat="45.56236" lon="6.55469">
        <ele>2065.3916</ele>
        <time>2021-01-05T12:57:50</time>
      </trkpt>
      <trkpt lat="45.56235" lon="6.55466">
        <ele>2063.8901</ele>
        <time>2021-01-05T12:57:51</time>
      </trkpt>
      <trkpt lat="45.56235" lon="6.55462">
        <ele>2063.1846</ele>
        <time>2021-01-05T12:57:52</time>
      </trkpt>
      <trkpt lat="45.56236" lon="6.55458">
        <ele>2062.5742</ele>
        <time>2021-01-05T12:57:53</time>
      </trkpt>
      <trkpt lat="45.56239" lon="6.55447">
        <ele>2060.9814</ele>
        <time>2021-01-05T12:57:56</time>
      </trkpt>
      <trkpt lat="45.5624" lon="6.55446">
        <ele>2060.2114</ele>
        <time>2021-01-05T12:57:57</time>
      </trkpt>
      <trkpt lat="45.5624" lon="6.55443">
        <ele>2060.1055</ele>
        <time>2021-01-05T12:58:10</time>
      </trkpt>
      <trkpt lat="45.56241" lon="6.55438">
        <ele>2058.796</ele>
        <time>2021-01-05T12:58:12</time>
      </trkpt>
      <trkpt lat="45.56242" lon="6.55436">
        <ele>2056.7214</ele>
        <time>2021-01-05T12:58:13</time>
      </trkpt>
      <trkpt lat="45.56242" lon="6.55435">
        <ele>2056.1733</ele>
        <time>2021-01-05T12:58:14</time>
      </trkpt>
      <trkpt lat="45.56244" lon="6.55433">
        <ele>2055.982</ele>
        <time>2021-01-05T12:58:15</time>
      </trkpt>
      <trkpt lat="45.56249" lon="6.55428">
        <ele>2053.1528</ele>
        <time>2021-01-05T12:58:17</time>
      </trkpt>
      <trkpt lat="45.56254" lon="6.55422">
        <ele>2054.9878</ele>
        <time>2021-01-05T12:58:19</time>
      </trkpt>
      <trkpt lat="45.56255" lon="6.5542">
        <ele>2055.9858</ele>
        <time>2021-01-05T12:58:20</time>
      </trkpt>
      <trkpt lat="45.56257" lon="6.55416">
        <ele>2055.236</ele>
        <time>2021-01-05T12:58:22</time>
      </trkpt>
      <trkpt lat="45.56257" lon="6.55412">
        <ele>2052.5415</ele>
        <time>2021-01-05T12:58:23</time>
      </trkpt>
      <trkpt lat="45.56258" lon="6.55401">
        <ele>2051.1377</ele>
        <time>2021-01-05T12:58:25</time>
      </trkpt>
      <trkpt lat="45.5626" lon="6.55391">
        <ele>2048.2502</ele>
        <time>2021-01-05T12:58:27</time>
      </trkpt>
      <trkpt lat="45.56258" lon="6.55386">
        <ele>2047.4707</ele>
        <time>2021-01-05T12:58:28</time>
      </trkpt>
      <trkpt lat="45.56256" lon="6.55382">
        <ele>2047.1279</ele>
        <time>2021-01-05T12:58:29</time>
      </trkpt>
      <trkpt lat="45.56254" lon="6.55373">
        <ele>2045.741</ele>
        <time>2021-01-05T12:58:31</time>
      </trkpt>
      <trkpt lat="45.56254" lon="6.55362">
        <ele>2044.7969</ele>
        <time>2021-01-05T12:58:33</time>
      </trkpt>
      <trkpt lat="45.56257" lon="6.55342">
        <ele>2046.0425</ele>
        <time>2021-01-05T12:58:38</time>
      </trkpt>
      <trkpt lat="45.56258" lon="6.5534">
        <ele>2043.9028</ele>
        <time>2021-01-05T12:58:39</time>
      </trkpt>
      <trkpt lat="45.56259" lon="6.55338">
        <ele>2043.6108</ele>
        <time>2021-01-05T12:58:40</time>
      </trkpt>
      <trkpt lat="45.5626" lon="6.55337">
        <ele>2040.9062</ele>
        <time>2021-01-05T12:58:42</time>
      </trkpt>
      <trkpt lat="45.56259" lon="6.5534">
        <ele>2036.7148</ele>
        <time>2021-01-05T12:58:45</time>
      </trkpt>
      <trkpt lat="45.56256" lon="6.55343">
        <ele>2034.8152</ele>
        <time>2021-01-05T12:58:50</time>
      </trkpt>
      <trkpt lat="45.56255" lon="6.55341">
        <ele>2031.9619</ele>
        <time>2021-01-05T12:58:52</time>
      </trkpt>
      <trkpt lat="45.56256" lon="6.55338">
        <ele>2137.301</ele>
        <time>2021-01-05T12:58:54</time>
      </trkpt>
      <trkpt lat="45.56255" lon="6.55337">
        <ele>2114.314</ele>
        <time>2021-01-05T12:58:55</time>
      </trkpt>
      <trkpt lat="45.56254" lon="6.55335">
        <ele>2090.3508</ele>
        <time>2021-01-05T12:58:56</time>
      </trkpt>
      <trkpt lat="45.56253" lon="6.55332">
        <ele>2073.7783</ele>
        <time>2021-01-05T12:58:57</time>
      </trkpt>
      <trkpt lat="45.56253" lon="6.5533">
        <ele>2061.8508</ele>
        <time>2021-01-05T12:58:58</time>
      </trkpt>
      <trkpt lat="45.5626" lon="6.55328">
        <ele>2032.8584</ele>
        <time>2021-01-05T12:59:05</time>
      </trkpt>
      <trkpt lat="45.56268" lon="6.55334">
        <ele>2021.0005</ele>
        <time>2021-01-05T12:59:15</time>
      </trkpt>
      <trkpt lat="45.56271" lon="6.55336">
        <ele>2018.1855</ele>
        <time>2021-01-05T12:59:33</time>
      </trkpt>
      <trkpt lat="45.56272" lon="6.55338">
        <ele>2016.9053</ele>
        <time>2021-01-05T12:59:35</time>
      </trkpt>
      <trkpt lat="45.56273" lon="6.55339">
        <ele>2016.0781</ele>
        <time>2021-01-05T12:59:41</time>
      </trkpt>
      <trkpt lat="45.56273" lon="6.55339">
        <ele>2016.8223</ele>
        <time>2021-01-05T12:59:43</time>
      </trkpt>
      <trkpt lat="45.56273" lon="6.5534">
        <ele>2015.6333</ele>
        <time>2021-01-05T12:59:52</time>
      </trkpt>
      <trkpt lat="45.56274" lon="6.55342">
        <ele>2013.8176</ele>
        <time>2021-01-05T12:59:53</time>
      </trkpt>
      <trkpt lat="45.56275" lon="6.55343">
        <ele>2013.1196</ele>
        <time>2021-01-05T12:59:54</time>
      </trkpt>
      <trkpt lat="45.56277" lon="6.55345">
        <ele>2012.7534</ele>
        <time>2021-01-05T12:59:56</time>
      </trkpt>
      <trkpt lat="45.5628" lon="6.55345">
        <ele>2012.5662</ele>
        <time>2021-01-05T13:00:04</time>
      </trkpt>
      <trkpt lat="45.56281" lon="6.55345">
        <ele>2012.127</ele>
        <time>2021-01-05T13:00:05</time>
      </trkpt>
      <trkpt lat="45.56287" lon="6.55348">
        <ele>2011.3584</ele>
        <time>2021-01-05T13:00:07</time>
      </trkpt>
      <trkpt lat="45.56303" lon="6.55359">
        <ele>2011.5762</ele>
        <time>2021-01-05T13:00:15</time>
      </trkpt>
      <trkpt lat="45.56311" lon="6.55359">
        <ele>2009.8481</ele>
        <time>2021-01-05T13:00:18</time>
      </trkpt>
      <trkpt lat="45.56313" lon="6.55358">
        <ele>2010.1772</ele>
        <time>2021-01-05T13:00:19</time>
      </trkpt>
      <trkpt lat="45.56314" lon="6.55355">
        <ele>2010.5015</ele>
        <time>2021-01-05T13:00:22</time>
      </trkpt>
      <trkpt lat="45.56314" lon="6.55353">
        <ele>2011.1777</ele>
        <time>2021-01-05T13:00:27</time>
      </trkpt>
      <trkpt lat="45.56315" lon="6.55352">
        <ele>2010.4993</ele>
        <time>2021-01-05T13:00:28</time>
      </trkpt>
      <trkpt lat="45.56317" lon="6.5535">
        <ele>2009.6604</ele>
        <time>2021-01-05T13:00:29</time>
      </trkpt>
      <trkpt lat="45.56321" lon="6.55344">
        <ele>2009.844</ele>
        <time>2021-01-05T13:00:31</time>
      </trkpt>
      <trkpt lat="45.56321" lon="6.5534">
        <ele>2009.0056</ele>
        <time>2021-01-05T13:00:32</time>
      </trkpt>
      <trkpt lat="45.56319" lon="6.55336">
        <ele>2007.3447</ele>
        <time>2021-01-05T13:00:33</time>
      </trkpt>
      <trkpt lat="45.56318" lon="6.55332">
        <ele>2006.5757</ele>
        <time>2021-01-05T13:00:34</time>
      </trkpt>
      <trkpt lat="45.56317" lon="6.55327">
        <ele>2007.29</ele>
        <time>2021-01-05T13:00:35</time>
      </trkpt>
      <trkpt lat="45.56317" lon="6.55319">
        <ele>2006.5217</ele>
        <time>2021-01-05T13:00:37</time>
      </trkpt>
      <trkpt lat="45.56317" lon="6.55314">
        <ele>2004.7715</ele>
        <time>2021-01-05T13:00:38</time>
      </trkpt>
      <trkpt lat="45.56317" lon="6.55308">
        <ele>2003.6733</ele>
        <time>2021-01-05T13:00:39</time>
      </trkpt>
      <trkpt lat="45.56319" lon="6.55301">
        <ele>2003.1294</ele>
        <time>2021-01-05T13:00:40</time>
      </trkpt>
      <trkpt lat="45.56323" lon="6.55295">
        <ele>2002.7983</ele>
        <time>2021-01-05T13:00:41</time>
      </trkpt>
      <trkpt lat="45.56328" lon="6.55296">
        <ele>2001.4653</ele>
        <time>2021-01-05T13:00:42</time>
      </trkpt>
      <trkpt lat="45.56331" lon="6.5529">
        <ele>2000.6045</ele>
        <time>2021-01-05T13:00:43</time>
      </trkpt>
      <trkpt lat="45.56334" lon="6.55285">
        <ele>1999.2651</ele>
        <time>2021-01-05T13:00:44</time>
      </trkpt>
      <trkpt lat="45.56339" lon="6.5528">
        <ele>1998.2812</ele>
        <time>2021-01-05T13:00:45</time>
      </trkpt>
      <trkpt lat="45.56344" lon="6.55278">
        <ele>1996.1714</ele>
        <time>2021-01-05T13:00:46</time>
      </trkpt>
      <trkpt lat="45.56355" lon="6.5527">
        <ele>1993.9385</ele>
        <time>2021-01-05T13:00:48</time>
      </trkpt>
      <trkpt lat="45.56364" lon="6.55262">
        <ele>1992.1887</ele>
        <time>2021-01-05T13:00:51</time>
      </trkpt>
      <trkpt lat="45.56371" lon="6.55258">
        <ele>1989.7585</ele>
        <time>2021-01-05T13:00:56</time>
      </trkpt>
      <trkpt lat="45.56371" lon="6.55258">
        <ele>1990.0464</ele>
        <time>2021-01-05T13:00:58</time>
      </trkpt>
      <trkpt lat="45.56371" lon="6.55257">
        <ele>1989.5989</ele>
        <time>2021-01-05T13:01:24</time>
      </trkpt>
      <trkpt lat="45.56372" lon="6.55255">
        <ele>1990.7834</ele>
        <time>2021-01-05T13:01:27</time>
      </trkpt>
      <trkpt lat="45.56378" lon="6.5525">
        <ele>1989.7524</ele>
        <time>2021-01-05T13:01:31</time>
      </trkpt>
      <trkpt lat="45.56379" lon="6.55247">
        <ele>1989.5908</ele>
        <time>2021-01-05T13:01:32</time>
      </trkpt>
      <trkpt lat="45.56381" lon="6.55245">
        <ele>1987.0437</ele>
        <time>2021-01-05T13:01:33</time>
      </trkpt>
      <trkpt lat="45.56385" lon="6.55242">
        <ele>1986.3513</ele>
        <time>2021-01-05T13:01:34</time>
      </trkpt>
      <trkpt lat="45.56388" lon="6.5524">
        <ele>1984.737</ele>
        <time>2021-01-05T13:01:35</time>
      </trkpt>
      <trkpt lat="45.56392" lon="6.55239">
        <ele>1981.0825</ele>
        <time>2021-01-05T13:01:36</time>
      </trkpt>
      <trkpt lat="45.56396" lon="6.55238">
        <ele>1981.6589</ele>
        <time>2021-01-05T13:01:37</time>
      </trkpt>
      <trkpt lat="45.56401" lon="6.55239">
        <ele>1980.3262</ele>
        <time>2021-01-05T13:01:38</time>
      </trkpt>
      <trkpt lat="45.56408" lon="6.55237">
        <ele>1977.5427</ele>
        <time>2021-01-05T13:01:40</time>
      </trkpt>
      <trkpt lat="45.5642" lon="6.55239">
        <ele>1973.477</ele>
        <time>2021-01-05T13:01:43</time>
      </trkpt>
      <trkpt lat="45.56428" lon="6.55238">
        <ele>1971.81</ele>
        <time>2021-01-05T13:01:45</time>
      </trkpt>
      <trkpt lat="45.56431" lon="6.55228">
        <ele>1970.4678</ele>
        <time>2021-01-05T13:01:47</time>
      </trkpt>
      <trkpt lat="45.56432" lon="6.55224">
        <ele>1970.7046</ele>
        <time>2021-01-05T13:01:48</time>
      </trkpt>
      <trkpt lat="45.56438" lon="6.55223">
        <ele>1969.8286</ele>
        <time>2021-01-05T13:01:49</time>
      </trkpt>
      <trkpt lat="45.56444" lon="6.55221">
        <ele>1968.5312</ele>
        <time>2021-01-05T13:01:51</time>
      </trkpt>
      <trkpt lat="45.56448" lon="6.55217">
        <ele>1966.6257</ele>
        <time>2021-01-05T13:01:54</time>
      </trkpt>
      <trkpt lat="45.56463" lon="6.55214">
        <ele>1962.7861</ele>
        <time>2021-01-05T13:02:00</time>
      </trkpt>
      <trkpt lat="45.56465" lon="6.55214">
        <ele>1961.4922</ele>
        <time>2021-01-05T13:02:01</time>
      </trkpt>
      <trkpt lat="45.56467" lon="6.55213">
        <ele>1961.2583</ele>
        <time>2021-01-05T13:02:02</time>
      </trkpt>
      <trkpt lat="45.56469" lon="6.55211">
        <ele>1961.8291</ele>
        <time>2021-01-05T13:02:04</time>
      </trkpt>
      <trkpt lat="45.5647" lon="6.55211">
        <ele>1961.4043</ele>
        <time>2021-01-05T13:02:05</time>
      </trkpt>
      <trkpt lat="45.56469" lon="6.5521">
        <ele>1959.5249</ele>
        <time>2021-01-05T13:02:45</time>
      </trkpt>
      <trkpt lat="45.5647" lon="6.5521">
        <ele>1959.2139</ele>
        <time>2021-01-05T13:02:52</time>
      </trkpt>
      <trkpt lat="45.56472" lon="6.55208">
        <ele>1958.3745</ele>
        <time>2021-01-05T13:02:53</time>
      </trkpt>
      <trkpt lat="45.5648" lon="6.55196">
        <ele>1958.4568</ele>
        <time>2021-01-05T13:02:57</time>
      </trkpt>
      <trkpt lat="45.56479" lon="6.55192">
        <ele>1955.709</ele>
        <time>2021-01-05T13:02:58</time>
      </trkpt>
      <trkpt lat="45.56476" lon="6.55189">
        <ele>1955.3984</ele>
        <time>2021-01-05T13:02:59</time>
      </trkpt>
      <trkpt lat="45.5647" lon="6.55185">
        <ele>1955.3027</ele>
        <time>2021-01-05T13:03:01</time>
      </trkpt>
      <trkpt lat="45.5647" lon="6.55181">
        <ele>1953.8474</ele>
        <time>2021-01-05T13:03:02</time>
      </trkpt>
      <trkpt lat="45.56472" lon="6.55176">
        <ele>1953.3281</ele>
        <time>2021-01-05T13:03:03</time>
      </trkpt>
      <trkpt lat="45.56478" lon="6.55168">
        <ele>1952.3848</ele>
        <time>2021-01-05T13:03:05</time>
      </trkpt>
      <trkpt lat="45.56479" lon="6.55165">
        <ele>1952.7837</ele>
        <time>2021-01-05T13:03:06</time>
      </trkpt>
      <trkpt lat="45.56481" lon="6.55148">
        <ele>1953.0225</ele>
        <time>2021-01-05T13:03:09</time>
      </trkpt>
      <trkpt lat="45.5648" lon="6.55143">
        <ele>1951.7302</ele>
        <time>2021-01-05T13:03:10</time>
      </trkpt>
      <trkpt lat="45.56478" lon="6.55139">
        <ele>1949.6919</ele>
        <time>2021-01-05T13:03:11</time>
      </trkpt>
      <trkpt lat="45.56478" lon="6.55133">
        <ele>1947.0471</ele>
        <time>2021-01-05T13:03:12</time>
      </trkpt>
      <trkpt lat="45.56479" lon="6.55129">
        <ele>1945.8369</ele>
        <time>2021-01-05T13:03:13</time>
      </trkpt>
      <trkpt lat="45.56482" lon="6.55126">
        <ele>1943.0996</ele>
        <time>2021-01-05T13:03:14</time>
      </trkpt>
      <trkpt lat="45.56485" lon="6.55125">
        <ele>1940.8928</ele>
        <time>2021-01-05T13:03:15</time>
      </trkpt>
      <trkpt lat="45.56488" lon="6.55122">
        <ele>1941.1924</ele>
        <time>2021-01-05T13:03:17</time>
      </trkpt>
      <trkpt lat="45.56487" lon="6.5512">
        <ele>1939.6978</ele>
        <time>2021-01-05T13:03:18</time>
      </trkpt>
      <trkpt lat="45.56485" lon="6.55119">
        <ele>1938.7651</ele>
        <time>2021-01-05T13:03:19</time>
      </trkpt>
      <trkpt lat="45.5648" lon="6.55118">
        <ele>1937.9097</ele>
        <time>2021-01-05T13:03:21</time>
      </trkpt>
      <trkpt lat="45.56478" lon="6.55118">
        <ele>1936.6399</ele>
        <time>2021-01-05T13:03:22</time>
      </trkpt>
      <trkpt lat="45.56479" lon="6.55115">
        <ele>1938.0076</ele>
        <time>2021-01-05T13:03:23</time>
      </trkpt>
      <trkpt lat="45.56481" lon="6.5511">
        <ele>1938.2603</ele>
        <time>2021-01-05T13:03:24</time>
      </trkpt>
      <trkpt lat="45.56483" lon="6.55105">
        <ele>1937.9683</ele>
        <time>2021-01-05T13:03:26</time>
      </trkpt>
      <trkpt lat="45.56482" lon="6.55103">
        <ele>1937.4272</ele>
        <time>2021-01-05T13:03:27</time>
      </trkpt>
      <trkpt lat="45.56481" lon="6.551">
        <ele>1934.8867</ele>
        <time>2021-01-05T13:03:28</time>
      </trkpt>
      <trkpt lat="45.56481" lon="6.55097">
        <ele>1933.6687</ele>
        <time>2021-01-05T13:03:29</time>
      </trkpt>
      <trkpt lat="45.56482" lon="6.55095">
        <ele>1931.9377</ele>
        <time>2021-01-05T13:03:30</time>
      </trkpt>
      <trkpt lat="45.56483" lon="6.55094">
        <ele>1931.0034</ele>
        <time>2021-01-05T13:03:31</time>
      </trkpt>
      <trkpt lat="45.56484" lon="6.55093">
        <ele>1930.9556</ele>
        <time>2021-01-05T13:03:32</time>
      </trkpt>
      <trkpt lat="45.56485" lon="6.5509">
        <ele>1930.1011</ele>
        <time>2021-01-05T13:03:33</time>
      </trkpt>
      <trkpt lat="45.56485" lon="6.55088">
        <ele>1929.9175</ele>
        <time>2021-01-05T13:03:34</time>
      </trkpt>
      <trkpt lat="45.56485" lon="6.55088">
        <ele>1929.5051</ele>
        <time>2021-01-05T13:03:35</time>
      </trkpt>
      <trkpt lat="45.56485" lon="6.55089">
        <ele>1928.4536</ele>
        <time>2021-01-05T13:03:38</time>
      </trkpt>
      <trkpt lat="45.56485" lon="6.55086">
        <ele>1927.2891</ele>
        <time>2021-01-05T13:03:39</time>
      </trkpt>
      <trkpt lat="45.56486" lon="6.55082">
        <ele>1924.416</ele>
        <time>2021-01-05T13:03:40</time>
      </trkpt>
      <trkpt lat="45.56488" lon="6.5508">
        <ele>1924.3423</ele>
        <time>2021-01-05T13:03:41</time>
      </trkpt>
      <trkpt lat="45.5649" lon="6.55075">
        <ele>1923.6279</ele>
        <time>2021-01-05T13:03:43</time>
      </trkpt>
      <trkpt lat="45.56489" lon="6.55073">
        <ele>1921.0876</ele>
        <time>2021-01-05T13:03:44</time>
      </trkpt>
      <trkpt lat="45.56488" lon="6.55071">
        <ele>1921.1724</ele>
        <time>2021-01-05T13:03:45</time>
      </trkpt>
      <trkpt lat="45.56487" lon="6.55068">
        <ele>1919.1711</ele>
        <time>2021-01-05T13:03:48</time>
      </trkpt>
      <trkpt lat="45.56484" lon="6.55063">
        <ele>1916.1714</ele>
        <time>2021-01-05T13:03:53</time>
      </trkpt>
      <trkpt lat="45.56484" lon="6.55063">
        <ele>1917.1472</ele>
        <time>2021-01-05T13:03:54</time>
      </trkpt>
      <trkpt lat="45.56484" lon="6.5506">
        <ele>1916.144</ele>
        <time>2021-01-05T13:03:55</time>
      </trkpt>
      <trkpt lat="45.56485" lon="6.55057">
        <ele>1913.6292</ele>
        <time>2021-01-05T13:03:56</time>
      </trkpt>
      <trkpt lat="45.56487" lon="6.55052">
        <ele>1914.9058</ele>
        <time>2021-01-05T13:03:58</time>
      </trkpt>
      <trkpt lat="45.56484" lon="6.55048">
        <ele>1911.6201</ele>
        <time>2021-01-05T13:04:02</time>
      </trkpt>
      <trkpt lat="45.56481" lon="6.55043">
        <ele>1909.3223</ele>
        <time>2021-01-05T13:04:07</time>
      </trkpt>
      <trkpt lat="45.56481" lon="6.55041">
        <ele>1907.2947</ele>
        <time>2021-01-05T13:04:08</time>
      </trkpt>
      <trkpt lat="45.56482" lon="6.55037">
        <ele>1907.9922</ele>
        <time>2021-01-05T13:04:09</time>
      </trkpt>
      <trkpt lat="45.56482" lon="6.55033">
        <ele>1907.065</ele>
        <time>2021-01-05T13:04:10</time>
      </trkpt>
      <trkpt lat="45.56481" lon="6.5503">
        <ele>1905.5713</ele>
        <time>2021-01-05T13:04:11</time>
      </trkpt>
      <trkpt lat="45.5648" lon="6.55029">
        <ele>1906.7639</ele>
        <time>2021-01-05T13:04:12</time>
      </trkpt>
      <trkpt lat="45.56479" lon="6.55028">
        <ele>1784.5991</ele>
        <time>2021-01-05T13:04:17</time>
      </trkpt>
      <trkpt lat="45.56479" lon="6.55027">
        <ele>1808.2561</ele>
        <time>2021-01-05T13:04:18</time>
      </trkpt>
      <trkpt lat="45.56479" lon="6.55025">
        <ele>1819.3765</ele>
        <time>2021-01-05T13:04:19</time>
      </trkpt>
      <trkpt lat="45.56478" lon="6.55024">
        <ele>1824.9155</ele>
        <time>2021-01-05T13:04:20</time>
      </trkpt>
      <trkpt lat="45.56478" lon="6.55023">
        <ele>1837.8701</ele>
        <time>2021-01-05T13:04:21</time>
      </trkpt>
      <trkpt lat="45.56478" lon="6.55023">
        <ele>1901.7734</ele>
        <time>2021-01-05T13:04:51</time>
      </trkpt>
      <trkpt lat="45.56479" lon="6.55022">
        <ele>1900.396</ele>
        <time>2021-01-05T13:04:52</time>
      </trkpt>
      <trkpt lat="45.56481" lon="6.55019">
        <ele>1901.2549</ele>
        <time>2021-01-05T13:04:54</time>
      </trkpt>
      <trkpt lat="45.56481" lon="6.55016">
        <ele>1901.4517</ele>
        <time>2021-01-05T13:04:56</time>
      </trkpt>
      <trkpt lat="45.56479" lon="6.5501">
        <ele>1900.9663</ele>
        <time>2021-01-05T13:04:59</time>
      </trkpt>
      <trkpt lat="45.56479" lon="6.55007">
        <ele>1899.752</ele>
        <time>2021-01-05T13:05:00</time>
      </trkpt>
      <trkpt lat="45.56481" lon="6.55003">
        <ele>1901.1289</ele>
        <time>2021-01-05T13:05:01</time>
      </trkpt>
      <trkpt lat="45.56481" lon="6.54997">
        <ele>1900.0864</ele>
        <time>2021-01-05T13:05:03</time>
      </trkpt>
      <trkpt lat="45.56479" lon="6.54995">
        <ele>1899.5989</ele>
        <time>2021-01-05T13:05:04</time>
      </trkpt>
      <trkpt lat="45.56477" lon="6.54994">
        <ele>1899.4136</ele>
        <time>2021-01-05T13:05:05</time>
      </trkpt>
      <trkpt lat="45.56476" lon="6.54991">
        <ele>1898.3594</ele>
        <time>2021-01-05T13:05:06</time>
      </trkpt>
      <trkpt lat="45.5648" lon="6.54982">
        <ele>1897.0786</ele>
        <time>2021-01-05T13:05:08</time>
      </trkpt>
      <trkpt lat="45.56481" lon="6.54979">
        <ele>1897.061</ele>
        <time>2021-01-05T13:05:09</time>
      </trkpt>
      <trkpt lat="45.56475" lon="6.54972">
        <ele>1895.5837</ele>
        <time>2021-01-05T13:05:12</time>
      </trkpt>
      <trkpt lat="45.56474" lon="6.54968">
        <ele>1895.1611</ele>
        <time>2021-01-05T13:05:13</time>
      </trkpt>
      <trkpt lat="45.56473" lon="6.54963">
        <ele>1894.5103</ele>
        <time>2021-01-05T13:05:14</time>
      </trkpt>
      <trkpt lat="45.56475" lon="6.54956">
        <ele>1893.2891</ele>
        <time>2021-01-05T13:05:15</time>
      </trkpt>
      <trkpt lat="45.56472" lon="6.54951">
        <ele>1893.0454</ele>
        <time>2021-01-05T13:05:17</time>
      </trkpt>
      <trkpt lat="45.5647" lon="6.54949">
        <ele>1892.0596</ele>
        <time>2021-01-05T13:05:18</time>
      </trkpt>
      <trkpt lat="45.56469" lon="6.54946">
        <ele>1891.5474</ele>
        <time>2021-01-05T13:05:19</time>
      </trkpt>
      <trkpt lat="45.56468" lon="6.54941">
        <ele>1891.9375</ele>
        <time>2021-01-05T13:05:20</time>
      </trkpt>
      <trkpt lat="45.56468" lon="6.54937">
        <ele>1892.7422</ele>
        <time>2021-01-05T13:05:21</time>
      </trkpt>
      <trkpt lat="45.56467" lon="6.54935">
        <ele>1892.0928</ele>
        <time>2021-01-05T13:05:22</time>
      </trkpt>
      <trkpt lat="45.56467" lon="6.54931">
        <ele>1893.533</ele>
        <time>2021-01-05T13:05:23</time>
      </trkpt>
      <trkpt lat="45.56466" lon="6.54928">
        <ele>1893.2969</ele>
        <time>2021-01-05T13:05:24</time>
      </trkpt>
      <trkpt lat="45.56464" lon="6.54923">
        <ele>1892.718</ele>
        <time>2021-01-05T13:05:26</time>
      </trkpt>
      <trkpt lat="45.5646" lon="6.54912">
        <ele>1892.8516</ele>
        <time>2021-01-05T13:05:30</time>
      </trkpt>
      <trkpt lat="45.56459" lon="6.5491">
        <ele>1892.3398</ele>
        <time>2021-01-05T13:05:31</time>
      </trkpt>
      <trkpt lat="45.56459" lon="6.54893">
        <ele>1895.0925</ele>
        <time>2021-01-05T13:05:43</time>
      </trkpt>
      <trkpt lat="45.56459" lon="6.54893">
        <ele>1892.6919</ele>
        <time>2021-01-05T13:06:04</time>
      </trkpt>
      <trkpt lat="45.56459" lon="6.54892">
        <ele>1895.2566</ele>
        <time>2021-01-05T13:06:05</time>
      </trkpt>
      <trkpt lat="45.56459" lon="6.54891">
        <ele>1893.9897</ele>
        <time>2021-01-05T13:06:06</time>
      </trkpt>
      <trkpt lat="45.56458" lon="6.54891">
        <ele>1892.2583</ele>
        <time>2021-01-05T13:06:08</time>
      </trkpt>
      <trkpt lat="45.56458" lon="6.54891">
        <ele>1892.4478</ele>
        <time>2021-01-05T13:06:09</time>
      </trkpt>
      <trkpt lat="45.56461" lon="6.54887">
        <ele>1887.9578</ele>
        <time>2021-01-05T13:06:15</time>
      </trkpt>
      <trkpt lat="45.56474" lon="6.54873">
        <ele>1689.0894</ele>
        <time>2021-01-05T13:06:25</time>
      </trkpt>
      <trkpt lat="45.56474" lon="6.54873">
        <ele>1808.0337</ele>
        <time>2021-01-05T13:06:29</time>
      </trkpt>
      <trkpt lat="45.56473" lon="6.54872">
        <ele>1839.0747</ele>
        <time>2021-01-05T13:06:31</time>
      </trkpt>
      <trkpt lat="45.5647" lon="6.54872">
        <ele>1856.1494</ele>
        <time>2021-01-05T13:06:33</time>
      </trkpt>
      <trkpt lat="45.56468" lon="6.54872">
        <ele>1862.2107</ele>
        <time>2021-01-05T13:06:34</time>
      </trkpt>
      <trkpt lat="45.56463" lon="6.54875">
        <ele>1866.9531</ele>
        <time>2021-01-05T13:06:37</time>
      </trkpt>
      <trkpt lat="45.5646" lon="6.54875">
        <ele>1866.8999</ele>
        <time>2021-01-05T13:06:39</time>
      </trkpt>
      <trkpt lat="45.56458" lon="6.54875">
        <ele>1866.5254</ele>
        <time>2021-01-05T13:06:40</time>
      </trkpt>
      <trkpt lat="45.5645" lon="6.54876">
        <ele>1864.6226</ele>
        <time>2021-01-05T13:06:43</time>
      </trkpt>
      <trkpt lat="45.56447" lon="6.54875">
        <ele>1864.9226</ele>
        <time>2021-01-05T13:06:45</time>
      </trkpt>
      <trkpt lat="45.56444" lon="6.54873">
        <ele>1864.0654</ele>
        <time>2021-01-05T13:06:49</time>
      </trkpt>
      <trkpt lat="45.56443" lon="6.54872">
        <ele>1863.854</ele>
        <time>2021-01-05T13:06:50</time>
      </trkpt>
      <trkpt lat="45.56442" lon="6.54868">
        <ele>1861.6855</ele>
        <time>2021-01-05T13:06:52</time>
      </trkpt>
      <trkpt lat="45.56444" lon="6.54866">
        <ele>1860.2676</ele>
        <time>2021-01-05T13:06:54</time>
      </trkpt>
      <trkpt lat="45.56447" lon="6.54865">
        <ele>1860.229</ele>
        <time>2021-01-05T13:06:55</time>
      </trkpt>
      <trkpt lat="45.56449" lon="6.54863">
        <ele>1860.7319</ele>
        <time>2021-01-05T13:06:56</time>
      </trkpt>
      <trkpt lat="45.5645" lon="6.54862">
        <ele>1860.6309</ele>
        <time>2021-01-05T13:06:57</time>
      </trkpt>
      <trkpt lat="45.5645" lon="6.54862">
        <ele>1858.3862</ele>
        <time>2021-01-05T13:07:03</time>
      </trkpt>
      <trkpt lat="45.56449" lon="6.54859">
        <ele>1860.0449</ele>
        <time>2021-01-05T13:07:05</time>
      </trkpt>
      <trkpt lat="45.56448" lon="6.54856">
        <ele>1859.4128</ele>
        <time>2021-01-05T13:07:06</time>
      </trkpt>
      <trkpt lat="45.56447" lon="6.54854">
        <ele>1859.7598</ele>
        <time>2021-01-05T13:07:07</time>
      </trkpt>
      <trkpt lat="45.56443" lon="6.54853">
        <ele>1858.8665</ele>
        <time>2021-01-05T13:07:09</time>
      </trkpt>
      <trkpt lat="45.5644" lon="6.54852">
        <ele>1858.7358</ele>
        <time>2021-01-05T13:07:10</time>
      </trkpt>
      <trkpt lat="45.56438" lon="6.54843">
        <ele>1856.7158</ele>
        <time>2021-01-05T13:07:11</time>
      </trkpt>
      <trkpt lat="45.56435" lon="6.54838">
        <ele>1855.644</ele>
        <time>2021-01-05T13:07:12</time>
      </trkpt>
      <trkpt lat="45.56432" lon="6.54836">
        <ele>1856.5137</ele>
        <time>2021-01-05T13:07:13</time>
      </trkpt>
      <trkpt lat="45.56428" lon="6.5483">
        <ele>1856.0078</ele>
        <time>2021-01-05T13:07:15</time>
      </trkpt>
      <trkpt lat="45.56421" lon="6.54814">
        <ele>1855.6499</ele>
        <time>2021-01-05T13:07:18</time>
      </trkpt>
      <trkpt lat="45.56418" lon="6.54812">
        <ele>1852.9507</ele>
        <time>2021-01-05T13:07:19</time>
      </trkpt>
      <trkpt lat="45.56407" lon="6.54806">
        <ele>1850.1262</ele>
        <time>2021-01-05T13:07:22</time>
      </trkpt>
      <trkpt lat="45.56403" lon="6.54803">
        <ele>1848.7749</ele>
        <time>2021-01-05T13:07:23</time>
      </trkpt>
      <trkpt lat="45.56383" lon="6.54783">
        <ele>1846.3955</ele>
        <time>2021-01-05T13:07:28</time>
      </trkpt>
      <trkpt lat="45.5638" lon="6.54783">
        <ele>1847.0276</ele>
        <time>2021-01-05T13:07:29</time>
      </trkpt>
      <trkpt lat="45.56379" lon="6.54784">
        <ele>1847.1602</ele>
        <time>2021-01-05T13:07:30</time>
      </trkpt>
      <trkpt lat="45.56376" lon="6.54782">
        <ele>1846.6782</ele>
        <time>2021-01-05T13:07:32</time>
      </trkpt>
      <trkpt lat="45.56375" lon="6.54779">
        <ele>1846.2246</ele>
        <time>2021-01-05T13:07:33</time>
      </trkpt>
      <trkpt lat="45.56375" lon="6.54774">
        <ele>1845.1194</ele>
        <time>2021-01-05T13:07:34</time>
      </trkpt>
      <trkpt lat="45.56372" lon="6.5477">
        <ele>1845.167</ele>
        <time>2021-01-05T13:07:35</time>
      </trkpt>
      <trkpt lat="45.56366" lon="6.54761">
        <ele>1844.4407</ele>
        <time>2021-01-05T13:07:37</time>
      </trkpt>
      <trkpt lat="45.56363" lon="6.54759">
        <ele>1844.0977</ele>
        <time>2021-01-05T13:07:38</time>
      </trkpt>
      <trkpt lat="45.56361" lon="6.54757">
        <ele>1842.9768</ele>
        <time>2021-01-05T13:07:39</time>
      </trkpt>
      <trkpt lat="45.5636" lon="6.54753">
        <ele>1837.5471</ele>
        <time>2021-01-05T13:07:40</time>
      </trkpt>
      <trkpt lat="45.5636" lon="6.54747">
        <ele>1837.6125</ele>
        <time>2021-01-05T13:07:41</time>
      </trkpt>
      <trkpt lat="45.56362" lon="6.54741">
        <ele>1837.2627</ele>
        <time>2021-01-05T13:07:42</time>
      </trkpt>
      <trkpt lat="45.56363" lon="6.54738">
        <ele>1837.2119</ele>
        <time>2021-01-05T13:07:43</time>
      </trkpt>
      <trkpt lat="45.56362" lon="6.54737">
        <ele>1836.2881</ele>
        <time>2021-01-05T13:07:44</time>
      </trkpt>
      <trkpt lat="45.56359" lon="6.54735">
        <ele>1834.9126</ele>
        <time>2021-01-05T13:07:45</time>
      </trkpt>
      <trkpt lat="45.56354" lon="6.54736">
        <ele>1833.9966</ele>
        <time>2021-01-05T13:07:46</time>
      </trkpt>
      <trkpt lat="45.56348" lon="6.54728">
        <ele>1832.8213</ele>
        <time>2021-01-05T13:07:48</time>
      </trkpt>
      <trkpt lat="45.56324" lon="6.54691">
        <ele>1827.48</ele>
        <time>2021-01-05T13:07:55</time>
      </trkpt>
      <trkpt lat="45.56318" lon="6.54686">
        <ele>1826.4163</ele>
        <time>2021-01-05T13:07:57</time>
      </trkpt>
      <trkpt lat="45.56317" lon="6.54686">
        <ele>1826.6821</ele>
        <time>2021-01-05T13:07:58</time>
      </trkpt>
      <trkpt lat="45.56317" lon="6.5469">
        <ele>1825.2307</ele>
        <time>2021-01-05T13:08:28</time>
      </trkpt>
      <trkpt lat="45.56317" lon="6.5469">
        <ele>1825.209</ele>
        <time>2021-01-05T13:09:02</time>
      </trkpt>
      <trkpt lat="45.56317" lon="6.5469">
        <ele>1824.854</ele>
        <time>2021-01-05T13:09:53</time>
      </trkpt>
      <trkpt lat="45.56317" lon="6.5469">
        <ele>1823.406</ele>
        <time>2021-01-05T13:11:04</time>
      </trkpt>
      <trkpt lat="45.56317" lon="6.5469">
        <ele>1823.8433</ele>
        <time>2021-01-05T13:11:55</time>
      </trkpt>
      <trkpt lat="45.56316" lon="6.54691">
        <ele>1822.1738</ele>
        <time>2021-01-05T13:11:56</time>
      </trkpt>
      <trkpt lat="45.56307" lon="6.54687">
        <ele>1816.6113</ele>
        <time>2021-01-05T13:12:02</time>
      </trkpt>
      <trkpt lat="45.56307" lon="6.54687">
        <ele>1815.7385</ele>
        <time>2021-01-05T13:12:03</time>
      </trkpt>
      <trkpt lat="45.56307" lon="6.54684">
        <ele>1816.1753</ele>
        <time>2021-01-05T13:12:04</time>
      </trkpt>
      <trkpt lat="45.56306" lon="6.54682">
        <ele>1816.4414</ele>
        <time>2021-01-05T13:12:05</time>
      </trkpt>
      <trkpt lat="45.56306" lon="6.54678">
        <ele>1816.4888</ele>
        <time>2021-01-05T13:12:08</time>
      </trkpt>
      <trkpt lat="45.56306" lon="6.54676">
        <ele>1814.6523</ele>
        <time>2021-01-05T13:12:09</time>
      </trkpt>
      <trkpt lat="45.56306" lon="6.5467">
        <ele>1809.0347</ele>
        <time>2021-01-05T13:12:11</time>
      </trkpt>
      <trkpt lat="45.56303" lon="6.54667">
        <ele>1807.8789</ele>
        <time>2021-01-05T13:12:12</time>
      </trkpt>
      <trkpt lat="45.56299" lon="6.54665">
        <ele>1805.731</ele>
        <time>2021-01-05T13:12:13</time>
      </trkpt>
      <trkpt lat="45.56293" lon="6.54665">
        <ele>1803.4683</ele>
        <time>2021-01-05T13:12:14</time>
      </trkpt>
      <trkpt lat="45.5627" lon="6.54657">
        <ele>1805.3354</ele>
        <time>2021-01-05T13:12:20</time>
      </trkpt>
      <trkpt lat="45.56261" lon="6.54651">
        <ele>1804.8193</ele>
        <time>2021-01-05T13:12:22</time>
      </trkpt>
      <trkpt lat="45.56251" lon="6.54642">
        <ele>1790.1462</ele>
        <time>2021-01-05T13:12:26</time>
      </trkpt>
      <trkpt lat="45.56249" lon="6.54644">
        <ele>1794.5608</ele>
        <time>2021-01-05T13:12:27</time>
      </trkpt>
      <trkpt lat="45.56243" lon="6.54645">
        <ele>1793.4019</ele>
        <time>2021-01-05T13:12:29</time>
      </trkpt>
      <trkpt lat="45.56238" lon="6.54642">
        <ele>1794.0383</ele>
        <time>2021-01-05T13:12:30</time>
      </trkpt>
      <trkpt lat="45.56234" lon="6.54638">
        <ele>1794.2571</ele>
        <time>2021-01-05T13:12:31</time>
      </trkpt>
      <trkpt lat="45.5623" lon="6.54632">
        <ele>1794.6777</ele>
        <time>2021-01-05T13:12:32</time>
      </trkpt>
      <trkpt lat="45.56226" lon="6.54627">
        <ele>1793.9697</ele>
        <time>2021-01-05T13:12:33</time>
      </trkpt>
      <trkpt lat="45.56224" lon="6.54623">
        <ele>1793.9937</ele>
        <time>2021-01-05T13:12:34</time>
      </trkpt>
      <trkpt lat="45.56222" lon="6.5462">
        <ele>1794.0371</ele>
        <time>2021-01-05T13:12:35</time>
      </trkpt>
      <trkpt lat="45.5622" lon="6.5462">
        <ele>1792.5596</ele>
        <time>2021-01-05T13:12:36</time>
      </trkpt>
      <trkpt lat="45.56216" lon="6.54618">
        <ele>1791.9287</ele>
        <time>2021-01-05T13:12:37</time>
      </trkpt>
      <trkpt lat="45.56213" lon="6.54612">
        <ele>1790.3335</ele>
        <time>2021-01-05T13:12:38</time>
      </trkpt>
      <trkpt lat="45.56208" lon="6.54611">
        <ele>1787.5371</ele>
        <time>2021-01-05T13:12:39</time>
      </trkpt>
      <trkpt lat="45.56203" lon="6.54607">
        <ele>1786.3838</ele>
        <time>2021-01-05T13:12:40</time>
      </trkpt>
      <trkpt lat="45.56184" lon="6.54593">
        <ele>1784.011</ele>
        <time>2021-01-05T13:12:44</time>
      </trkpt>
      <trkpt lat="45.5618" lon="6.54592">
        <ele>1782.3447</ele>
        <time>2021-01-05T13:12:45</time>
      </trkpt>
      <trkpt lat="45.56176" lon="6.5459">
        <ele>1782.3052</ele>
        <time>2021-01-05T13:12:46</time>
      </trkpt>
      <trkpt lat="45.5617" lon="6.54585">
        <ele>1783.5088</ele>
        <time>2021-01-05T13:12:48</time>
      </trkpt>
      <trkpt lat="45.56141" lon="6.54559">
        <ele>1755.3877</ele>
        <time>2021-01-05T13:12:57</time>
      </trkpt>
      <trkpt lat="45.56135" lon="6.54555">
        <ele>1764.9541</ele>
        <time>2021-01-05T13:12:59</time>
      </trkpt>
      <trkpt lat="45.56126" lon="6.54549">
        <ele>1774.7188</ele>
        <time>2021-01-05T13:13:05</time>
      </trkpt>
      <trkpt lat="45.56106" lon="6.54529">
        <ele>1772.9492</ele>
        <time>2021-01-05T13:13:14</time>
      </trkpt>
      <trkpt lat="45.56102" lon="6.54521">
        <ele>1772.9756</ele>
        <time>2021-01-05T13:13:16</time>
      </trkpt>
      <trkpt lat="45.56075" lon="6.54467">
        <ele>1770.5786</ele>
        <time>2021-01-05T13:13:28</time>
      </trkpt>
      <trkpt lat="45.56068" lon="6.54455">
        <ele>1766.7856</ele>
        <time>2021-01-05T13:13:36</time>
      </trkpt>
      <trkpt lat="45.56068" lon="6.54454">
        <ele>1752.7056</ele>
        <time>2021-01-05T13:14:05</time>
      </trkpt>
      <trkpt lat="45.56068" lon="6.54454">
        <ele>1754.0181</ele>
        <time>2021-01-05T13:14:06</time>
      </trkpt>
      <trkpt lat="45.56068" lon="6.54454">
        <ele>1763.9482</ele>
        <time>2021-01-05T13:14:11</time>
      </trkpt>
      <trkpt lat="45.56068" lon="6.54453">
        <ele>1764.5376</ele>
        <time>2021-01-05T13:14:12</time>
      </trkpt>
      <trkpt lat="45.56069" lon="6.54454">
        <ele>1761.3877</ele>
        <time>2021-01-05T13:14:42</time>
      </trkpt>
      <trkpt lat="45.56069" lon="6.54454">
        <ele>1767.459</ele>
        <time>2021-01-05T13:15:12</time>
      </trkpt>
      <trkpt lat="45.56069" lon="6.54454">
        <ele>1767.9336</ele>
        <time>2021-01-05T13:15:42</time>
      </trkpt>
      <trkpt lat="45.56069" lon="6.54454">
        <ele>1767.9165</ele>
        <time>2021-01-05T13:16:12</time>
      </trkpt>
      <trkpt lat="45.56069" lon="6.54454">
        <ele>1764.5991</ele>
        <time>2021-01-05T13:16:43</time>
      </trkpt>
      <trkpt lat="45.56068" lon="6.54455">
        <ele>1764.956</ele>
        <time>2021-01-05T13:16:44</time>
      </trkpt>
      <trkpt lat="45.56068" lon="6.54456">
        <ele>1766.9714</ele>
        <time>2021-01-05T13:17:07</time>
      </trkpt>
      <trkpt lat="45.56067" lon="6.54454">
        <ele>1766.1138</ele>
        <time>2021-01-05T13:17:10</time>
      </trkpt>
      <trkpt lat="45.56066" lon="6.5445">
        <ele>1764.9194</ele>
        <time>2021-01-05T13:17:12</time>
      </trkpt>
      <trkpt lat="45.56064" lon="6.54442">
        <ele>1763.6719</ele>
        <time>2021-01-05T13:17:15</time>
      </trkpt>
      <trkpt lat="45.56061" lon="6.54435">
        <ele>1761.7988</ele>
        <time>2021-01-05T13:17:17</time>
      </trkpt>
      <trkpt lat="45.56033" lon="6.54406">
        <ele>1755.5986</ele>
        <time>2021-01-05T13:17:22</time>
      </trkpt>
      <trkpt lat="45.56005" lon="6.54387">
        <ele>1754.9941</ele>
        <time>2021-01-05T13:17:27</time>
      </trkpt>
      <trkpt lat="45.5598" lon="6.54374">
        <ele>1754.854</ele>
        <time>2021-01-05T13:17:33</time>
      </trkpt>
      <trkpt lat="45.55969" lon="6.54365">
        <ele>1755.2007</ele>
        <time>2021-01-05T13:17:37</time>
      </trkpt>
      <trkpt lat="45.55963" lon="6.54359">
        <ele>1755.02</ele>
        <time>2021-01-05T13:17:39</time>
      </trkpt>
      <trkpt lat="45.55945" lon="6.54335">
        <ele>1754.5525</ele>
        <time>2021-01-05T13:17:44</time>
      </trkpt>
      <trkpt lat="45.55935" lon="6.54327">
        <ele>1753.0303</ele>
        <time>2021-01-05T13:17:46</time>
      </trkpt>
      <trkpt lat="45.55912" lon="6.54309">
        <ele>1740.6841</ele>
        <time>2021-01-05T13:17:51</time>
      </trkpt>
      <trkpt lat="45.5591" lon="6.54304">
        <ele>1745.0327</ele>
        <time>2021-01-05T13:17:52</time>
      </trkpt>
      <trkpt lat="45.55907" lon="6.54299">
        <ele>1746.8582</ele>
        <time>2021-01-05T13:17:53</time>
      </trkpt>
      <trkpt lat="45.55907" lon="6.54292">
        <ele>1746.5029</ele>
        <time>2021-01-05T13:17:54</time>
      </trkpt>
      <trkpt lat="45.559" lon="6.5424">
        <ele>1745.4089</ele>
        <time>2021-01-05T13:18:03</time>
      </trkpt>
      <trkpt lat="45.55896" lon="6.5423">
        <ele>1745.5</ele>
        <time>2021-01-05T13:18:05</time>
      </trkpt>
      <trkpt lat="45.55882" lon="6.54206">
        <ele>1744.3525</ele>
        <time>2021-01-05T13:18:09</time>
      </trkpt>
      <trkpt lat="45.55873" lon="6.54194">
        <ele>1743.0591</ele>
        <time>2021-01-05T13:18:11</time>
      </trkpt>
      <trkpt lat="45.55847" lon="6.54159">
        <ele>1742.1606</ele>
        <time>2021-01-05T13:18:17</time>
      </trkpt>
      <trkpt lat="45.55833" lon="6.54139">
        <ele>1741.1113</ele>
        <time>2021-01-05T13:18:22</time>
      </trkpt>
      <trkpt lat="45.5583" lon="6.54137">
        <ele>1740.6912</ele>
        <time>2021-01-05T13:18:23</time>
      </trkpt>
      <trkpt lat="45.55822" lon="6.54134">
        <ele>1739.2471</ele>
        <time>2021-01-05T13:18:25</time>
      </trkpt>
      <trkpt lat="45.55786" lon="6.54118">
        <ele>1736.3315</ele>
        <time>2021-01-05T13:18:32</time>
      </trkpt>
      <trkpt lat="45.55755" lon="6.54098">
        <ele>1736.1016</ele>
        <time>2021-01-05T13:18:39</time>
      </trkpt>
      <trkpt lat="45.55749" lon="6.54096">
        <ele>1735.5762</ele>
        <time>2021-01-05T13:18:40</time>
      </trkpt>
      <trkpt lat="45.55746" lon="6.54092">
        <ele>1735.6716</ele>
        <time>2021-01-05T13:18:41</time>
      </trkpt>
      <trkpt lat="45.55736" lon="6.54085">
        <ele>1734.7864</ele>
        <time>2021-01-05T13:18:43</time>
      </trkpt>
      <trkpt lat="45.5573" lon="6.54079">
        <ele>1732.5107</ele>
        <time>2021-01-05T13:18:44</time>
      </trkpt>
      <trkpt lat="45.55724" lon="6.54075">
        <ele>1731.3054</ele>
        <time>2021-01-05T13:18:45</time>
      </trkpt>
      <trkpt lat="45.55718" lon="6.54072">
        <ele>1730.3862</ele>
        <time>2021-01-05T13:18:46</time>
      </trkpt>
      <trkpt lat="45.55709" lon="6.54064">
        <ele>1729.1035</ele>
        <time>2021-01-05T13:18:48</time>
      </trkpt>
      <trkpt lat="45.55705" lon="6.54061">
        <ele>1727.5376</ele>
        <time>2021-01-05T13:18:49</time>
      </trkpt>
      <trkpt lat="45.55699" lon="6.54056">
        <ele>1726.9719</ele>
        <time>2021-01-05T13:18:50</time>
      </trkpt>
      <trkpt lat="45.55696" lon="6.5405">
        <ele>1727.6404</ele>
        <time>2021-01-05T13:18:51</time>
      </trkpt>
      <trkpt lat="45.55688" lon="6.54041">
        <ele>1725.625</ele>
        <time>2021-01-05T13:18:53</time>
      </trkpt>
      <trkpt lat="45.55686" lon="6.54036">
        <ele>1724.2954</ele>
        <time>2021-01-05T13:18:54</time>
      </trkpt>
      <trkpt lat="45.55684" lon="6.54031">
        <ele>1722.3936</ele>
        <time>2021-01-05T13:18:55</time>
      </trkpt>
      <trkpt lat="45.5568" lon="6.54026">
        <ele>1721.3496</ele>
        <time>2021-01-05T13:18:56</time>
      </trkpt>
      <trkpt lat="45.55677" lon="6.54022">
        <ele>1720.8818</ele>
        <time>2021-01-05T13:18:57</time>
      </trkpt>
      <trkpt lat="45.55676" lon="6.54014">
        <ele>1720.7593</ele>
        <time>2021-01-05T13:18:58</time>
      </trkpt>
      <trkpt lat="45.5567" lon="6.53997">
        <ele>1719.9905</ele>
        <time>2021-01-05T13:19:00</time>
      </trkpt>
      <trkpt lat="45.55663" lon="6.53979">
        <ele>1719.8774</ele>
        <time>2021-01-05T13:19:03</time>
      </trkpt>
      <trkpt lat="45.55661" lon="6.53972">
        <ele>1718.6636</ele>
        <time>2021-01-05T13:19:04</time>
      </trkpt>
      <trkpt lat="45.55658" lon="6.53966">
        <ele>1716.8647</ele>
        <time>2021-01-05T13:19:05</time>
      </trkpt>
      <trkpt lat="45.55655" lon="6.53962">
        <ele>1715.1992</ele>
        <time>2021-01-05T13:19:06</time>
      </trkpt>
      <trkpt lat="45.55655" lon="6.53956">
        <ele>1716.6392</ele>
        <time>2021-01-05T13:19:07</time>
      </trkpt>
      <trkpt lat="45.55652" lon="6.53945">
        <ele>1715.855</ele>
        <time>2021-01-05T13:19:09</time>
      </trkpt>
      <trkpt lat="45.55647" lon="6.53943">
        <ele>1715.051</ele>
        <time>2021-01-05T13:19:10</time>
      </trkpt>
      <trkpt lat="45.55644" lon="6.53938">
        <ele>1714.5518</ele>
        <time>2021-01-05T13:19:11</time>
      </trkpt>
      <trkpt lat="45.55641" lon="6.53935">
        <ele>1714.044</ele>
        <time>2021-01-05T13:19:12</time>
      </trkpt>
      <trkpt lat="45.55633" lon="6.53927">
        <ele>1709.8274</ele>
        <time>2021-01-05T13:19:14</time>
      </trkpt>
      <trkpt lat="45.55631" lon="6.5392">
        <ele>1708.4968</ele>
        <time>2021-01-05T13:19:15</time>
      </trkpt>
      <trkpt lat="45.55631" lon="6.53902">
        <ele>1706.9956</ele>
        <time>2021-01-05T13:19:17</time>
      </trkpt>
      <trkpt lat="45.55628" lon="6.53882">
        <ele>1703.1301</ele>
        <time>2021-01-05T13:19:19</time>
      </trkpt>
      <trkpt lat="45.55628" lon="6.53872">
        <ele>1700.7114</ele>
        <time>2021-01-05T13:19:20</time>
      </trkpt>
      <trkpt lat="45.55629" lon="6.53857">
        <ele>1698.5183</ele>
        <time>2021-01-05T13:19:22</time>
      </trkpt>
      <trkpt lat="45.55629" lon="6.53848">
        <ele>1697.5176</ele>
        <time>2021-01-05T13:19:24</time>
      </trkpt>
      <trkpt lat="45.55628" lon="6.53844">
        <ele>1698.3438</ele>
        <time>2021-01-05T13:19:25</time>
      </trkpt>
      <trkpt lat="45.55628" lon="6.53842">
        <ele>1697.875</ele>
        <time>2021-01-05T13:19:26</time>
      </trkpt>
      <trkpt lat="45.55629" lon="6.5384">
        <ele>1697.6267</ele>
        <time>2021-01-05T13:19:27</time>
      </trkpt>
      <trkpt lat="45.55629" lon="6.53835">
        <ele>1696.6929</ele>
        <time>2021-01-05T13:19:28</time>
      </trkpt>
      <trkpt lat="45.55629" lon="6.53824">
        <ele>1695.063</ele>
        <time>2021-01-05T13:19:30</time>
      </trkpt>
      <trkpt lat="45.5563" lon="6.5382">
        <ele>1694.6504</ele>
        <time>2021-01-05T13:19:31</time>
      </trkpt>
      <trkpt lat="45.5563" lon="6.53808">
        <ele>1694.3984</ele>
        <time>2021-01-05T13:19:33</time>
      </trkpt>
      <trkpt lat="45.55621" lon="6.53732">
        <ele>1688.1309</ele>
        <time>2021-01-05T13:19:44</time>
      </trkpt>
      <trkpt lat="45.55613" lon="6.53708">
        <ele>1688.4448</ele>
        <time>2021-01-05T13:19:50</time>
      </trkpt>
      <trkpt lat="45.55608" lon="6.53695">
        <ele>1685.4199</ele>
        <time>2021-01-05T13:19:55</time>
      </trkpt>
      <trkpt lat="45.55604" lon="6.53686">
        <ele>1716.6567</ele>
        <time>2021-01-05T13:19:57</time>
      </trkpt>
      <trkpt lat="45.55603" lon="6.53679">
        <ele>1708.7065</ele>
        <time>2021-01-05T13:19:58</time>
      </trkpt>
      <trkpt lat="45.55601" lon="6.53673">
        <ele>1702.3374</ele>
        <time>2021-01-05T13:19:59</time>
      </trkpt>
      <trkpt lat="45.55582" lon="6.53641">
        <ele>1688.103</ele>
        <time>2021-01-05T13:20:03</time>
      </trkpt>
      <trkpt lat="45.55573" lon="6.53623">
        <ele>1684.2058</ele>
        <time>2021-01-05T13:20:07</time>
      </trkpt>
      <trkpt lat="45.55548" lon="6.53572">
        <ele>1680.5171</ele>
        <time>2021-01-05T13:20:23</time>
      </trkpt>
      <trkpt lat="45.5552" lon="6.5354">
        <ele>1676.0527</ele>
        <time>2021-01-05T13:20:31</time>
      </trkpt>
      <trkpt lat="45.55501" lon="6.53521">
        <ele>1673.4629</ele>
        <time>2021-01-05T13:20:36</time>
      </trkpt>
      <trkpt lat="45.55473" lon="6.53501">
        <ele>1673.9067</ele>
        <time>2021-01-05T13:20:43</time>
      </trkpt>
      <trkpt lat="45.55471" lon="6.53498">
        <ele>1673.8938</ele>
        <time>2021-01-05T13:20:44</time>
      </trkpt>
      <trkpt lat="45.5547" lon="6.53494">
        <ele>1674.0947</ele>
        <time>2021-01-05T13:20:45</time>
      </trkpt>
      <trkpt lat="45.55464" lon="6.53481">
        <ele>1671.6782</ele>
        <time>2021-01-05T13:20:48</time>
      </trkpt>
      <trkpt lat="45.55462" lon="6.53474">
        <ele>1671.5312</ele>
        <time>2021-01-05T13:20:50</time>
      </trkpt>
      <trkpt lat="45.55463" lon="6.5347">
        <ele>1671.3359</ele>
        <time>2021-01-05T13:20:51</time>
      </trkpt>
      <trkpt lat="45.55464" lon="6.53466">
        <ele>1669.0928</ele>
        <time>2021-01-05T13:20:52</time>
      </trkpt>
      <trkpt lat="45.55464" lon="6.53461">
        <ele>1667.9392</ele>
        <time>2021-01-05T13:20:53</time>
      </trkpt>
      <trkpt lat="45.55463" lon="6.53456">
        <ele>1667.1792</ele>
        <time>2021-01-05T13:20:54</time>
      </trkpt>
      <trkpt lat="45.55461" lon="6.53451">
        <ele>1666.7588</ele>
        <time>2021-01-05T13:20:55</time>
      </trkpt>
      <trkpt lat="45.55455" lon="6.53441">
        <ele>1662.7837</ele>
        <time>2021-01-05T13:20:57</time>
      </trkpt>
      <trkpt lat="45.55454" lon="6.53436">
        <ele>1661.0342</ele>
        <time>2021-01-05T13:20:58</time>
      </trkpt>
      <trkpt lat="45.55452" lon="6.5343">
        <ele>1659.4639</ele>
        <time>2021-01-05T13:20:59</time>
      </trkpt>
      <trkpt lat="45.55448" lon="6.53427">
        <ele>1657.9175</ele>
        <time>2021-01-05T13:21:00</time>
      </trkpt>
      <trkpt lat="45.55444" lon="6.53427">
        <ele>1657.9668</ele>
        <time>2021-01-05T13:21:01</time>
      </trkpt>
      <trkpt lat="45.55437" lon="6.53423">
        <ele>1656.9492</ele>
        <time>2021-01-05T13:21:04</time>
      </trkpt>
      <trkpt lat="45.55435" lon="6.53423">
        <ele>1656.418</ele>
        <time>2021-01-05T13:21:05</time>
      </trkpt>
      <trkpt lat="45.55434" lon="6.53419">
        <ele>1657.6458</ele>
        <time>2021-01-05T13:21:06</time>
      </trkpt>
      <trkpt lat="45.55433" lon="6.53417">
        <ele>1657.2534</ele>
        <time>2021-01-05T13:21:07</time>
      </trkpt>
      <trkpt lat="45.55432" lon="6.53413">
        <ele>1656.8975</ele>
        <time>2021-01-05T13:21:08</time>
      </trkpt>
      <trkpt lat="45.55428" lon="6.53404">
        <ele>1654.8506</ele>
        <time>2021-01-05T13:21:10</time>
      </trkpt>
      <trkpt lat="45.55421" lon="6.53387">
        <ele>1652.0283</ele>
        <time>2021-01-05T13:21:16</time>
      </trkpt>
      <trkpt lat="45.55421" lon="6.53383">
        <ele>1652.5049</ele>
        <time>2021-01-05T13:21:17</time>
      </trkpt>
      <trkpt lat="45.55421" lon="6.53378">
        <ele>1652.0583</ele>
        <time>2021-01-05T13:21:18</time>
      </trkpt>
      <trkpt lat="45.55422" lon="6.53373">
        <ele>1651.8025</ele>
        <time>2021-01-05T13:21:19</time>
      </trkpt>
      <trkpt lat="45.5542" lon="6.5337">
        <ele>1651.4609</ele>
        <time>2021-01-05T13:21:20</time>
      </trkpt>
      <trkpt lat="45.55419" lon="6.53367">
        <ele>1651.0095</ele>
        <time>2021-01-05T13:21:21</time>
      </trkpt>
      <trkpt lat="45.55417" lon="6.53365">
        <ele>1651.021</ele>
        <time>2021-01-05T13:21:22</time>
      </trkpt>
      <trkpt lat="45.55417" lon="6.53361">
        <ele>1633.6077</ele>
        <time>2021-01-05T13:21:23</time>
      </trkpt>
      <trkpt lat="45.55416" lon="6.53353">
        <ele>1640.27</ele>
        <time>2021-01-05T13:21:25</time>
      </trkpt>
      <trkpt lat="45.55415" lon="6.5335">
        <ele>1641.7996</ele>
        <time>2021-01-05T13:21:26</time>
      </trkpt>
      <trkpt lat="45.55414" lon="6.53348">
        <ele>1642.9336</ele>
        <time>2021-01-05T13:21:27</time>
      </trkpt>
      <trkpt lat="45.55414" lon="6.53344">
        <ele>1643.2539</ele>
        <time>2021-01-05T13:21:28</time>
      </trkpt>
      <trkpt lat="45.55417" lon="6.53341">
        <ele>1644.439</ele>
        <time>2021-01-05T13:21:30</time>
      </trkpt>
      <trkpt lat="45.55419" lon="6.5334">
        <ele>1644.7979</ele>
        <time>2021-01-05T13:21:31</time>
      </trkpt>
      <trkpt lat="45.55424" lon="6.53334">
        <ele>1643.1721</ele>
        <time>2021-01-05T13:21:33</time>
      </trkpt>
      <trkpt lat="45.55424" lon="6.5333">
        <ele>1643.209</ele>
        <time>2021-01-05T13:21:34</time>
      </trkpt>
      <trkpt lat="45.55422" lon="6.53326">
        <ele>1641.9722</ele>
        <time>2021-01-05T13:21:35</time>
      </trkpt>
      <trkpt lat="45.5542" lon="6.53324">
        <ele>1641.406</ele>
        <time>2021-01-05T13:21:36</time>
      </trkpt>
      <trkpt lat="45.55416" lon="6.53323">
        <ele>1641.5388</ele>
        <time>2021-01-05T13:21:37</time>
      </trkpt>
      <trkpt lat="45.55404" lon="6.5332">
        <ele>1640.1909</ele>
        <time>2021-01-05T13:21:41</time>
      </trkpt>
      <trkpt lat="45.55396" lon="6.53321">
        <ele>1637.5884</ele>
        <time>2021-01-05T13:21:44</time>
      </trkpt>
      <trkpt lat="45.55393" lon="6.53318">
        <ele>1636.1558</ele>
        <time>2021-01-05T13:21:45</time>
      </trkpt>
      <trkpt lat="45.55392" lon="6.53314">
        <ele>1635.3628</ele>
        <time>2021-01-05T13:21:46</time>
      </trkpt>
      <trkpt lat="45.55392" lon="6.53311">
        <ele>1636.0789</ele>
        <time>2021-01-05T13:21:47</time>
      </trkpt>
      <trkpt lat="45.55392" lon="6.53305">
        <ele>1637.8958</ele>
        <time>2021-01-05T13:21:48</time>
      </trkpt>
      <trkpt lat="45.55393" lon="6.53299">
        <ele>1635.5962</ele>
        <time>2021-01-05T13:21:49</time>
      </trkpt>
      <trkpt lat="45.55392" lon="6.53295">
        <ele>1634.565</ele>
        <time>2021-01-05T13:21:50</time>
      </trkpt>
      <trkpt lat="45.5539" lon="6.53292">
        <ele>1635.8765</ele>
        <time>2021-01-05T13:21:51</time>
      </trkpt>
      <trkpt lat="45.55387" lon="6.53287">
        <ele>1635.8911</ele>
        <time>2021-01-05T13:21:53</time>
      </trkpt>
      <trkpt lat="45.55387" lon="6.53282">
        <ele>1634.7358</ele>
        <time>2021-01-05T13:21:54</time>
      </trkpt>
      <trkpt lat="45.55388" lon="6.53277">
        <ele>1634.0232</ele>
        <time>2021-01-05T13:21:55</time>
      </trkpt>
      <trkpt lat="45.55389" lon="6.53274">
        <ele>1633.5413</ele>
        <time>2021-01-05T13:21:56</time>
      </trkpt>
      <trkpt lat="45.55388" lon="6.53271">
        <ele>1632.5757</ele>
        <time>2021-01-05T13:21:57</time>
      </trkpt>
      <trkpt lat="45.55388" lon="6.53266">
        <ele>1630.6362</ele>
        <time>2021-01-05T13:21:58</time>
      </trkpt>
      <trkpt lat="45.55388" lon="6.53252">
        <ele>1630.5442</ele>
        <time>2021-01-05T13:22:00</time>
      </trkpt>
      <trkpt lat="45.55385" lon="6.5325">
        <ele>1630.7046</ele>
        <time>2021-01-05T13:22:01</time>
      </trkpt>
      <trkpt lat="45.55383" lon="6.53248">
        <ele>1629.6729</ele>
        <time>2021-01-05T13:22:02</time>
      </trkpt>
      <trkpt lat="45.55377" lon="6.53242">
        <ele>1627.7363</ele>
        <time>2021-01-05T13:22:04</time>
      </trkpt>
      <trkpt lat="45.55368" lon="6.53234">
        <ele>1625.4346</ele>
        <time>2021-01-05T13:22:06</time>
      </trkpt>
      <trkpt lat="45.55363" lon="6.53225">
        <ele>1624.992</ele>
        <time>2021-01-05T13:22:08</time>
      </trkpt>
      <trkpt lat="45.55358" lon="6.53218">
        <ele>1623.6196</ele>
        <time>2021-01-05T13:22:10</time>
      </trkpt>
      <trkpt lat="45.55346" lon="6.53203">
        <ele>1621.2832</ele>
        <time>2021-01-05T13:22:14</time>
      </trkpt>
      <trkpt lat="45.55339" lon="6.53197">
        <ele>1621.4241</ele>
        <time>2021-01-05T13:22:16</time>
      </trkpt>
      <trkpt lat="45.55326" lon="6.53188">
        <ele>1621.7451</ele>
        <time>2021-01-05T13:22:20</time>
      </trkpt>
      <trkpt lat="45.55324" lon="6.53184">
        <ele>1621.3081</ele>
        <time>2021-01-05T13:22:21</time>
      </trkpt>
      <trkpt lat="45.55317" lon="6.53173">
        <ele>1620.584</ele>
        <time>2021-01-05T13:22:24</time>
      </trkpt>
      <trkpt lat="45.55315" lon="6.53166">
        <ele>1620.6504</ele>
        <time>2021-01-05T13:22:26</time>
      </trkpt>
      <trkpt lat="45.55315" lon="6.53162">
        <ele>1621.3359</ele>
        <time>2021-01-05T13:22:29</time>
      </trkpt>
      <trkpt lat="45.55316" lon="6.53162">
        <ele>1621.6768</ele>
        <time>2021-01-05T13:22:30</time>
      </trkpt>
      <trkpt lat="45.55316" lon="6.53162">
        <ele>1620.748</ele>
        <time>2021-01-05T13:22:31</time>
      </trkpt>
      <trkpt lat="45.55316" lon="6.53162">
        <ele>1620.3608</ele>
        <time>2021-01-05T13:22:44</time>
      </trkpt>
      <trkpt lat="45.55316" lon="6.53162">
        <ele>1620.0969</ele>
        <time>2021-01-05T13:22:45</time>
      </trkpt>
      <trkpt lat="45.55316" lon="6.53162">
        <ele>1620.3958</ele>
        <time>2021-01-05T13:23:15</time>
      </trkpt>
      <trkpt lat="45.55316" lon="6.53163">
        <ele>1619.5142</ele>
        <time>2021-01-05T13:23:16</time>
      </trkpt>
      <trkpt lat="45.55317" lon="6.53164">
        <ele>1619.519</ele>
        <time>2021-01-05T13:23:18</time>
      </trkpt>
      <trkpt lat="45.55317" lon="6.53165">
        <ele>1619.3564</ele>
        <time>2021-01-05T13:23:19</time>
      </trkpt>
      <trkpt lat="45.55317" lon="6.53164">
        <ele>1617.5117</ele>
        <time>2021-01-05T13:23:31</time>
      </trkpt>
      <trkpt lat="45.55317" lon="6.53164">
        <ele>1619.8042</ele>
        <time>2021-01-05T13:23:32</time>
      </trkpt>
      <trkpt lat="45.55317" lon="6.53164">
        <ele>1620.5757</ele>
        <time>2021-01-05T13:23:33</time>
      </trkpt>
      <trkpt lat="45.55317" lon="6.53166">
        <ele>1619.2495</ele>
        <time>2021-01-05T13:25:20</time>
      </trkpt>
      <trkpt lat="45.55317" lon="6.53166">
        <ele>1618.3882</ele>
        <time>2021-01-05T13:25:22</time>
      </trkpt>
      <trkpt lat="45.55317" lon="6.53166">
        <ele>1619.4541</ele>
        <time>2021-01-05T13:25:52</time>
      </trkpt>
      <trkpt lat="45.55316" lon="6.53166">
        <ele>1618.6357</ele>
        <time>2021-01-05T13:25:53</time>
      </trkpt>
      <trkpt lat="45.55316" lon="6.53169">
        <ele>1618.2056</ele>
        <time>2021-01-05T13:26:02</time>
      </trkpt>
    </trkseg>
  </trk>
</gpx>